<?xml version="1.0" encoding="UTF-8" standalone="no" ?>
<gpx xmlns="http://www.topografix.com/GPX/1/1" xmlns:xsi="http://www.w3.org/2001/XMLSchema-instance" xsi:schemaLocation="http://www.topografix.com/GPX/1/1 http://www.topografix.com/GPX/1/1/gpx.xsd" version="1.1" creator="VisuGPX - https://www.visugpx.com">
  <metadata>
    <name>RCA DI 07 02 4299999-RCA043</name>
    <desc><![CDATA[RCA DI 07 02]]></desc>
  </metadata>
  <trk>
    <name><![CDATA[4299999-RCA043]]></name>
    <trkseg>
      <trkpt lat="47.47281" lon="-0.55786">
        <ele>20</ele>
        <time>2021-02-06T11:25:18Z</time>
      </trkpt>
      <trkpt lat="47.47276" lon="-0.55794">
        <ele>20</ele>
        <time>2021-02-06T11:25:19Z</time>
      </trkpt>
      <trkpt lat="47.47271" lon="-0.55802">
        <ele>21</ele>
        <time>2021-02-06T11:25:21Z</time>
      </trkpt>
      <trkpt lat="47.47262" lon="-0.55819">
        <ele>21</ele>
        <time>2021-02-06T11:25:23Z</time>
      </trkpt>
      <trkpt lat="47.4723" lon="-0.55869">
        <ele>22</ele>
        <time>2021-02-06T11:25:31Z</time>
      </trkpt>
      <trkpt lat="47.47202" lon="-0.55916">
        <ele>20</ele>
        <time>2021-02-06T11:25:39Z</time>
      </trkpt>
      <trkpt lat="47.47167" lon="-0.55971">
        <ele>20</ele>
        <time>2021-02-06T11:25:48Z</time>
      </trkpt>
      <trkpt lat="47.47128" lon="-0.56038">
        <ele>24</ele>
        <time>2021-02-06T11:25:59Z</time>
      </trkpt>
      <trkpt lat="47.47108" lon="-0.56075">
        <ele>22</ele>
        <time>2021-02-06T11:26:04Z</time>
      </trkpt>
      <trkpt lat="47.47107" lon="-0.56076">
        <ele>22</ele>
        <time>2021-02-06T11:26:05Z</time>
      </trkpt>
      <trkpt lat="47.47099" lon="-0.56083">
        <ele>22</ele>
        <time>2021-02-06T11:26:06Z</time>
      </trkpt>
      <trkpt lat="47.47077" lon="-0.56121">
        <ele>21</ele>
        <time>2021-02-06T11:26:12Z</time>
      </trkpt>
      <trkpt lat="47.47012" lon="-0.56231">
        <ele>20</ele>
        <time>2021-02-06T11:26:30Z</time>
      </trkpt>
      <trkpt lat="47.47012" lon="-0.56231">
        <ele>20</ele>
        <time>2021-02-06T11:26:30Z</time>
      </trkpt>
      <trkpt lat="47.47005" lon="-0.56243">
        <ele>20</ele>
        <time>2021-02-06T11:26:32Z</time>
      </trkpt>
      <trkpt lat="47.46999" lon="-0.5623">
        <ele>21</ele>
        <time>2021-02-06T11:26:34Z</time>
      </trkpt>
      <trkpt lat="47.46989" lon="-0.56207">
        <ele>25</ele>
        <time>2021-02-06T11:26:37Z</time>
      </trkpt>
      <trkpt lat="47.4698" lon="-0.56183">
        <ele>28</ele>
        <time>2021-02-06T11:26:40Z</time>
      </trkpt>
      <trkpt lat="47.46978" lon="-0.56179">
        <ele>28</ele>
        <time>2021-02-06T11:26:41Z</time>
      </trkpt>
      <trkpt lat="47.46974" lon="-0.56182">
        <ele>29</ele>
        <time>2021-02-06T11:26:42Z</time>
      </trkpt>
      <trkpt lat="47.4689" lon="-0.56421">
        <ele>19</ele>
        <time>2021-02-06T11:27:14Z</time>
      </trkpt>
      <trkpt lat="47.46733" lon="-0.56547">
        <ele>24</ele>
        <time>2021-02-06T11:27:46Z</time>
      </trkpt>
      <trkpt lat="47.46502" lon="-0.56578">
        <ele>23</ele>
        <time>2021-02-06T11:28:27Z</time>
      </trkpt>
      <trkpt lat="47.46499" lon="-0.56578">
        <ele>23</ele>
        <time>2021-02-06T11:28:28Z</time>
      </trkpt>
      <trkpt lat="47.46499" lon="-0.56581">
        <ele>23</ele>
        <time>2021-02-06T11:28:28Z</time>
      </trkpt>
      <trkpt lat="47.46498" lon="-0.56583">
        <ele>23</ele>
        <time>2021-02-06T11:28:28Z</time>
      </trkpt>
      <trkpt lat="47.46497" lon="-0.56586">
        <ele>23</ele>
        <time>2021-02-06T11:28:29Z</time>
      </trkpt>
      <trkpt lat="47.46496" lon="-0.56589">
        <ele>23</ele>
        <time>2021-02-06T11:28:29Z</time>
      </trkpt>
      <trkpt lat="47.46495" lon="-0.56591">
        <ele>23</ele>
        <time>2021-02-06T11:28:29Z</time>
      </trkpt>
      <trkpt lat="47.46493" lon="-0.56593">
        <ele>22</ele>
        <time>2021-02-06T11:28:30Z</time>
      </trkpt>
      <trkpt lat="47.46491" lon="-0.56594">
        <ele>22</ele>
        <time>2021-02-06T11:28:30Z</time>
      </trkpt>
      <trkpt lat="47.4649" lon="-0.56595">
        <ele>22</ele>
        <time>2021-02-06T11:28:30Z</time>
      </trkpt>
      <trkpt lat="47.46488" lon="-0.56596">
        <ele>22</ele>
        <time>2021-02-06T11:28:31Z</time>
      </trkpt>
      <trkpt lat="47.46486" lon="-0.56597">
        <ele>22</ele>
        <time>2021-02-06T11:28:31Z</time>
      </trkpt>
      <trkpt lat="47.46484" lon="-0.56597">
        <ele>22</ele>
        <time>2021-02-06T11:28:32Z</time>
      </trkpt>
      <trkpt lat="47.46482" lon="-0.56597">
        <ele>22</ele>
        <time>2021-02-06T11:28:32Z</time>
      </trkpt>
      <trkpt lat="47.4648" lon="-0.56596">
        <ele>22</ele>
        <time>2021-02-06T11:28:32Z</time>
      </trkpt>
      <trkpt lat="47.46478" lon="-0.56595">
        <ele>22</ele>
        <time>2021-02-06T11:28:33Z</time>
      </trkpt>
      <trkpt lat="47.46476" lon="-0.56593">
        <ele>22</ele>
        <time>2021-02-06T11:28:33Z</time>
      </trkpt>
      <trkpt lat="47.46474" lon="-0.56592">
        <ele>22</ele>
        <time>2021-02-06T11:28:33Z</time>
      </trkpt>
      <trkpt lat="47.46473" lon="-0.5659">
        <ele>22</ele>
        <time>2021-02-06T11:28:34Z</time>
      </trkpt>
      <trkpt lat="47.46472" lon="-0.56587">
        <ele>23</ele>
        <time>2021-02-06T11:28:34Z</time>
      </trkpt>
      <trkpt lat="47.46471" lon="-0.56585">
        <ele>23</ele>
        <time>2021-02-06T11:28:34Z</time>
      </trkpt>
      <trkpt lat="47.4647" lon="-0.56582">
        <ele>23</ele>
        <time>2021-02-06T11:28:35Z</time>
      </trkpt>
      <trkpt lat="47.46469" lon="-0.56579">
        <ele>23</ele>
        <time>2021-02-06T11:28:35Z</time>
      </trkpt>
      <trkpt lat="47.46469" lon="-0.56576">
        <ele>23</ele>
        <time>2021-02-06T11:28:36Z</time>
      </trkpt>
      <trkpt lat="47.46469" lon="-0.56576">
        <ele>23</ele>
        <time>2021-02-06T11:28:36Z</time>
      </trkpt>
      <trkpt lat="47.46458" lon="-0.5658">
        <ele>23</ele>
        <time>2021-02-06T11:28:38Z</time>
      </trkpt>
      <trkpt lat="47.46422" lon="-0.56592">
        <ele>22</ele>
        <time>2021-02-06T11:28:44Z</time>
      </trkpt>
      <trkpt lat="47.46246" lon="-0.56652">
        <ele>22</ele>
        <time>2021-02-06T11:29:16Z</time>
      </trkpt>
      <trkpt lat="47.46246" lon="-0.56652">
        <ele>22</ele>
        <time>2021-02-06T11:29:16Z</time>
      </trkpt>
      <trkpt lat="47.46243" lon="-0.56658">
        <ele>21</ele>
        <time>2021-02-06T11:29:17Z</time>
      </trkpt>
      <trkpt lat="47.46241" lon="-0.56661">
        <ele>21</ele>
        <time>2021-02-06T11:29:18Z</time>
      </trkpt>
      <trkpt lat="47.46238" lon="-0.56662">
        <ele>21</ele>
        <time>2021-02-06T11:29:18Z</time>
      </trkpt>
      <trkpt lat="47.46234" lon="-0.56662">
        <ele>21</ele>
        <time>2021-02-06T11:29:19Z</time>
      </trkpt>
      <trkpt lat="47.46231" lon="-0.56661">
        <ele>21</ele>
        <time>2021-02-06T11:29:20Z</time>
      </trkpt>
      <trkpt lat="47.46229" lon="-0.56656">
        <ele>22</ele>
        <time>2021-02-06T11:29:20Z</time>
      </trkpt>
      <trkpt lat="47.46217" lon="-0.56665">
        <ele>21</ele>
        <time>2021-02-06T11:29:23Z</time>
      </trkpt>
      <trkpt lat="47.46152" lon="-0.56721">
        <ele>19</ele>
        <time>2021-02-06T11:29:36Z</time>
      </trkpt>
      <trkpt lat="47.4614" lon="-0.56731">
        <ele>19</ele>
        <time>2021-02-06T11:29:39Z</time>
      </trkpt>
      <trkpt lat="47.46131" lon="-0.56739">
        <ele>20</ele>
        <time>2021-02-06T11:29:40Z</time>
      </trkpt>
      <trkpt lat="47.46112" lon="-0.56752">
        <ele>20</ele>
        <time>2021-02-06T11:29:44Z</time>
      </trkpt>
      <trkpt lat="47.46079" lon="-0.56775">
        <ele>22</ele>
        <time>2021-02-06T11:29:51Z</time>
      </trkpt>
      <trkpt lat="47.4605" lon="-0.56795">
        <ele>23</ele>
        <time>2021-02-06T11:29:56Z</time>
      </trkpt>
      <trkpt lat="47.45994" lon="-0.56835">
        <ele>23</ele>
        <time>2021-02-06T11:30:07Z</time>
      </trkpt>
      <trkpt lat="47.45908" lon="-0.56896">
        <ele>25</ele>
        <time>2021-02-06T11:30:24Z</time>
      </trkpt>
      <trkpt lat="47.45856" lon="-0.56932">
        <ele>27</ele>
        <time>2021-02-06T11:30:35Z</time>
      </trkpt>
      <trkpt lat="47.45849" lon="-0.56937">
        <ele>27</ele>
        <time>2021-02-06T11:30:36Z</time>
      </trkpt>
      <trkpt lat="47.45829" lon="-0.56953">
        <ele>28</ele>
        <time>2021-02-06T11:30:40Z</time>
      </trkpt>
      <trkpt lat="47.45788" lon="-0.56987">
        <ele>27</ele>
        <time>2021-02-06T11:30:48Z</time>
      </trkpt>
      <trkpt lat="47.45751" lon="-0.57019">
        <ele>26</ele>
        <time>2021-02-06T11:30:56Z</time>
      </trkpt>
      <trkpt lat="47.45736" lon="-0.57032">
        <ele>25</ele>
        <time>2021-02-06T11:30:59Z</time>
      </trkpt>
      <trkpt lat="47.45733" lon="-0.57035">
        <ele>25</ele>
        <time>2021-02-06T11:31:00Z</time>
      </trkpt>
      <trkpt lat="47.45729" lon="-0.57041">
        <ele>25</ele>
        <time>2021-02-06T11:31:01Z</time>
      </trkpt>
      <trkpt lat="47.4572" lon="-0.57051">
        <ele>25</ele>
        <time>2021-02-06T11:31:03Z</time>
      </trkpt>
      <trkpt lat="47.45715" lon="-0.57056">
        <ele>25</ele>
        <time>2021-02-06T11:31:04Z</time>
      </trkpt>
      <trkpt lat="47.45709" lon="-0.57062">
        <ele>25</ele>
        <time>2021-02-06T11:31:05Z</time>
      </trkpt>
      <trkpt lat="47.45701" lon="-0.57073">
        <ele>25</ele>
        <time>2021-02-06T11:31:07Z</time>
      </trkpt>
      <trkpt lat="47.45694" lon="-0.57081">
        <ele>24</ele>
        <time>2021-02-06T11:31:09Z</time>
      </trkpt>
      <trkpt lat="47.45688" lon="-0.57088">
        <ele>24</ele>
        <time>2021-02-06T11:31:10Z</time>
      </trkpt>
      <trkpt lat="47.45674" lon="-0.57106">
        <ele>24</ele>
        <time>2021-02-06T11:31:13Z</time>
      </trkpt>
      <trkpt lat="47.45655" lon="-0.5713">
        <ele>23</ele>
        <time>2021-02-06T11:31:18Z</time>
      </trkpt>
      <trkpt lat="47.45647" lon="-0.57139">
        <ele>23</ele>
        <time>2021-02-06T11:31:20Z</time>
      </trkpt>
      <trkpt lat="47.4564" lon="-0.57148">
        <ele>22</ele>
        <time>2021-02-06T11:31:21Z</time>
      </trkpt>
      <trkpt lat="47.45635" lon="-0.57156">
        <ele>22</ele>
        <time>2021-02-06T11:31:22Z</time>
      </trkpt>
      <trkpt lat="47.45633" lon="-0.5716">
        <ele>22</ele>
        <time>2021-02-06T11:31:23Z</time>
      </trkpt>
      <trkpt lat="47.45629" lon="-0.57169">
        <ele>21</ele>
        <time>2021-02-06T11:31:24Z</time>
      </trkpt>
      <trkpt lat="47.45629" lon="-0.57169">
        <ele>21</ele>
        <time>2021-02-06T11:31:24Z</time>
      </trkpt>
      <trkpt lat="47.4563" lon="-0.57171">
        <ele>21</ele>
        <time>2021-02-06T11:31:25Z</time>
      </trkpt>
      <trkpt lat="47.4563" lon="-0.57174">
        <ele>21</ele>
        <time>2021-02-06T11:31:25Z</time>
      </trkpt>
      <trkpt lat="47.45631" lon="-0.57176">
        <ele>21</ele>
        <time>2021-02-06T11:31:25Z</time>
      </trkpt>
      <trkpt lat="47.4563" lon="-0.5718">
        <ele>21</ele>
        <time>2021-02-06T11:31:26Z</time>
      </trkpt>
      <trkpt lat="47.45629" lon="-0.57183">
        <ele>21</ele>
        <time>2021-02-06T11:31:26Z</time>
      </trkpt>
      <trkpt lat="47.45628" lon="-0.57186">
        <ele>21</ele>
        <time>2021-02-06T11:31:27Z</time>
      </trkpt>
      <trkpt lat="47.45627" lon="-0.57187">
        <ele>21</ele>
        <time>2021-02-06T11:31:27Z</time>
      </trkpt>
      <trkpt lat="47.45625" lon="-0.57189">
        <ele>21</ele>
        <time>2021-02-06T11:31:27Z</time>
      </trkpt>
      <trkpt lat="47.45623" lon="-0.5719">
        <ele>21</ele>
        <time>2021-02-06T11:31:28Z</time>
      </trkpt>
      <trkpt lat="47.45621" lon="-0.57189">
        <ele>21</ele>
        <time>2021-02-06T11:31:28Z</time>
      </trkpt>
      <trkpt lat="47.45619" lon="-0.57189">
        <ele>21</ele>
        <time>2021-02-06T11:31:28Z</time>
      </trkpt>
      <trkpt lat="47.45617" lon="-0.57187">
        <ele>21</ele>
        <time>2021-02-06T11:31:29Z</time>
      </trkpt>
      <trkpt lat="47.45616" lon="-0.57186">
        <ele>21</ele>
        <time>2021-02-06T11:31:29Z</time>
      </trkpt>
      <trkpt lat="47.45614" lon="-0.57184">
        <ele>22</ele>
        <time>2021-02-06T11:31:29Z</time>
      </trkpt>
      <trkpt lat="47.45613" lon="-0.57182">
        <ele>22</ele>
        <time>2021-02-06T11:31:30Z</time>
      </trkpt>
      <trkpt lat="47.45613" lon="-0.57176">
        <ele>22</ele>
        <time>2021-02-06T11:31:30Z</time>
      </trkpt>
      <trkpt lat="47.45613" lon="-0.57173">
        <ele>22</ele>
        <time>2021-02-06T11:31:31Z</time>
      </trkpt>
      <trkpt lat="47.45614" lon="-0.5717">
        <ele>22</ele>
        <time>2021-02-06T11:31:31Z</time>
      </trkpt>
      <trkpt lat="47.45614" lon="-0.57169">
        <ele>22</ele>
        <time>2021-02-06T11:31:31Z</time>
      </trkpt>
      <trkpt lat="47.45613" lon="-0.57166">
        <ele>22</ele>
        <time>2021-02-06T11:31:32Z</time>
      </trkpt>
      <trkpt lat="47.45608" lon="-0.57157">
        <ele>23</ele>
        <time>2021-02-06T11:31:33Z</time>
      </trkpt>
      <trkpt lat="47.45603" lon="-0.57151">
        <ele>24</ele>
        <time>2021-02-06T11:31:34Z</time>
      </trkpt>
      <trkpt lat="47.45602" lon="-0.57146">
        <ele>24</ele>
        <time>2021-02-06T11:31:35Z</time>
      </trkpt>
      <trkpt lat="47.45583" lon="-0.57116">
        <ele>27</ele>
        <time>2021-02-06T11:31:40Z</time>
      </trkpt>
      <trkpt lat="47.4558" lon="-0.57111">
        <ele>28</ele>
        <time>2021-02-06T11:31:41Z</time>
      </trkpt>
      <trkpt lat="47.45577" lon="-0.57109">
        <ele>28</ele>
        <time>2021-02-06T11:31:41Z</time>
      </trkpt>
      <trkpt lat="47.45574" lon="-0.57107">
        <ele>28</ele>
        <time>2021-02-06T11:31:42Z</time>
      </trkpt>
      <trkpt lat="47.45572" lon="-0.57107">
        <ele>29</ele>
        <time>2021-02-06T11:31:42Z</time>
      </trkpt>
      <trkpt lat="47.45569" lon="-0.57107">
        <ele>29</ele>
        <time>2021-02-06T11:31:43Z</time>
      </trkpt>
      <trkpt lat="47.45566" lon="-0.57108">
        <ele>29</ele>
        <time>2021-02-06T11:31:43Z</time>
      </trkpt>
      <trkpt lat="47.45562" lon="-0.5711">
        <ele>29</ele>
        <time>2021-02-06T11:31:44Z</time>
      </trkpt>
      <trkpt lat="47.45558" lon="-0.57113">
        <ele>29</ele>
        <time>2021-02-06T11:31:45Z</time>
      </trkpt>
      <trkpt lat="47.45508" lon="-0.57147">
        <ele>29</ele>
        <time>2021-02-06T11:31:55Z</time>
      </trkpt>
      <trkpt lat="47.45494" lon="-0.57155">
        <ele>30</ele>
        <time>2021-02-06T11:31:57Z</time>
      </trkpt>
      <trkpt lat="47.45477" lon="-0.57163">
        <ele>31</ele>
        <time>2021-02-06T11:32:00Z</time>
      </trkpt>
      <trkpt lat="47.45443" lon="-0.57179">
        <ele>32</ele>
        <time>2021-02-06T11:32:07Z</time>
      </trkpt>
      <trkpt lat="47.45412" lon="-0.57194">
        <ele>34</ele>
        <time>2021-02-06T11:32:13Z</time>
      </trkpt>
      <trkpt lat="47.45405" lon="-0.57197">
        <ele>34</ele>
        <time>2021-02-06T11:32:14Z</time>
      </trkpt>
      <trkpt lat="47.45397" lon="-0.57202">
        <ele>34</ele>
        <time>2021-02-06T11:32:15Z</time>
      </trkpt>
      <trkpt lat="47.45387" lon="-0.57207">
        <ele>34</ele>
        <time>2021-02-06T11:32:17Z</time>
      </trkpt>
      <trkpt lat="47.45379" lon="-0.57213">
        <ele>34</ele>
        <time>2021-02-06T11:32:19Z</time>
      </trkpt>
      <trkpt lat="47.45372" lon="-0.57218">
        <ele>34</ele>
        <time>2021-02-06T11:32:20Z</time>
      </trkpt>
      <trkpt lat="47.45365" lon="-0.57224">
        <ele>35</ele>
        <time>2021-02-06T11:32:22Z</time>
      </trkpt>
      <trkpt lat="47.45356" lon="-0.57232">
        <ele>35</ele>
        <time>2021-02-06T11:32:24Z</time>
      </trkpt>
      <trkpt lat="47.45349" lon="-0.5724">
        <ele>36</ele>
        <time>2021-02-06T11:32:25Z</time>
      </trkpt>
      <trkpt lat="47.45337" lon="-0.57253">
        <ele>37</ele>
        <time>2021-02-06T11:32:28Z</time>
      </trkpt>
      <trkpt lat="47.4533" lon="-0.57263">
        <ele>37</ele>
        <time>2021-02-06T11:32:30Z</time>
      </trkpt>
      <trkpt lat="47.45309" lon="-0.57288">
        <ele>36</ele>
        <time>2021-02-06T11:32:34Z</time>
      </trkpt>
      <trkpt lat="47.45286" lon="-0.57315">
        <ele>36</ele>
        <time>2021-02-06T11:32:40Z</time>
      </trkpt>
      <trkpt lat="47.45273" lon="-0.57331">
        <ele>36</ele>
        <time>2021-02-06T11:32:43Z</time>
      </trkpt>
      <trkpt lat="47.45256" lon="-0.57351">
        <ele>36</ele>
        <time>2021-02-06T11:32:46Z</time>
      </trkpt>
      <trkpt lat="47.45236" lon="-0.57372">
        <ele>37</ele>
        <time>2021-02-06T11:32:51Z</time>
      </trkpt>
      <trkpt lat="47.45197" lon="-0.57414">
        <ele>39</ele>
        <time>2021-02-06T11:32:59Z</time>
      </trkpt>
      <trkpt lat="47.45138" lon="-0.57476">
        <ele>41</ele>
        <time>2021-02-06T11:33:12Z</time>
      </trkpt>
      <trkpt lat="47.45071" lon="-0.57545">
        <ele>41</ele>
        <time>2021-02-06T11:33:27Z</time>
      </trkpt>
      <trkpt lat="47.45053" lon="-0.57565">
        <ele>41</ele>
        <time>2021-02-06T11:33:31Z</time>
      </trkpt>
      <trkpt lat="47.45045" lon="-0.57572">
        <ele>42</ele>
        <time>2021-02-06T11:33:33Z</time>
      </trkpt>
      <trkpt lat="47.45038" lon="-0.57577">
        <ele>42</ele>
        <time>2021-02-06T11:33:34Z</time>
      </trkpt>
      <trkpt lat="47.45033" lon="-0.57579">
        <ele>42</ele>
        <time>2021-02-06T11:33:35Z</time>
      </trkpt>
      <trkpt lat="47.45028" lon="-0.57581">
        <ele>42</ele>
        <time>2021-02-06T11:33:36Z</time>
      </trkpt>
      <trkpt lat="47.45022" lon="-0.57582">
        <ele>41</ele>
        <time>2021-02-06T11:33:37Z</time>
      </trkpt>
      <trkpt lat="47.45009" lon="-0.57583">
        <ele>41</ele>
        <time>2021-02-06T11:33:39Z</time>
      </trkpt>
      <trkpt lat="47.45005" lon="-0.57583">
        <ele>41</ele>
        <time>2021-02-06T11:33:40Z</time>
      </trkpt>
      <trkpt lat="47.45001" lon="-0.57582">
        <ele>41</ele>
        <time>2021-02-06T11:33:41Z</time>
      </trkpt>
      <trkpt lat="47.44994" lon="-0.5758">
        <ele>41</ele>
        <time>2021-02-06T11:33:42Z</time>
      </trkpt>
      <trkpt lat="47.44988" lon="-0.57577">
        <ele>40</ele>
        <time>2021-02-06T11:33:43Z</time>
      </trkpt>
      <trkpt lat="47.44984" lon="-0.57574">
        <ele>40</ele>
        <time>2021-02-06T11:33:44Z</time>
      </trkpt>
      <trkpt lat="47.44981" lon="-0.57572">
        <ele>40</ele>
        <time>2021-02-06T11:33:44Z</time>
      </trkpt>
      <trkpt lat="47.44977" lon="-0.57567">
        <ele>40</ele>
        <time>2021-02-06T11:33:45Z</time>
      </trkpt>
      <trkpt lat="47.44973" lon="-0.57561">
        <ele>39</ele>
        <time>2021-02-06T11:33:46Z</time>
      </trkpt>
      <trkpt lat="47.44973" lon="-0.57561">
        <ele>39</ele>
        <time>2021-02-06T11:33:46Z</time>
      </trkpt>
      <trkpt lat="47.44963" lon="-0.5753">
        <ele>37</ele>
        <time>2021-02-06T11:33:50Z</time>
      </trkpt>
      <trkpt lat="47.44952" lon="-0.57494">
        <ele>36</ele>
        <time>2021-02-06T11:33:55Z</time>
      </trkpt>
      <trkpt lat="47.44951" lon="-0.57492">
        <ele>36</ele>
        <time>2021-02-06T11:33:55Z</time>
      </trkpt>
      <trkpt lat="47.44948" lon="-0.57484">
        <ele>36</ele>
        <time>2021-02-06T11:33:57Z</time>
      </trkpt>
      <trkpt lat="47.44937" lon="-0.57452">
        <ele>36</ele>
        <time>2021-02-06T11:34:01Z</time>
      </trkpt>
      <trkpt lat="47.4493" lon="-0.57433">
        <ele>37</ele>
        <time>2021-02-06T11:34:03Z</time>
      </trkpt>
      <trkpt lat="47.44926" lon="-0.5742">
        <ele>37</ele>
        <time>2021-02-06T11:34:05Z</time>
      </trkpt>
      <trkpt lat="47.44924" lon="-0.57414">
        <ele>37</ele>
        <time>2021-02-06T11:34:06Z</time>
      </trkpt>
      <trkpt lat="47.44909" lon="-0.57371">
        <ele>38</ele>
        <time>2021-02-06T11:34:12Z</time>
      </trkpt>
      <trkpt lat="47.44905" lon="-0.57366">
        <ele>38</ele>
        <time>2021-02-06T11:34:13Z</time>
      </trkpt>
      <trkpt lat="47.449" lon="-0.57348">
        <ele>39</ele>
        <time>2021-02-06T11:34:15Z</time>
      </trkpt>
      <trkpt lat="47.44897" lon="-0.57343">
        <ele>39</ele>
        <time>2021-02-06T11:34:16Z</time>
      </trkpt>
      <trkpt lat="47.44889" lon="-0.57334">
        <ele>39</ele>
        <time>2021-02-06T11:34:18Z</time>
      </trkpt>
      <trkpt lat="47.44889" lon="-0.57334">
        <ele>39</ele>
        <time>2021-02-06T11:34:18Z</time>
      </trkpt>
      <trkpt lat="47.44884" lon="-0.57333">
        <ele>39</ele>
        <time>2021-02-06T11:34:19Z</time>
      </trkpt>
      <trkpt lat="47.44881" lon="-0.57332">
        <ele>39</ele>
        <time>2021-02-06T11:34:19Z</time>
      </trkpt>
      <trkpt lat="47.4487" lon="-0.57339">
        <ele>39</ele>
        <time>2021-02-06T11:34:21Z</time>
      </trkpt>
      <trkpt lat="47.44854" lon="-0.57351">
        <ele>39</ele>
        <time>2021-02-06T11:34:24Z</time>
      </trkpt>
      <trkpt lat="47.44841" lon="-0.57362">
        <ele>39</ele>
        <time>2021-02-06T11:34:27Z</time>
      </trkpt>
      <trkpt lat="47.44835" lon="-0.57362">
        <ele>39</ele>
        <time>2021-02-06T11:34:28Z</time>
      </trkpt>
      <trkpt lat="47.44832" lon="-0.57366">
        <ele>39</ele>
        <time>2021-02-06T11:34:29Z</time>
      </trkpt>
      <trkpt lat="47.44756" lon="-0.5743">
        <ele>40</ele>
        <time>2021-02-06T11:34:44Z</time>
      </trkpt>
      <trkpt lat="47.44755" lon="-0.57435">
        <ele>39</ele>
        <time>2021-02-06T11:34:45Z</time>
      </trkpt>
      <trkpt lat="47.44751" lon="-0.57439">
        <ele>39</ele>
        <time>2021-02-06T11:34:46Z</time>
      </trkpt>
      <trkpt lat="47.4475" lon="-0.5744">
        <ele>39</ele>
        <time>2021-02-06T11:34:46Z</time>
      </trkpt>
      <trkpt lat="47.44733" lon="-0.57455">
        <ele>39</ele>
        <time>2021-02-06T11:34:50Z</time>
      </trkpt>
      <trkpt lat="47.44721" lon="-0.57464">
        <ele>39</ele>
        <time>2021-02-06T11:34:52Z</time>
      </trkpt>
      <trkpt lat="47.44718" lon="-0.57463">
        <ele>39</ele>
        <time>2021-02-06T11:34:53Z</time>
      </trkpt>
      <trkpt lat="47.44703" lon="-0.57476">
        <ele>39</ele>
        <time>2021-02-06T11:34:56Z</time>
      </trkpt>
      <trkpt lat="47.44658" lon="-0.57515">
        <ele>41</ele>
        <time>2021-02-06T11:35:05Z</time>
      </trkpt>
      <trkpt lat="47.44644" lon="-0.57527">
        <ele>41</ele>
        <time>2021-02-06T11:35:08Z</time>
      </trkpt>
      <trkpt lat="47.44605" lon="-0.57561">
        <ele>42</ele>
        <time>2021-02-06T11:35:16Z</time>
      </trkpt>
      <trkpt lat="47.44603" lon="-0.57565">
        <ele>42</ele>
        <time>2021-02-06T11:35:17Z</time>
      </trkpt>
      <trkpt lat="47.44583" lon="-0.57583">
        <ele>42</ele>
        <time>2021-02-06T11:35:21Z</time>
      </trkpt>
      <trkpt lat="47.44565" lon="-0.576">
        <ele>42</ele>
        <time>2021-02-06T11:35:25Z</time>
      </trkpt>
      <trkpt lat="47.44545" lon="-0.57618">
        <ele>42</ele>
        <time>2021-02-06T11:35:29Z</time>
      </trkpt>
      <trkpt lat="47.44536" lon="-0.57625">
        <ele>42</ele>
        <time>2021-02-06T11:35:30Z</time>
      </trkpt>
      <trkpt lat="47.44528" lon="-0.57632">
        <ele>42</ele>
        <time>2021-02-06T11:35:32Z</time>
      </trkpt>
      <trkpt lat="47.44523" lon="-0.57636">
        <ele>42</ele>
        <time>2021-02-06T11:35:33Z</time>
      </trkpt>
      <trkpt lat="47.44522" lon="-0.57638">
        <ele>42</ele>
        <time>2021-02-06T11:35:33Z</time>
      </trkpt>
      <trkpt lat="47.44505" lon="-0.57653">
        <ele>42</ele>
        <time>2021-02-06T11:35:37Z</time>
      </trkpt>
      <trkpt lat="47.44486" lon="-0.5767">
        <ele>42</ele>
        <time>2021-02-06T11:35:41Z</time>
      </trkpt>
      <trkpt lat="47.44473" lon="-0.57681">
        <ele>42</ele>
        <time>2021-02-06T11:35:44Z</time>
      </trkpt>
      <trkpt lat="47.44473" lon="-0.57681">
        <ele>42</ele>
        <time>2021-02-06T11:35:44Z</time>
      </trkpt>
      <trkpt lat="47.4447" lon="-0.57675">
        <ele>42</ele>
        <time>2021-02-06T11:35:45Z</time>
      </trkpt>
      <trkpt lat="47.44449" lon="-0.57627">
        <ele>42</ele>
        <time>2021-02-06T11:35:51Z</time>
      </trkpt>
      <trkpt lat="47.44421" lon="-0.57569">
        <ele>42</ele>
        <time>2021-02-06T11:36:00Z</time>
      </trkpt>
      <trkpt lat="47.44404" lon="-0.57543">
        <ele>43</ele>
        <time>2021-02-06T11:36:04Z</time>
      </trkpt>
      <trkpt lat="47.44381" lon="-0.57508">
        <ele>43</ele>
        <time>2021-02-06T11:36:10Z</time>
      </trkpt>
      <trkpt lat="47.44355" lon="-0.57477">
        <ele>42</ele>
        <time>2021-02-06T11:36:16Z</time>
      </trkpt>
      <trkpt lat="47.44316" lon="-0.5743">
        <ele>43</ele>
        <time>2021-02-06T11:36:25Z</time>
      </trkpt>
      <trkpt lat="47.44291" lon="-0.57396">
        <ele>44</ele>
        <time>2021-02-06T11:36:31Z</time>
      </trkpt>
      <trkpt lat="47.4426" lon="-0.57354">
        <ele>46</ele>
        <time>2021-02-06T11:36:39Z</time>
      </trkpt>
      <trkpt lat="47.44247" lon="-0.57336">
        <ele>47</ele>
        <time>2021-02-06T11:36:42Z</time>
      </trkpt>
      <trkpt lat="47.44242" lon="-0.57329">
        <ele>47</ele>
        <time>2021-02-06T11:36:43Z</time>
      </trkpt>
      <trkpt lat="47.44213" lon="-0.57289">
        <ele>47</ele>
        <time>2021-02-06T11:36:50Z</time>
      </trkpt>
      <trkpt lat="47.44176" lon="-0.57236">
        <ele>46</ele>
        <time>2021-02-06T11:36:59Z</time>
      </trkpt>
      <trkpt lat="47.44174" lon="-0.57233">
        <ele>46</ele>
        <time>2021-02-06T11:37:00Z</time>
      </trkpt>
      <trkpt lat="47.44149" lon="-0.57194">
        <ele>44</ele>
        <time>2021-02-06T11:37:06Z</time>
      </trkpt>
      <trkpt lat="47.44137" lon="-0.57171">
        <ele>44</ele>
        <time>2021-02-06T11:37:10Z</time>
      </trkpt>
      <trkpt lat="47.44126" lon="-0.57156">
        <ele>43</ele>
        <time>2021-02-06T11:37:12Z</time>
      </trkpt>
      <trkpt lat="47.44116" lon="-0.57144">
        <ele>43</ele>
        <time>2021-02-06T11:37:15Z</time>
      </trkpt>
      <trkpt lat="47.44107" lon="-0.57137">
        <ele>43</ele>
        <time>2021-02-06T11:37:16Z</time>
      </trkpt>
      <trkpt lat="47.44101" lon="-0.57134">
        <ele>43</ele>
        <time>2021-02-06T11:37:18Z</time>
      </trkpt>
      <trkpt lat="47.44101" lon="-0.57134">
        <ele>43</ele>
        <time>2021-02-06T11:37:18Z</time>
      </trkpt>
      <trkpt lat="47.44096" lon="-0.57135">
        <ele>43</ele>
        <time>2021-02-06T11:37:18Z</time>
      </trkpt>
      <trkpt lat="47.44068" lon="-0.5715">
        <ele>42</ele>
        <time>2021-02-06T11:37:24Z</time>
      </trkpt>
      <trkpt lat="47.43993" lon="-0.57186">
        <ele>39</ele>
        <time>2021-02-06T11:37:38Z</time>
      </trkpt>
      <trkpt lat="47.4398" lon="-0.57191">
        <ele>39</ele>
        <time>2021-02-06T11:37:40Z</time>
      </trkpt>
      <trkpt lat="47.43978" lon="-0.57192">
        <ele>39</ele>
        <time>2021-02-06T11:37:41Z</time>
      </trkpt>
      <trkpt lat="47.43976" lon="-0.57193">
        <ele>39</ele>
        <time>2021-02-06T11:37:41Z</time>
      </trkpt>
      <trkpt lat="47.43939" lon="-0.57197">
        <ele>39</ele>
        <time>2021-02-06T11:37:48Z</time>
      </trkpt>
      <trkpt lat="47.43918" lon="-0.57199">
        <ele>39</ele>
        <time>2021-02-06T11:37:51Z</time>
      </trkpt>
      <trkpt lat="47.43852" lon="-0.57211">
        <ele>37</ele>
        <time>2021-02-06T11:38:03Z</time>
      </trkpt>
      <trkpt lat="47.43808" lon="-0.57217">
        <ele>37</ele>
        <time>2021-02-06T11:38:11Z</time>
      </trkpt>
      <trkpt lat="47.43792" lon="-0.5722">
        <ele>37</ele>
        <time>2021-02-06T11:38:14Z</time>
      </trkpt>
      <trkpt lat="47.4379" lon="-0.5722">
        <ele>37</ele>
        <time>2021-02-06T11:38:14Z</time>
      </trkpt>
      <trkpt lat="47.43788" lon="-0.5722">
        <ele>37</ele>
        <time>2021-02-06T11:38:15Z</time>
      </trkpt>
      <trkpt lat="47.43767" lon="-0.5722">
        <ele>37</ele>
        <time>2021-02-06T11:38:18Z</time>
      </trkpt>
      <trkpt lat="47.43759" lon="-0.57219">
        <ele>37</ele>
        <time>2021-02-06T11:38:20Z</time>
      </trkpt>
      <trkpt lat="47.43718" lon="-0.5721">
        <ele>37</ele>
        <time>2021-02-06T11:38:27Z</time>
      </trkpt>
      <trkpt lat="47.43656" lon="-0.57194">
        <ele>37</ele>
        <time>2021-02-06T11:38:38Z</time>
      </trkpt>
      <trkpt lat="47.43604" lon="-0.57181">
        <ele>36</ele>
        <time>2021-02-06T11:38:48Z</time>
      </trkpt>
      <trkpt lat="47.43562" lon="-0.57166">
        <ele>35</ele>
        <time>2021-02-06T11:38:55Z</time>
      </trkpt>
      <trkpt lat="47.43556" lon="-0.57164">
        <ele>35</ele>
        <time>2021-02-06T11:38:56Z</time>
      </trkpt>
      <trkpt lat="47.43553" lon="-0.57162">
        <ele>35</ele>
        <time>2021-02-06T11:38:57Z</time>
      </trkpt>
      <trkpt lat="47.43527" lon="-0.57143">
        <ele>35</ele>
        <time>2021-02-06T11:39:02Z</time>
      </trkpt>
      <trkpt lat="47.43468" lon="-0.57095">
        <ele>34</ele>
        <time>2021-02-06T11:39:14Z</time>
      </trkpt>
      <trkpt lat="47.43428" lon="-0.57059">
        <ele>34</ele>
        <time>2021-02-06T11:39:23Z</time>
      </trkpt>
      <trkpt lat="47.43376" lon="-0.57011">
        <ele>32</ele>
        <time>2021-02-06T11:39:33Z</time>
      </trkpt>
      <trkpt lat="47.43303" lon="-0.56936">
        <ele>33</ele>
        <time>2021-02-06T11:39:49Z</time>
      </trkpt>
      <trkpt lat="47.43278" lon="-0.56908">
        <ele>34</ele>
        <time>2021-02-06T11:39:55Z</time>
      </trkpt>
      <trkpt lat="47.43253" lon="-0.56882">
        <ele>34</ele>
        <time>2021-02-06T11:40:00Z</time>
      </trkpt>
      <trkpt lat="47.43218" lon="-0.56846">
        <ele>33</ele>
        <time>2021-02-06T11:40:08Z</time>
      </trkpt>
      <trkpt lat="47.43207" lon="-0.56834">
        <ele>33</ele>
        <time>2021-02-06T11:40:10Z</time>
      </trkpt>
      <trkpt lat="47.43202" lon="-0.5683">
        <ele>33</ele>
        <time>2021-02-06T11:40:11Z</time>
      </trkpt>
      <trkpt lat="47.43093" lon="-0.56714">
        <ele>29</ele>
        <time>2021-02-06T11:40:35Z</time>
      </trkpt>
      <trkpt lat="47.4304" lon="-0.56661">
        <ele>28</ele>
        <time>2021-02-06T11:40:47Z</time>
      </trkpt>
      <trkpt lat="47.42995" lon="-0.56618">
        <ele>28</ele>
        <time>2021-02-06T11:40:56Z</time>
      </trkpt>
      <trkpt lat="47.42989" lon="-0.56613">
        <ele>28</ele>
        <time>2021-02-06T11:40:57Z</time>
      </trkpt>
      <trkpt lat="47.42981" lon="-0.56607">
        <ele>28</ele>
        <time>2021-02-06T11:40:59Z</time>
      </trkpt>
      <trkpt lat="47.42953" lon="-0.56583">
        <ele>28</ele>
        <time>2021-02-06T11:41:05Z</time>
      </trkpt>
      <trkpt lat="47.42912" lon="-0.56557">
        <ele>28</ele>
        <time>2021-02-06T11:41:13Z</time>
      </trkpt>
      <trkpt lat="47.42873" lon="-0.56536">
        <ele>27</ele>
        <time>2021-02-06T11:41:20Z</time>
      </trkpt>
      <trkpt lat="47.42839" lon="-0.56525">
        <ele>27</ele>
        <time>2021-02-06T11:41:26Z</time>
      </trkpt>
      <trkpt lat="47.42835" lon="-0.56524">
        <ele>27</ele>
        <time>2021-02-06T11:41:27Z</time>
      </trkpt>
      <trkpt lat="47.42792" lon="-0.56512">
        <ele>28</ele>
        <time>2021-02-06T11:41:35Z</time>
      </trkpt>
      <trkpt lat="47.42765" lon="-0.56505">
        <ele>29</ele>
        <time>2021-02-06T11:41:40Z</time>
      </trkpt>
      <trkpt lat="47.427" lon="-0.56489">
        <ele>29</ele>
        <time>2021-02-06T11:41:51Z</time>
      </trkpt>
      <trkpt lat="47.42652" lon="-0.56476">
        <ele>29</ele>
        <time>2021-02-06T11:42:00Z</time>
      </trkpt>
      <trkpt lat="47.42648" lon="-0.56475">
        <ele>29</ele>
        <time>2021-02-06T11:42:01Z</time>
      </trkpt>
      <trkpt lat="47.4263" lon="-0.56473">
        <ele>29</ele>
        <time>2021-02-06T11:42:04Z</time>
      </trkpt>
      <trkpt lat="47.42628" lon="-0.56472">
        <ele>29</ele>
        <time>2021-02-06T11:42:04Z</time>
      </trkpt>
      <trkpt lat="47.4262" lon="-0.56472">
        <ele>29</ele>
        <time>2021-02-06T11:42:06Z</time>
      </trkpt>
      <trkpt lat="47.42611" lon="-0.56471">
        <ele>29</ele>
        <time>2021-02-06T11:42:07Z</time>
      </trkpt>
      <trkpt lat="47.42605" lon="-0.56472">
        <ele>29</ele>
        <time>2021-02-06T11:42:08Z</time>
      </trkpt>
      <trkpt lat="47.42599" lon="-0.56477">
        <ele>29</ele>
        <time>2021-02-06T11:42:10Z</time>
      </trkpt>
      <trkpt lat="47.42599" lon="-0.56477">
        <ele>29</ele>
        <time>2021-02-06T11:42:10Z</time>
      </trkpt>
      <trkpt lat="47.42596" lon="-0.56484">
        <ele>29</ele>
        <time>2021-02-06T11:42:11Z</time>
      </trkpt>
      <trkpt lat="47.42592" lon="-0.56489">
        <ele>29</ele>
        <time>2021-02-06T11:42:12Z</time>
      </trkpt>
      <trkpt lat="47.42587" lon="-0.56493">
        <ele>29</ele>
        <time>2021-02-06T11:42:13Z</time>
      </trkpt>
      <trkpt lat="47.42582" lon="-0.56494">
        <ele>29</ele>
        <time>2021-02-06T11:42:13Z</time>
      </trkpt>
      <trkpt lat="47.42577" lon="-0.56495">
        <ele>29</ele>
        <time>2021-02-06T11:42:14Z</time>
      </trkpt>
      <trkpt lat="47.42573" lon="-0.56494">
        <ele>29</ele>
        <time>2021-02-06T11:42:15Z</time>
      </trkpt>
      <trkpt lat="47.42572" lon="-0.56492">
        <ele>29</ele>
        <time>2021-02-06T11:42:15Z</time>
      </trkpt>
      <trkpt lat="47.4257" lon="-0.56492">
        <ele>29</ele>
        <time>2021-02-06T11:42:16Z</time>
      </trkpt>
      <trkpt lat="47.42567" lon="-0.56487">
        <ele>29</ele>
        <time>2021-02-06T11:42:17Z</time>
      </trkpt>
      <trkpt lat="47.42565" lon="-0.5648">
        <ele>29</ele>
        <time>2021-02-06T11:42:17Z</time>
      </trkpt>
      <trkpt lat="47.42563" lon="-0.56472">
        <ele>29</ele>
        <time>2021-02-06T11:42:19Z</time>
      </trkpt>
      <trkpt lat="47.42563" lon="-0.56465">
        <ele>29</ele>
        <time>2021-02-06T11:42:19Z</time>
      </trkpt>
      <trkpt lat="47.42559" lon="-0.56455">
        <ele>29</ele>
        <time>2021-02-06T11:42:21Z</time>
      </trkpt>
      <trkpt lat="47.42553" lon="-0.56449">
        <ele>29</ele>
        <time>2021-02-06T11:42:22Z</time>
      </trkpt>
      <trkpt lat="47.42543" lon="-0.56439">
        <ele>29</ele>
        <time>2021-02-06T11:42:24Z</time>
      </trkpt>
      <trkpt lat="47.42535" lon="-0.56433">
        <ele>29</ele>
        <time>2021-02-06T11:42:26Z</time>
      </trkpt>
      <trkpt lat="47.4252" lon="-0.56421">
        <ele>30</ele>
        <time>2021-02-06T11:42:29Z</time>
      </trkpt>
      <trkpt lat="47.42507" lon="-0.56406">
        <ele>30</ele>
        <time>2021-02-06T11:42:32Z</time>
      </trkpt>
      <trkpt lat="47.42497" lon="-0.56397">
        <ele>30</ele>
        <time>2021-02-06T11:42:34Z</time>
      </trkpt>
      <trkpt lat="47.42473" lon="-0.56374">
        <ele>31</ele>
        <time>2021-02-06T11:42:39Z</time>
      </trkpt>
      <trkpt lat="47.42457" lon="-0.56358">
        <ele>32</ele>
        <time>2021-02-06T11:42:42Z</time>
      </trkpt>
      <trkpt lat="47.42455" lon="-0.56355">
        <ele>32</ele>
        <time>2021-02-06T11:42:43Z</time>
      </trkpt>
      <trkpt lat="47.42443" lon="-0.5634">
        <ele>32</ele>
        <time>2021-02-06T11:42:46Z</time>
      </trkpt>
      <trkpt lat="47.42432" lon="-0.56324">
        <ele>33</ele>
        <time>2021-02-06T11:42:48Z</time>
      </trkpt>
      <trkpt lat="47.42412" lon="-0.56299">
        <ele>33</ele>
        <time>2021-02-06T11:42:53Z</time>
      </trkpt>
      <trkpt lat="47.42373" lon="-0.56248">
        <ele>34</ele>
        <time>2021-02-06T11:43:02Z</time>
      </trkpt>
      <trkpt lat="47.42368" lon="-0.5624">
        <ele>34</ele>
        <time>2021-02-06T11:43:04Z</time>
      </trkpt>
      <trkpt lat="47.42368" lon="-0.5624">
        <ele>34</ele>
        <time>2021-02-06T11:43:04Z</time>
      </trkpt>
      <trkpt lat="47.42368" lon="-0.56241">
        <ele>34</ele>
        <time>2021-02-06T11:43:04Z</time>
      </trkpt>
      <trkpt lat="47.42367" lon="-0.56241">
        <ele>34</ele>
        <time>2021-02-06T11:43:04Z</time>
      </trkpt>
      <trkpt lat="47.42367" lon="-0.56242">
        <ele>34</ele>
        <time>2021-02-06T11:43:04Z</time>
      </trkpt>
      <trkpt lat="47.42367" lon="-0.56243">
        <ele>34</ele>
        <time>2021-02-06T11:43:04Z</time>
      </trkpt>
      <trkpt lat="47.42366" lon="-0.56243">
        <ele>34</ele>
        <time>2021-02-06T11:43:04Z</time>
      </trkpt>
      <trkpt lat="47.42366" lon="-0.56244">
        <ele>34</ele>
        <time>2021-02-06T11:43:04Z</time>
      </trkpt>
      <trkpt lat="47.42365" lon="-0.56244">
        <ele>34</ele>
        <time>2021-02-06T11:43:05Z</time>
      </trkpt>
      <trkpt lat="47.42364" lon="-0.56245">
        <ele>34</ele>
        <time>2021-02-06T11:43:05Z</time>
      </trkpt>
      <trkpt lat="47.42363" lon="-0.56246">
        <ele>34</ele>
        <time>2021-02-06T11:43:05Z</time>
      </trkpt>
      <trkpt lat="47.42362" lon="-0.56246">
        <ele>34</ele>
        <time>2021-02-06T11:43:05Z</time>
      </trkpt>
      <trkpt lat="47.42361" lon="-0.56246">
        <ele>34</ele>
        <time>2021-02-06T11:43:05Z</time>
      </trkpt>
      <trkpt lat="47.4236" lon="-0.56246">
        <ele>34</ele>
        <time>2021-02-06T11:43:06Z</time>
      </trkpt>
      <trkpt lat="47.42359" lon="-0.56246">
        <ele>34</ele>
        <time>2021-02-06T11:43:06Z</time>
      </trkpt>
      <trkpt lat="47.42359" lon="-0.56245">
        <ele>34</ele>
        <time>2021-02-06T11:43:06Z</time>
      </trkpt>
      <trkpt lat="47.42358" lon="-0.56245">
        <ele>34</ele>
        <time>2021-02-06T11:43:06Z</time>
      </trkpt>
      <trkpt lat="47.42357" lon="-0.56244">
        <ele>34</ele>
        <time>2021-02-06T11:43:06Z</time>
      </trkpt>
      <trkpt lat="47.42357" lon="-0.56243">
        <ele>34</ele>
        <time>2021-02-06T11:43:06Z</time>
      </trkpt>
      <trkpt lat="47.42356" lon="-0.56243">
        <ele>34</ele>
        <time>2021-02-06T11:43:07Z</time>
      </trkpt>
      <trkpt lat="47.42356" lon="-0.56242">
        <ele>34</ele>
        <time>2021-02-06T11:43:07Z</time>
      </trkpt>
      <trkpt lat="47.42355" lon="-0.56242">
        <ele>34</ele>
        <time>2021-02-06T11:43:07Z</time>
      </trkpt>
      <trkpt lat="47.42355" lon="-0.56241">
        <ele>34</ele>
        <time>2021-02-06T11:43:07Z</time>
      </trkpt>
      <trkpt lat="47.42355" lon="-0.5624">
        <ele>34</ele>
        <time>2021-02-06T11:43:07Z</time>
      </trkpt>
      <trkpt lat="47.42354" lon="-0.56239">
        <ele>34</ele>
        <time>2021-02-06T11:43:07Z</time>
      </trkpt>
      <trkpt lat="47.42354" lon="-0.56238">
        <ele>34</ele>
        <time>2021-02-06T11:43:07Z</time>
      </trkpt>
      <trkpt lat="47.42354" lon="-0.56237">
        <ele>34</ele>
        <time>2021-02-06T11:43:08Z</time>
      </trkpt>
      <trkpt lat="47.42354" lon="-0.56236">
        <ele>34</ele>
        <time>2021-02-06T11:43:08Z</time>
      </trkpt>
      <trkpt lat="47.42354" lon="-0.56235">
        <ele>34</ele>
        <time>2021-02-06T11:43:08Z</time>
      </trkpt>
      <trkpt lat="47.42354" lon="-0.56234">
        <ele>34</ele>
        <time>2021-02-06T11:43:08Z</time>
      </trkpt>
      <trkpt lat="47.42354" lon="-0.56233">
        <ele>34</ele>
        <time>2021-02-06T11:43:08Z</time>
      </trkpt>
      <trkpt lat="47.42354" lon="-0.56232">
        <ele>34</ele>
        <time>2021-02-06T11:43:08Z</time>
      </trkpt>
      <trkpt lat="47.42354" lon="-0.56231">
        <ele>34</ele>
        <time>2021-02-06T11:43:08Z</time>
      </trkpt>
      <trkpt lat="47.42354" lon="-0.5623">
        <ele>34</ele>
        <time>2021-02-06T11:43:08Z</time>
      </trkpt>
      <trkpt lat="47.42355" lon="-0.56229">
        <ele>34</ele>
        <time>2021-02-06T11:43:09Z</time>
      </trkpt>
      <trkpt lat="47.42355" lon="-0.56228">
        <ele>34</ele>
        <time>2021-02-06T11:43:09Z</time>
      </trkpt>
      <trkpt lat="47.42355" lon="-0.56227">
        <ele>34</ele>
        <time>2021-02-06T11:43:09Z</time>
      </trkpt>
      <trkpt lat="47.42356" lon="-0.56227">
        <ele>34</ele>
        <time>2021-02-06T11:43:09Z</time>
      </trkpt>
      <trkpt lat="47.42356" lon="-0.56226">
        <ele>34</ele>
        <time>2021-02-06T11:43:09Z</time>
      </trkpt>
      <trkpt lat="47.42357" lon="-0.56226">
        <ele>34</ele>
        <time>2021-02-06T11:43:09Z</time>
      </trkpt>
      <trkpt lat="47.42348" lon="-0.56211">
        <ele>34</ele>
        <time>2021-02-06T11:43:12Z</time>
      </trkpt>
      <trkpt lat="47.42333" lon="-0.56189">
        <ele>35</ele>
        <time>2021-02-06T11:43:16Z</time>
      </trkpt>
      <trkpt lat="47.42322" lon="-0.56175">
        <ele>34</ele>
        <time>2021-02-06T11:43:18Z</time>
      </trkpt>
      <trkpt lat="47.42301" lon="-0.56153">
        <ele>34</ele>
        <time>2021-02-06T11:43:23Z</time>
      </trkpt>
      <trkpt lat="47.42273" lon="-0.56128">
        <ele>33</ele>
        <time>2021-02-06T11:43:29Z</time>
      </trkpt>
      <trkpt lat="47.42273" lon="-0.56128">
        <ele>33</ele>
        <time>2021-02-06T11:43:29Z</time>
      </trkpt>
      <trkpt lat="47.42295" lon="-0.56068">
        <ele>34</ele>
        <time>2021-02-06T11:43:37Z</time>
      </trkpt>
      <trkpt lat="47.42308" lon="-0.56026">
        <ele>33</ele>
        <time>2021-02-06T11:43:42Z</time>
      </trkpt>
      <trkpt lat="47.42315" lon="-0.55995">
        <ele>33</ele>
        <time>2021-02-06T11:43:46Z</time>
      </trkpt>
      <trkpt lat="47.42317" lon="-0.55978">
        <ele>33</ele>
        <time>2021-02-06T11:43:48Z</time>
      </trkpt>
      <trkpt lat="47.42317" lon="-0.55968">
        <ele>33</ele>
        <time>2021-02-06T11:43:50Z</time>
      </trkpt>
      <trkpt lat="47.42318" lon="-0.55945">
        <ele>33</ele>
        <time>2021-02-06T11:43:52Z</time>
      </trkpt>
      <trkpt lat="47.42317" lon="-0.55921">
        <ele>33</ele>
        <time>2021-02-06T11:43:55Z</time>
      </trkpt>
      <trkpt lat="47.4231" lon="-0.55857">
        <ele>33</ele>
        <time>2021-02-06T11:44:03Z</time>
      </trkpt>
      <trkpt lat="47.42299" lon="-0.55784">
        <ele>31</ele>
        <time>2021-02-06T11:44:12Z</time>
      </trkpt>
      <trkpt lat="47.42299" lon="-0.55784">
        <ele>31</ele>
        <time>2021-02-06T11:44:12Z</time>
      </trkpt>
      <trkpt lat="47.4229" lon="-0.55729">
        <ele>30</ele>
        <time>2021-02-06T11:44:19Z</time>
      </trkpt>
      <trkpt lat="47.42284" lon="-0.55681">
        <ele>29</ele>
        <time>2021-02-06T11:44:25Z</time>
      </trkpt>
      <trkpt lat="47.42281" lon="-0.55673">
        <ele>29</ele>
        <time>2021-02-06T11:44:26Z</time>
      </trkpt>
      <trkpt lat="47.42279" lon="-0.55664">
        <ele>29</ele>
        <time>2021-02-06T11:44:27Z</time>
      </trkpt>
      <trkpt lat="47.42277" lon="-0.55654">
        <ele>28</ele>
        <time>2021-02-06T11:44:28Z</time>
      </trkpt>
      <trkpt lat="47.42276" lon="-0.55645">
        <ele>28</ele>
        <time>2021-02-06T11:44:29Z</time>
      </trkpt>
      <trkpt lat="47.42276" lon="-0.55645">
        <ele>28</ele>
        <time>2021-02-06T11:44:29Z</time>
      </trkpt>
      <trkpt lat="47.42275" lon="-0.55645">
        <ele>28</ele>
        <time>2021-02-06T11:44:29Z</time>
      </trkpt>
      <trkpt lat="47.42274" lon="-0.55644">
        <ele>28</ele>
        <time>2021-02-06T11:44:30Z</time>
      </trkpt>
      <trkpt lat="47.42273" lon="-0.55642">
        <ele>28</ele>
        <time>2021-02-06T11:44:30Z</time>
      </trkpt>
      <trkpt lat="47.42272" lon="-0.55639">
        <ele>28</ele>
        <time>2021-02-06T11:44:30Z</time>
      </trkpt>
      <trkpt lat="47.42272" lon="-0.55637">
        <ele>28</ele>
        <time>2021-02-06T11:44:31Z</time>
      </trkpt>
      <trkpt lat="47.42273" lon="-0.55635">
        <ele>28</ele>
        <time>2021-02-06T11:44:31Z</time>
      </trkpt>
      <trkpt lat="47.42274" lon="-0.55633">
        <ele>27</ele>
        <time>2021-02-06T11:44:31Z</time>
      </trkpt>
      <trkpt lat="47.42276" lon="-0.55624">
        <ele>27</ele>
        <time>2021-02-06T11:44:32Z</time>
      </trkpt>
      <trkpt lat="47.42278" lon="-0.55616">
        <ele>27</ele>
        <time>2021-02-06T11:44:33Z</time>
      </trkpt>
      <trkpt lat="47.4228" lon="-0.5561">
        <ele>27</ele>
        <time>2021-02-06T11:44:34Z</time>
      </trkpt>
      <trkpt lat="47.42283" lon="-0.55603">
        <ele>27</ele>
        <time>2021-02-06T11:44:35Z</time>
      </trkpt>
      <trkpt lat="47.42284" lon="-0.55602">
        <ele>27</ele>
        <time>2021-02-06T11:44:35Z</time>
      </trkpt>
      <trkpt lat="47.42284" lon="-0.556">
        <ele>27</ele>
        <time>2021-02-06T11:44:36Z</time>
      </trkpt>
      <trkpt lat="47.42288" lon="-0.55594">
        <ele>27</ele>
        <time>2021-02-06T11:44:37Z</time>
      </trkpt>
      <trkpt lat="47.42288" lon="-0.55594">
        <ele>27</ele>
        <time>2021-02-06T11:44:37Z</time>
      </trkpt>
      <trkpt lat="47.4229" lon="-0.5559">
        <ele>27</ele>
        <time>2021-02-06T11:44:37Z</time>
      </trkpt>
      <trkpt lat="47.42292" lon="-0.55585">
        <ele>27</ele>
        <time>2021-02-06T11:44:38Z</time>
      </trkpt>
      <trkpt lat="47.42294" lon="-0.55582">
        <ele>27</ele>
        <time>2021-02-06T11:44:38Z</time>
      </trkpt>
      <trkpt lat="47.42311" lon="-0.55548">
        <ele>26</ele>
        <time>2021-02-06T11:44:44Z</time>
      </trkpt>
      <trkpt lat="47.42326" lon="-0.55516">
        <ele>26</ele>
        <time>2021-02-06T11:44:48Z</time>
      </trkpt>
      <trkpt lat="47.42339" lon="-0.55482">
        <ele>26</ele>
        <time>2021-02-06T11:44:53Z</time>
      </trkpt>
      <trkpt lat="47.42351" lon="-0.55431">
        <ele>25</ele>
        <time>2021-02-06T11:44:59Z</time>
      </trkpt>
      <trkpt lat="47.42353" lon="-0.5542">
        <ele>25</ele>
        <time>2021-02-06T11:45:01Z</time>
      </trkpt>
      <trkpt lat="47.42354" lon="-0.5541">
        <ele>25</ele>
        <time>2021-02-06T11:45:02Z</time>
      </trkpt>
      <trkpt lat="47.42354" lon="-0.55408">
        <ele>25</ele>
        <time>2021-02-06T11:45:02Z</time>
      </trkpt>
      <trkpt lat="47.42356" lon="-0.55401">
        <ele>24</ele>
        <time>2021-02-06T11:45:03Z</time>
      </trkpt>
      <trkpt lat="47.42362" lon="-0.55388">
        <ele>24</ele>
        <time>2021-02-06T11:45:05Z</time>
      </trkpt>
      <trkpt lat="47.42362" lon="-0.55388">
        <ele>24</ele>
        <time>2021-02-06T11:45:05Z</time>
      </trkpt>
      <trkpt lat="47.42362" lon="-0.55387">
        <ele>24</ele>
        <time>2021-02-06T11:45:05Z</time>
      </trkpt>
      <trkpt lat="47.42362" lon="-0.55386">
        <ele>24</ele>
        <time>2021-02-06T11:45:05Z</time>
      </trkpt>
      <trkpt lat="47.42362" lon="-0.55385">
        <ele>24</ele>
        <time>2021-02-06T11:45:05Z</time>
      </trkpt>
      <trkpt lat="47.42362" lon="-0.55384">
        <ele>24</ele>
        <time>2021-02-06T11:45:06Z</time>
      </trkpt>
      <trkpt lat="47.42362" lon="-0.55383">
        <ele>24</ele>
        <time>2021-02-06T11:45:06Z</time>
      </trkpt>
      <trkpt lat="47.42363" lon="-0.55383">
        <ele>24</ele>
        <time>2021-02-06T11:45:06Z</time>
      </trkpt>
      <trkpt lat="47.42363" lon="-0.55382">
        <ele>24</ele>
        <time>2021-02-06T11:45:06Z</time>
      </trkpt>
      <trkpt lat="47.42364" lon="-0.55381">
        <ele>24</ele>
        <time>2021-02-06T11:45:06Z</time>
      </trkpt>
      <trkpt lat="47.42363" lon="-0.55378">
        <ele>24</ele>
        <time>2021-02-06T11:45:07Z</time>
      </trkpt>
      <trkpt lat="47.42362" lon="-0.55373">
        <ele>24</ele>
        <time>2021-02-06T11:45:07Z</time>
      </trkpt>
      <trkpt lat="47.42362" lon="-0.55368">
        <ele>24</ele>
        <time>2021-02-06T11:45:08Z</time>
      </trkpt>
      <trkpt lat="47.42362" lon="-0.55354">
        <ele>24</ele>
        <time>2021-02-06T11:45:10Z</time>
      </trkpt>
      <trkpt lat="47.42362" lon="-0.55349">
        <ele>24</ele>
        <time>2021-02-06T11:45:10Z</time>
      </trkpt>
      <trkpt lat="47.42363" lon="-0.55333">
        <ele>23</ele>
        <time>2021-02-06T11:45:12Z</time>
      </trkpt>
      <trkpt lat="47.42362" lon="-0.55293">
        <ele>23</ele>
        <time>2021-02-06T11:45:17Z</time>
      </trkpt>
      <trkpt lat="47.42359" lon="-0.55248">
        <ele>22</ele>
        <time>2021-02-06T11:45:22Z</time>
      </trkpt>
      <trkpt lat="47.42359" lon="-0.55248">
        <ele>22</ele>
        <time>2021-02-06T11:45:22Z</time>
      </trkpt>
      <trkpt lat="47.42353" lon="-0.55184">
        <ele>21</ele>
        <time>2021-02-06T11:45:30Z</time>
      </trkpt>
      <trkpt lat="47.42352" lon="-0.55171">
        <ele>21</ele>
        <time>2021-02-06T11:45:32Z</time>
      </trkpt>
      <trkpt lat="47.4235" lon="-0.55147">
        <ele>21</ele>
        <time>2021-02-06T11:45:35Z</time>
      </trkpt>
      <trkpt lat="47.42346" lon="-0.551">
        <ele>21</ele>
        <time>2021-02-06T11:45:40Z</time>
      </trkpt>
      <trkpt lat="47.42346" lon="-0.55075">
        <ele>21</ele>
        <time>2021-02-06T11:45:43Z</time>
      </trkpt>
      <trkpt lat="47.42345" lon="-0.55064">
        <ele>20</ele>
        <time>2021-02-06T11:45:45Z</time>
      </trkpt>
      <trkpt lat="47.42343" lon="-0.55051">
        <ele>20</ele>
        <time>2021-02-06T11:45:46Z</time>
      </trkpt>
      <trkpt lat="47.42342" lon="-0.55047">
        <ele>20</ele>
        <time>2021-02-06T11:45:47Z</time>
      </trkpt>
      <trkpt lat="47.42341" lon="-0.55043">
        <ele>20</ele>
        <time>2021-02-06T11:45:47Z</time>
      </trkpt>
      <trkpt lat="47.42335" lon="-0.55032">
        <ele>20</ele>
        <time>2021-02-06T11:45:49Z</time>
      </trkpt>
      <trkpt lat="47.42334" lon="-0.55029">
        <ele>20</ele>
        <time>2021-02-06T11:45:49Z</time>
      </trkpt>
      <trkpt lat="47.42327" lon="-0.55014">
        <ele>19</ele>
        <time>2021-02-06T11:45:52Z</time>
      </trkpt>
      <trkpt lat="47.42325" lon="-0.55012">
        <ele>19</ele>
        <time>2021-02-06T11:45:52Z</time>
      </trkpt>
      <trkpt lat="47.42323" lon="-0.55006">
        <ele>19</ele>
        <time>2021-02-06T11:45:53Z</time>
      </trkpt>
      <trkpt lat="47.42323" lon="-0.54997">
        <ele>19</ele>
        <time>2021-02-06T11:45:54Z</time>
      </trkpt>
      <trkpt lat="47.42324" lon="-0.54992">
        <ele>19</ele>
        <time>2021-02-06T11:45:54Z</time>
      </trkpt>
      <trkpt lat="47.42325" lon="-0.54989">
        <ele>19</ele>
        <time>2021-02-06T11:45:55Z</time>
      </trkpt>
      <trkpt lat="47.42329" lon="-0.54982">
        <ele>19</ele>
        <time>2021-02-06T11:45:56Z</time>
      </trkpt>
      <trkpt lat="47.42359" lon="-0.54951">
        <ele>19</ele>
        <time>2021-02-06T11:46:03Z</time>
      </trkpt>
      <trkpt lat="47.42472" lon="-0.54839">
        <ele>19</ele>
        <time>2021-02-06T11:46:27Z</time>
      </trkpt>
      <trkpt lat="47.42485" lon="-0.54822">
        <ele>19</ele>
        <time>2021-02-06T11:46:30Z</time>
      </trkpt>
      <trkpt lat="47.42491" lon="-0.54813">
        <ele>19</ele>
        <time>2021-02-06T11:46:31Z</time>
      </trkpt>
      <trkpt lat="47.42502" lon="-0.54785">
        <ele>19</ele>
        <time>2021-02-06T11:46:35Z</time>
      </trkpt>
      <trkpt lat="47.42506" lon="-0.54771">
        <ele>19</ele>
        <time>2021-02-06T11:46:37Z</time>
      </trkpt>
      <trkpt lat="47.42521" lon="-0.54713">
        <ele>19</ele>
        <time>2021-02-06T11:46:45Z</time>
      </trkpt>
      <trkpt lat="47.42601" lon="-0.54421">
        <ele>21</ele>
        <time>2021-02-06T11:47:22Z</time>
      </trkpt>
      <trkpt lat="47.42609" lon="-0.54387">
        <ele>21</ele>
        <time>2021-02-06T11:47:27Z</time>
      </trkpt>
      <trkpt lat="47.42609" lon="-0.54387">
        <ele>21</ele>
        <time>2021-02-06T11:47:27Z</time>
      </trkpt>
      <trkpt lat="47.42626" lon="-0.54326">
        <ele>20</ele>
        <time>2021-02-06T11:47:35Z</time>
      </trkpt>
      <trkpt lat="47.42703" lon="-0.54041">
        <ele>17</ele>
        <time>2021-02-06T11:48:12Z</time>
      </trkpt>
      <trkpt lat="47.4272" lon="-0.53983">
        <ele>16</ele>
        <time>2021-02-06T11:48:19Z</time>
      </trkpt>
      <trkpt lat="47.42776" lon="-0.5378">
        <ele>17</ele>
        <time>2021-02-06T11:48:46Z</time>
      </trkpt>
      <trkpt lat="47.42812" lon="-0.53658">
        <ele>16</ele>
        <time>2021-02-06T11:49:02Z</time>
      </trkpt>
      <trkpt lat="47.42815" lon="-0.53647">
        <ele>16</ele>
        <time>2021-02-06T11:49:03Z</time>
      </trkpt>
      <trkpt lat="47.42867" lon="-0.53462">
        <ele>19</ele>
        <time>2021-02-06T11:49:27Z</time>
      </trkpt>
      <trkpt lat="47.42896" lon="-0.53367">
        <ele>20</ele>
        <time>2021-02-06T11:49:40Z</time>
      </trkpt>
      <trkpt lat="47.42903" lon="-0.53339">
        <ele>20</ele>
        <time>2021-02-06T11:49:43Z</time>
      </trkpt>
      <trkpt lat="47.42919" lon="-0.53279">
        <ele>20</ele>
        <time>2021-02-06T11:49:51Z</time>
      </trkpt>
      <trkpt lat="47.42931" lon="-0.53239">
        <ele>19</ele>
        <time>2021-02-06T11:49:56Z</time>
      </trkpt>
      <trkpt lat="47.42946" lon="-0.53181">
        <ele>19</ele>
        <time>2021-02-06T11:50:04Z</time>
      </trkpt>
      <trkpt lat="47.42975" lon="-0.53088">
        <ele>20</ele>
        <time>2021-02-06T11:50:16Z</time>
      </trkpt>
      <trkpt lat="47.42993" lon="-0.53026">
        <ele>20</ele>
        <time>2021-02-06T11:50:24Z</time>
      </trkpt>
      <trkpt lat="47.43006" lon="-0.52981">
        <ele>20</ele>
        <time>2021-02-06T11:50:30Z</time>
      </trkpt>
      <trkpt lat="47.43022" lon="-0.52928">
        <ele>20</ele>
        <time>2021-02-06T11:50:37Z</time>
      </trkpt>
      <trkpt lat="47.43027" lon="-0.52912">
        <ele>20</ele>
        <time>2021-02-06T11:50:39Z</time>
      </trkpt>
      <trkpt lat="47.43028" lon="-0.52907">
        <ele>20</ele>
        <time>2021-02-06T11:50:40Z</time>
      </trkpt>
      <trkpt lat="47.43031" lon="-0.52894">
        <ele>20</ele>
        <time>2021-02-06T11:50:42Z</time>
      </trkpt>
      <trkpt lat="47.43035" lon="-0.52876">
        <ele>20</ele>
        <time>2021-02-06T11:50:44Z</time>
      </trkpt>
      <trkpt lat="47.43045" lon="-0.52817">
        <ele>19</ele>
        <time>2021-02-06T11:50:51Z</time>
      </trkpt>
      <trkpt lat="47.43045" lon="-0.52817">
        <ele>19</ele>
        <time>2021-02-06T11:50:51Z</time>
      </trkpt>
      <trkpt lat="47.42996" lon="-0.52799">
        <ele>20</ele>
        <time>2021-02-06T11:51:00Z</time>
      </trkpt>
      <trkpt lat="47.42983" lon="-0.52796">
        <ele>20</ele>
        <time>2021-02-06T11:51:03Z</time>
      </trkpt>
      <trkpt lat="47.42961" lon="-0.52792">
        <ele>20</ele>
        <time>2021-02-06T11:51:06Z</time>
      </trkpt>
      <trkpt lat="47.4296" lon="-0.52792">
        <ele>20</ele>
        <time>2021-02-06T11:51:07Z</time>
      </trkpt>
      <trkpt lat="47.42947" lon="-0.52792">
        <ele>21</ele>
        <time>2021-02-06T11:51:09Z</time>
      </trkpt>
      <trkpt lat="47.4293" lon="-0.5279">
        <ele>21</ele>
        <time>2021-02-06T11:51:12Z</time>
      </trkpt>
      <trkpt lat="47.42914" lon="-0.52788">
        <ele>21</ele>
        <time>2021-02-06T11:51:15Z</time>
      </trkpt>
      <trkpt lat="47.42905" lon="-0.52787">
        <ele>21</ele>
        <time>2021-02-06T11:51:16Z</time>
      </trkpt>
      <trkpt lat="47.42886" lon="-0.52778">
        <ele>21</ele>
        <time>2021-02-06T11:51:20Z</time>
      </trkpt>
      <trkpt lat="47.42869" lon="-0.52771">
        <ele>22</ele>
        <time>2021-02-06T11:51:23Z</time>
      </trkpt>
      <trkpt lat="47.42854" lon="-0.52765">
        <ele>22</ele>
        <time>2021-02-06T11:51:26Z</time>
      </trkpt>
      <trkpt lat="47.42824" lon="-0.52749">
        <ele>23</ele>
        <time>2021-02-06T11:51:32Z</time>
      </trkpt>
      <trkpt lat="47.42799" lon="-0.52736">
        <ele>23</ele>
        <time>2021-02-06T11:51:36Z</time>
      </trkpt>
      <trkpt lat="47.42772" lon="-0.52719">
        <ele>22</ele>
        <time>2021-02-06T11:51:42Z</time>
      </trkpt>
      <trkpt lat="47.4274" lon="-0.52697">
        <ele>21</ele>
        <time>2021-02-06T11:51:48Z</time>
      </trkpt>
      <trkpt lat="47.42736" lon="-0.52694">
        <ele>21</ele>
        <time>2021-02-06T11:51:49Z</time>
      </trkpt>
      <trkpt lat="47.42736" lon="-0.52694">
        <ele>21</ele>
        <time>2021-02-06T11:51:49Z</time>
      </trkpt>
      <trkpt lat="47.42729" lon="-0.52689">
        <ele>21</ele>
        <time>2021-02-06T11:51:50Z</time>
      </trkpt>
      <trkpt lat="47.42716" lon="-0.52678">
        <ele>20</ele>
        <time>2021-02-06T11:51:53Z</time>
      </trkpt>
      <trkpt lat="47.4269" lon="-0.52659">
        <ele>20</ele>
        <time>2021-02-06T11:51:58Z</time>
      </trkpt>
      <trkpt lat="47.42672" lon="-0.52647">
        <ele>20</ele>
        <time>2021-02-06T11:52:01Z</time>
      </trkpt>
      <trkpt lat="47.42651" lon="-0.52634">
        <ele>20</ele>
        <time>2021-02-06T11:52:05Z</time>
      </trkpt>
      <trkpt lat="47.42651" lon="-0.52634">
        <ele>20</ele>
        <time>2021-02-06T11:52:05Z</time>
      </trkpt>
      <trkpt lat="47.42643" lon="-0.52631">
        <ele>20</ele>
        <time>2021-02-06T11:52:07Z</time>
      </trkpt>
      <trkpt lat="47.42621" lon="-0.52614">
        <ele>21</ele>
        <time>2021-02-06T11:52:11Z</time>
      </trkpt>
      <trkpt lat="47.42615" lon="-0.52611">
        <ele>21</ele>
        <time>2021-02-06T11:52:12Z</time>
      </trkpt>
      <trkpt lat="47.42597" lon="-0.52598">
        <ele>22</ele>
        <time>2021-02-06T11:52:16Z</time>
      </trkpt>
      <trkpt lat="47.42592" lon="-0.52594">
        <ele>22</ele>
        <time>2021-02-06T11:52:17Z</time>
      </trkpt>
      <trkpt lat="47.42549" lon="-0.52563">
        <ele>23</ele>
        <time>2021-02-06T11:52:25Z</time>
      </trkpt>
      <trkpt lat="47.42507" lon="-0.52533">
        <ele>23</ele>
        <time>2021-02-06T11:52:34Z</time>
      </trkpt>
      <trkpt lat="47.42504" lon="-0.52532">
        <ele>23</ele>
        <time>2021-02-06T11:52:34Z</time>
      </trkpt>
      <trkpt lat="47.42497" lon="-0.5253">
        <ele>23</ele>
        <time>2021-02-06T11:52:36Z</time>
      </trkpt>
      <trkpt lat="47.4249" lon="-0.5253">
        <ele>23</ele>
        <time>2021-02-06T11:52:37Z</time>
      </trkpt>
      <trkpt lat="47.4249" lon="-0.5253">
        <ele>23</ele>
        <time>2021-02-06T11:52:37Z</time>
      </trkpt>
      <trkpt lat="47.42487" lon="-0.52533">
        <ele>23</ele>
        <time>2021-02-06T11:52:37Z</time>
      </trkpt>
      <trkpt lat="47.42486" lon="-0.52535">
        <ele>23</ele>
        <time>2021-02-06T11:52:38Z</time>
      </trkpt>
      <trkpt lat="47.42482" lon="-0.52537">
        <ele>23</ele>
        <time>2021-02-06T11:52:39Z</time>
      </trkpt>
      <trkpt lat="47.42476" lon="-0.52537">
        <ele>23</ele>
        <time>2021-02-06T11:52:40Z</time>
      </trkpt>
      <trkpt lat="47.42473" lon="-0.52533">
        <ele>23</ele>
        <time>2021-02-06T11:52:40Z</time>
      </trkpt>
      <trkpt lat="47.42472" lon="-0.5253">
        <ele>23</ele>
        <time>2021-02-06T11:52:41Z</time>
      </trkpt>
      <trkpt lat="47.42471" lon="-0.52528">
        <ele>23</ele>
        <time>2021-02-06T11:52:41Z</time>
      </trkpt>
      <trkpt lat="47.4247" lon="-0.52526">
        <ele>23</ele>
        <time>2021-02-06T11:52:41Z</time>
      </trkpt>
      <trkpt lat="47.4247" lon="-0.52524">
        <ele>23</ele>
        <time>2021-02-06T11:52:42Z</time>
      </trkpt>
      <trkpt lat="47.4247" lon="-0.52517">
        <ele>23</ele>
        <time>2021-02-06T11:52:42Z</time>
      </trkpt>
      <trkpt lat="47.42463" lon="-0.52508">
        <ele>23</ele>
        <time>2021-02-06T11:52:44Z</time>
      </trkpt>
      <trkpt lat="47.42459" lon="-0.52505">
        <ele>23</ele>
        <time>2021-02-06T11:52:45Z</time>
      </trkpt>
      <trkpt lat="47.42455" lon="-0.52502">
        <ele>23</ele>
        <time>2021-02-06T11:52:46Z</time>
      </trkpt>
      <trkpt lat="47.42455" lon="-0.52501">
        <ele>23</ele>
        <time>2021-02-06T11:52:46Z</time>
      </trkpt>
      <trkpt lat="47.42453" lon="-0.525">
        <ele>23</ele>
        <time>2021-02-06T11:52:46Z</time>
      </trkpt>
      <trkpt lat="47.42451" lon="-0.52497">
        <ele>23</ele>
        <time>2021-02-06T11:52:47Z</time>
      </trkpt>
      <trkpt lat="47.42449" lon="-0.52491">
        <ele>23</ele>
        <time>2021-02-06T11:52:47Z</time>
      </trkpt>
      <trkpt lat="47.42444" lon="-0.52487">
        <ele>23</ele>
        <time>2021-02-06T11:52:48Z</time>
      </trkpt>
      <trkpt lat="47.42385" lon="-0.52445">
        <ele>24</ele>
        <time>2021-02-06T11:53:00Z</time>
      </trkpt>
      <trkpt lat="47.42378" lon="-0.5244">
        <ele>24</ele>
        <time>2021-02-06T11:53:02Z</time>
      </trkpt>
      <trkpt lat="47.4236" lon="-0.52428">
        <ele>25</ele>
        <time>2021-02-06T11:53:05Z</time>
      </trkpt>
      <trkpt lat="47.42312" lon="-0.52392">
        <ele>24</ele>
        <time>2021-02-06T11:53:15Z</time>
      </trkpt>
      <trkpt lat="47.42303" lon="-0.52387">
        <ele>23</ele>
        <time>2021-02-06T11:53:16Z</time>
      </trkpt>
      <trkpt lat="47.42296" lon="-0.52383">
        <ele>23</ele>
        <time>2021-02-06T11:53:18Z</time>
      </trkpt>
      <trkpt lat="47.42286" lon="-0.52377">
        <ele>23</ele>
        <time>2021-02-06T11:53:20Z</time>
      </trkpt>
      <trkpt lat="47.42259" lon="-0.5237">
        <ele>21</ele>
        <time>2021-02-06T11:53:24Z</time>
      </trkpt>
      <trkpt lat="47.42259" lon="-0.5237">
        <ele>21</ele>
        <time>2021-02-06T11:53:24Z</time>
      </trkpt>
      <trkpt lat="47.42254" lon="-0.52369">
        <ele>21</ele>
        <time>2021-02-06T11:53:25Z</time>
      </trkpt>
      <trkpt lat="47.42249" lon="-0.52369">
        <ele>21</ele>
        <time>2021-02-06T11:53:26Z</time>
      </trkpt>
      <trkpt lat="47.41979" lon="-0.5235">
        <ele>17</ele>
        <time>2021-02-06T11:54:14Z</time>
      </trkpt>
      <trkpt lat="47.41977" lon="-0.5235">
        <ele>17</ele>
        <time>2021-02-06T11:54:15Z</time>
      </trkpt>
      <trkpt lat="47.41972" lon="-0.52349">
        <ele>18</ele>
        <time>2021-02-06T11:54:16Z</time>
      </trkpt>
      <trkpt lat="47.41972" lon="-0.52349">
        <ele>18</ele>
        <time>2021-02-06T11:54:16Z</time>
      </trkpt>
      <trkpt lat="47.41859" lon="-0.52339">
        <ele>22</ele>
        <time>2021-02-06T11:54:36Z</time>
      </trkpt>
      <trkpt lat="47.41856" lon="-0.52337">
        <ele>22</ele>
        <time>2021-02-06T11:54:36Z</time>
      </trkpt>
      <trkpt lat="47.4185" lon="-0.52334">
        <ele>22</ele>
        <time>2021-02-06T11:54:37Z</time>
      </trkpt>
      <trkpt lat="47.4185" lon="-0.52334">
        <ele>22</ele>
        <time>2021-02-06T11:54:37Z</time>
      </trkpt>
      <trkpt lat="47.41849" lon="-0.52336">
        <ele>22</ele>
        <time>2021-02-06T11:54:38Z</time>
      </trkpt>
      <trkpt lat="47.41847" lon="-0.52337">
        <ele>22</ele>
        <time>2021-02-06T11:54:38Z</time>
      </trkpt>
      <trkpt lat="47.41846" lon="-0.52338">
        <ele>22</ele>
        <time>2021-02-06T11:54:38Z</time>
      </trkpt>
      <trkpt lat="47.41844" lon="-0.52339">
        <ele>22</ele>
        <time>2021-02-06T11:54:39Z</time>
      </trkpt>
      <trkpt lat="47.41843" lon="-0.52339">
        <ele>22</ele>
        <time>2021-02-06T11:54:39Z</time>
      </trkpt>
      <trkpt lat="47.41841" lon="-0.52339">
        <ele>22</ele>
        <time>2021-02-06T11:54:39Z</time>
      </trkpt>
      <trkpt lat="47.41839" lon="-0.52338">
        <ele>22</ele>
        <time>2021-02-06T11:54:40Z</time>
      </trkpt>
      <trkpt lat="47.41838" lon="-0.52337">
        <ele>22</ele>
        <time>2021-02-06T11:54:40Z</time>
      </trkpt>
      <trkpt lat="47.41837" lon="-0.52335">
        <ele>22</ele>
        <time>2021-02-06T11:54:40Z</time>
      </trkpt>
      <trkpt lat="47.41836" lon="-0.52333">
        <ele>22</ele>
        <time>2021-02-06T11:54:40Z</time>
      </trkpt>
      <trkpt lat="47.41835" lon="-0.52332">
        <ele>22</ele>
        <time>2021-02-06T11:54:41Z</time>
      </trkpt>
      <trkpt lat="47.41833" lon="-0.52334">
        <ele>22</ele>
        <time>2021-02-06T11:54:41Z</time>
      </trkpt>
      <trkpt lat="47.41831" lon="-0.52335">
        <ele>22</ele>
        <time>2021-02-06T11:54:41Z</time>
      </trkpt>
      <trkpt lat="47.41829" lon="-0.52336">
        <ele>22</ele>
        <time>2021-02-06T11:54:42Z</time>
      </trkpt>
      <trkpt lat="47.41827" lon="-0.52336">
        <ele>22</ele>
        <time>2021-02-06T11:54:42Z</time>
      </trkpt>
      <trkpt lat="47.4176" lon="-0.52335">
        <ele>22</ele>
        <time>2021-02-06T11:54:54Z</time>
      </trkpt>
      <trkpt lat="47.4169" lon="-0.52327">
        <ele>23</ele>
        <time>2021-02-06T11:55:07Z</time>
      </trkpt>
      <trkpt lat="47.4162" lon="-0.52324">
        <ele>24</ele>
        <time>2021-02-06T11:55:19Z</time>
      </trkpt>
      <trkpt lat="47.4159" lon="-0.52322">
        <ele>24</ele>
        <time>2021-02-06T11:55:24Z</time>
      </trkpt>
      <trkpt lat="47.41564" lon="-0.52321">
        <ele>24</ele>
        <time>2021-02-06T11:55:29Z</time>
      </trkpt>
      <trkpt lat="47.41499" lon="-0.52313">
        <ele>24</ele>
        <time>2021-02-06T11:55:41Z</time>
      </trkpt>
      <trkpt lat="47.4149" lon="-0.52312">
        <ele>24</ele>
        <time>2021-02-06T11:55:42Z</time>
      </trkpt>
      <trkpt lat="47.41479" lon="-0.52313">
        <ele>24</ele>
        <time>2021-02-06T11:55:44Z</time>
      </trkpt>
      <trkpt lat="47.41471" lon="-0.52313">
        <ele>23</ele>
        <time>2021-02-06T11:55:46Z</time>
      </trkpt>
      <trkpt lat="47.41386" lon="-0.52332">
        <ele>22</ele>
        <time>2021-02-06T11:56:01Z</time>
      </trkpt>
      <trkpt lat="47.41367" lon="-0.52338">
        <ele>21</ele>
        <time>2021-02-06T11:56:04Z</time>
      </trkpt>
      <trkpt lat="47.41356" lon="-0.52342">
        <ele>21</ele>
        <time>2021-02-06T11:56:06Z</time>
      </trkpt>
      <trkpt lat="47.41339" lon="-0.52346">
        <ele>21</ele>
        <time>2021-02-06T11:56:09Z</time>
      </trkpt>
      <trkpt lat="47.41263" lon="-0.52368">
        <ele>22</ele>
        <time>2021-02-06T11:56:23Z</time>
      </trkpt>
      <trkpt lat="47.41194" lon="-0.52385">
        <ele>19</ele>
        <time>2021-02-06T11:56:36Z</time>
      </trkpt>
      <trkpt lat="47.41194" lon="-0.52385">
        <ele>19</ele>
        <time>2021-02-06T11:56:36Z</time>
      </trkpt>
      <trkpt lat="47.41186" lon="-0.52388">
        <ele>19</ele>
        <time>2021-02-06T11:56:37Z</time>
      </trkpt>
      <trkpt lat="47.41163" lon="-0.52396">
        <ele>18</ele>
        <time>2021-02-06T11:56:41Z</time>
      </trkpt>
      <trkpt lat="47.4108" lon="-0.52424">
        <ele>18</ele>
        <time>2021-02-06T11:56:56Z</time>
      </trkpt>
      <trkpt lat="47.41051" lon="-0.52435">
        <ele>19</ele>
        <time>2021-02-06T11:57:02Z</time>
      </trkpt>
      <trkpt lat="47.41039" lon="-0.52439">
        <ele>20</ele>
        <time>2021-02-06T11:57:04Z</time>
      </trkpt>
      <trkpt lat="47.41037" lon="-0.52439">
        <ele>20</ele>
        <time>2021-02-06T11:57:04Z</time>
      </trkpt>
      <trkpt lat="47.41033" lon="-0.52441">
        <ele>20</ele>
        <time>2021-02-06T11:57:05Z</time>
      </trkpt>
      <trkpt lat="47.41033" lon="-0.52441">
        <ele>20</ele>
        <time>2021-02-06T11:57:05Z</time>
      </trkpt>
      <trkpt lat="47.41018" lon="-0.52448">
        <ele>21</ele>
        <time>2021-02-06T11:57:08Z</time>
      </trkpt>
      <trkpt lat="47.41001" lon="-0.52454">
        <ele>21</ele>
        <time>2021-02-06T11:57:11Z</time>
      </trkpt>
      <trkpt lat="47.40998" lon="-0.52455">
        <ele>22</ele>
        <time>2021-02-06T11:57:12Z</time>
      </trkpt>
      <trkpt lat="47.4099" lon="-0.52458">
        <ele>21</ele>
        <time>2021-02-06T11:57:13Z</time>
      </trkpt>
      <trkpt lat="47.40981" lon="-0.52465">
        <ele>21</ele>
        <time>2021-02-06T11:57:15Z</time>
      </trkpt>
      <trkpt lat="47.40939" lon="-0.52487">
        <ele>21</ele>
        <time>2021-02-06T11:57:23Z</time>
      </trkpt>
      <trkpt lat="47.40906" lon="-0.525">
        <ele>21</ele>
        <time>2021-02-06T11:57:29Z</time>
      </trkpt>
      <trkpt lat="47.40883" lon="-0.5251">
        <ele>21</ele>
        <time>2021-02-06T11:57:33Z</time>
      </trkpt>
      <trkpt lat="47.40847" lon="-0.52523">
        <ele>20</ele>
        <time>2021-02-06T11:57:40Z</time>
      </trkpt>
      <trkpt lat="47.40835" lon="-0.52527">
        <ele>20</ele>
        <time>2021-02-06T11:57:42Z</time>
      </trkpt>
      <trkpt lat="47.40834" lon="-0.52527">
        <ele>20</ele>
        <time>2021-02-06T11:57:42Z</time>
      </trkpt>
      <trkpt lat="47.40782" lon="-0.52542">
        <ele>19</ele>
        <time>2021-02-06T11:57:52Z</time>
      </trkpt>
      <trkpt lat="47.40778" lon="-0.52541">
        <ele>20</ele>
        <time>2021-02-06T11:57:52Z</time>
      </trkpt>
      <trkpt lat="47.40756" lon="-0.52549">
        <ele>19</ele>
        <time>2021-02-06T11:57:56Z</time>
      </trkpt>
      <trkpt lat="47.40686" lon="-0.52572">
        <ele>18</ele>
        <time>2021-02-06T11:58:09Z</time>
      </trkpt>
      <trkpt lat="47.40677" lon="-0.52575">
        <ele>17</ele>
        <time>2021-02-06T11:58:11Z</time>
      </trkpt>
      <trkpt lat="47.40669" lon="-0.52578">
        <ele>17</ele>
        <time>2021-02-06T11:58:12Z</time>
      </trkpt>
      <trkpt lat="47.40634" lon="-0.52591">
        <ele>20</ele>
        <time>2021-02-06T11:58:19Z</time>
      </trkpt>
      <trkpt lat="47.40619" lon="-0.52595">
        <ele>22</ele>
        <time>2021-02-06T11:58:21Z</time>
      </trkpt>
      <trkpt lat="47.40614" lon="-0.52597">
        <ele>22</ele>
        <time>2021-02-06T11:58:22Z</time>
      </trkpt>
      <trkpt lat="47.4061" lon="-0.52598">
        <ele>23</ele>
        <time>2021-02-06T11:58:23Z</time>
      </trkpt>
      <trkpt lat="47.40603" lon="-0.526">
        <ele>23</ele>
        <time>2021-02-06T11:58:24Z</time>
      </trkpt>
      <trkpt lat="47.40602" lon="-0.526">
        <ele>23</ele>
        <time>2021-02-06T11:58:24Z</time>
      </trkpt>
      <trkpt lat="47.40593" lon="-0.52598">
        <ele>24</ele>
        <time>2021-02-06T11:58:26Z</time>
      </trkpt>
      <trkpt lat="47.40578" lon="-0.52592">
        <ele>26</ele>
        <time>2021-02-06T11:58:29Z</time>
      </trkpt>
      <trkpt lat="47.40563" lon="-0.52586">
        <ele>28</ele>
        <time>2021-02-06T11:58:32Z</time>
      </trkpt>
      <trkpt lat="47.40534" lon="-0.52579">
        <ele>31</ele>
        <time>2021-02-06T11:58:37Z</time>
      </trkpt>
      <trkpt lat="47.40531" lon="-0.52579">
        <ele>31</ele>
        <time>2021-02-06T11:58:37Z</time>
      </trkpt>
      <trkpt lat="47.40527" lon="-0.52578">
        <ele>31</ele>
        <time>2021-02-06T11:58:38Z</time>
      </trkpt>
      <trkpt lat="47.40524" lon="-0.52578">
        <ele>31</ele>
        <time>2021-02-06T11:58:39Z</time>
      </trkpt>
      <trkpt lat="47.40516" lon="-0.52579">
        <ele>32</ele>
        <time>2021-02-06T11:58:40Z</time>
      </trkpt>
      <trkpt lat="47.40513" lon="-0.5258">
        <ele>32</ele>
        <time>2021-02-06T11:58:41Z</time>
      </trkpt>
      <trkpt lat="47.40498" lon="-0.52583">
        <ele>33</ele>
        <time>2021-02-06T11:58:43Z</time>
      </trkpt>
      <trkpt lat="47.40495" lon="-0.52585">
        <ele>33</ele>
        <time>2021-02-06T11:58:44Z</time>
      </trkpt>
      <trkpt lat="47.40489" lon="-0.52589">
        <ele>33</ele>
        <time>2021-02-06T11:58:45Z</time>
      </trkpt>
      <trkpt lat="47.40482" lon="-0.52592">
        <ele>32</ele>
        <time>2021-02-06T11:58:46Z</time>
      </trkpt>
      <trkpt lat="47.40472" lon="-0.52599">
        <ele>32</ele>
        <time>2021-02-06T11:58:48Z</time>
      </trkpt>
      <trkpt lat="47.4046" lon="-0.52609">
        <ele>32</ele>
        <time>2021-02-06T11:58:51Z</time>
      </trkpt>
      <trkpt lat="47.4046" lon="-0.52609">
        <ele>32</ele>
        <time>2021-02-06T11:58:51Z</time>
      </trkpt>
      <trkpt lat="47.40447" lon="-0.5261">
        <ele>32</ele>
        <time>2021-02-06T11:58:53Z</time>
      </trkpt>
      <trkpt lat="47.40437" lon="-0.52602">
        <ele>32</ele>
        <time>2021-02-06T11:58:55Z</time>
      </trkpt>
      <trkpt lat="47.40425" lon="-0.52595">
        <ele>32</ele>
        <time>2021-02-06T11:58:57Z</time>
      </trkpt>
      <trkpt lat="47.4042" lon="-0.52591">
        <ele>32</ele>
        <time>2021-02-06T11:58:58Z</time>
      </trkpt>
      <trkpt lat="47.40412" lon="-0.52585">
        <ele>32</ele>
        <time>2021-02-06T11:59:00Z</time>
      </trkpt>
      <trkpt lat="47.40409" lon="-0.52582">
        <ele>32</ele>
        <time>2021-02-06T11:59:01Z</time>
      </trkpt>
      <trkpt lat="47.40404" lon="-0.52577">
        <ele>32</ele>
        <time>2021-02-06T11:59:02Z</time>
      </trkpt>
      <trkpt lat="47.40401" lon="-0.52572">
        <ele>32</ele>
        <time>2021-02-06T11:59:02Z</time>
      </trkpt>
      <trkpt lat="47.40395" lon="-0.52559">
        <ele>33</ele>
        <time>2021-02-06T11:59:04Z</time>
      </trkpt>
      <trkpt lat="47.40391" lon="-0.52548">
        <ele>33</ele>
        <time>2021-02-06T11:59:06Z</time>
      </trkpt>
      <trkpt lat="47.4039" lon="-0.52544">
        <ele>33</ele>
        <time>2021-02-06T11:59:06Z</time>
      </trkpt>
      <trkpt lat="47.40387" lon="-0.52523">
        <ele>34</ele>
        <time>2021-02-06T11:59:09Z</time>
      </trkpt>
      <trkpt lat="47.40386" lon="-0.5252">
        <ele>34</ele>
        <time>2021-02-06T11:59:09Z</time>
      </trkpt>
      <trkpt lat="47.40386" lon="-0.52512">
        <ele>35</ele>
        <time>2021-02-06T11:59:10Z</time>
      </trkpt>
      <trkpt lat="47.40386" lon="-0.52512">
        <ele>35</ele>
        <time>2021-02-06T11:59:10Z</time>
      </trkpt>
      <trkpt lat="47.40381" lon="-0.52511">
        <ele>35</ele>
        <time>2021-02-06T11:59:11Z</time>
      </trkpt>
      <trkpt lat="47.40334" lon="-0.52511">
        <ele>34</ele>
        <time>2021-02-06T11:59:20Z</time>
      </trkpt>
      <trkpt lat="47.40274" lon="-0.52517">
        <ele>33</ele>
        <time>2021-02-06T11:59:30Z</time>
      </trkpt>
      <trkpt lat="47.40169" lon="-0.52524">
        <ele>32</ele>
        <time>2021-02-06T11:59:49Z</time>
      </trkpt>
      <trkpt lat="47.40169" lon="-0.52524">
        <ele>32</ele>
        <time>2021-02-06T11:59:49Z</time>
      </trkpt>
      <trkpt lat="47.40157" lon="-0.52524">
        <ele>32</ele>
        <time>2021-02-06T11:59:51Z</time>
      </trkpt>
      <trkpt lat="47.40125" lon="-0.52518">
        <ele>32</ele>
        <time>2021-02-06T11:59:57Z</time>
      </trkpt>
      <trkpt lat="47.40112" lon="-0.52514">
        <ele>32</ele>
        <time>2021-02-06T11:59:59Z</time>
      </trkpt>
      <trkpt lat="47.40088" lon="-0.52506">
        <ele>31</ele>
        <time>2021-02-06T12:00:04Z</time>
      </trkpt>
      <trkpt lat="47.40085" lon="-0.52505">
        <ele>31</ele>
        <time>2021-02-06T12:00:04Z</time>
      </trkpt>
      <trkpt lat="47.40082" lon="-0.52504">
        <ele>31</ele>
        <time>2021-02-06T12:00:05Z</time>
      </trkpt>
      <trkpt lat="47.40077" lon="-0.52501">
        <ele>31</ele>
        <time>2021-02-06T12:00:06Z</time>
      </trkpt>
      <trkpt lat="47.40049" lon="-0.52488">
        <ele>31</ele>
        <time>2021-02-06T12:00:11Z</time>
      </trkpt>
      <trkpt lat="47.40039" lon="-0.52483">
        <ele>31</ele>
        <time>2021-02-06T12:00:13Z</time>
      </trkpt>
      <trkpt lat="47.39999" lon="-0.5246">
        <ele>31</ele>
        <time>2021-02-06T12:00:20Z</time>
      </trkpt>
      <trkpt lat="47.39972" lon="-0.52438">
        <ele>31</ele>
        <time>2021-02-06T12:00:26Z</time>
      </trkpt>
      <trkpt lat="47.39924" lon="-0.52391">
        <ele>31</ele>
        <time>2021-02-06T12:00:36Z</time>
      </trkpt>
      <trkpt lat="47.39899" lon="-0.5237">
        <ele>31</ele>
        <time>2021-02-06T12:00:41Z</time>
      </trkpt>
      <trkpt lat="47.39899" lon="-0.5237">
        <ele>31</ele>
        <time>2021-02-06T12:00:41Z</time>
      </trkpt>
      <trkpt lat="47.39896" lon="-0.52373">
        <ele>31</ele>
        <time>2021-02-06T12:00:42Z</time>
      </trkpt>
      <trkpt lat="47.39895" lon="-0.52374">
        <ele>31</ele>
        <time>2021-02-06T12:00:42Z</time>
      </trkpt>
      <trkpt lat="47.39893" lon="-0.52375">
        <ele>31</ele>
        <time>2021-02-06T12:00:42Z</time>
      </trkpt>
      <trkpt lat="47.39891" lon="-0.52374">
        <ele>31</ele>
        <time>2021-02-06T12:00:43Z</time>
      </trkpt>
      <trkpt lat="47.3989" lon="-0.52374">
        <ele>31</ele>
        <time>2021-02-06T12:00:43Z</time>
      </trkpt>
      <trkpt lat="47.39887" lon="-0.52371">
        <ele>31</ele>
        <time>2021-02-06T12:00:44Z</time>
      </trkpt>
      <trkpt lat="47.3988" lon="-0.52373">
        <ele>31</ele>
        <time>2021-02-06T12:00:45Z</time>
      </trkpt>
      <trkpt lat="47.39847" lon="-0.5238">
        <ele>32</ele>
        <time>2021-02-06T12:00:51Z</time>
      </trkpt>
      <trkpt lat="47.39835" lon="-0.52382">
        <ele>33</ele>
        <time>2021-02-06T12:00:53Z</time>
      </trkpt>
      <trkpt lat="47.39745" lon="-0.52396">
        <ele>35</ele>
        <time>2021-02-06T12:01:09Z</time>
      </trkpt>
      <trkpt lat="47.39717" lon="-0.52398">
        <ele>36</ele>
        <time>2021-02-06T12:01:14Z</time>
      </trkpt>
      <trkpt lat="47.39717" lon="-0.52401">
        <ele>36</ele>
        <time>2021-02-06T12:01:14Z</time>
      </trkpt>
      <trkpt lat="47.39717" lon="-0.52402">
        <ele>36</ele>
        <time>2021-02-06T12:01:15Z</time>
      </trkpt>
      <trkpt lat="47.39716" lon="-0.52404">
        <ele>36</ele>
        <time>2021-02-06T12:01:15Z</time>
      </trkpt>
      <trkpt lat="47.39716" lon="-0.52405">
        <ele>36</ele>
        <time>2021-02-06T12:01:15Z</time>
      </trkpt>
      <trkpt lat="47.39715" lon="-0.52406">
        <ele>36</ele>
        <time>2021-02-06T12:01:15Z</time>
      </trkpt>
      <trkpt lat="47.39714" lon="-0.52407">
        <ele>36</ele>
        <time>2021-02-06T12:01:15Z</time>
      </trkpt>
      <trkpt lat="47.39712" lon="-0.52407">
        <ele>36</ele>
        <time>2021-02-06T12:01:16Z</time>
      </trkpt>
      <trkpt lat="47.3971" lon="-0.52407">
        <ele>36</ele>
        <time>2021-02-06T12:01:16Z</time>
      </trkpt>
      <trkpt lat="47.39708" lon="-0.52406">
        <ele>36</ele>
        <time>2021-02-06T12:01:17Z</time>
      </trkpt>
      <trkpt lat="47.39707" lon="-0.52406">
        <ele>36</ele>
        <time>2021-02-06T12:01:17Z</time>
      </trkpt>
      <trkpt lat="47.39707" lon="-0.52404">
        <ele>36</ele>
        <time>2021-02-06T12:01:17Z</time>
      </trkpt>
      <trkpt lat="47.39706" lon="-0.52402">
        <ele>36</ele>
        <time>2021-02-06T12:01:17Z</time>
      </trkpt>
      <trkpt lat="47.39706" lon="-0.52399">
        <ele>36</ele>
        <time>2021-02-06T12:01:18Z</time>
      </trkpt>
      <trkpt lat="47.39654" lon="-0.52402">
        <ele>37</ele>
        <time>2021-02-06T12:01:27Z</time>
      </trkpt>
      <trkpt lat="47.39632" lon="-0.52404">
        <ele>37</ele>
        <time>2021-02-06T12:01:31Z</time>
      </trkpt>
      <trkpt lat="47.39619" lon="-0.52406">
        <ele>37</ele>
        <time>2021-02-06T12:01:33Z</time>
      </trkpt>
      <trkpt lat="47.39605" lon="-0.52407">
        <ele>37</ele>
        <time>2021-02-06T12:01:36Z</time>
      </trkpt>
      <trkpt lat="47.39589" lon="-0.52409">
        <ele>37</ele>
        <time>2021-02-06T12:01:38Z</time>
      </trkpt>
      <trkpt lat="47.39583" lon="-0.5241">
        <ele>37</ele>
        <time>2021-02-06T12:01:40Z</time>
      </trkpt>
      <trkpt lat="47.39581" lon="-0.5241">
        <ele>37</ele>
        <time>2021-02-06T12:01:40Z</time>
      </trkpt>
      <trkpt lat="47.39579" lon="-0.5241">
        <ele>37</ele>
        <time>2021-02-06T12:01:40Z</time>
      </trkpt>
      <trkpt lat="47.39578" lon="-0.5241">
        <ele>37</ele>
        <time>2021-02-06T12:01:40Z</time>
      </trkpt>
      <trkpt lat="47.39568" lon="-0.52411">
        <ele>37</ele>
        <time>2021-02-06T12:01:42Z</time>
      </trkpt>
      <trkpt lat="47.39562" lon="-0.52412">
        <ele>38</ele>
        <time>2021-02-06T12:01:43Z</time>
      </trkpt>
      <trkpt lat="47.39532" lon="-0.52417">
        <ele>38</ele>
        <time>2021-02-06T12:01:49Z</time>
      </trkpt>
      <trkpt lat="47.39504" lon="-0.52431">
        <ele>39</ele>
        <time>2021-02-06T12:01:54Z</time>
      </trkpt>
      <trkpt lat="47.39475" lon="-0.52455">
        <ele>40</ele>
        <time>2021-02-06T12:02:00Z</time>
      </trkpt>
      <trkpt lat="47.39469" lon="-0.52461">
        <ele>40</ele>
        <time>2021-02-06T12:02:01Z</time>
      </trkpt>
      <trkpt lat="47.39433" lon="-0.52482">
        <ele>40</ele>
        <time>2021-02-06T12:02:08Z</time>
      </trkpt>
      <trkpt lat="47.39423" lon="-0.52492">
        <ele>40</ele>
        <time>2021-02-06T12:02:10Z</time>
      </trkpt>
      <trkpt lat="47.39398" lon="-0.5253">
        <ele>41</ele>
        <time>2021-02-06T12:02:17Z</time>
      </trkpt>
      <trkpt lat="47.39393" lon="-0.52538">
        <ele>41</ele>
        <time>2021-02-06T12:02:18Z</time>
      </trkpt>
      <trkpt lat="47.3939" lon="-0.52542">
        <ele>41</ele>
        <time>2021-02-06T12:02:19Z</time>
      </trkpt>
      <trkpt lat="47.39382" lon="-0.52548">
        <ele>41</ele>
        <time>2021-02-06T12:02:20Z</time>
      </trkpt>
      <trkpt lat="47.39334" lon="-0.52563">
        <ele>41</ele>
        <time>2021-02-06T12:02:29Z</time>
      </trkpt>
      <trkpt lat="47.39304" lon="-0.5257">
        <ele>42</ele>
        <time>2021-02-06T12:02:34Z</time>
      </trkpt>
      <trkpt lat="47.39272" lon="-0.52574">
        <ele>44</ele>
        <time>2021-02-06T12:02:40Z</time>
      </trkpt>
      <trkpt lat="47.39252" lon="-0.52574">
        <ele>45</ele>
        <time>2021-02-06T12:02:44Z</time>
      </trkpt>
      <trkpt lat="47.39194" lon="-0.52576">
        <ele>47</ele>
        <time>2021-02-06T12:02:54Z</time>
      </trkpt>
      <trkpt lat="47.3905" lon="-0.52579">
        <ele>54</ele>
        <time>2021-02-06T12:03:20Z</time>
      </trkpt>
      <trkpt lat="47.39018" lon="-0.5258">
        <ele>55</ele>
        <time>2021-02-06T12:03:25Z</time>
      </trkpt>
      <trkpt lat="47.38951" lon="-0.52579">
        <ele>57</ele>
        <time>2021-02-06T12:03:37Z</time>
      </trkpt>
      <trkpt lat="47.38932" lon="-0.52583">
        <ele>57</ele>
        <time>2021-02-06T12:03:41Z</time>
      </trkpt>
      <trkpt lat="47.38929" lon="-0.52584">
        <ele>57</ele>
        <time>2021-02-06T12:03:41Z</time>
      </trkpt>
      <trkpt lat="47.38927" lon="-0.52585">
        <ele>57</ele>
        <time>2021-02-06T12:03:41Z</time>
      </trkpt>
      <trkpt lat="47.38917" lon="-0.52593">
        <ele>57</ele>
        <time>2021-02-06T12:03:43Z</time>
      </trkpt>
      <trkpt lat="47.38907" lon="-0.526">
        <ele>57</ele>
        <time>2021-02-06T12:03:45Z</time>
      </trkpt>
      <trkpt lat="47.38905" lon="-0.52601">
        <ele>57</ele>
        <time>2021-02-06T12:03:46Z</time>
      </trkpt>
      <trkpt lat="47.38902" lon="-0.52603">
        <ele>57</ele>
        <time>2021-02-06T12:03:46Z</time>
      </trkpt>
      <trkpt lat="47.38897" lon="-0.52605">
        <ele>56</ele>
        <time>2021-02-06T12:03:47Z</time>
      </trkpt>
      <trkpt lat="47.38894" lon="-0.52605">
        <ele>56</ele>
        <time>2021-02-06T12:03:48Z</time>
      </trkpt>
      <trkpt lat="47.38892" lon="-0.52605">
        <ele>56</ele>
        <time>2021-02-06T12:03:48Z</time>
      </trkpt>
      <trkpt lat="47.38875" lon="-0.52606">
        <ele>56</ele>
        <time>2021-02-06T12:03:51Z</time>
      </trkpt>
      <trkpt lat="47.38835" lon="-0.52596">
        <ele>57</ele>
        <time>2021-02-06T12:03:58Z</time>
      </trkpt>
      <trkpt lat="47.38832" lon="-0.52595">
        <ele>57</ele>
        <time>2021-02-06T12:03:59Z</time>
      </trkpt>
      <trkpt lat="47.38832" lon="-0.52595">
        <ele>57</ele>
        <time>2021-02-06T12:03:59Z</time>
      </trkpt>
      <trkpt lat="47.3878" lon="-0.52583">
        <ele>52</ele>
        <time>2021-02-06T12:04:08Z</time>
      </trkpt>
      <trkpt lat="47.38768" lon="-0.5258">
        <ele>51</ele>
        <time>2021-02-06T12:04:11Z</time>
      </trkpt>
      <trkpt lat="47.38757" lon="-0.52575">
        <ele>51</ele>
        <time>2021-02-06T12:04:13Z</time>
      </trkpt>
      <trkpt lat="47.38741" lon="-0.52567">
        <ele>50</ele>
        <time>2021-02-06T12:04:16Z</time>
      </trkpt>
      <trkpt lat="47.38715" lon="-0.52552">
        <ele>51</ele>
        <time>2021-02-06T12:04:21Z</time>
      </trkpt>
      <trkpt lat="47.38682" lon="-0.52532">
        <ele>52</ele>
        <time>2021-02-06T12:04:27Z</time>
      </trkpt>
      <trkpt lat="47.38663" lon="-0.52523">
        <ele>52</ele>
        <time>2021-02-06T12:04:30Z</time>
      </trkpt>
      <trkpt lat="47.38653" lon="-0.52519">
        <ele>53</ele>
        <time>2021-02-06T12:04:32Z</time>
      </trkpt>
      <trkpt lat="47.38648" lon="-0.52517">
        <ele>53</ele>
        <time>2021-02-06T12:04:33Z</time>
      </trkpt>
      <trkpt lat="47.38643" lon="-0.52516">
        <ele>53</ele>
        <time>2021-02-06T12:04:34Z</time>
      </trkpt>
      <trkpt lat="47.38641" lon="-0.52516">
        <ele>53</ele>
        <time>2021-02-06T12:04:34Z</time>
      </trkpt>
      <trkpt lat="47.38633" lon="-0.52516">
        <ele>53</ele>
        <time>2021-02-06T12:04:36Z</time>
      </trkpt>
      <trkpt lat="47.38572" lon="-0.52532">
        <ele>54</ele>
        <time>2021-02-06T12:04:47Z</time>
      </trkpt>
      <trkpt lat="47.3855" lon="-0.52534">
        <ele>55</ele>
        <time>2021-02-06T12:04:51Z</time>
      </trkpt>
      <trkpt lat="47.38543" lon="-0.52534">
        <ele>55</ele>
        <time>2021-02-06T12:04:52Z</time>
      </trkpt>
      <trkpt lat="47.38502" lon="-0.52531">
        <ele>56</ele>
        <time>2021-02-06T12:04:59Z</time>
      </trkpt>
      <trkpt lat="47.38445" lon="-0.52531">
        <ele>55</ele>
        <time>2021-02-06T12:05:10Z</time>
      </trkpt>
      <trkpt lat="47.38442" lon="-0.52532">
        <ele>54</ele>
        <time>2021-02-06T12:05:10Z</time>
      </trkpt>
      <trkpt lat="47.38439" lon="-0.52533">
        <ele>54</ele>
        <time>2021-02-06T12:05:11Z</time>
      </trkpt>
      <trkpt lat="47.38437" lon="-0.52534">
        <ele>54</ele>
        <time>2021-02-06T12:05:11Z</time>
      </trkpt>
      <trkpt lat="47.38435" lon="-0.52535">
        <ele>54</ele>
        <time>2021-02-06T12:05:11Z</time>
      </trkpt>
      <trkpt lat="47.3841" lon="-0.52566">
        <ele>53</ele>
        <time>2021-02-06T12:05:17Z</time>
      </trkpt>
      <trkpt lat="47.38404" lon="-0.52575">
        <ele>52</ele>
        <time>2021-02-06T12:05:19Z</time>
      </trkpt>
      <trkpt lat="47.38402" lon="-0.52578">
        <ele>52</ele>
        <time>2021-02-06T12:05:19Z</time>
      </trkpt>
      <trkpt lat="47.38401" lon="-0.52579">
        <ele>52</ele>
        <time>2021-02-06T12:05:19Z</time>
      </trkpt>
      <trkpt lat="47.38395" lon="-0.52588">
        <ele>52</ele>
        <time>2021-02-06T12:05:21Z</time>
      </trkpt>
      <trkpt lat="47.38374" lon="-0.5262">
        <ele>50</ele>
        <time>2021-02-06T12:05:26Z</time>
      </trkpt>
      <trkpt lat="47.3836" lon="-0.52641">
        <ele>48</ele>
        <time>2021-02-06T12:05:30Z</time>
      </trkpt>
      <trkpt lat="47.38324" lon="-0.52697">
        <ele>40</ele>
        <time>2021-02-06T12:05:39Z</time>
      </trkpt>
      <trkpt lat="47.38309" lon="-0.52714">
        <ele>36</ele>
        <time>2021-02-06T12:05:43Z</time>
      </trkpt>
      <trkpt lat="47.38306" lon="-0.52716">
        <ele>36</ele>
        <time>2021-02-06T12:05:43Z</time>
      </trkpt>
      <trkpt lat="47.38302" lon="-0.52718">
        <ele>35</ele>
        <time>2021-02-06T12:05:44Z</time>
      </trkpt>
      <trkpt lat="47.38299" lon="-0.5272">
        <ele>34</ele>
        <time>2021-02-06T12:05:44Z</time>
      </trkpt>
      <trkpt lat="47.38296" lon="-0.5272">
        <ele>34</ele>
        <time>2021-02-06T12:05:45Z</time>
      </trkpt>
      <trkpt lat="47.38292" lon="-0.52719">
        <ele>34</ele>
        <time>2021-02-06T12:05:46Z</time>
      </trkpt>
      <trkpt lat="47.38287" lon="-0.52717">
        <ele>34</ele>
        <time>2021-02-06T12:05:47Z</time>
      </trkpt>
      <trkpt lat="47.38279" lon="-0.52712">
        <ele>34</ele>
        <time>2021-02-06T12:05:48Z</time>
      </trkpt>
      <trkpt lat="47.38259" lon="-0.52693">
        <ele>33</ele>
        <time>2021-02-06T12:05:52Z</time>
      </trkpt>
      <trkpt lat="47.38184" lon="-0.52614">
        <ele>27</ele>
        <time>2021-02-06T12:06:09Z</time>
      </trkpt>
      <trkpt lat="47.38171" lon="-0.52599">
        <ele>25</ele>
        <time>2021-02-06T12:06:12Z</time>
      </trkpt>
      <trkpt lat="47.38159" lon="-0.52586">
        <ele>25</ele>
        <time>2021-02-06T12:06:14Z</time>
      </trkpt>
      <trkpt lat="47.38155" lon="-0.52582">
        <ele>25</ele>
        <time>2021-02-06T12:06:15Z</time>
      </trkpt>
      <trkpt lat="47.38153" lon="-0.52579">
        <ele>25</ele>
        <time>2021-02-06T12:06:16Z</time>
      </trkpt>
      <trkpt lat="47.38145" lon="-0.5257">
        <ele>24</ele>
        <time>2021-02-06T12:06:18Z</time>
      </trkpt>
      <trkpt lat="47.38139" lon="-0.52565">
        <ele>24</ele>
        <time>2021-02-06T12:06:19Z</time>
      </trkpt>
      <trkpt lat="47.38126" lon="-0.52549">
        <ele>24</ele>
        <time>2021-02-06T12:06:22Z</time>
      </trkpt>
      <trkpt lat="47.3812" lon="-0.52542">
        <ele>24</ele>
        <time>2021-02-06T12:06:23Z</time>
      </trkpt>
      <trkpt lat="47.3809" lon="-0.52507">
        <ele>25</ele>
        <time>2021-02-06T12:06:30Z</time>
      </trkpt>
      <trkpt lat="47.38068" lon="-0.52483">
        <ele>26</ele>
        <time>2021-02-06T12:06:35Z</time>
      </trkpt>
      <trkpt lat="47.38042" lon="-0.52456">
        <ele>29</ele>
        <time>2021-02-06T12:06:40Z</time>
      </trkpt>
      <trkpt lat="47.38021" lon="-0.5244">
        <ele>30</ele>
        <time>2021-02-06T12:06:45Z</time>
      </trkpt>
      <trkpt lat="47.37994" lon="-0.52425">
        <ele>32</ele>
        <time>2021-02-06T12:06:50Z</time>
      </trkpt>
      <trkpt lat="47.3797" lon="-0.52415">
        <ele>34</ele>
        <time>2021-02-06T12:06:54Z</time>
      </trkpt>
      <trkpt lat="47.37953" lon="-0.52411">
        <ele>35</ele>
        <time>2021-02-06T12:06:57Z</time>
      </trkpt>
      <trkpt lat="47.37934" lon="-0.52407">
        <ele>36</ele>
        <time>2021-02-06T12:07:01Z</time>
      </trkpt>
      <trkpt lat="47.37917" lon="-0.52405">
        <ele>38</ele>
        <time>2021-02-06T12:07:04Z</time>
      </trkpt>
      <trkpt lat="47.37906" lon="-0.52406">
        <ele>38</ele>
        <time>2021-02-06T12:07:06Z</time>
      </trkpt>
      <trkpt lat="47.37897" lon="-0.52409">
        <ele>38</ele>
        <time>2021-02-06T12:07:07Z</time>
      </trkpt>
      <trkpt lat="47.37866" lon="-0.52416">
        <ele>39</ele>
        <time>2021-02-06T12:07:13Z</time>
      </trkpt>
      <trkpt lat="47.37825" lon="-0.52432">
        <ele>41</ele>
        <time>2021-02-06T12:07:21Z</time>
      </trkpt>
      <trkpt lat="47.37796" lon="-0.52453">
        <ele>42</ele>
        <time>2021-02-06T12:07:26Z</time>
      </trkpt>
      <trkpt lat="47.37777" lon="-0.52465">
        <ele>43</ele>
        <time>2021-02-06T12:07:30Z</time>
      </trkpt>
      <trkpt lat="47.37755" lon="-0.52479">
        <ele>45</ele>
        <time>2021-02-06T12:07:34Z</time>
      </trkpt>
      <trkpt lat="47.37705" lon="-0.52515">
        <ele>44</ele>
        <time>2021-02-06T12:07:44Z</time>
      </trkpt>
      <trkpt lat="47.37652" lon="-0.5254">
        <ele>43</ele>
        <time>2021-02-06T12:07:54Z</time>
      </trkpt>
      <trkpt lat="47.37646" lon="-0.52543">
        <ele>43</ele>
        <time>2021-02-06T12:07:55Z</time>
      </trkpt>
      <trkpt lat="47.37609" lon="-0.52556">
        <ele>42</ele>
        <time>2021-02-06T12:08:02Z</time>
      </trkpt>
      <trkpt lat="47.37537" lon="-0.52578">
        <ele>40</ele>
        <time>2021-02-06T12:08:15Z</time>
      </trkpt>
      <trkpt lat="47.37485" lon="-0.52571">
        <ele>37</ele>
        <time>2021-02-06T12:08:24Z</time>
      </trkpt>
      <trkpt lat="47.37443" lon="-0.52564">
        <ele>35</ele>
        <time>2021-02-06T12:08:32Z</time>
      </trkpt>
      <trkpt lat="47.37425" lon="-0.52562">
        <ele>35</ele>
        <time>2021-02-06T12:08:35Z</time>
      </trkpt>
      <trkpt lat="47.37396" lon="-0.52556">
        <ele>34</ele>
        <time>2021-02-06T12:08:40Z</time>
      </trkpt>
      <trkpt lat="47.37251" lon="-0.52512">
        <ele>35</ele>
        <time>2021-02-06T12:09:07Z</time>
      </trkpt>
      <trkpt lat="47.37236" lon="-0.5251">
        <ele>35</ele>
        <time>2021-02-06T12:09:09Z</time>
      </trkpt>
      <trkpt lat="47.37224" lon="-0.5251">
        <ele>36</ele>
        <time>2021-02-06T12:09:11Z</time>
      </trkpt>
      <trkpt lat="47.37178" lon="-0.52522">
        <ele>36</ele>
        <time>2021-02-06T12:09:20Z</time>
      </trkpt>
      <trkpt lat="47.37159" lon="-0.52532">
        <ele>37</ele>
        <time>2021-02-06T12:09:23Z</time>
      </trkpt>
      <trkpt lat="47.37153" lon="-0.52535">
        <ele>37</ele>
        <time>2021-02-06T12:09:24Z</time>
      </trkpt>
      <trkpt lat="47.37134" lon="-0.52548">
        <ele>38</ele>
        <time>2021-02-06T12:09:28Z</time>
      </trkpt>
      <trkpt lat="47.37065" lon="-0.52601">
        <ele>41</ele>
        <time>2021-02-06T12:09:42Z</time>
      </trkpt>
      <trkpt lat="47.37045" lon="-0.52615">
        <ele>42</ele>
        <time>2021-02-06T12:09:46Z</time>
      </trkpt>
      <trkpt lat="47.37015" lon="-0.52639">
        <ele>43</ele>
        <time>2021-02-06T12:09:52Z</time>
      </trkpt>
      <trkpt lat="47.36999" lon="-0.5265">
        <ele>44</ele>
        <time>2021-02-06T12:09:55Z</time>
      </trkpt>
      <trkpt lat="47.36971" lon="-0.52674">
        <ele>45</ele>
        <time>2021-02-06T12:10:01Z</time>
      </trkpt>
      <trkpt lat="47.36944" lon="-0.52694">
        <ele>46</ele>
        <time>2021-02-06T12:10:06Z</time>
      </trkpt>
      <trkpt lat="47.36931" lon="-0.52707">
        <ele>47</ele>
        <time>2021-02-06T12:10:09Z</time>
      </trkpt>
      <trkpt lat="47.36918" lon="-0.52716">
        <ele>47</ele>
        <time>2021-02-06T12:10:12Z</time>
      </trkpt>
      <trkpt lat="47.36906" lon="-0.52723">
        <ele>48</ele>
        <time>2021-02-06T12:10:14Z</time>
      </trkpt>
      <trkpt lat="47.36896" lon="-0.52727">
        <ele>49</ele>
        <time>2021-02-06T12:10:16Z</time>
      </trkpt>
      <trkpt lat="47.36884" lon="-0.52729">
        <ele>49</ele>
        <time>2021-02-06T12:10:18Z</time>
      </trkpt>
      <trkpt lat="47.36871" lon="-0.52728">
        <ele>50</ele>
        <time>2021-02-06T12:10:20Z</time>
      </trkpt>
      <trkpt lat="47.36857" lon="-0.52724">
        <ele>50</ele>
        <time>2021-02-06T12:10:23Z</time>
      </trkpt>
      <trkpt lat="47.3683" lon="-0.52707">
        <ele>52</ele>
        <time>2021-02-06T12:10:28Z</time>
      </trkpt>
      <trkpt lat="47.36777" lon="-0.52666">
        <ele>55</ele>
        <time>2021-02-06T12:10:39Z</time>
      </trkpt>
      <trkpt lat="47.36746" lon="-0.52646">
        <ele>58</ele>
        <time>2021-02-06T12:10:45Z</time>
      </trkpt>
      <trkpt lat="47.36732" lon="-0.52639">
        <ele>59</ele>
        <time>2021-02-06T12:10:47Z</time>
      </trkpt>
      <trkpt lat="47.36699" lon="-0.52625">
        <ele>62</ele>
        <time>2021-02-06T12:10:53Z</time>
      </trkpt>
      <trkpt lat="47.36669" lon="-0.52611">
        <ele>64</ele>
        <time>2021-02-06T12:10:59Z</time>
      </trkpt>
      <trkpt lat="47.36646" lon="-0.526">
        <ele>64</ele>
        <time>2021-02-06T12:11:03Z</time>
      </trkpt>
      <trkpt lat="47.36642" lon="-0.52598">
        <ele>64</ele>
        <time>2021-02-06T12:11:04Z</time>
      </trkpt>
      <trkpt lat="47.36631" lon="-0.5259">
        <ele>64</ele>
        <time>2021-02-06T12:11:06Z</time>
      </trkpt>
      <trkpt lat="47.3662" lon="-0.52583">
        <ele>63</ele>
        <time>2021-02-06T12:11:08Z</time>
      </trkpt>
      <trkpt lat="47.36597" lon="-0.5257">
        <ele>63</ele>
        <time>2021-02-06T12:11:13Z</time>
      </trkpt>
      <trkpt lat="47.36581" lon="-0.52561">
        <ele>62</ele>
        <time>2021-02-06T12:11:16Z</time>
      </trkpt>
      <trkpt lat="47.36532" lon="-0.52535">
        <ele>60</ele>
        <time>2021-02-06T12:11:25Z</time>
      </trkpt>
      <trkpt lat="47.36521" lon="-0.52532">
        <ele>60</ele>
        <time>2021-02-06T12:11:27Z</time>
      </trkpt>
      <trkpt lat="47.36512" lon="-0.52531">
        <ele>60</ele>
        <time>2021-02-06T12:11:29Z</time>
      </trkpt>
      <trkpt lat="47.36512" lon="-0.52531">
        <ele>60</ele>
        <time>2021-02-06T12:11:29Z</time>
      </trkpt>
      <trkpt lat="47.36511" lon="-0.52533">
        <ele>60</ele>
        <time>2021-02-06T12:11:29Z</time>
      </trkpt>
      <trkpt lat="47.3651" lon="-0.52534">
        <ele>60</ele>
        <time>2021-02-06T12:11:29Z</time>
      </trkpt>
      <trkpt lat="47.36509" lon="-0.52535">
        <ele>60</ele>
        <time>2021-02-06T12:11:29Z</time>
      </trkpt>
      <trkpt lat="47.36507" lon="-0.52535">
        <ele>60</ele>
        <time>2021-02-06T12:11:30Z</time>
      </trkpt>
      <trkpt lat="47.36497" lon="-0.5257">
        <ele>60</ele>
        <time>2021-02-06T12:11:34Z</time>
      </trkpt>
      <trkpt lat="47.3649" lon="-0.52606">
        <ele>60</ele>
        <time>2021-02-06T12:11:39Z</time>
      </trkpt>
      <trkpt lat="47.36484" lon="-0.52644">
        <ele>60</ele>
        <time>2021-02-06T12:11:43Z</time>
      </trkpt>
      <trkpt lat="47.3648" lon="-0.52684">
        <ele>60</ele>
        <time>2021-02-06T12:11:48Z</time>
      </trkpt>
      <trkpt lat="47.36476" lon="-0.52722">
        <ele>62</ele>
        <time>2021-02-06T12:11:53Z</time>
      </trkpt>
      <trkpt lat="47.36475" lon="-0.52763">
        <ele>63</ele>
        <time>2021-02-06T12:11:58Z</time>
      </trkpt>
      <trkpt lat="47.36476" lon="-0.52832">
        <ele>65</ele>
        <time>2021-02-06T12:12:06Z</time>
      </trkpt>
      <trkpt lat="47.36478" lon="-0.52856">
        <ele>66</ele>
        <time>2021-02-06T12:12:09Z</time>
      </trkpt>
      <trkpt lat="47.36481" lon="-0.52951">
        <ele>69</ele>
        <time>2021-02-06T12:12:21Z</time>
      </trkpt>
      <trkpt lat="47.36481" lon="-0.52957">
        <ele>69</ele>
        <time>2021-02-06T12:12:21Z</time>
      </trkpt>
      <trkpt lat="47.36483" lon="-0.53017">
        <ele>70</ele>
        <time>2021-02-06T12:12:29Z</time>
      </trkpt>
      <trkpt lat="47.36481" lon="-0.5305">
        <ele>71</ele>
        <time>2021-02-06T12:12:33Z</time>
      </trkpt>
      <trkpt lat="47.36479" lon="-0.5308">
        <ele>72</ele>
        <time>2021-02-06T12:12:36Z</time>
      </trkpt>
      <trkpt lat="47.36475" lon="-0.53114">
        <ele>73</ele>
        <time>2021-02-06T12:12:40Z</time>
      </trkpt>
      <trkpt lat="47.36471" lon="-0.53139">
        <ele>73</ele>
        <time>2021-02-06T12:12:43Z</time>
      </trkpt>
      <trkpt lat="47.36466" lon="-0.53162">
        <ele>74</ele>
        <time>2021-02-06T12:12:46Z</time>
      </trkpt>
      <trkpt lat="47.36461" lon="-0.53177">
        <ele>75</ele>
        <time>2021-02-06T12:12:48Z</time>
      </trkpt>
      <trkpt lat="47.36456" lon="-0.53192">
        <ele>75</ele>
        <time>2021-02-06T12:12:50Z</time>
      </trkpt>
      <trkpt lat="47.36448" lon="-0.53218">
        <ele>76</ele>
        <time>2021-02-06T12:12:54Z</time>
      </trkpt>
      <trkpt lat="47.36439" lon="-0.53244">
        <ele>76</ele>
        <time>2021-02-06T12:12:57Z</time>
      </trkpt>
      <trkpt lat="47.36435" lon="-0.53257">
        <ele>77</ele>
        <time>2021-02-06T12:12:59Z</time>
      </trkpt>
      <trkpt lat="47.36431" lon="-0.53271">
        <ele>77</ele>
        <time>2021-02-06T12:13:01Z</time>
      </trkpt>
      <trkpt lat="47.3643" lon="-0.53275">
        <ele>77</ele>
        <time>2021-02-06T12:13:01Z</time>
      </trkpt>
      <trkpt lat="47.36428" lon="-0.53281">
        <ele>77</ele>
        <time>2021-02-06T12:13:02Z</time>
      </trkpt>
      <trkpt lat="47.36425" lon="-0.53296">
        <ele>77</ele>
        <time>2021-02-06T12:13:04Z</time>
      </trkpt>
      <trkpt lat="47.36409" lon="-0.53362">
        <ele>78</ele>
        <time>2021-02-06T12:13:13Z</time>
      </trkpt>
      <trkpt lat="47.364" lon="-0.53406">
        <ele>77</ele>
        <time>2021-02-06T12:13:18Z</time>
      </trkpt>
      <trkpt lat="47.36391" lon="-0.5344">
        <ele>77</ele>
        <time>2021-02-06T12:13:23Z</time>
      </trkpt>
      <trkpt lat="47.36385" lon="-0.53467">
        <ele>77</ele>
        <time>2021-02-06T12:13:26Z</time>
      </trkpt>
      <trkpt lat="47.36379" lon="-0.53498">
        <ele>78</ele>
        <time>2021-02-06T12:13:30Z</time>
      </trkpt>
      <trkpt lat="47.3637" lon="-0.53533">
        <ele>78</ele>
        <time>2021-02-06T12:13:34Z</time>
      </trkpt>
      <trkpt lat="47.36368" lon="-0.53545">
        <ele>78</ele>
        <time>2021-02-06T12:13:36Z</time>
      </trkpt>
      <trkpt lat="47.36365" lon="-0.53556">
        <ele>78</ele>
        <time>2021-02-06T12:13:37Z</time>
      </trkpt>
      <trkpt lat="47.3636" lon="-0.53579">
        <ele>78</ele>
        <time>2021-02-06T12:13:40Z</time>
      </trkpt>
      <trkpt lat="47.36344" lon="-0.53635">
        <ele>77</ele>
        <time>2021-02-06T12:13:47Z</time>
      </trkpt>
      <trkpt lat="47.36333" lon="-0.53669">
        <ele>77</ele>
        <time>2021-02-06T12:13:52Z</time>
      </trkpt>
      <trkpt lat="47.36311" lon="-0.53737">
        <ele>77</ele>
        <time>2021-02-06T12:14:01Z</time>
      </trkpt>
      <trkpt lat="47.363" lon="-0.53772">
        <ele>77</ele>
        <time>2021-02-06T12:14:06Z</time>
      </trkpt>
      <trkpt lat="47.36296" lon="-0.53783">
        <ele>77</ele>
        <time>2021-02-06T12:14:07Z</time>
      </trkpt>
      <trkpt lat="47.36292" lon="-0.53794">
        <ele>77</ele>
        <time>2021-02-06T12:14:09Z</time>
      </trkpt>
      <trkpt lat="47.36282" lon="-0.53815">
        <ele>77</ele>
        <time>2021-02-06T12:14:12Z</time>
      </trkpt>
      <trkpt lat="47.36261" lon="-0.53853">
        <ele>78</ele>
        <time>2021-02-06T12:14:18Z</time>
      </trkpt>
      <trkpt lat="47.36237" lon="-0.53895">
        <ele>78</ele>
        <time>2021-02-06T12:14:24Z</time>
      </trkpt>
      <trkpt lat="47.36219" lon="-0.53925">
        <ele>78</ele>
        <time>2021-02-06T12:14:29Z</time>
      </trkpt>
      <trkpt lat="47.36206" lon="-0.53947">
        <ele>78</ele>
        <time>2021-02-06T12:14:33Z</time>
      </trkpt>
      <trkpt lat="47.36193" lon="-0.53966">
        <ele>78</ele>
        <time>2021-02-06T12:14:36Z</time>
      </trkpt>
      <trkpt lat="47.36159" lon="-0.54011">
        <ele>78</ele>
        <time>2021-02-06T12:14:44Z</time>
      </trkpt>
      <trkpt lat="47.3612" lon="-0.54059">
        <ele>77</ele>
        <time>2021-02-06T12:14:53Z</time>
      </trkpt>
      <trkpt lat="47.36113" lon="-0.54067">
        <ele>77</ele>
        <time>2021-02-06T12:14:55Z</time>
      </trkpt>
      <trkpt lat="47.36094" lon="-0.54084">
        <ele>77</ele>
        <time>2021-02-06T12:14:59Z</time>
      </trkpt>
      <trkpt lat="47.36076" lon="-0.54098">
        <ele>76</ele>
        <time>2021-02-06T12:15:02Z</time>
      </trkpt>
      <trkpt lat="47.36036" lon="-0.54128">
        <ele>75</ele>
        <time>2021-02-06T12:15:10Z</time>
      </trkpt>
      <trkpt lat="47.36006" lon="-0.54153">
        <ele>75</ele>
        <time>2021-02-06T12:15:16Z</time>
      </trkpt>
      <trkpt lat="47.35996" lon="-0.5416">
        <ele>75</ele>
        <time>2021-02-06T12:15:18Z</time>
      </trkpt>
      <trkpt lat="47.35989" lon="-0.54166">
        <ele>75</ele>
        <time>2021-02-06T12:15:20Z</time>
      </trkpt>
      <trkpt lat="47.35983" lon="-0.54171">
        <ele>75</ele>
        <time>2021-02-06T12:15:21Z</time>
      </trkpt>
      <trkpt lat="47.35971" lon="-0.54177">
        <ele>75</ele>
        <time>2021-02-06T12:15:23Z</time>
      </trkpt>
      <trkpt lat="47.35965" lon="-0.54179">
        <ele>75</ele>
        <time>2021-02-06T12:15:24Z</time>
      </trkpt>
      <trkpt lat="47.35959" lon="-0.54181">
        <ele>75</ele>
        <time>2021-02-06T12:15:26Z</time>
      </trkpt>
      <trkpt lat="47.35948" lon="-0.54181">
        <ele>75</ele>
        <time>2021-02-06T12:15:27Z</time>
      </trkpt>
      <trkpt lat="47.35939" lon="-0.5418">
        <ele>76</ele>
        <time>2021-02-06T12:15:29Z</time>
      </trkpt>
      <trkpt lat="47.35925" lon="-0.54176">
        <ele>76</ele>
        <time>2021-02-06T12:15:32Z</time>
      </trkpt>
      <trkpt lat="47.35882" lon="-0.54154">
        <ele>76</ele>
        <time>2021-02-06T12:15:40Z</time>
      </trkpt>
      <trkpt lat="47.35846" lon="-0.54135">
        <ele>77</ele>
        <time>2021-02-06T12:15:47Z</time>
      </trkpt>
      <trkpt lat="47.35815" lon="-0.54121">
        <ele>78</ele>
        <time>2021-02-06T12:15:52Z</time>
      </trkpt>
      <trkpt lat="47.35804" lon="-0.54119">
        <ele>78</ele>
        <time>2021-02-06T12:15:54Z</time>
      </trkpt>
      <trkpt lat="47.35792" lon="-0.54118">
        <ele>79</ele>
        <time>2021-02-06T12:15:56Z</time>
      </trkpt>
      <trkpt lat="47.35783" lon="-0.54119">
        <ele>79</ele>
        <time>2021-02-06T12:15:58Z</time>
      </trkpt>
      <trkpt lat="47.35777" lon="-0.5412">
        <ele>79</ele>
        <time>2021-02-06T12:15:59Z</time>
      </trkpt>
      <trkpt lat="47.35769" lon="-0.54123">
        <ele>79</ele>
        <time>2021-02-06T12:16:01Z</time>
      </trkpt>
      <trkpt lat="47.35759" lon="-0.54129">
        <ele>80</ele>
        <time>2021-02-06T12:16:02Z</time>
      </trkpt>
      <trkpt lat="47.35743" lon="-0.54143">
        <ele>80</ele>
        <time>2021-02-06T12:16:06Z</time>
      </trkpt>
      <trkpt lat="47.35691" lon="-0.54201">
        <ele>81</ele>
        <time>2021-02-06T12:16:17Z</time>
      </trkpt>
      <trkpt lat="47.35682" lon="-0.54211">
        <ele>81</ele>
        <time>2021-02-06T12:16:19Z</time>
      </trkpt>
      <trkpt lat="47.35672" lon="-0.54225">
        <ele>81</ele>
        <time>2021-02-06T12:16:22Z</time>
      </trkpt>
      <trkpt lat="47.35663" lon="-0.54242">
        <ele>81</ele>
        <time>2021-02-06T12:16:24Z</time>
      </trkpt>
      <trkpt lat="47.35654" lon="-0.54262">
        <ele>80</ele>
        <time>2021-02-06T12:16:27Z</time>
      </trkpt>
      <trkpt lat="47.35627" lon="-0.5433">
        <ele>79</ele>
        <time>2021-02-06T12:16:37Z</time>
      </trkpt>
      <trkpt lat="47.35598" lon="-0.54405">
        <ele>76</ele>
        <time>2021-02-06T12:16:47Z</time>
      </trkpt>
      <trkpt lat="47.3558" lon="-0.5445">
        <ele>75</ele>
        <time>2021-02-06T12:16:54Z</time>
      </trkpt>
      <trkpt lat="47.35571" lon="-0.54475">
        <ele>74</ele>
        <time>2021-02-06T12:16:57Z</time>
      </trkpt>
      <trkpt lat="47.35561" lon="-0.54502">
        <ele>73</ele>
        <time>2021-02-06T12:17:01Z</time>
      </trkpt>
      <trkpt lat="47.35557" lon="-0.54517">
        <ele>72</ele>
        <time>2021-02-06T12:17:03Z</time>
      </trkpt>
      <trkpt lat="47.35554" lon="-0.54533">
        <ele>72</ele>
        <time>2021-02-06T12:17:05Z</time>
      </trkpt>
      <trkpt lat="47.35553" lon="-0.54549">
        <ele>72</ele>
        <time>2021-02-06T12:17:07Z</time>
      </trkpt>
      <trkpt lat="47.35553" lon="-0.54562">
        <ele>72</ele>
        <time>2021-02-06T12:17:08Z</time>
      </trkpt>
      <trkpt lat="47.35553" lon="-0.54573">
        <ele>71</ele>
        <time>2021-02-06T12:17:09Z</time>
      </trkpt>
      <trkpt lat="47.35554" lon="-0.54583">
        <ele>71</ele>
        <time>2021-02-06T12:17:11Z</time>
      </trkpt>
      <trkpt lat="47.35556" lon="-0.54592">
        <ele>71</ele>
        <time>2021-02-06T12:17:12Z</time>
      </trkpt>
      <trkpt lat="47.35559" lon="-0.54603">
        <ele>71</ele>
        <time>2021-02-06T12:17:13Z</time>
      </trkpt>
      <trkpt lat="47.35562" lon="-0.5461">
        <ele>71</ele>
        <time>2021-02-06T12:17:14Z</time>
      </trkpt>
      <trkpt lat="47.35564" lon="-0.54614">
        <ele>71</ele>
        <time>2021-02-06T12:17:15Z</time>
      </trkpt>
      <trkpt lat="47.35566" lon="-0.54618">
        <ele>71</ele>
        <time>2021-02-06T12:17:15Z</time>
      </trkpt>
      <trkpt lat="47.35569" lon="-0.54624">
        <ele>71</ele>
        <time>2021-02-06T12:17:16Z</time>
      </trkpt>
      <trkpt lat="47.35575" lon="-0.54633">
        <ele>71</ele>
        <time>2021-02-06T12:17:18Z</time>
      </trkpt>
      <trkpt lat="47.35583" lon="-0.54641">
        <ele>71</ele>
        <time>2021-02-06T12:17:20Z</time>
      </trkpt>
      <trkpt lat="47.35592" lon="-0.54649">
        <ele>70</ele>
        <time>2021-02-06T12:17:21Z</time>
      </trkpt>
      <trkpt lat="47.35606" lon="-0.54657">
        <ele>70</ele>
        <time>2021-02-06T12:17:24Z</time>
      </trkpt>
      <trkpt lat="47.35626" lon="-0.5467">
        <ele>70</ele>
        <time>2021-02-06T12:17:28Z</time>
      </trkpt>
      <trkpt lat="47.35666" lon="-0.54694">
        <ele>69</ele>
        <time>2021-02-06T12:17:36Z</time>
      </trkpt>
      <trkpt lat="47.35692" lon="-0.54708">
        <ele>71</ele>
        <time>2021-02-06T12:17:41Z</time>
      </trkpt>
      <trkpt lat="47.35707" lon="-0.54717">
        <ele>72</ele>
        <time>2021-02-06T12:17:43Z</time>
      </trkpt>
      <trkpt lat="47.3572" lon="-0.54727">
        <ele>72</ele>
        <time>2021-02-06T12:17:46Z</time>
      </trkpt>
      <trkpt lat="47.35727" lon="-0.54734">
        <ele>73</ele>
        <time>2021-02-06T12:17:48Z</time>
      </trkpt>
      <trkpt lat="47.35732" lon="-0.5474">
        <ele>73</ele>
        <time>2021-02-06T12:17:49Z</time>
      </trkpt>
      <trkpt lat="47.35737" lon="-0.54746">
        <ele>73</ele>
        <time>2021-02-06T12:17:50Z</time>
      </trkpt>
      <trkpt lat="47.35741" lon="-0.54752">
        <ele>73</ele>
        <time>2021-02-06T12:17:51Z</time>
      </trkpt>
      <trkpt lat="47.35748" lon="-0.54763">
        <ele>73</ele>
        <time>2021-02-06T12:17:53Z</time>
      </trkpt>
      <trkpt lat="47.35753" lon="-0.54774">
        <ele>72</ele>
        <time>2021-02-06T12:17:54Z</time>
      </trkpt>
      <trkpt lat="47.35756" lon="-0.54781">
        <ele>71</ele>
        <time>2021-02-06T12:17:55Z</time>
      </trkpt>
      <trkpt lat="47.35759" lon="-0.54789">
        <ele>69</ele>
        <time>2021-02-06T12:17:56Z</time>
      </trkpt>
      <trkpt lat="47.35761" lon="-0.54796">
        <ele>69</ele>
        <time>2021-02-06T12:17:57Z</time>
      </trkpt>
      <trkpt lat="47.35765" lon="-0.54813">
        <ele>67</ele>
        <time>2021-02-06T12:17:59Z</time>
      </trkpt>
      <trkpt lat="47.35767" lon="-0.54823">
        <ele>65</ele>
        <time>2021-02-06T12:18:01Z</time>
      </trkpt>
      <trkpt lat="47.35769" lon="-0.54838">
        <ele>64</ele>
        <time>2021-02-06T12:18:03Z</time>
      </trkpt>
      <trkpt lat="47.3577" lon="-0.54854">
        <ele>64</ele>
        <time>2021-02-06T12:18:05Z</time>
      </trkpt>
      <trkpt lat="47.3577" lon="-0.5487">
        <ele>63</ele>
        <time>2021-02-06T12:18:06Z</time>
      </trkpt>
      <trkpt lat="47.35768" lon="-0.54885">
        <ele>63</ele>
        <time>2021-02-06T12:18:08Z</time>
      </trkpt>
      <trkpt lat="47.35766" lon="-0.54901">
        <ele>63</ele>
        <time>2021-02-06T12:18:10Z</time>
      </trkpt>
      <trkpt lat="47.35759" lon="-0.5494">
        <ele>64</ele>
        <time>2021-02-06T12:18:15Z</time>
      </trkpt>
      <trkpt lat="47.35751" lon="-0.54977">
        <ele>65</ele>
        <time>2021-02-06T12:18:20Z</time>
      </trkpt>
      <trkpt lat="47.35748" lon="-0.54994">
        <ele>65</ele>
        <time>2021-02-06T12:18:22Z</time>
      </trkpt>
      <trkpt lat="47.35744" lon="-0.55007">
        <ele>65</ele>
        <time>2021-02-06T12:18:24Z</time>
      </trkpt>
      <trkpt lat="47.35741" lon="-0.55016">
        <ele>65</ele>
        <time>2021-02-06T12:18:25Z</time>
      </trkpt>
      <trkpt lat="47.35734" lon="-0.55034">
        <ele>66</ele>
        <time>2021-02-06T12:18:27Z</time>
      </trkpt>
      <trkpt lat="47.35728" lon="-0.55046">
        <ele>66</ele>
        <time>2021-02-06T12:18:29Z</time>
      </trkpt>
      <trkpt lat="47.35718" lon="-0.55068">
        <ele>67</ele>
        <time>2021-02-06T12:18:32Z</time>
      </trkpt>
      <trkpt lat="47.35711" lon="-0.55084">
        <ele>67</ele>
        <time>2021-02-06T12:18:35Z</time>
      </trkpt>
      <trkpt lat="47.35709" lon="-0.55088">
        <ele>67</ele>
        <time>2021-02-06T12:18:35Z</time>
      </trkpt>
      <trkpt lat="47.35709" lon="-0.55088">
        <ele>67</ele>
        <time>2021-02-06T12:18:35Z</time>
      </trkpt>
      <trkpt lat="47.3568" lon="-0.55057">
        <ele>66</ele>
        <time>2021-02-06T12:18:42Z</time>
      </trkpt>
      <trkpt lat="47.35651" lon="-0.55028">
        <ele>66</ele>
        <time>2021-02-06T12:18:48Z</time>
      </trkpt>
      <trkpt lat="47.35639" lon="-0.55016">
        <ele>65</ele>
        <time>2021-02-06T12:18:50Z</time>
      </trkpt>
      <trkpt lat="47.35639" lon="-0.55016">
        <ele>65</ele>
        <time>2021-02-06T12:18:50Z</time>
      </trkpt>
      <trkpt lat="47.35632" lon="-0.55018">
        <ele>65</ele>
        <time>2021-02-06T12:18:52Z</time>
      </trkpt>
      <trkpt lat="47.35621" lon="-0.55018">
        <ele>65</ele>
        <time>2021-02-06T12:18:54Z</time>
      </trkpt>
      <trkpt lat="47.35611" lon="-0.5502">
        <ele>65</ele>
        <time>2021-02-06T12:18:55Z</time>
      </trkpt>
      <trkpt lat="47.35601" lon="-0.55025">
        <ele>65</ele>
        <time>2021-02-06T12:18:57Z</time>
      </trkpt>
      <trkpt lat="47.35559" lon="-0.5506">
        <ele>66</ele>
        <time>2021-02-06T12:19:06Z</time>
      </trkpt>
      <trkpt lat="47.35539" lon="-0.55079">
        <ele>67</ele>
        <time>2021-02-06T12:19:10Z</time>
      </trkpt>
      <trkpt lat="47.35538" lon="-0.55079">
        <ele>67</ele>
        <time>2021-02-06T12:19:10Z</time>
      </trkpt>
      <trkpt lat="47.35509" lon="-0.55113">
        <ele>68</ele>
        <time>2021-02-06T12:19:17Z</time>
      </trkpt>
      <trkpt lat="47.35485" lon="-0.55144">
        <ele>68</ele>
        <time>2021-02-06T12:19:23Z</time>
      </trkpt>
      <trkpt lat="47.35484" lon="-0.55146">
        <ele>68</ele>
        <time>2021-02-06T12:19:23Z</time>
      </trkpt>
      <trkpt lat="47.35474" lon="-0.55158">
        <ele>69</ele>
        <time>2021-02-06T12:19:25Z</time>
      </trkpt>
      <trkpt lat="47.35444" lon="-0.55195">
        <ele>70</ele>
        <time>2021-02-06T12:19:32Z</time>
      </trkpt>
      <trkpt lat="47.35425" lon="-0.55213">
        <ele>71</ele>
        <time>2021-02-06T12:19:36Z</time>
      </trkpt>
      <trkpt lat="47.35419" lon="-0.55219">
        <ele>71</ele>
        <time>2021-02-06T12:19:37Z</time>
      </trkpt>
      <trkpt lat="47.35408" lon="-0.55228">
        <ele>72</ele>
        <time>2021-02-06T12:19:40Z</time>
      </trkpt>
      <trkpt lat="47.35358" lon="-0.55265">
        <ele>74</ele>
        <time>2021-02-06T12:19:50Z</time>
      </trkpt>
      <trkpt lat="47.35332" lon="-0.55282">
        <ele>74</ele>
        <time>2021-02-06T12:19:55Z</time>
      </trkpt>
      <trkpt lat="47.35313" lon="-0.55293">
        <ele>75</ele>
        <time>2021-02-06T12:19:58Z</time>
      </trkpt>
      <trkpt lat="47.35275" lon="-0.55311">
        <ele>75</ele>
        <time>2021-02-06T12:20:05Z</time>
      </trkpt>
      <trkpt lat="47.35165" lon="-0.55367">
        <ele>79</ele>
        <time>2021-02-06T12:20:26Z</time>
      </trkpt>
      <trkpt lat="47.35163" lon="-0.55368">
        <ele>79</ele>
        <time>2021-02-06T12:20:26Z</time>
      </trkpt>
      <trkpt lat="47.35138" lon="-0.5538">
        <ele>79</ele>
        <time>2021-02-06T12:20:31Z</time>
      </trkpt>
      <trkpt lat="47.35103" lon="-0.55393">
        <ele>79</ele>
        <time>2021-02-06T12:20:38Z</time>
      </trkpt>
      <trkpt lat="47.35084" lon="-0.55396">
        <ele>79</ele>
        <time>2021-02-06T12:20:41Z</time>
      </trkpt>
      <trkpt lat="47.35049" lon="-0.55397">
        <ele>79</ele>
        <time>2021-02-06T12:20:47Z</time>
      </trkpt>
      <trkpt lat="47.35035" lon="-0.55398">
        <ele>79</ele>
        <time>2021-02-06T12:20:50Z</time>
      </trkpt>
      <trkpt lat="47.3498" lon="-0.55401">
        <ele>79</ele>
        <time>2021-02-06T12:20:59Z</time>
      </trkpt>
      <trkpt lat="47.34969" lon="-0.55403">
        <ele>79</ele>
        <time>2021-02-06T12:21:01Z</time>
      </trkpt>
      <trkpt lat="47.34924" lon="-0.55412">
        <ele>79</ele>
        <time>2021-02-06T12:21:10Z</time>
      </trkpt>
      <trkpt lat="47.34897" lon="-0.55414">
        <ele>79</ele>
        <time>2021-02-06T12:21:14Z</time>
      </trkpt>
      <trkpt lat="47.34891" lon="-0.55414">
        <ele>80</ele>
        <time>2021-02-06T12:21:15Z</time>
      </trkpt>
      <trkpt lat="47.34836" lon="-0.55417">
        <ele>81</ele>
        <time>2021-02-06T12:21:25Z</time>
      </trkpt>
      <trkpt lat="47.3481" lon="-0.55415">
        <ele>81</ele>
        <time>2021-02-06T12:21:30Z</time>
      </trkpt>
      <trkpt lat="47.34807" lon="-0.55414">
        <ele>81</ele>
        <time>2021-02-06T12:21:30Z</time>
      </trkpt>
      <trkpt lat="47.34736" lon="-0.55405">
        <ele>81</ele>
        <time>2021-02-06T12:21:43Z</time>
      </trkpt>
      <trkpt lat="47.34721" lon="-0.554">
        <ele>82</ele>
        <time>2021-02-06T12:21:46Z</time>
      </trkpt>
      <trkpt lat="47.34706" lon="-0.55393">
        <ele>82</ele>
        <time>2021-02-06T12:21:49Z</time>
      </trkpt>
      <trkpt lat="47.34654" lon="-0.55353">
        <ele>84</ele>
        <time>2021-02-06T12:21:59Z</time>
      </trkpt>
      <trkpt lat="47.34646" lon="-0.55347">
        <ele>84</ele>
        <time>2021-02-06T12:22:01Z</time>
      </trkpt>
      <trkpt lat="47.34618" lon="-0.55334">
        <ele>85</ele>
        <time>2021-02-06T12:22:06Z</time>
      </trkpt>
      <trkpt lat="47.34575" lon="-0.55313">
        <ele>85</ele>
        <time>2021-02-06T12:22:14Z</time>
      </trkpt>
      <trkpt lat="47.34501" lon="-0.55281">
        <ele>85</ele>
        <time>2021-02-06T12:22:28Z</time>
      </trkpt>
      <trkpt lat="47.34475" lon="-0.5527">
        <ele>85</ele>
        <time>2021-02-06T12:22:32Z</time>
      </trkpt>
      <trkpt lat="47.34468" lon="-0.55266">
        <ele>86</ele>
        <time>2021-02-06T12:22:34Z</time>
      </trkpt>
      <trkpt lat="47.34438" lon="-0.55246">
        <ele>86</ele>
        <time>2021-02-06T12:22:40Z</time>
      </trkpt>
      <trkpt lat="47.34398" lon="-0.55212">
        <ele>85</ele>
        <time>2021-02-06T12:22:48Z</time>
      </trkpt>
      <trkpt lat="47.34366" lon="-0.55183">
        <ele>85</ele>
        <time>2021-02-06T12:22:55Z</time>
      </trkpt>
      <trkpt lat="47.34355" lon="-0.55172">
        <ele>86</ele>
        <time>2021-02-06T12:22:57Z</time>
      </trkpt>
      <trkpt lat="47.34294" lon="-0.55115">
        <ele>86</ele>
        <time>2021-02-06T12:23:10Z</time>
      </trkpt>
      <trkpt lat="47.34259" lon="-0.55081">
        <ele>85</ele>
        <time>2021-02-06T12:23:17Z</time>
      </trkpt>
      <trkpt lat="47.34223" lon="-0.55046">
        <ele>85</ele>
        <time>2021-02-06T12:23:25Z</time>
      </trkpt>
      <trkpt lat="47.3417" lon="-0.54992">
        <ele>85</ele>
        <time>2021-02-06T12:23:36Z</time>
      </trkpt>
      <trkpt lat="47.34132" lon="-0.54952">
        <ele>85</ele>
        <time>2021-02-06T12:23:45Z</time>
      </trkpt>
      <trkpt lat="47.34057" lon="-0.54857">
        <ele>86</ele>
        <time>2021-02-06T12:24:02Z</time>
      </trkpt>
      <trkpt lat="47.33992" lon="-0.54779">
        <ele>84</ele>
        <time>2021-02-06T12:24:17Z</time>
      </trkpt>
      <trkpt lat="47.33985" lon="-0.54768">
        <ele>84</ele>
        <time>2021-02-06T12:24:19Z</time>
      </trkpt>
      <trkpt lat="47.33968" lon="-0.5475">
        <ele>84</ele>
        <time>2021-02-06T12:24:23Z</time>
      </trkpt>
      <trkpt lat="47.33953" lon="-0.54738">
        <ele>84</ele>
        <time>2021-02-06T12:24:26Z</time>
      </trkpt>
      <trkpt lat="47.33945" lon="-0.54735">
        <ele>84</ele>
        <time>2021-02-06T12:24:27Z</time>
      </trkpt>
      <trkpt lat="47.33936" lon="-0.54734">
        <ele>84</ele>
        <time>2021-02-06T12:24:29Z</time>
      </trkpt>
      <trkpt lat="47.33924" lon="-0.54736">
        <ele>84</ele>
        <time>2021-02-06T12:24:31Z</time>
      </trkpt>
      <trkpt lat="47.33916" lon="-0.54737">
        <ele>84</ele>
        <time>2021-02-06T12:24:32Z</time>
      </trkpt>
      <trkpt lat="47.33898" lon="-0.54741">
        <ele>84</ele>
        <time>2021-02-06T12:24:36Z</time>
      </trkpt>
      <trkpt lat="47.33882" lon="-0.54746">
        <ele>84</ele>
        <time>2021-02-06T12:24:39Z</time>
      </trkpt>
      <trkpt lat="47.33872" lon="-0.5475">
        <ele>85</ele>
        <time>2021-02-06T12:24:40Z</time>
      </trkpt>
      <trkpt lat="47.33856" lon="-0.54764">
        <ele>85</ele>
        <time>2021-02-06T12:24:44Z</time>
      </trkpt>
      <trkpt lat="47.33838" lon="-0.54779">
        <ele>85</ele>
        <time>2021-02-06T12:24:47Z</time>
      </trkpt>
      <trkpt lat="47.33824" lon="-0.54789">
        <ele>85</ele>
        <time>2021-02-06T12:24:50Z</time>
      </trkpt>
      <trkpt lat="47.33816" lon="-0.54793">
        <ele>85</ele>
        <time>2021-02-06T12:24:52Z</time>
      </trkpt>
      <trkpt lat="47.33806" lon="-0.54796">
        <ele>85</ele>
        <time>2021-02-06T12:24:53Z</time>
      </trkpt>
      <trkpt lat="47.33794" lon="-0.54798">
        <ele>86</ele>
        <time>2021-02-06T12:24:56Z</time>
      </trkpt>
      <trkpt lat="47.33777" lon="-0.54798">
        <ele>86</ele>
        <time>2021-02-06T12:24:59Z</time>
      </trkpt>
      <trkpt lat="47.33753" lon="-0.54799">
        <ele>86</ele>
        <time>2021-02-06T12:25:03Z</time>
      </trkpt>
      <trkpt lat="47.33736" lon="-0.54797">
        <ele>87</ele>
        <time>2021-02-06T12:25:06Z</time>
      </trkpt>
      <trkpt lat="47.33728" lon="-0.54796">
        <ele>87</ele>
        <time>2021-02-06T12:25:07Z</time>
      </trkpt>
      <trkpt lat="47.33715" lon="-0.54788">
        <ele>87</ele>
        <time>2021-02-06T12:25:10Z</time>
      </trkpt>
      <trkpt lat="47.33691" lon="-0.5477">
        <ele>87</ele>
        <time>2021-02-06T12:25:15Z</time>
      </trkpt>
      <trkpt lat="47.33684" lon="-0.54763">
        <ele>88</ele>
        <time>2021-02-06T12:25:16Z</time>
      </trkpt>
      <trkpt lat="47.33679" lon="-0.54758">
        <ele>88</ele>
        <time>2021-02-06T12:25:17Z</time>
      </trkpt>
      <trkpt lat="47.33665" lon="-0.54747">
        <ele>88</ele>
        <time>2021-02-06T12:25:20Z</time>
      </trkpt>
      <trkpt lat="47.33652" lon="-0.54736">
        <ele>89</ele>
        <time>2021-02-06T12:25:23Z</time>
      </trkpt>
      <trkpt lat="47.33642" lon="-0.54729">
        <ele>89</ele>
        <time>2021-02-06T12:25:25Z</time>
      </trkpt>
      <trkpt lat="47.33634" lon="-0.54724">
        <ele>89</ele>
        <time>2021-02-06T12:25:26Z</time>
      </trkpt>
      <trkpt lat="47.33622" lon="-0.54719">
        <ele>89</ele>
        <time>2021-02-06T12:25:28Z</time>
      </trkpt>
      <trkpt lat="47.33608" lon="-0.54716">
        <ele>90</ele>
        <time>2021-02-06T12:25:31Z</time>
      </trkpt>
      <trkpt lat="47.33594" lon="-0.54713">
        <ele>90</ele>
        <time>2021-02-06T12:25:33Z</time>
      </trkpt>
      <trkpt lat="47.33552" lon="-0.54708">
        <ele>91</ele>
        <time>2021-02-06T12:25:41Z</time>
      </trkpt>
      <trkpt lat="47.33526" lon="-0.54705">
        <ele>92</ele>
        <time>2021-02-06T12:25:46Z</time>
      </trkpt>
      <trkpt lat="47.33518" lon="-0.54703">
        <ele>92</ele>
        <time>2021-02-06T12:25:47Z</time>
      </trkpt>
      <trkpt lat="47.33513" lon="-0.54701">
        <ele>92</ele>
        <time>2021-02-06T12:25:48Z</time>
      </trkpt>
      <trkpt lat="47.33506" lon="-0.54697">
        <ele>92</ele>
        <time>2021-02-06T12:25:49Z</time>
      </trkpt>
      <trkpt lat="47.33501" lon="-0.54693">
        <ele>92</ele>
        <time>2021-02-06T12:25:50Z</time>
      </trkpt>
      <trkpt lat="47.33495" lon="-0.54687">
        <ele>92</ele>
        <time>2021-02-06T12:25:52Z</time>
      </trkpt>
      <trkpt lat="47.33491" lon="-0.54683">
        <ele>92</ele>
        <time>2021-02-06T12:25:52Z</time>
      </trkpt>
      <trkpt lat="47.33488" lon="-0.54678">
        <ele>92</ele>
        <time>2021-02-06T12:25:53Z</time>
      </trkpt>
      <trkpt lat="47.33487" lon="-0.54677">
        <ele>92</ele>
        <time>2021-02-06T12:25:53Z</time>
      </trkpt>
      <trkpt lat="47.33481" lon="-0.54665">
        <ele>92</ele>
        <time>2021-02-06T12:25:55Z</time>
      </trkpt>
      <trkpt lat="47.3346" lon="-0.54621">
        <ele>92</ele>
        <time>2021-02-06T12:26:02Z</time>
      </trkpt>
      <trkpt lat="47.33441" lon="-0.54578">
        <ele>92</ele>
        <time>2021-02-06T12:26:08Z</time>
      </trkpt>
      <trkpt lat="47.33434" lon="-0.54562">
        <ele>92</ele>
        <time>2021-02-06T12:26:10Z</time>
      </trkpt>
      <trkpt lat="47.33426" lon="-0.54544">
        <ele>92</ele>
        <time>2021-02-06T12:26:13Z</time>
      </trkpt>
      <trkpt lat="47.33422" lon="-0.54537">
        <ele>93</ele>
        <time>2021-02-06T12:26:14Z</time>
      </trkpt>
      <trkpt lat="47.33419" lon="-0.5453">
        <ele>93</ele>
        <time>2021-02-06T12:26:15Z</time>
      </trkpt>
      <trkpt lat="47.33415" lon="-0.54524">
        <ele>93</ele>
        <time>2021-02-06T12:26:16Z</time>
      </trkpt>
      <trkpt lat="47.33412" lon="-0.54519">
        <ele>93</ele>
        <time>2021-02-06T12:26:17Z</time>
      </trkpt>
      <trkpt lat="47.33407" lon="-0.54514">
        <ele>93</ele>
        <time>2021-02-06T12:26:18Z</time>
      </trkpt>
      <trkpt lat="47.33407" lon="-0.54513">
        <ele>93</ele>
        <time>2021-02-06T12:26:18Z</time>
      </trkpt>
      <trkpt lat="47.33407" lon="-0.54513">
        <ele>93</ele>
        <time>2021-02-06T12:26:18Z</time>
      </trkpt>
      <trkpt lat="47.33403" lon="-0.54511">
        <ele>93</ele>
        <time>2021-02-06T12:26:19Z</time>
      </trkpt>
      <trkpt lat="47.33397" lon="-0.54508">
        <ele>93</ele>
        <time>2021-02-06T12:26:20Z</time>
      </trkpt>
      <trkpt lat="47.33392" lon="-0.54506">
        <ele>93</ele>
        <time>2021-02-06T12:26:21Z</time>
      </trkpt>
      <trkpt lat="47.33387" lon="-0.54506">
        <ele>93</ele>
        <time>2021-02-06T12:26:22Z</time>
      </trkpt>
      <trkpt lat="47.33378" lon="-0.54507">
        <ele>92</ele>
        <time>2021-02-06T12:26:23Z</time>
      </trkpt>
      <trkpt lat="47.3337" lon="-0.5451">
        <ele>92</ele>
        <time>2021-02-06T12:26:25Z</time>
      </trkpt>
      <trkpt lat="47.3336" lon="-0.54515">
        <ele>92</ele>
        <time>2021-02-06T12:26:27Z</time>
      </trkpt>
      <trkpt lat="47.33353" lon="-0.5452">
        <ele>92</ele>
        <time>2021-02-06T12:26:28Z</time>
      </trkpt>
      <trkpt lat="47.33335" lon="-0.54532">
        <ele>92</ele>
        <time>2021-02-06T12:26:32Z</time>
      </trkpt>
      <trkpt lat="47.3331" lon="-0.54551">
        <ele>91</ele>
        <time>2021-02-06T12:26:37Z</time>
      </trkpt>
      <trkpt lat="47.33289" lon="-0.54565">
        <ele>90</ele>
        <time>2021-02-06T12:26:41Z</time>
      </trkpt>
      <trkpt lat="47.3327" lon="-0.54577">
        <ele>90</ele>
        <time>2021-02-06T12:26:44Z</time>
      </trkpt>
      <trkpt lat="47.33252" lon="-0.54587">
        <ele>89</ele>
        <time>2021-02-06T12:26:48Z</time>
      </trkpt>
      <trkpt lat="47.33229" lon="-0.546">
        <ele>87</ele>
        <time>2021-02-06T12:26:52Z</time>
      </trkpt>
      <trkpt lat="47.33214" lon="-0.54609">
        <ele>87</ele>
        <time>2021-02-06T12:26:55Z</time>
      </trkpt>
      <trkpt lat="47.33206" lon="-0.54613">
        <ele>86</ele>
        <time>2021-02-06T12:26:56Z</time>
      </trkpt>
      <trkpt lat="47.33183" lon="-0.54626">
        <ele>85</ele>
        <time>2021-02-06T12:27:01Z</time>
      </trkpt>
      <trkpt lat="47.33153" lon="-0.54644">
        <ele>85</ele>
        <time>2021-02-06T12:27:07Z</time>
      </trkpt>
      <trkpt lat="47.33138" lon="-0.54651">
        <ele>85</ele>
        <time>2021-02-06T12:27:09Z</time>
      </trkpt>
      <trkpt lat="47.33123" lon="-0.54656">
        <ele>84</ele>
        <time>2021-02-06T12:27:12Z</time>
      </trkpt>
      <trkpt lat="47.33109" lon="-0.5466">
        <ele>84</ele>
        <time>2021-02-06T12:27:15Z</time>
      </trkpt>
      <trkpt lat="47.33101" lon="-0.54661">
        <ele>84</ele>
        <time>2021-02-06T12:27:16Z</time>
      </trkpt>
      <trkpt lat="47.33086" lon="-0.54663">
        <ele>84</ele>
        <time>2021-02-06T12:27:19Z</time>
      </trkpt>
      <trkpt lat="47.33064" lon="-0.54663">
        <ele>84</ele>
        <time>2021-02-06T12:27:23Z</time>
      </trkpt>
      <trkpt lat="47.33048" lon="-0.54663">
        <ele>83</ele>
        <time>2021-02-06T12:27:26Z</time>
      </trkpt>
      <trkpt lat="47.33038" lon="-0.54663">
        <ele>83</ele>
        <time>2021-02-06T12:27:27Z</time>
      </trkpt>
      <trkpt lat="47.33033" lon="-0.54663">
        <ele>83</ele>
        <time>2021-02-06T12:27:28Z</time>
      </trkpt>
      <trkpt lat="47.33026" lon="-0.54663">
        <ele>83</ele>
        <time>2021-02-06T12:27:29Z</time>
      </trkpt>
      <trkpt lat="47.33018" lon="-0.54663">
        <ele>83</ele>
        <time>2021-02-06T12:27:31Z</time>
      </trkpt>
      <trkpt lat="47.3301" lon="-0.54663">
        <ele>82</ele>
        <time>2021-02-06T12:27:32Z</time>
      </trkpt>
      <trkpt lat="47.33003" lon="-0.54663">
        <ele>82</ele>
        <time>2021-02-06T12:27:34Z</time>
      </trkpt>
      <trkpt lat="47.32978" lon="-0.54665">
        <ele>82</ele>
        <time>2021-02-06T12:27:38Z</time>
      </trkpt>
      <trkpt lat="47.32951" lon="-0.54662">
        <ele>81</ele>
        <time>2021-02-06T12:27:43Z</time>
      </trkpt>
      <trkpt lat="47.32938" lon="-0.54659">
        <ele>81</ele>
        <time>2021-02-06T12:27:45Z</time>
      </trkpt>
      <trkpt lat="47.32926" lon="-0.54651">
        <ele>81</ele>
        <time>2021-02-06T12:27:48Z</time>
      </trkpt>
      <trkpt lat="47.32915" lon="-0.54642">
        <ele>81</ele>
        <time>2021-02-06T12:27:50Z</time>
      </trkpt>
      <trkpt lat="47.32895" lon="-0.54613">
        <ele>82</ele>
        <time>2021-02-06T12:27:55Z</time>
      </trkpt>
      <trkpt lat="47.32865" lon="-0.54562">
        <ele>83</ele>
        <time>2021-02-06T12:28:03Z</time>
      </trkpt>
      <trkpt lat="47.32827" lon="-0.5449">
        <ele>84</ele>
        <time>2021-02-06T12:28:14Z</time>
      </trkpt>
      <trkpt lat="47.32819" lon="-0.54473">
        <ele>85</ele>
        <time>2021-02-06T12:28:16Z</time>
      </trkpt>
      <trkpt lat="47.32808" lon="-0.54454">
        <ele>85</ele>
        <time>2021-02-06T12:28:19Z</time>
      </trkpt>
      <trkpt lat="47.32801" lon="-0.54445">
        <ele>85</ele>
        <time>2021-02-06T12:28:21Z</time>
      </trkpt>
      <trkpt lat="47.32797" lon="-0.5444">
        <ele>85</ele>
        <time>2021-02-06T12:28:22Z</time>
      </trkpt>
      <trkpt lat="47.32792" lon="-0.54436">
        <ele>85</ele>
        <time>2021-02-06T12:28:23Z</time>
      </trkpt>
      <trkpt lat="47.32787" lon="-0.54434">
        <ele>85</ele>
        <time>2021-02-06T12:28:24Z</time>
      </trkpt>
      <trkpt lat="47.3278" lon="-0.54432">
        <ele>85</ele>
        <time>2021-02-06T12:28:25Z</time>
      </trkpt>
      <trkpt lat="47.32773" lon="-0.54429">
        <ele>85</ele>
        <time>2021-02-06T12:28:27Z</time>
      </trkpt>
      <trkpt lat="47.32763" lon="-0.54428">
        <ele>84</ele>
        <time>2021-02-06T12:28:28Z</time>
      </trkpt>
      <trkpt lat="47.32751" lon="-0.54426">
        <ele>84</ele>
        <time>2021-02-06T12:28:30Z</time>
      </trkpt>
      <trkpt lat="47.32705" lon="-0.54419">
        <ele>84</ele>
        <time>2021-02-06T12:28:39Z</time>
      </trkpt>
      <trkpt lat="47.3267" lon="-0.54414">
        <ele>84</ele>
        <time>2021-02-06T12:28:45Z</time>
      </trkpt>
      <trkpt lat="47.32635" lon="-0.54409">
        <ele>86</ele>
        <time>2021-02-06T12:28:51Z</time>
      </trkpt>
      <trkpt lat="47.3261" lon="-0.54405">
        <ele>87</ele>
        <time>2021-02-06T12:28:56Z</time>
      </trkpt>
      <trkpt lat="47.32582" lon="-0.54401">
        <ele>89</ele>
        <time>2021-02-06T12:29:01Z</time>
      </trkpt>
      <trkpt lat="47.32567" lon="-0.54398">
        <ele>89</ele>
        <time>2021-02-06T12:29:03Z</time>
      </trkpt>
      <trkpt lat="47.32554" lon="-0.54396">
        <ele>90</ele>
        <time>2021-02-06T12:29:06Z</time>
      </trkpt>
      <trkpt lat="47.3254" lon="-0.54395">
        <ele>90</ele>
        <time>2021-02-06T12:29:08Z</time>
      </trkpt>
      <trkpt lat="47.32527" lon="-0.54395">
        <ele>91</ele>
        <time>2021-02-06T12:29:10Z</time>
      </trkpt>
      <trkpt lat="47.32524" lon="-0.54395">
        <ele>91</ele>
        <time>2021-02-06T12:29:11Z</time>
      </trkpt>
      <trkpt lat="47.32515" lon="-0.54396">
        <ele>91</ele>
        <time>2021-02-06T12:29:13Z</time>
      </trkpt>
      <trkpt lat="47.32485" lon="-0.54405">
        <ele>93</ele>
        <time>2021-02-06T12:29:18Z</time>
      </trkpt>
      <trkpt lat="47.32439" lon="-0.54427">
        <ele>95</ele>
        <time>2021-02-06T12:29:27Z</time>
      </trkpt>
      <trkpt lat="47.32327" lon="-0.54477">
        <ele>95</ele>
        <time>2021-02-06T12:29:48Z</time>
      </trkpt>
      <trkpt lat="47.32249" lon="-0.54512">
        <ele>94</ele>
        <time>2021-02-06T12:30:02Z</time>
      </trkpt>
      <trkpt lat="47.32188" lon="-0.54543">
        <ele>93</ele>
        <time>2021-02-06T12:30:13Z</time>
      </trkpt>
      <trkpt lat="47.321" lon="-0.54575">
        <ele>94</ele>
        <time>2021-02-06T12:30:30Z</time>
      </trkpt>
      <trkpt lat="47.32033" lon="-0.54555">
        <ele>93</ele>
        <time>2021-02-06T12:30:42Z</time>
      </trkpt>
      <trkpt lat="47.31949" lon="-0.54523">
        <ele>92</ele>
        <time>2021-02-06T12:30:57Z</time>
      </trkpt>
      <trkpt lat="47.31873" lon="-0.54493">
        <ele>93</ele>
        <time>2021-02-06T12:31:11Z</time>
      </trkpt>
      <trkpt lat="47.31801" lon="-0.54462">
        <ele>94</ele>
        <time>2021-02-06T12:31:25Z</time>
      </trkpt>
      <trkpt lat="47.31752" lon="-0.54443">
        <ele>95</ele>
        <time>2021-02-06T12:31:34Z</time>
      </trkpt>
      <trkpt lat="47.31695" lon="-0.54424">
        <ele>99</ele>
        <time>2021-02-06T12:31:44Z</time>
      </trkpt>
      <trkpt lat="47.31511" lon="-0.54352">
        <ele>105</ele>
        <time>2021-02-06T12:32:18Z</time>
      </trkpt>
      <trkpt lat="47.31322" lon="-0.54278">
        <ele>108</ele>
        <time>2021-02-06T12:32:53Z</time>
      </trkpt>
      <trkpt lat="47.31129" lon="-0.54208">
        <ele>105</ele>
        <time>2021-02-06T12:33:28Z</time>
      </trkpt>
      <trkpt lat="47.31087" lon="-0.54193">
        <ele>103</ele>
        <time>2021-02-06T12:33:36Z</time>
      </trkpt>
      <trkpt lat="47.31007" lon="-0.54168">
        <ele>101</ele>
        <time>2021-02-06T12:33:50Z</time>
      </trkpt>
      <trkpt lat="47.30982" lon="-0.5416">
        <ele>101</ele>
        <time>2021-02-06T12:33:55Z</time>
      </trkpt>
      <trkpt lat="47.30974" lon="-0.54158">
        <ele>100</ele>
        <time>2021-02-06T12:33:56Z</time>
      </trkpt>
      <trkpt lat="47.30911" lon="-0.5414">
        <ele>100</ele>
        <time>2021-02-06T12:34:08Z</time>
      </trkpt>
      <trkpt lat="47.30879" lon="-0.54129">
        <ele>100</ele>
        <time>2021-02-06T12:34:13Z</time>
      </trkpt>
      <trkpt lat="47.30856" lon="-0.54122">
        <ele>100</ele>
        <time>2021-02-06T12:34:18Z</time>
      </trkpt>
      <trkpt lat="47.30836" lon="-0.54115">
        <ele>100</ele>
        <time>2021-02-06T12:34:21Z</time>
      </trkpt>
      <trkpt lat="47.30818" lon="-0.54106">
        <ele>100</ele>
        <time>2021-02-06T12:34:25Z</time>
      </trkpt>
      <trkpt lat="47.30783" lon="-0.54087">
        <ele>99</ele>
        <time>2021-02-06T12:34:31Z</time>
      </trkpt>
      <trkpt lat="47.30754" lon="-0.5407">
        <ele>99</ele>
        <time>2021-02-06T12:34:37Z</time>
      </trkpt>
      <trkpt lat="47.30712" lon="-0.54045">
        <ele>99</ele>
        <time>2021-02-06T12:34:45Z</time>
      </trkpt>
      <trkpt lat="47.30695" lon="-0.54036">
        <ele>99</ele>
        <time>2021-02-06T12:34:48Z</time>
      </trkpt>
      <trkpt lat="47.30685" lon="-0.5403">
        <ele>99</ele>
        <time>2021-02-06T12:34:50Z</time>
      </trkpt>
      <trkpt lat="47.30677" lon="-0.54026">
        <ele>99</ele>
        <time>2021-02-06T12:34:52Z</time>
      </trkpt>
      <trkpt lat="47.30666" lon="-0.54022">
        <ele>99</ele>
        <time>2021-02-06T12:34:54Z</time>
      </trkpt>
      <trkpt lat="47.30659" lon="-0.54022">
        <ele>99</ele>
        <time>2021-02-06T12:34:55Z</time>
      </trkpt>
      <trkpt lat="47.30648" lon="-0.54025">
        <ele>99</ele>
        <time>2021-02-06T12:34:57Z</time>
      </trkpt>
      <trkpt lat="47.30635" lon="-0.54031">
        <ele>99</ele>
        <time>2021-02-06T12:34:59Z</time>
      </trkpt>
      <trkpt lat="47.30624" lon="-0.54036">
        <ele>99</ele>
        <time>2021-02-06T12:35:01Z</time>
      </trkpt>
      <trkpt lat="47.30611" lon="-0.54042">
        <ele>99</ele>
        <time>2021-02-06T12:35:04Z</time>
      </trkpt>
      <trkpt lat="47.30594" lon="-0.54049">
        <ele>99</ele>
        <time>2021-02-06T12:35:07Z</time>
      </trkpt>
      <trkpt lat="47.30564" lon="-0.54058">
        <ele>99</ele>
        <time>2021-02-06T12:35:12Z</time>
      </trkpt>
      <trkpt lat="47.30534" lon="-0.54062">
        <ele>99</ele>
        <time>2021-02-06T12:35:18Z</time>
      </trkpt>
      <trkpt lat="47.30501" lon="-0.54061">
        <ele>99</ele>
        <time>2021-02-06T12:35:24Z</time>
      </trkpt>
      <trkpt lat="47.30473" lon="-0.54054">
        <ele>100</ele>
        <time>2021-02-06T12:35:29Z</time>
      </trkpt>
      <trkpt lat="47.3046" lon="-0.54048">
        <ele>100</ele>
        <time>2021-02-06T12:35:31Z</time>
      </trkpt>
      <trkpt lat="47.30451" lon="-0.54043">
        <ele>100</ele>
        <time>2021-02-06T12:35:33Z</time>
      </trkpt>
      <trkpt lat="47.30435" lon="-0.54034">
        <ele>100</ele>
        <time>2021-02-06T12:35:36Z</time>
      </trkpt>
      <trkpt lat="47.30403" lon="-0.54015">
        <ele>100</ele>
        <time>2021-02-06T12:35:42Z</time>
      </trkpt>
      <trkpt lat="47.30337" lon="-0.53975">
        <ele>101</ele>
        <time>2021-02-06T12:35:55Z</time>
      </trkpt>
      <trkpt lat="47.30304" lon="-0.53957">
        <ele>100</ele>
        <time>2021-02-06T12:36:01Z</time>
      </trkpt>
      <trkpt lat="47.30297" lon="-0.53955">
        <ele>100</ele>
        <time>2021-02-06T12:36:02Z</time>
      </trkpt>
      <trkpt lat="47.30277" lon="-0.53951">
        <ele>100</ele>
        <time>2021-02-06T12:36:06Z</time>
      </trkpt>
      <trkpt lat="47.30255" lon="-0.5395">
        <ele>100</ele>
        <time>2021-02-06T12:36:10Z</time>
      </trkpt>
      <trkpt lat="47.30218" lon="-0.53954">
        <ele>100</ele>
        <time>2021-02-06T12:36:16Z</time>
      </trkpt>
      <trkpt lat="47.30175" lon="-0.53963">
        <ele>100</ele>
        <time>2021-02-06T12:36:24Z</time>
      </trkpt>
      <trkpt lat="47.30156" lon="-0.53966">
        <ele>100</ele>
        <time>2021-02-06T12:36:27Z</time>
      </trkpt>
      <trkpt lat="47.30136" lon="-0.53969">
        <ele>100</ele>
        <time>2021-02-06T12:36:31Z</time>
      </trkpt>
      <trkpt lat="47.30117" lon="-0.53972">
        <ele>100</ele>
        <time>2021-02-06T12:36:34Z</time>
      </trkpt>
      <trkpt lat="47.30099" lon="-0.53973">
        <ele>100</ele>
        <time>2021-02-06T12:36:38Z</time>
      </trkpt>
      <trkpt lat="47.30096" lon="-0.53974">
        <ele>100</ele>
        <time>2021-02-06T12:36:38Z</time>
      </trkpt>
      <trkpt lat="47.30065" lon="-0.53979">
        <ele>99</ele>
        <time>2021-02-06T12:36:44Z</time>
      </trkpt>
      <trkpt lat="47.30059" lon="-0.5398">
        <ele>99</ele>
        <time>2021-02-06T12:36:45Z</time>
      </trkpt>
      <trkpt lat="47.30056" lon="-0.5398">
        <ele>99</ele>
        <time>2021-02-06T12:36:45Z</time>
      </trkpt>
      <trkpt lat="47.30053" lon="-0.5398">
        <ele>99</ele>
        <time>2021-02-06T12:36:46Z</time>
      </trkpt>
      <trkpt lat="47.30049" lon="-0.5398">
        <ele>99</ele>
        <time>2021-02-06T12:36:47Z</time>
      </trkpt>
      <trkpt lat="47.30049" lon="-0.5398">
        <ele>99</ele>
        <time>2021-02-06T12:36:47Z</time>
      </trkpt>
      <trkpt lat="47.30047" lon="-0.53972">
        <ele>99</ele>
        <time>2021-02-06T12:36:48Z</time>
      </trkpt>
      <trkpt lat="47.30038" lon="-0.53943">
        <ele>98</ele>
        <time>2021-02-06T12:36:51Z</time>
      </trkpt>
      <trkpt lat="47.30032" lon="-0.53922">
        <ele>98</ele>
        <time>2021-02-06T12:36:54Z</time>
      </trkpt>
      <trkpt lat="47.30026" lon="-0.53908">
        <ele>98</ele>
        <time>2021-02-06T12:36:56Z</time>
      </trkpt>
      <trkpt lat="47.30021" lon="-0.53897">
        <ele>97</ele>
        <time>2021-02-06T12:36:58Z</time>
      </trkpt>
      <trkpt lat="47.30006" lon="-0.53872">
        <ele>97</ele>
        <time>2021-02-06T12:37:02Z</time>
      </trkpt>
      <trkpt lat="47.2998" lon="-0.5383">
        <ele>97</ele>
        <time>2021-02-06T12:37:09Z</time>
      </trkpt>
      <trkpt lat="47.29974" lon="-0.53821">
        <ele>97</ele>
        <time>2021-02-06T12:37:10Z</time>
      </trkpt>
      <trkpt lat="47.29949" lon="-0.5378">
        <ele>96</ele>
        <time>2021-02-06T12:37:17Z</time>
      </trkpt>
      <trkpt lat="47.29926" lon="-0.53744">
        <ele>95</ele>
        <time>2021-02-06T12:37:23Z</time>
      </trkpt>
      <trkpt lat="47.29902" lon="-0.53704">
        <ele>94</ele>
        <time>2021-02-06T12:37:29Z</time>
      </trkpt>
      <trkpt lat="47.29878" lon="-0.53664">
        <ele>94</ele>
        <time>2021-02-06T12:37:36Z</time>
      </trkpt>
      <trkpt lat="47.29868" lon="-0.53646">
        <ele>94</ele>
        <time>2021-02-06T12:37:38Z</time>
      </trkpt>
      <trkpt lat="47.29867" lon="-0.53645">
        <ele>94</ele>
        <time>2021-02-06T12:37:39Z</time>
      </trkpt>
      <trkpt lat="47.29858" lon="-0.53625">
        <ele>95</ele>
        <time>2021-02-06T12:37:42Z</time>
      </trkpt>
      <trkpt lat="47.29849" lon="-0.53603">
        <ele>95</ele>
        <time>2021-02-06T12:37:45Z</time>
      </trkpt>
      <trkpt lat="47.29842" lon="-0.53584">
        <ele>96</ele>
        <time>2021-02-06T12:37:47Z</time>
      </trkpt>
      <trkpt lat="47.29835" lon="-0.53562">
        <ele>96</ele>
        <time>2021-02-06T12:37:50Z</time>
      </trkpt>
      <trkpt lat="47.29824" lon="-0.53528">
        <ele>96</ele>
        <time>2021-02-06T12:37:55Z</time>
      </trkpt>
      <trkpt lat="47.29819" lon="-0.53508">
        <ele>95</ele>
        <time>2021-02-06T12:37:57Z</time>
      </trkpt>
      <trkpt lat="47.29818" lon="-0.53505">
        <ele>95</ele>
        <time>2021-02-06T12:37:58Z</time>
      </trkpt>
      <trkpt lat="47.29812" lon="-0.53493">
        <ele>95</ele>
        <time>2021-02-06T12:38:00Z</time>
      </trkpt>
      <trkpt lat="47.29807" lon="-0.53481">
        <ele>95</ele>
        <time>2021-02-06T12:38:01Z</time>
      </trkpt>
      <trkpt lat="47.298" lon="-0.53469">
        <ele>95</ele>
        <time>2021-02-06T12:38:03Z</time>
      </trkpt>
      <trkpt lat="47.29791" lon="-0.5346">
        <ele>95</ele>
        <time>2021-02-06T12:38:05Z</time>
      </trkpt>
      <trkpt lat="47.29786" lon="-0.53453">
        <ele>95</ele>
        <time>2021-02-06T12:38:06Z</time>
      </trkpt>
      <trkpt lat="47.29782" lon="-0.53448">
        <ele>95</ele>
        <time>2021-02-06T12:38:07Z</time>
      </trkpt>
      <trkpt lat="47.29779" lon="-0.53444">
        <ele>95</ele>
        <time>2021-02-06T12:38:08Z</time>
      </trkpt>
      <trkpt lat="47.29761" lon="-0.53423">
        <ele>95</ele>
        <time>2021-02-06T12:38:12Z</time>
      </trkpt>
      <trkpt lat="47.29739" lon="-0.53396">
        <ele>95</ele>
        <time>2021-02-06T12:38:17Z</time>
      </trkpt>
      <trkpt lat="47.29726" lon="-0.53377">
        <ele>96</ele>
        <time>2021-02-06T12:38:20Z</time>
      </trkpt>
      <trkpt lat="47.29716" lon="-0.53358">
        <ele>96</ele>
        <time>2021-02-06T12:38:23Z</time>
      </trkpt>
      <trkpt lat="47.29708" lon="-0.53339">
        <ele>96</ele>
        <time>2021-02-06T12:38:26Z</time>
      </trkpt>
      <trkpt lat="47.29695" lon="-0.53307">
        <ele>97</ele>
        <time>2021-02-06T12:38:31Z</time>
      </trkpt>
      <trkpt lat="47.29693" lon="-0.53301">
        <ele>97</ele>
        <time>2021-02-06T12:38:31Z</time>
      </trkpt>
      <trkpt lat="47.29678" lon="-0.53257">
        <ele>96</ele>
        <time>2021-02-06T12:38:37Z</time>
      </trkpt>
      <trkpt lat="47.29661" lon="-0.53208">
        <ele>95</ele>
        <time>2021-02-06T12:38:44Z</time>
      </trkpt>
      <trkpt lat="47.2964" lon="-0.53146">
        <ele>95</ele>
        <time>2021-02-06T12:38:52Z</time>
      </trkpt>
      <trkpt lat="47.29623" lon="-0.53093">
        <ele>94</ele>
        <time>2021-02-06T12:38:59Z</time>
      </trkpt>
      <trkpt lat="47.29589" lon="-0.52992">
        <ele>93</ele>
        <time>2021-02-06T12:39:13Z</time>
      </trkpt>
      <trkpt lat="47.29578" lon="-0.52961">
        <ele>91</ele>
        <time>2021-02-06T12:39:17Z</time>
      </trkpt>
      <trkpt lat="47.29573" lon="-0.52949">
        <ele>91</ele>
        <time>2021-02-06T12:39:19Z</time>
      </trkpt>
      <trkpt lat="47.29552" lon="-0.52888">
        <ele>89</ele>
        <time>2021-02-06T12:39:27Z</time>
      </trkpt>
      <trkpt lat="47.29538" lon="-0.52846">
        <ele>88</ele>
        <time>2021-02-06T12:39:33Z</time>
      </trkpt>
      <trkpt lat="47.29527" lon="-0.52811">
        <ele>87</ele>
        <time>2021-02-06T12:39:37Z</time>
      </trkpt>
      <trkpt lat="47.29511" lon="-0.52764">
        <ele>85</ele>
        <time>2021-02-06T12:39:44Z</time>
      </trkpt>
      <trkpt lat="47.29506" lon="-0.52752">
        <ele>85</ele>
        <time>2021-02-06T12:39:45Z</time>
      </trkpt>
      <trkpt lat="47.2949" lon="-0.52707">
        <ele>83</ele>
        <time>2021-02-06T12:39:52Z</time>
      </trkpt>
      <trkpt lat="47.29482" lon="-0.52678">
        <ele>82</ele>
        <time>2021-02-06T12:39:55Z</time>
      </trkpt>
      <trkpt lat="47.29471" lon="-0.52638">
        <ele>80</ele>
        <time>2021-02-06T12:40:01Z</time>
      </trkpt>
      <trkpt lat="47.29467" lon="-0.52618">
        <ele>79</ele>
        <time>2021-02-06T12:40:03Z</time>
      </trkpt>
      <trkpt lat="47.29463" lon="-0.52596">
        <ele>78</ele>
        <time>2021-02-06T12:40:06Z</time>
      </trkpt>
      <trkpt lat="47.29461" lon="-0.52578">
        <ele>78</ele>
        <time>2021-02-06T12:40:08Z</time>
      </trkpt>
      <trkpt lat="47.2946" lon="-0.52556">
        <ele>77</ele>
        <time>2021-02-06T12:40:11Z</time>
      </trkpt>
      <trkpt lat="47.29459" lon="-0.52548">
        <ele>77</ele>
        <time>2021-02-06T12:40:12Z</time>
      </trkpt>
      <trkpt lat="47.29458" lon="-0.52525">
        <ele>76</ele>
        <time>2021-02-06T12:40:14Z</time>
      </trkpt>
      <trkpt lat="47.29458" lon="-0.52523">
        <ele>76</ele>
        <time>2021-02-06T12:40:15Z</time>
      </trkpt>
      <trkpt lat="47.29459" lon="-0.52497">
        <ele>75</ele>
        <time>2021-02-06T12:40:18Z</time>
      </trkpt>
      <trkpt lat="47.29458" lon="-0.52464">
        <ele>74</ele>
        <time>2021-02-06T12:40:22Z</time>
      </trkpt>
      <trkpt lat="47.29457" lon="-0.52443">
        <ele>74</ele>
        <time>2021-02-06T12:40:24Z</time>
      </trkpt>
      <trkpt lat="47.29456" lon="-0.52443">
        <ele>74</ele>
        <time>2021-02-06T12:40:25Z</time>
      </trkpt>
      <trkpt lat="47.29455" lon="-0.52442">
        <ele>74</ele>
        <time>2021-02-06T12:40:25Z</time>
      </trkpt>
      <trkpt lat="47.29454" lon="-0.52439">
        <ele>74</ele>
        <time>2021-02-06T12:40:25Z</time>
      </trkpt>
      <trkpt lat="47.29454" lon="-0.52437">
        <ele>74</ele>
        <time>2021-02-06T12:40:25Z</time>
      </trkpt>
      <trkpt lat="47.29454" lon="-0.52435">
        <ele>74</ele>
        <time>2021-02-06T12:40:26Z</time>
      </trkpt>
      <trkpt lat="47.29455" lon="-0.52434">
        <ele>74</ele>
        <time>2021-02-06T12:40:26Z</time>
      </trkpt>
      <trkpt lat="47.29456" lon="-0.52432">
        <ele>74</ele>
        <time>2021-02-06T12:40:26Z</time>
      </trkpt>
      <trkpt lat="47.29457" lon="-0.52432">
        <ele>74</ele>
        <time>2021-02-06T12:40:26Z</time>
      </trkpt>
      <trkpt lat="47.29457" lon="-0.52411">
        <ele>74</ele>
        <time>2021-02-06T12:40:29Z</time>
      </trkpt>
      <trkpt lat="47.29456" lon="-0.52361">
        <ele>74</ele>
        <time>2021-02-06T12:40:35Z</time>
      </trkpt>
      <trkpt lat="47.29456" lon="-0.52334">
        <ele>75</ele>
        <time>2021-02-06T12:40:38Z</time>
      </trkpt>
      <trkpt lat="47.29456" lon="-0.52312">
        <ele>76</ele>
        <time>2021-02-06T12:40:41Z</time>
      </trkpt>
      <trkpt lat="47.29453" lon="-0.52289">
        <ele>77</ele>
        <time>2021-02-06T12:40:44Z</time>
      </trkpt>
      <trkpt lat="47.29449" lon="-0.52279">
        <ele>77</ele>
        <time>2021-02-06T12:40:45Z</time>
      </trkpt>
      <trkpt lat="47.29444" lon="-0.52267">
        <ele>78</ele>
        <time>2021-02-06T12:40:47Z</time>
      </trkpt>
      <trkpt lat="47.29423" lon="-0.52232">
        <ele>79</ele>
        <time>2021-02-06T12:40:52Z</time>
      </trkpt>
      <trkpt lat="47.2941" lon="-0.52212">
        <ele>79</ele>
        <time>2021-02-06T12:40:56Z</time>
      </trkpt>
      <trkpt lat="47.29401" lon="-0.52196">
        <ele>79</ele>
        <time>2021-02-06T12:40:58Z</time>
      </trkpt>
      <trkpt lat="47.29394" lon="-0.52185">
        <ele>79</ele>
        <time>2021-02-06T12:41:00Z</time>
      </trkpt>
      <trkpt lat="47.29387" lon="-0.52174">
        <ele>79</ele>
        <time>2021-02-06T12:41:02Z</time>
      </trkpt>
      <trkpt lat="47.29387" lon="-0.52173">
        <ele>79</ele>
        <time>2021-02-06T12:41:02Z</time>
      </trkpt>
      <trkpt lat="47.29376" lon="-0.52155">
        <ele>80</ele>
        <time>2021-02-06T12:41:05Z</time>
      </trkpt>
      <trkpt lat="47.29369" lon="-0.52145">
        <ele>80</ele>
        <time>2021-02-06T12:41:07Z</time>
      </trkpt>
      <trkpt lat="47.29361" lon="-0.52136">
        <ele>80</ele>
        <time>2021-02-06T12:41:08Z</time>
      </trkpt>
      <trkpt lat="47.2935" lon="-0.52127">
        <ele>80</ele>
        <time>2021-02-06T12:41:11Z</time>
      </trkpt>
      <trkpt lat="47.29345" lon="-0.52123">
        <ele>80</ele>
        <time>2021-02-06T12:41:12Z</time>
      </trkpt>
      <trkpt lat="47.29331" lon="-0.52111">
        <ele>81</ele>
        <time>2021-02-06T12:41:15Z</time>
      </trkpt>
      <trkpt lat="47.2932" lon="-0.52102">
        <ele>82</ele>
        <time>2021-02-06T12:41:17Z</time>
      </trkpt>
      <trkpt lat="47.29308" lon="-0.52088">
        <ele>83</ele>
        <time>2021-02-06T12:41:20Z</time>
      </trkpt>
      <trkpt lat="47.29288" lon="-0.52068">
        <ele>84</ele>
        <time>2021-02-06T12:41:24Z</time>
      </trkpt>
      <trkpt lat="47.29267" lon="-0.52047">
        <ele>85</ele>
        <time>2021-02-06T12:41:28Z</time>
      </trkpt>
      <trkpt lat="47.29253" lon="-0.52031">
        <ele>86</ele>
        <time>2021-02-06T12:41:32Z</time>
      </trkpt>
      <trkpt lat="47.29253" lon="-0.52031">
        <ele>86</ele>
        <time>2021-02-06T12:41:32Z</time>
      </trkpt>
      <trkpt lat="47.29242" lon="-0.52051">
        <ele>86</ele>
        <time>2021-02-06T12:41:35Z</time>
      </trkpt>
      <trkpt lat="47.29236" lon="-0.52059">
        <ele>86</ele>
        <time>2021-02-06T12:41:36Z</time>
      </trkpt>
      <trkpt lat="47.2922" lon="-0.52084">
        <ele>86</ele>
        <time>2021-02-06T12:41:40Z</time>
      </trkpt>
      <trkpt lat="47.29205" lon="-0.521">
        <ele>86</ele>
        <time>2021-02-06T12:41:44Z</time>
      </trkpt>
      <trkpt lat="47.29194" lon="-0.52111">
        <ele>87</ele>
        <time>2021-02-06T12:41:46Z</time>
      </trkpt>
      <trkpt lat="47.29178" lon="-0.52123">
        <ele>87</ele>
        <time>2021-02-06T12:41:49Z</time>
      </trkpt>
      <trkpt lat="47.29163" lon="-0.52132">
        <ele>87</ele>
        <time>2021-02-06T12:41:52Z</time>
      </trkpt>
      <trkpt lat="47.2915" lon="-0.52135">
        <ele>87</ele>
        <time>2021-02-06T12:41:54Z</time>
      </trkpt>
      <trkpt lat="47.29138" lon="-0.52137">
        <ele>87</ele>
        <time>2021-02-06T12:41:56Z</time>
      </trkpt>
      <trkpt lat="47.29128" lon="-0.52137">
        <ele>86</ele>
        <time>2021-02-06T12:41:58Z</time>
      </trkpt>
      <trkpt lat="47.29111" lon="-0.52136">
        <ele>86</ele>
        <time>2021-02-06T12:42:01Z</time>
      </trkpt>
      <trkpt lat="47.29092" lon="-0.52136">
        <ele>85</ele>
        <time>2021-02-06T12:42:05Z</time>
      </trkpt>
      <trkpt lat="47.29075" lon="-0.52136">
        <ele>84</ele>
        <time>2021-02-06T12:42:08Z</time>
      </trkpt>
      <trkpt lat="47.2906" lon="-0.52138">
        <ele>84</ele>
        <time>2021-02-06T12:42:10Z</time>
      </trkpt>
      <trkpt lat="47.29047" lon="-0.52141">
        <ele>83</ele>
        <time>2021-02-06T12:42:13Z</time>
      </trkpt>
      <trkpt lat="47.29022" lon="-0.52152">
        <ele>83</ele>
        <time>2021-02-06T12:42:17Z</time>
      </trkpt>
      <trkpt lat="47.28998" lon="-0.52163">
        <ele>83</ele>
        <time>2021-02-06T12:42:22Z</time>
      </trkpt>
      <trkpt lat="47.28975" lon="-0.52174">
        <ele>82</ele>
        <time>2021-02-06T12:42:26Z</time>
      </trkpt>
      <trkpt lat="47.28945" lon="-0.52187">
        <ele>82</ele>
        <time>2021-02-06T12:42:32Z</time>
      </trkpt>
      <trkpt lat="47.28924" lon="-0.52191">
        <ele>81</ele>
        <time>2021-02-06T12:42:35Z</time>
      </trkpt>
      <trkpt lat="47.28917" lon="-0.52192">
        <ele>81</ele>
        <time>2021-02-06T12:42:37Z</time>
      </trkpt>
      <trkpt lat="47.28911" lon="-0.52192">
        <ele>80</ele>
        <time>2021-02-06T12:42:38Z</time>
      </trkpt>
      <trkpt lat="47.28895" lon="-0.52192">
        <ele>80</ele>
        <time>2021-02-06T12:42:41Z</time>
      </trkpt>
      <trkpt lat="47.28884" lon="-0.5219">
        <ele>79</ele>
        <time>2021-02-06T12:42:43Z</time>
      </trkpt>
      <trkpt lat="47.28843" lon="-0.52179">
        <ele>77</ele>
        <time>2021-02-06T12:42:50Z</time>
      </trkpt>
      <trkpt lat="47.28799" lon="-0.52162">
        <ele>74</ele>
        <time>2021-02-06T12:42:58Z</time>
      </trkpt>
      <trkpt lat="47.28752" lon="-0.52143">
        <ele>72</ele>
        <time>2021-02-06T12:43:07Z</time>
      </trkpt>
      <trkpt lat="47.28709" lon="-0.52126">
        <ele>69</ele>
        <time>2021-02-06T12:43:15Z</time>
      </trkpt>
      <trkpt lat="47.28665" lon="-0.52108">
        <ele>65</ele>
        <time>2021-02-06T12:43:23Z</time>
      </trkpt>
      <trkpt lat="47.28645" lon="-0.521">
        <ele>64</ele>
        <time>2021-02-06T12:43:26Z</time>
      </trkpt>
      <trkpt lat="47.28619" lon="-0.52089">
        <ele>62</ele>
        <time>2021-02-06T12:43:31Z</time>
      </trkpt>
      <trkpt lat="47.286" lon="-0.52084">
        <ele>60</ele>
        <time>2021-02-06T12:43:35Z</time>
      </trkpt>
      <trkpt lat="47.28583" lon="-0.52079">
        <ele>59</ele>
        <time>2021-02-06T12:43:38Z</time>
      </trkpt>
      <trkpt lat="47.28576" lon="-0.52077">
        <ele>59</ele>
        <time>2021-02-06T12:43:39Z</time>
      </trkpt>
      <trkpt lat="47.28559" lon="-0.52074">
        <ele>58</ele>
        <time>2021-02-06T12:43:42Z</time>
      </trkpt>
      <trkpt lat="47.28534" lon="-0.52072">
        <ele>56</ele>
        <time>2021-02-06T12:43:47Z</time>
      </trkpt>
      <trkpt lat="47.28523" lon="-0.52072">
        <ele>55</ele>
        <time>2021-02-06T12:43:49Z</time>
      </trkpt>
      <trkpt lat="47.285" lon="-0.52074">
        <ele>54</ele>
        <time>2021-02-06T12:43:53Z</time>
      </trkpt>
      <trkpt lat="47.28475" lon="-0.52079">
        <ele>53</ele>
        <time>2021-02-06T12:43:57Z</time>
      </trkpt>
      <trkpt lat="47.2843" lon="-0.52093">
        <ele>51</ele>
        <time>2021-02-06T12:44:05Z</time>
      </trkpt>
      <trkpt lat="47.28412" lon="-0.52099">
        <ele>50</ele>
        <time>2021-02-06T12:44:09Z</time>
      </trkpt>
      <trkpt lat="47.28368" lon="-0.52114">
        <ele>48</ele>
        <time>2021-02-06T12:44:17Z</time>
      </trkpt>
      <trkpt lat="47.2836" lon="-0.52117">
        <ele>47</ele>
        <time>2021-02-06T12:44:18Z</time>
      </trkpt>
      <trkpt lat="47.28345" lon="-0.52124">
        <ele>46</ele>
        <time>2021-02-06T12:44:21Z</time>
      </trkpt>
      <trkpt lat="47.28332" lon="-0.52131">
        <ele>45</ele>
        <time>2021-02-06T12:44:23Z</time>
      </trkpt>
      <trkpt lat="47.28318" lon="-0.5214">
        <ele>45</ele>
        <time>2021-02-06T12:44:26Z</time>
      </trkpt>
      <trkpt lat="47.28303" lon="-0.52152">
        <ele>45</ele>
        <time>2021-02-06T12:44:29Z</time>
      </trkpt>
      <trkpt lat="47.28286" lon="-0.52169">
        <ele>44</ele>
        <time>2021-02-06T12:44:33Z</time>
      </trkpt>
      <trkpt lat="47.28272" lon="-0.52186">
        <ele>44</ele>
        <time>2021-02-06T12:44:36Z</time>
      </trkpt>
      <trkpt lat="47.28261" lon="-0.52202">
        <ele>44</ele>
        <time>2021-02-06T12:44:39Z</time>
      </trkpt>
      <trkpt lat="47.28256" lon="-0.52211">
        <ele>44</ele>
        <time>2021-02-06T12:44:40Z</time>
      </trkpt>
      <trkpt lat="47.28239" lon="-0.52241">
        <ele>44</ele>
        <time>2021-02-06T12:44:45Z</time>
      </trkpt>
      <trkpt lat="47.28228" lon="-0.5226">
        <ele>44</ele>
        <time>2021-02-06T12:44:48Z</time>
      </trkpt>
      <trkpt lat="47.28219" lon="-0.52276">
        <ele>45</ele>
        <time>2021-02-06T12:44:50Z</time>
      </trkpt>
      <trkpt lat="47.28207" lon="-0.52295">
        <ele>44</ele>
        <time>2021-02-06T12:44:54Z</time>
      </trkpt>
      <trkpt lat="47.28194" lon="-0.52311">
        <ele>44</ele>
        <time>2021-02-06T12:44:57Z</time>
      </trkpt>
      <trkpt lat="47.28181" lon="-0.52324">
        <ele>43</ele>
        <time>2021-02-06T12:44:59Z</time>
      </trkpt>
      <trkpt lat="47.28152" lon="-0.52351">
        <ele>40</ele>
        <time>2021-02-06T12:45:05Z</time>
      </trkpt>
      <trkpt lat="47.28139" lon="-0.52361">
        <ele>39</ele>
        <time>2021-02-06T12:45:08Z</time>
      </trkpt>
      <trkpt lat="47.28125" lon="-0.52369">
        <ele>38</ele>
        <time>2021-02-06T12:45:11Z</time>
      </trkpt>
      <trkpt lat="47.28108" lon="-0.52374">
        <ele>37</ele>
        <time>2021-02-06T12:45:14Z</time>
      </trkpt>
      <trkpt lat="47.28105" lon="-0.52377">
        <ele>37</ele>
        <time>2021-02-06T12:45:14Z</time>
      </trkpt>
      <trkpt lat="47.28092" lon="-0.52381">
        <ele>35</ele>
        <time>2021-02-06T12:45:17Z</time>
      </trkpt>
      <trkpt lat="47.28081" lon="-0.52382">
        <ele>35</ele>
        <time>2021-02-06T12:45:19Z</time>
      </trkpt>
      <trkpt lat="47.2807" lon="-0.52382">
        <ele>34</ele>
        <time>2021-02-06T12:45:21Z</time>
      </trkpt>
      <trkpt lat="47.2806" lon="-0.52381">
        <ele>34</ele>
        <time>2021-02-06T12:45:23Z</time>
      </trkpt>
      <trkpt lat="47.28045" lon="-0.52376">
        <ele>33</ele>
        <time>2021-02-06T12:45:25Z</time>
      </trkpt>
      <trkpt lat="47.28041" lon="-0.52375">
        <ele>33</ele>
        <time>2021-02-06T12:45:26Z</time>
      </trkpt>
      <trkpt lat="47.28031" lon="-0.5237">
        <ele>33</ele>
        <time>2021-02-06T12:45:28Z</time>
      </trkpt>
      <trkpt lat="47.28022" lon="-0.52365">
        <ele>33</ele>
        <time>2021-02-06T12:45:30Z</time>
      </trkpt>
      <trkpt lat="47.28013" lon="-0.52358">
        <ele>33</ele>
        <time>2021-02-06T12:45:31Z</time>
      </trkpt>
      <trkpt lat="47.28004" lon="-0.52351">
        <ele>33</ele>
        <time>2021-02-06T12:45:33Z</time>
      </trkpt>
      <trkpt lat="47.27996" lon="-0.52342">
        <ele>33</ele>
        <time>2021-02-06T12:45:35Z</time>
      </trkpt>
      <trkpt lat="47.27988" lon="-0.52331">
        <ele>33</ele>
        <time>2021-02-06T12:45:37Z</time>
      </trkpt>
      <trkpt lat="47.27981" lon="-0.5232">
        <ele>33</ele>
        <time>2021-02-06T12:45:39Z</time>
      </trkpt>
      <trkpt lat="47.27975" lon="-0.52311">
        <ele>33</ele>
        <time>2021-02-06T12:45:40Z</time>
      </trkpt>
      <trkpt lat="47.27974" lon="-0.52308">
        <ele>34</ele>
        <time>2021-02-06T12:45:41Z</time>
      </trkpt>
      <trkpt lat="47.27966" lon="-0.52293">
        <ele>34</ele>
        <time>2021-02-06T12:45:43Z</time>
      </trkpt>
      <trkpt lat="47.27959" lon="-0.52277">
        <ele>34</ele>
        <time>2021-02-06T12:45:45Z</time>
      </trkpt>
      <trkpt lat="47.27952" lon="-0.5226">
        <ele>34</ele>
        <time>2021-02-06T12:45:48Z</time>
      </trkpt>
      <trkpt lat="47.27944" lon="-0.52237">
        <ele>34</ele>
        <time>2021-02-06T12:45:51Z</time>
      </trkpt>
      <trkpt lat="47.27944" lon="-0.52233">
        <ele>35</ele>
        <time>2021-02-06T12:45:51Z</time>
      </trkpt>
      <trkpt lat="47.2793" lon="-0.52196">
        <ele>34</ele>
        <time>2021-02-06T12:45:56Z</time>
      </trkpt>
      <trkpt lat="47.27914" lon="-0.52155">
        <ele>33</ele>
        <time>2021-02-06T12:46:02Z</time>
      </trkpt>
      <trkpt lat="47.27899" lon="-0.52112">
        <ele>34</ele>
        <time>2021-02-06T12:46:08Z</time>
      </trkpt>
      <trkpt lat="47.27886" lon="-0.52077">
        <ele>36</ele>
        <time>2021-02-06T12:46:13Z</time>
      </trkpt>
      <trkpt lat="47.27876" lon="-0.52048">
        <ele>36</ele>
        <time>2021-02-06T12:46:17Z</time>
      </trkpt>
      <trkpt lat="47.27863" lon="-0.52006">
        <ele>36</ele>
        <time>2021-02-06T12:46:22Z</time>
      </trkpt>
      <trkpt lat="47.27852" lon="-0.51968">
        <ele>37</ele>
        <time>2021-02-06T12:46:27Z</time>
      </trkpt>
      <trkpt lat="47.27806" lon="-0.51801">
        <ele>40</ele>
        <time>2021-02-06T12:46:49Z</time>
      </trkpt>
      <trkpt lat="47.27799" lon="-0.51773">
        <ele>41</ele>
        <time>2021-02-06T12:46:53Z</time>
      </trkpt>
      <trkpt lat="47.27788" lon="-0.51735">
        <ele>41</ele>
        <time>2021-02-06T12:46:58Z</time>
      </trkpt>
      <trkpt lat="47.2777" lon="-0.51675">
        <ele>41</ele>
        <time>2021-02-06T12:47:06Z</time>
      </trkpt>
      <trkpt lat="47.2775" lon="-0.51622">
        <ele>39</ele>
        <time>2021-02-06T12:47:13Z</time>
      </trkpt>
      <trkpt lat="47.27728" lon="-0.51558">
        <ele>40</ele>
        <time>2021-02-06T12:47:21Z</time>
      </trkpt>
      <trkpt lat="47.27709" lon="-0.51512">
        <ele>39</ele>
        <time>2021-02-06T12:47:28Z</time>
      </trkpt>
      <trkpt lat="47.27691" lon="-0.51472">
        <ele>37</ele>
        <time>2021-02-06T12:47:34Z</time>
      </trkpt>
      <trkpt lat="47.27668" lon="-0.51421">
        <ele>36</ele>
        <time>2021-02-06T12:47:41Z</time>
      </trkpt>
      <trkpt lat="47.27644" lon="-0.51375">
        <ele>37</ele>
        <time>2021-02-06T12:47:48Z</time>
      </trkpt>
      <trkpt lat="47.27606" lon="-0.51298">
        <ele>36</ele>
        <time>2021-02-06T12:48:00Z</time>
      </trkpt>
      <trkpt lat="47.27571" lon="-0.5123">
        <ele>34</ele>
        <time>2021-02-06T12:48:10Z</time>
      </trkpt>
      <trkpt lat="47.27549" lon="-0.51182">
        <ele>34</ele>
        <time>2021-02-06T12:48:17Z</time>
      </trkpt>
      <trkpt lat="47.27528" lon="-0.51137">
        <ele>35</ele>
        <time>2021-02-06T12:48:24Z</time>
      </trkpt>
      <trkpt lat="47.27499" lon="-0.51074">
        <ele>35</ele>
        <time>2021-02-06T12:48:33Z</time>
      </trkpt>
      <trkpt lat="47.27474" lon="-0.51022">
        <ele>38</ele>
        <time>2021-02-06T12:48:40Z</time>
      </trkpt>
      <trkpt lat="47.27449" lon="-0.50975">
        <ele>38</ele>
        <time>2021-02-06T12:48:48Z</time>
      </trkpt>
      <trkpt lat="47.27432" lon="-0.5095">
        <ele>37</ele>
        <time>2021-02-06T12:48:52Z</time>
      </trkpt>
      <trkpt lat="47.27409" lon="-0.50915">
        <ele>35</ele>
        <time>2021-02-06T12:48:58Z</time>
      </trkpt>
      <trkpt lat="47.27383" lon="-0.5088">
        <ele>36</ele>
        <time>2021-02-06T12:49:04Z</time>
      </trkpt>
      <trkpt lat="47.27375" lon="-0.50871">
        <ele>35</ele>
        <time>2021-02-06T12:49:06Z</time>
      </trkpt>
      <trkpt lat="47.27365" lon="-0.50859">
        <ele>35</ele>
        <time>2021-02-06T12:49:08Z</time>
      </trkpt>
      <trkpt lat="47.27363" lon="-0.50856">
        <ele>35</ele>
        <time>2021-02-06T12:49:09Z</time>
      </trkpt>
      <trkpt lat="47.27348" lon="-0.5084">
        <ele>34</ele>
        <time>2021-02-06T12:49:12Z</time>
      </trkpt>
      <trkpt lat="47.27331" lon="-0.50821">
        <ele>33</ele>
        <time>2021-02-06T12:49:16Z</time>
      </trkpt>
      <trkpt lat="47.27328" lon="-0.50818">
        <ele>33</ele>
        <time>2021-02-06T12:49:16Z</time>
      </trkpt>
      <trkpt lat="47.27315" lon="-0.50801">
        <ele>34</ele>
        <time>2021-02-06T12:49:20Z</time>
      </trkpt>
      <trkpt lat="47.27302" lon="-0.50781">
        <ele>34</ele>
        <time>2021-02-06T12:49:23Z</time>
      </trkpt>
      <trkpt lat="47.27281" lon="-0.50748">
        <ele>34</ele>
        <time>2021-02-06T12:49:28Z</time>
      </trkpt>
      <trkpt lat="47.27277" lon="-0.50742">
        <ele>34</ele>
        <time>2021-02-06T12:49:29Z</time>
      </trkpt>
      <trkpt lat="47.27272" lon="-0.50733">
        <ele>34</ele>
        <time>2021-02-06T12:49:31Z</time>
      </trkpt>
      <trkpt lat="47.27269" lon="-0.50728">
        <ele>34</ele>
        <time>2021-02-06T12:49:32Z</time>
      </trkpt>
      <trkpt lat="47.27258" lon="-0.50712">
        <ele>33</ele>
        <time>2021-02-06T12:49:34Z</time>
      </trkpt>
      <trkpt lat="47.27247" lon="-0.50697">
        <ele>33</ele>
        <time>2021-02-06T12:49:37Z</time>
      </trkpt>
      <trkpt lat="47.27236" lon="-0.50684">
        <ele>33</ele>
        <time>2021-02-06T12:49:39Z</time>
      </trkpt>
      <trkpt lat="47.27219" lon="-0.50666">
        <ele>32</ele>
        <time>2021-02-06T12:49:43Z</time>
      </trkpt>
      <trkpt lat="47.27215" lon="-0.50661">
        <ele>32</ele>
        <time>2021-02-06T12:49:44Z</time>
      </trkpt>
      <trkpt lat="47.27163" lon="-0.50606">
        <ele>31</ele>
        <time>2021-02-06T12:49:56Z</time>
      </trkpt>
      <trkpt lat="47.27158" lon="-0.50601">
        <ele>31</ele>
        <time>2021-02-06T12:49:57Z</time>
      </trkpt>
      <trkpt lat="47.27136" lon="-0.50577">
        <ele>31</ele>
        <time>2021-02-06T12:50:01Z</time>
      </trkpt>
      <trkpt lat="47.27124" lon="-0.50562">
        <ele>31</ele>
        <time>2021-02-06T12:50:04Z</time>
      </trkpt>
      <trkpt lat="47.27116" lon="-0.50554">
        <ele>31</ele>
        <time>2021-02-06T12:50:06Z</time>
      </trkpt>
      <trkpt lat="47.27089" lon="-0.50522">
        <ele>31</ele>
        <time>2021-02-06T12:50:12Z</time>
      </trkpt>
      <trkpt lat="47.27053" lon="-0.5048">
        <ele>31</ele>
        <time>2021-02-06T12:50:20Z</time>
      </trkpt>
      <trkpt lat="47.27013" lon="-0.50434">
        <ele>31</ele>
        <time>2021-02-06T12:50:29Z</time>
      </trkpt>
      <trkpt lat="47.26999" lon="-0.50418">
        <ele>31</ele>
        <time>2021-02-06T12:50:32Z</time>
      </trkpt>
      <trkpt lat="47.26998" lon="-0.50416">
        <ele>31</ele>
        <time>2021-02-06T12:50:33Z</time>
      </trkpt>
      <trkpt lat="47.26985" lon="-0.50401">
        <ele>31</ele>
        <time>2021-02-06T12:50:36Z</time>
      </trkpt>
      <trkpt lat="47.26956" lon="-0.5037">
        <ele>32</ele>
        <time>2021-02-06T12:50:42Z</time>
      </trkpt>
      <trkpt lat="47.26936" lon="-0.50344">
        <ele>32</ele>
        <time>2021-02-06T12:50:47Z</time>
      </trkpt>
      <trkpt lat="47.26926" lon="-0.50332">
        <ele>32</ele>
        <time>2021-02-06T12:50:49Z</time>
      </trkpt>
      <trkpt lat="47.26919" lon="-0.50322">
        <ele>32</ele>
        <time>2021-02-06T12:50:51Z</time>
      </trkpt>
      <trkpt lat="47.26895" lon="-0.50292">
        <ele>32</ele>
        <time>2021-02-06T12:50:56Z</time>
      </trkpt>
      <trkpt lat="47.26883" lon="-0.50276">
        <ele>33</ele>
        <time>2021-02-06T12:50:59Z</time>
      </trkpt>
      <trkpt lat="47.26875" lon="-0.50265">
        <ele>33</ele>
        <time>2021-02-06T12:51:01Z</time>
      </trkpt>
      <trkpt lat="47.26854" lon="-0.50233">
        <ele>33</ele>
        <time>2021-02-06T12:51:07Z</time>
      </trkpt>
      <trkpt lat="47.26849" lon="-0.50225">
        <ele>33</ele>
        <time>2021-02-06T12:51:08Z</time>
      </trkpt>
      <trkpt lat="47.26838" lon="-0.50209">
        <ele>34</ele>
        <time>2021-02-06T12:51:11Z</time>
      </trkpt>
      <trkpt lat="47.26823" lon="-0.50185">
        <ele>34</ele>
        <time>2021-02-06T12:51:15Z</time>
      </trkpt>
      <trkpt lat="47.26818" lon="-0.50178">
        <ele>34</ele>
        <time>2021-02-06T12:51:16Z</time>
      </trkpt>
      <trkpt lat="47.26806" lon="-0.50159">
        <ele>34</ele>
        <time>2021-02-06T12:51:19Z</time>
      </trkpt>
      <trkpt lat="47.26797" lon="-0.50144">
        <ele>35</ele>
        <time>2021-02-06T12:51:21Z</time>
      </trkpt>
      <trkpt lat="47.26795" lon="-0.50141">
        <ele>35</ele>
        <time>2021-02-06T12:51:22Z</time>
      </trkpt>
      <trkpt lat="47.26791" lon="-0.50133">
        <ele>35</ele>
        <time>2021-02-06T12:51:23Z</time>
      </trkpt>
      <trkpt lat="47.26785" lon="-0.50114">
        <ele>36</ele>
        <time>2021-02-06T12:51:26Z</time>
      </trkpt>
      <trkpt lat="47.26783" lon="-0.50108">
        <ele>36</ele>
        <time>2021-02-06T12:51:27Z</time>
      </trkpt>
      <trkpt lat="47.26778" lon="-0.50089">
        <ele>36</ele>
        <time>2021-02-06T12:51:29Z</time>
      </trkpt>
      <trkpt lat="47.26772" lon="-0.50067">
        <ele>37</ele>
        <time>2021-02-06T12:51:32Z</time>
      </trkpt>
      <trkpt lat="47.26767" lon="-0.50049">
        <ele>37</ele>
        <time>2021-02-06T12:51:34Z</time>
      </trkpt>
      <trkpt lat="47.26754" lon="-0.50004">
        <ele>37</ele>
        <time>2021-02-06T12:51:40Z</time>
      </trkpt>
      <trkpt lat="47.26742" lon="-0.49958">
        <ele>38</ele>
        <time>2021-02-06T12:51:46Z</time>
      </trkpt>
      <trkpt lat="47.26737" lon="-0.49944">
        <ele>38</ele>
        <time>2021-02-06T12:51:48Z</time>
      </trkpt>
      <trkpt lat="47.26732" lon="-0.49932">
        <ele>38</ele>
        <time>2021-02-06T12:51:50Z</time>
      </trkpt>
      <trkpt lat="47.26727" lon="-0.49923">
        <ele>38</ele>
        <time>2021-02-06T12:51:51Z</time>
      </trkpt>
      <trkpt lat="47.26718" lon="-0.49909">
        <ele>38</ele>
        <time>2021-02-06T12:51:53Z</time>
      </trkpt>
      <trkpt lat="47.26718" lon="-0.49909">
        <ele>38</ele>
        <time>2021-02-06T12:51:53Z</time>
      </trkpt>
      <trkpt lat="47.26704" lon="-0.49885">
        <ele>38</ele>
        <time>2021-02-06T12:51:57Z</time>
      </trkpt>
      <trkpt lat="47.26693" lon="-0.49857">
        <ele>38</ele>
        <time>2021-02-06T12:52:01Z</time>
      </trkpt>
      <trkpt lat="47.26688" lon="-0.49847">
        <ele>38</ele>
        <time>2021-02-06T12:52:03Z</time>
      </trkpt>
      <trkpt lat="47.26676" lon="-0.49815">
        <ele>38</ele>
        <time>2021-02-06T12:52:07Z</time>
      </trkpt>
      <trkpt lat="47.26657" lon="-0.49768">
        <ele>38</ele>
        <time>2021-02-06T12:52:14Z</time>
      </trkpt>
      <trkpt lat="47.2665" lon="-0.49751">
        <ele>38</ele>
        <time>2021-02-06T12:52:16Z</time>
      </trkpt>
      <trkpt lat="47.26645" lon="-0.49744">
        <ele>37</ele>
        <time>2021-02-06T12:52:17Z</time>
      </trkpt>
      <trkpt lat="47.26639" lon="-0.49739">
        <ele>37</ele>
        <time>2021-02-06T12:52:18Z</time>
      </trkpt>
      <trkpt lat="47.26633" lon="-0.49736">
        <ele>37</ele>
        <time>2021-02-06T12:52:20Z</time>
      </trkpt>
      <trkpt lat="47.2663" lon="-0.49735">
        <ele>37</ele>
        <time>2021-02-06T12:52:20Z</time>
      </trkpt>
      <trkpt lat="47.26624" lon="-0.49734">
        <ele>37</ele>
        <time>2021-02-06T12:52:21Z</time>
      </trkpt>
      <trkpt lat="47.2662" lon="-0.49735">
        <ele>37</ele>
        <time>2021-02-06T12:52:22Z</time>
      </trkpt>
      <trkpt lat="47.26616" lon="-0.49736">
        <ele>37</ele>
        <time>2021-02-06T12:52:23Z</time>
      </trkpt>
      <trkpt lat="47.26608" lon="-0.49737">
        <ele>36</ele>
        <time>2021-02-06T12:52:24Z</time>
      </trkpt>
      <trkpt lat="47.26597" lon="-0.49741">
        <ele>36</ele>
        <time>2021-02-06T12:52:26Z</time>
      </trkpt>
      <trkpt lat="47.26578" lon="-0.49747">
        <ele>36</ele>
        <time>2021-02-06T12:52:30Z</time>
      </trkpt>
      <trkpt lat="47.2657" lon="-0.4975">
        <ele>36</ele>
        <time>2021-02-06T12:52:31Z</time>
      </trkpt>
      <trkpt lat="47.26535" lon="-0.49757">
        <ele>34</ele>
        <time>2021-02-06T12:52:37Z</time>
      </trkpt>
      <trkpt lat="47.2652" lon="-0.4976">
        <ele>34</ele>
        <time>2021-02-06T12:52:40Z</time>
      </trkpt>
      <trkpt lat="47.2652" lon="-0.4976">
        <ele>34</ele>
        <time>2021-02-06T12:52:40Z</time>
      </trkpt>
      <trkpt lat="47.26503" lon="-0.49699">
        <ele>32</ele>
        <time>2021-02-06T12:52:48Z</time>
      </trkpt>
      <trkpt lat="47.26498" lon="-0.49677">
        <ele>32</ele>
        <time>2021-02-06T12:52:51Z</time>
      </trkpt>
      <trkpt lat="47.26494" lon="-0.49651">
        <ele>32</ele>
        <time>2021-02-06T12:52:54Z</time>
      </trkpt>
      <trkpt lat="47.26487" lon="-0.49608">
        <ele>31</ele>
        <time>2021-02-06T12:52:59Z</time>
      </trkpt>
      <trkpt lat="47.26482" lon="-0.49568">
        <ele>31</ele>
        <time>2021-02-06T12:53:04Z</time>
      </trkpt>
      <trkpt lat="47.26476" lon="-0.49517">
        <ele>31</ele>
        <time>2021-02-06T12:53:10Z</time>
      </trkpt>
      <trkpt lat="47.26473" lon="-0.49483">
        <ele>31</ele>
        <time>2021-02-06T12:53:15Z</time>
      </trkpt>
      <trkpt lat="47.26468" lon="-0.49424">
        <ele>31</ele>
        <time>2021-02-06T12:53:22Z</time>
      </trkpt>
      <trkpt lat="47.26458" lon="-0.49295">
        <ele>31</ele>
        <time>2021-02-06T12:53:37Z</time>
      </trkpt>
      <trkpt lat="47.26453" lon="-0.4924">
        <ele>31</ele>
        <time>2021-02-06T12:53:44Z</time>
      </trkpt>
      <trkpt lat="47.26447" lon="-0.49196">
        <ele>31</ele>
        <time>2021-02-06T12:53:50Z</time>
      </trkpt>
      <trkpt lat="47.26442" lon="-0.49163">
        <ele>31</ele>
        <time>2021-02-06T12:53:54Z</time>
      </trkpt>
      <trkpt lat="47.26441" lon="-0.49157">
        <ele>31</ele>
        <time>2021-02-06T12:53:54Z</time>
      </trkpt>
      <trkpt lat="47.26436" lon="-0.49129">
        <ele>31</ele>
        <time>2021-02-06T12:53:58Z</time>
      </trkpt>
      <trkpt lat="47.26425" lon="-0.49086">
        <ele>30</ele>
        <time>2021-02-06T12:54:03Z</time>
      </trkpt>
      <trkpt lat="47.26417" lon="-0.49053">
        <ele>30</ele>
        <time>2021-02-06T12:54:08Z</time>
      </trkpt>
      <trkpt lat="47.26409" lon="-0.49024">
        <ele>29</ele>
        <time>2021-02-06T12:54:11Z</time>
      </trkpt>
      <trkpt lat="47.26394" lon="-0.4898">
        <ele>29</ele>
        <time>2021-02-06T12:54:17Z</time>
      </trkpt>
      <trkpt lat="47.26369" lon="-0.48913">
        <ele>30</ele>
        <time>2021-02-06T12:54:27Z</time>
      </trkpt>
      <trkpt lat="47.26311" lon="-0.4877">
        <ele>29</ele>
        <time>2021-02-06T12:54:47Z</time>
      </trkpt>
      <trkpt lat="47.26286" lon="-0.4871">
        <ele>28</ele>
        <time>2021-02-06T12:54:55Z</time>
      </trkpt>
      <trkpt lat="47.26263" lon="-0.48651">
        <ele>28</ele>
        <time>2021-02-06T12:55:04Z</time>
      </trkpt>
      <trkpt lat="47.26249" lon="-0.48611">
        <ele>28</ele>
        <time>2021-02-06T12:55:09Z</time>
      </trkpt>
      <trkpt lat="47.26238" lon="-0.4858">
        <ele>28</ele>
        <time>2021-02-06T12:55:13Z</time>
      </trkpt>
      <trkpt lat="47.26226" lon="-0.48543">
        <ele>29</ele>
        <time>2021-02-06T12:55:18Z</time>
      </trkpt>
      <trkpt lat="47.26208" lon="-0.48491">
        <ele>30</ele>
        <time>2021-02-06T12:55:25Z</time>
      </trkpt>
      <trkpt lat="47.26189" lon="-0.48446">
        <ele>32</ele>
        <time>2021-02-06T12:55:32Z</time>
      </trkpt>
      <trkpt lat="47.26176" lon="-0.48416">
        <ele>32</ele>
        <time>2021-02-06T12:55:36Z</time>
      </trkpt>
      <trkpt lat="47.26162" lon="-0.48386">
        <ele>33</ele>
        <time>2021-02-06T12:55:40Z</time>
      </trkpt>
      <trkpt lat="47.26146" lon="-0.48352">
        <ele>33</ele>
        <time>2021-02-06T12:55:45Z</time>
      </trkpt>
      <trkpt lat="47.26102" lon="-0.48269">
        <ele>35</ele>
        <time>2021-02-06T12:55:58Z</time>
      </trkpt>
      <trkpt lat="47.26076" lon="-0.48221">
        <ele>34</ele>
        <time>2021-02-06T12:56:05Z</time>
      </trkpt>
      <trkpt lat="47.26074" lon="-0.48218">
        <ele>34</ele>
        <time>2021-02-06T12:56:06Z</time>
      </trkpt>
      <trkpt lat="47.26065" lon="-0.48202">
        <ele>34</ele>
        <time>2021-02-06T12:56:08Z</time>
      </trkpt>
      <trkpt lat="47.26019" lon="-0.48115">
        <ele>35</ele>
        <time>2021-02-06T12:56:22Z</time>
      </trkpt>
      <trkpt lat="47.25984" lon="-0.4805">
        <ele>37</ele>
        <time>2021-02-06T12:56:32Z</time>
      </trkpt>
      <trkpt lat="47.25947" lon="-0.47983">
        <ele>41</ele>
        <time>2021-02-06T12:56:42Z</time>
      </trkpt>
      <trkpt lat="47.2593" lon="-0.47954">
        <ele>43</ele>
        <time>2021-02-06T12:56:47Z</time>
      </trkpt>
      <trkpt lat="47.25905" lon="-0.4792">
        <ele>45</ele>
        <time>2021-02-06T12:56:53Z</time>
      </trkpt>
      <trkpt lat="47.25863" lon="-0.47875">
        <ele>44</ele>
        <time>2021-02-06T12:57:02Z</time>
      </trkpt>
      <trkpt lat="47.25844" lon="-0.47851">
        <ele>44</ele>
        <time>2021-02-06T12:57:07Z</time>
      </trkpt>
      <trkpt lat="47.25835" lon="-0.47839">
        <ele>44</ele>
        <time>2021-02-06T12:57:09Z</time>
      </trkpt>
      <trkpt lat="47.25827" lon="-0.47827">
        <ele>44</ele>
        <time>2021-02-06T12:57:11Z</time>
      </trkpt>
      <trkpt lat="47.25819" lon="-0.47813">
        <ele>44</ele>
        <time>2021-02-06T12:57:13Z</time>
      </trkpt>
      <trkpt lat="47.25814" lon="-0.47802">
        <ele>43</ele>
        <time>2021-02-06T12:57:15Z</time>
      </trkpt>
      <trkpt lat="47.25811" lon="-0.47795">
        <ele>43</ele>
        <time>2021-02-06T12:57:16Z</time>
      </trkpt>
      <trkpt lat="47.25798" lon="-0.47763">
        <ele>44</ele>
        <time>2021-02-06T12:57:20Z</time>
      </trkpt>
      <trkpt lat="47.25778" lon="-0.47712">
        <ele>44</ele>
        <time>2021-02-06T12:57:27Z</time>
      </trkpt>
      <trkpt lat="47.25762" lon="-0.47674">
        <ele>45</ele>
        <time>2021-02-06T12:57:33Z</time>
      </trkpt>
      <trkpt lat="47.25748" lon="-0.47643">
        <ele>46</ele>
        <time>2021-02-06T12:57:37Z</time>
      </trkpt>
      <trkpt lat="47.25725" lon="-0.47594">
        <ele>46</ele>
        <time>2021-02-06T12:57:44Z</time>
      </trkpt>
      <trkpt lat="47.25713" lon="-0.47571">
        <ele>47</ele>
        <time>2021-02-06T12:57:48Z</time>
      </trkpt>
      <trkpt lat="47.25698" lon="-0.47543">
        <ele>48</ele>
        <time>2021-02-06T12:57:52Z</time>
      </trkpt>
      <trkpt lat="47.25685" lon="-0.47516">
        <ele>48</ele>
        <time>2021-02-06T12:57:56Z</time>
      </trkpt>
      <trkpt lat="47.25662" lon="-0.47472">
        <ele>49</ele>
        <time>2021-02-06T12:58:03Z</time>
      </trkpt>
      <trkpt lat="47.25651" lon="-0.47448">
        <ele>49</ele>
        <time>2021-02-06T12:58:06Z</time>
      </trkpt>
      <trkpt lat="47.25638" lon="-0.47416">
        <ele>49</ele>
        <time>2021-02-06T12:58:11Z</time>
      </trkpt>
      <trkpt lat="47.25622" lon="-0.47379">
        <ele>49</ele>
        <time>2021-02-06T12:58:16Z</time>
      </trkpt>
      <trkpt lat="47.25605" lon="-0.47332">
        <ele>49</ele>
        <time>2021-02-06T12:58:23Z</time>
      </trkpt>
      <trkpt lat="47.25587" lon="-0.4728">
        <ele>49</ele>
        <time>2021-02-06T12:58:30Z</time>
      </trkpt>
      <trkpt lat="47.25572" lon="-0.47236">
        <ele>49</ele>
        <time>2021-02-06T12:58:35Z</time>
      </trkpt>
      <trkpt lat="47.25565" lon="-0.47215">
        <ele>49</ele>
        <time>2021-02-06T12:58:38Z</time>
      </trkpt>
      <trkpt lat="47.25552" lon="-0.47171">
        <ele>49</ele>
        <time>2021-02-06T12:58:44Z</time>
      </trkpt>
      <trkpt lat="47.25544" lon="-0.47137">
        <ele>49</ele>
        <time>2021-02-06T12:58:48Z</time>
      </trkpt>
      <trkpt lat="47.25539" lon="-0.47107">
        <ele>49</ele>
        <time>2021-02-06T12:58:52Z</time>
      </trkpt>
      <trkpt lat="47.25533" lon="-0.47065">
        <ele>49</ele>
        <time>2021-02-06T12:58:57Z</time>
      </trkpt>
      <trkpt lat="47.25527" lon="-0.47002">
        <ele>48</ele>
        <time>2021-02-06T12:59:05Z</time>
      </trkpt>
      <trkpt lat="47.25521" lon="-0.46904">
        <ele>47</ele>
        <time>2021-02-06T12:59:17Z</time>
      </trkpt>
      <trkpt lat="47.25517" lon="-0.46852">
        <ele>49</ele>
        <time>2021-02-06T12:59:23Z</time>
      </trkpt>
      <trkpt lat="47.25514" lon="-0.46821">
        <ele>49</ele>
        <time>2021-02-06T12:59:27Z</time>
      </trkpt>
      <trkpt lat="47.2551" lon="-0.46796">
        <ele>50</ele>
        <time>2021-02-06T12:59:30Z</time>
      </trkpt>
      <trkpt lat="47.25506" lon="-0.4677">
        <ele>51</ele>
        <time>2021-02-06T12:59:33Z</time>
      </trkpt>
      <trkpt lat="47.25499" lon="-0.46742">
        <ele>51</ele>
        <time>2021-02-06T12:59:37Z</time>
      </trkpt>
      <trkpt lat="47.25491" lon="-0.46716">
        <ele>52</ele>
        <time>2021-02-06T12:59:40Z</time>
      </trkpt>
      <trkpt lat="47.25486" lon="-0.46701">
        <ele>52</ele>
        <time>2021-02-06T12:59:42Z</time>
      </trkpt>
      <trkpt lat="47.25484" lon="-0.46696">
        <ele>53</ele>
        <time>2021-02-06T12:59:43Z</time>
      </trkpt>
      <trkpt lat="47.25473" lon="-0.46668">
        <ele>53</ele>
        <time>2021-02-06T12:59:47Z</time>
      </trkpt>
      <trkpt lat="47.25464" lon="-0.46647">
        <ele>53</ele>
        <time>2021-02-06T12:59:50Z</time>
      </trkpt>
      <trkpt lat="47.25444" lon="-0.46607">
        <ele>54</ele>
        <time>2021-02-06T12:59:56Z</time>
      </trkpt>
      <trkpt lat="47.2542" lon="-0.46565">
        <ele>54</ele>
        <time>2021-02-06T13:00:03Z</time>
      </trkpt>
      <trkpt lat="47.25385" lon="-0.46502">
        <ele>53</ele>
        <time>2021-02-06T13:00:13Z</time>
      </trkpt>
      <trkpt lat="47.25356" lon="-0.46453">
        <ele>53</ele>
        <time>2021-02-06T13:00:20Z</time>
      </trkpt>
      <trkpt lat="47.25354" lon="-0.46451">
        <ele>53</ele>
        <time>2021-02-06T13:00:21Z</time>
      </trkpt>
      <trkpt lat="47.25348" lon="-0.4644">
        <ele>52</ele>
        <time>2021-02-06T13:00:22Z</time>
      </trkpt>
      <trkpt lat="47.25306" lon="-0.46376">
        <ele>52</ele>
        <time>2021-02-06T13:00:33Z</time>
      </trkpt>
      <trkpt lat="47.25284" lon="-0.46338">
        <ele>52</ele>
        <time>2021-02-06T13:00:39Z</time>
      </trkpt>
      <trkpt lat="47.25264" lon="-0.46296">
        <ele>51</ele>
        <time>2021-02-06T13:00:45Z</time>
      </trkpt>
      <trkpt lat="47.25252" lon="-0.46265">
        <ele>49</ele>
        <time>2021-02-06T13:00:50Z</time>
      </trkpt>
      <trkpt lat="47.2523" lon="-0.46208">
        <ele>49</ele>
        <time>2021-02-06T13:00:58Z</time>
      </trkpt>
      <trkpt lat="47.25226" lon="-0.46197">
        <ele>49</ele>
        <time>2021-02-06T13:00:59Z</time>
      </trkpt>
      <trkpt lat="47.25218" lon="-0.46177">
        <ele>49</ele>
        <time>2021-02-06T13:01:02Z</time>
      </trkpt>
      <trkpt lat="47.25208" lon="-0.46158">
        <ele>49</ele>
        <time>2021-02-06T13:01:05Z</time>
      </trkpt>
      <trkpt lat="47.25203" lon="-0.46148">
        <ele>49</ele>
        <time>2021-02-06T13:01:06Z</time>
      </trkpt>
      <trkpt lat="47.25197" lon="-0.46138">
        <ele>49</ele>
        <time>2021-02-06T13:01:08Z</time>
      </trkpt>
      <trkpt lat="47.25183" lon="-0.46115">
        <ele>48</ele>
        <time>2021-02-06T13:01:12Z</time>
      </trkpt>
      <trkpt lat="47.25168" lon="-0.46095">
        <ele>46</ele>
        <time>2021-02-06T13:01:15Z</time>
      </trkpt>
      <trkpt lat="47.25151" lon="-0.46073">
        <ele>46</ele>
        <time>2021-02-06T13:01:19Z</time>
      </trkpt>
      <trkpt lat="47.25136" lon="-0.46055">
        <ele>45</ele>
        <time>2021-02-06T13:01:23Z</time>
      </trkpt>
      <trkpt lat="47.25119" lon="-0.46034">
        <ele>45</ele>
        <time>2021-02-06T13:01:27Z</time>
      </trkpt>
      <trkpt lat="47.25104" lon="-0.46013">
        <ele>44</ele>
        <time>2021-02-06T13:01:30Z</time>
      </trkpt>
      <trkpt lat="47.25086" lon="-0.45983">
        <ele>44</ele>
        <time>2021-02-06T13:01:35Z</time>
      </trkpt>
      <trkpt lat="47.25067" lon="-0.45949">
        <ele>44</ele>
        <time>2021-02-06T13:01:41Z</time>
      </trkpt>
      <trkpt lat="47.2505" lon="-0.45913">
        <ele>44</ele>
        <time>2021-02-06T13:01:46Z</time>
      </trkpt>
      <trkpt lat="47.25041" lon="-0.45893">
        <ele>44</ele>
        <time>2021-02-06T13:01:49Z</time>
      </trkpt>
      <trkpt lat="47.25032" lon="-0.45869">
        <ele>43</ele>
        <time>2021-02-06T13:01:52Z</time>
      </trkpt>
      <trkpt lat="47.25018" lon="-0.45829">
        <ele>43</ele>
        <time>2021-02-06T13:01:58Z</time>
      </trkpt>
      <trkpt lat="47.25008" lon="-0.45798">
        <ele>42</ele>
        <time>2021-02-06T13:02:02Z</time>
      </trkpt>
      <trkpt lat="47.24991" lon="-0.45744">
        <ele>42</ele>
        <time>2021-02-06T13:02:09Z</time>
      </trkpt>
      <trkpt lat="47.24965" lon="-0.45657">
        <ele>43</ele>
        <time>2021-02-06T13:02:20Z</time>
      </trkpt>
      <trkpt lat="47.2495" lon="-0.45607">
        <ele>44</ele>
        <time>2021-02-06T13:02:27Z</time>
      </trkpt>
      <trkpt lat="47.24934" lon="-0.45559">
        <ele>44</ele>
        <time>2021-02-06T13:02:33Z</time>
      </trkpt>
      <trkpt lat="47.24929" lon="-0.45543">
        <ele>44</ele>
        <time>2021-02-06T13:02:36Z</time>
      </trkpt>
      <trkpt lat="47.24924" lon="-0.45532">
        <ele>44</ele>
        <time>2021-02-06T13:02:37Z</time>
      </trkpt>
      <trkpt lat="47.24909" lon="-0.45491">
        <ele>45</ele>
        <time>2021-02-06T13:02:43Z</time>
      </trkpt>
      <trkpt lat="47.24909" lon="-0.45491">
        <ele>45</ele>
        <time>2021-02-06T13:02:43Z</time>
      </trkpt>
      <trkpt lat="47.24914" lon="-0.4549">
        <ele>45</ele>
        <time>2021-02-06T13:02:44Z</time>
      </trkpt>
      <trkpt lat="47.24916" lon="-0.45489">
        <ele>45</ele>
        <time>2021-02-06T13:02:44Z</time>
      </trkpt>
      <trkpt lat="47.2492" lon="-0.4549">
        <ele>45</ele>
        <time>2021-02-06T13:02:45Z</time>
      </trkpt>
      <trkpt lat="47.24929" lon="-0.45491">
        <ele>45</ele>
        <time>2021-02-06T13:02:46Z</time>
      </trkpt>
      <trkpt lat="47.24937" lon="-0.45492">
        <ele>45</ele>
        <time>2021-02-06T13:02:48Z</time>
      </trkpt>
      <trkpt lat="47.24946" lon="-0.45492">
        <ele>46</ele>
        <time>2021-02-06T13:02:49Z</time>
      </trkpt>
      <trkpt lat="47.24954" lon="-0.45492">
        <ele>46</ele>
        <time>2021-02-06T13:02:51Z</time>
      </trkpt>
      <trkpt lat="47.2496" lon="-0.45492">
        <ele>46</ele>
        <time>2021-02-06T13:02:52Z</time>
      </trkpt>
      <trkpt lat="47.24966" lon="-0.45491">
        <ele>46</ele>
        <time>2021-02-06T13:02:53Z</time>
      </trkpt>
      <trkpt lat="47.24967" lon="-0.45491">
        <ele>46</ele>
        <time>2021-02-06T13:02:53Z</time>
      </trkpt>
      <trkpt lat="47.24971" lon="-0.4549">
        <ele>46</ele>
        <time>2021-02-06T13:02:54Z</time>
      </trkpt>
      <trkpt lat="47.24978" lon="-0.45487">
        <ele>46</ele>
        <time>2021-02-06T13:02:55Z</time>
      </trkpt>
      <trkpt lat="47.24983" lon="-0.45485">
        <ele>46</ele>
        <time>2021-02-06T13:02:56Z</time>
      </trkpt>
      <trkpt lat="47.24985" lon="-0.45484">
        <ele>46</ele>
        <time>2021-02-06T13:02:56Z</time>
      </trkpt>
      <trkpt lat="47.24993" lon="-0.45479">
        <ele>46</ele>
        <time>2021-02-06T13:02:58Z</time>
      </trkpt>
      <trkpt lat="47.25001" lon="-0.45472">
        <ele>46</ele>
        <time>2021-02-06T13:03:00Z</time>
      </trkpt>
      <trkpt lat="47.25012" lon="-0.45461">
        <ele>47</ele>
        <time>2021-02-06T13:03:02Z</time>
      </trkpt>
      <trkpt lat="47.25026" lon="-0.45445">
        <ele>48</ele>
        <time>2021-02-06T13:03:05Z</time>
      </trkpt>
      <trkpt lat="47.25037" lon="-0.45429">
        <ele>48</ele>
        <time>2021-02-06T13:03:08Z</time>
      </trkpt>
      <trkpt lat="47.25049" lon="-0.45411">
        <ele>48</ele>
        <time>2021-02-06T13:03:11Z</time>
      </trkpt>
      <trkpt lat="47.25062" lon="-0.45392">
        <ele>48</ele>
        <time>2021-02-06T13:03:14Z</time>
      </trkpt>
      <trkpt lat="47.2507" lon="-0.4538">
        <ele>48</ele>
        <time>2021-02-06T13:03:16Z</time>
      </trkpt>
      <trkpt lat="47.25078" lon="-0.45373">
        <ele>48</ele>
        <time>2021-02-06T13:03:18Z</time>
      </trkpt>
      <trkpt lat="47.25093" lon="-0.45366">
        <ele>49</ele>
        <time>2021-02-06T13:03:21Z</time>
      </trkpt>
      <trkpt lat="47.25128" lon="-0.45348">
        <ele>49</ele>
        <time>2021-02-06T13:03:27Z</time>
      </trkpt>
      <trkpt lat="47.25135" lon="-0.45344">
        <ele>49</ele>
        <time>2021-02-06T13:03:29Z</time>
      </trkpt>
      <trkpt lat="47.25141" lon="-0.45338">
        <ele>49</ele>
        <time>2021-02-06T13:03:30Z</time>
      </trkpt>
      <trkpt lat="47.25148" lon="-0.45332">
        <ele>50</ele>
        <time>2021-02-06T13:03:31Z</time>
      </trkpt>
      <trkpt lat="47.25154" lon="-0.45321">
        <ele>50</ele>
        <time>2021-02-06T13:03:33Z</time>
      </trkpt>
      <trkpt lat="47.25195" lon="-0.45245">
        <ele>51</ele>
        <time>2021-02-06T13:03:45Z</time>
      </trkpt>
      <trkpt lat="47.252" lon="-0.45238">
        <ele>52</ele>
        <time>2021-02-06T13:03:46Z</time>
      </trkpt>
      <trkpt lat="47.25203" lon="-0.45235">
        <ele>52</ele>
        <time>2021-02-06T13:03:47Z</time>
      </trkpt>
      <trkpt lat="47.25205" lon="-0.45232">
        <ele>52</ele>
        <time>2021-02-06T13:03:47Z</time>
      </trkpt>
      <trkpt lat="47.25207" lon="-0.45229">
        <ele>52</ele>
        <time>2021-02-06T13:03:48Z</time>
      </trkpt>
      <trkpt lat="47.25211" lon="-0.45225">
        <ele>52</ele>
        <time>2021-02-06T13:03:49Z</time>
      </trkpt>
      <trkpt lat="47.25214" lon="-0.45223">
        <ele>52</ele>
        <time>2021-02-06T13:03:49Z</time>
      </trkpt>
      <trkpt lat="47.25218" lon="-0.4522">
        <ele>53</ele>
        <time>2021-02-06T13:03:50Z</time>
      </trkpt>
      <trkpt lat="47.25236" lon="-0.45209">
        <ele>54</ele>
        <time>2021-02-06T13:03:53Z</time>
      </trkpt>
      <trkpt lat="47.25266" lon="-0.45192">
        <ele>56</ele>
        <time>2021-02-06T13:03:59Z</time>
      </trkpt>
      <trkpt lat="47.25346" lon="-0.45147">
        <ele>64</ele>
        <time>2021-02-06T13:04:14Z</time>
      </trkpt>
      <trkpt lat="47.25455" lon="-0.45084">
        <ele>73</ele>
        <time>2021-02-06T13:04:35Z</time>
      </trkpt>
      <trkpt lat="47.2551" lon="-0.45052">
        <ele>76</ele>
        <time>2021-02-06T13:04:46Z</time>
      </trkpt>
      <trkpt lat="47.25512" lon="-0.4505">
        <ele>76</ele>
        <time>2021-02-06T13:04:46Z</time>
      </trkpt>
      <trkpt lat="47.25514" lon="-0.45049">
        <ele>76</ele>
        <time>2021-02-06T13:04:47Z</time>
      </trkpt>
      <trkpt lat="47.25521" lon="-0.45042">
        <ele>76</ele>
        <time>2021-02-06T13:04:48Z</time>
      </trkpt>
      <trkpt lat="47.25535" lon="-0.45026">
        <ele>76</ele>
        <time>2021-02-06T13:04:51Z</time>
      </trkpt>
      <trkpt lat="47.25565" lon="-0.44993">
        <ele>77</ele>
        <time>2021-02-06T13:04:58Z</time>
      </trkpt>
      <trkpt lat="47.25578" lon="-0.44978">
        <ele>77</ele>
        <time>2021-02-06T13:05:01Z</time>
      </trkpt>
      <trkpt lat="47.25588" lon="-0.4497">
        <ele>77</ele>
        <time>2021-02-06T13:05:03Z</time>
      </trkpt>
      <trkpt lat="47.25599" lon="-0.44962">
        <ele>77</ele>
        <time>2021-02-06T13:05:05Z</time>
      </trkpt>
      <trkpt lat="47.25616" lon="-0.44951">
        <ele>77</ele>
        <time>2021-02-06T13:05:08Z</time>
      </trkpt>
      <trkpt lat="47.2568" lon="-0.44919">
        <ele>78</ele>
        <time>2021-02-06T13:05:20Z</time>
      </trkpt>
      <trkpt lat="47.25734" lon="-0.44892">
        <ele>78</ele>
        <time>2021-02-06T13:05:30Z</time>
      </trkpt>
      <trkpt lat="47.25741" lon="-0.44887">
        <ele>78</ele>
        <time>2021-02-06T13:05:32Z</time>
      </trkpt>
      <trkpt lat="47.25746" lon="-0.44882">
        <ele>78</ele>
        <time>2021-02-06T13:05:33Z</time>
      </trkpt>
      <trkpt lat="47.25752" lon="-0.44875">
        <ele>78</ele>
        <time>2021-02-06T13:05:34Z</time>
      </trkpt>
      <trkpt lat="47.25757" lon="-0.44865">
        <ele>78</ele>
        <time>2021-02-06T13:05:36Z</time>
      </trkpt>
      <trkpt lat="47.25762" lon="-0.44852">
        <ele>78</ele>
        <time>2021-02-06T13:05:38Z</time>
      </trkpt>
      <trkpt lat="47.25767" lon="-0.44832">
        <ele>78</ele>
        <time>2021-02-06T13:05:40Z</time>
      </trkpt>
      <trkpt lat="47.25776" lon="-0.44778">
        <ele>78</ele>
        <time>2021-02-06T13:05:47Z</time>
      </trkpt>
      <trkpt lat="47.2578" lon="-0.44754">
        <ele>78</ele>
        <time>2021-02-06T13:05:50Z</time>
      </trkpt>
      <trkpt lat="47.25783" lon="-0.44736">
        <ele>78</ele>
        <time>2021-02-06T13:05:52Z</time>
      </trkpt>
      <trkpt lat="47.25785" lon="-0.4472">
        <ele>79</ele>
        <time>2021-02-06T13:05:54Z</time>
      </trkpt>
      <trkpt lat="47.25789" lon="-0.44686">
        <ele>79</ele>
        <time>2021-02-06T13:05:58Z</time>
      </trkpt>
      <trkpt lat="47.25793" lon="-0.44654">
        <ele>80</ele>
        <time>2021-02-06T13:06:02Z</time>
      </trkpt>
      <trkpt lat="47.25793" lon="-0.44654">
        <ele>80</ele>
        <time>2021-02-06T13:06:02Z</time>
      </trkpt>
      <trkpt lat="47.25795" lon="-0.44632">
        <ele>80</ele>
        <time>2021-02-06T13:06:05Z</time>
      </trkpt>
      <trkpt lat="47.25799" lon="-0.44583">
        <ele>81</ele>
        <time>2021-02-06T13:06:11Z</time>
      </trkpt>
      <trkpt lat="47.258" lon="-0.44579">
        <ele>81</ele>
        <time>2021-02-06T13:06:11Z</time>
      </trkpt>
      <trkpt lat="47.25802" lon="-0.44567">
        <ele>81</ele>
        <time>2021-02-06T13:06:13Z</time>
      </trkpt>
      <trkpt lat="47.25803" lon="-0.44553">
        <ele>80</ele>
        <time>2021-02-06T13:06:15Z</time>
      </trkpt>
      <trkpt lat="47.25803" lon="-0.4454">
        <ele>80</ele>
        <time>2021-02-06T13:06:16Z</time>
      </trkpt>
      <trkpt lat="47.25803" lon="-0.44498">
        <ele>79</ele>
        <time>2021-02-06T13:06:21Z</time>
      </trkpt>
      <trkpt lat="47.25801" lon="-0.44445">
        <ele>79</ele>
        <time>2021-02-06T13:06:28Z</time>
      </trkpt>
      <trkpt lat="47.25801" lon="-0.44445">
        <ele>79</ele>
        <time>2021-02-06T13:06:28Z</time>
      </trkpt>
      <trkpt lat="47.25811" lon="-0.44439">
        <ele>79</ele>
        <time>2021-02-06T13:06:30Z</time>
      </trkpt>
      <trkpt lat="47.25826" lon="-0.44433">
        <ele>79</ele>
        <time>2021-02-06T13:06:32Z</time>
      </trkpt>
      <trkpt lat="47.25845" lon="-0.44426">
        <ele>79</ele>
        <time>2021-02-06T13:06:36Z</time>
      </trkpt>
      <trkpt lat="47.25863" lon="-0.44424">
        <ele>78</ele>
        <time>2021-02-06T13:06:39Z</time>
      </trkpt>
      <trkpt lat="47.25877" lon="-0.44423">
        <ele>78</ele>
        <time>2021-02-06T13:06:41Z</time>
      </trkpt>
      <trkpt lat="47.25899" lon="-0.44423">
        <ele>77</ele>
        <time>2021-02-06T13:06:45Z</time>
      </trkpt>
      <trkpt lat="47.25902" lon="-0.44423">
        <ele>77</ele>
        <time>2021-02-06T13:06:46Z</time>
      </trkpt>
      <trkpt lat="47.25926" lon="-0.44422">
        <ele>76</ele>
        <time>2021-02-06T13:06:50Z</time>
      </trkpt>
      <trkpt lat="47.2595" lon="-0.44418">
        <ele>76</ele>
        <time>2021-02-06T13:06:54Z</time>
      </trkpt>
      <trkpt lat="47.25976" lon="-0.44411">
        <ele>77</ele>
        <time>2021-02-06T13:06:59Z</time>
      </trkpt>
      <trkpt lat="47.25995" lon="-0.44404">
        <ele>77</ele>
        <time>2021-02-06T13:07:03Z</time>
      </trkpt>
      <trkpt lat="47.26013" lon="-0.4439">
        <ele>77</ele>
        <time>2021-02-06T13:07:06Z</time>
      </trkpt>
      <trkpt lat="47.26027" lon="-0.44379">
        <ele>77</ele>
        <time>2021-02-06T13:07:09Z</time>
      </trkpt>
      <trkpt lat="47.26095" lon="-0.44326">
        <ele>76</ele>
        <time>2021-02-06T13:07:23Z</time>
      </trkpt>
      <trkpt lat="47.26116" lon="-0.44309">
        <ele>76</ele>
        <time>2021-02-06T13:07:27Z</time>
      </trkpt>
      <trkpt lat="47.26183" lon="-0.44257">
        <ele>78</ele>
        <time>2021-02-06T13:07:41Z</time>
      </trkpt>
      <trkpt lat="47.26255" lon="-0.44202">
        <ele>79</ele>
        <time>2021-02-06T13:07:55Z</time>
      </trkpt>
      <trkpt lat="47.26303" lon="-0.44168">
        <ele>78</ele>
        <time>2021-02-06T13:08:04Z</time>
      </trkpt>
      <trkpt lat="47.2632" lon="-0.44157">
        <ele>78</ele>
        <time>2021-02-06T13:08:08Z</time>
      </trkpt>
      <trkpt lat="47.26342" lon="-0.44147">
        <ele>78</ele>
        <time>2021-02-06T13:08:12Z</time>
      </trkpt>
      <trkpt lat="47.26402" lon="-0.44121">
        <ele>80</ele>
        <time>2021-02-06T13:08:23Z</time>
      </trkpt>
      <trkpt lat="47.26444" lon="-0.44103">
        <ele>80</ele>
        <time>2021-02-06T13:08:31Z</time>
      </trkpt>
      <trkpt lat="47.26467" lon="-0.44098">
        <ele>80</ele>
        <time>2021-02-06T13:08:35Z</time>
      </trkpt>
      <trkpt lat="47.26487" lon="-0.44096">
        <ele>79</ele>
        <time>2021-02-06T13:08:38Z</time>
      </trkpt>
      <trkpt lat="47.26533" lon="-0.4409">
        <ele>80</ele>
        <time>2021-02-06T13:08:47Z</time>
      </trkpt>
      <trkpt lat="47.26546" lon="-0.44088">
        <ele>80</ele>
        <time>2021-02-06T13:08:49Z</time>
      </trkpt>
      <trkpt lat="47.26581" lon="-0.44075">
        <ele>81</ele>
        <time>2021-02-06T13:08:55Z</time>
      </trkpt>
      <trkpt lat="47.26619" lon="-0.44059">
        <ele>80</ele>
        <time>2021-02-06T13:09:02Z</time>
      </trkpt>
      <trkpt lat="47.26644" lon="-0.44046">
        <ele>79</ele>
        <time>2021-02-06T13:09:07Z</time>
      </trkpt>
      <trkpt lat="47.26663" lon="-0.44041">
        <ele>79</ele>
        <time>2021-02-06T13:09:11Z</time>
      </trkpt>
      <trkpt lat="47.26694" lon="-0.44032">
        <ele>79</ele>
        <time>2021-02-06T13:09:16Z</time>
      </trkpt>
      <trkpt lat="47.26709" lon="-0.4403">
        <ele>79</ele>
        <time>2021-02-06T13:09:19Z</time>
      </trkpt>
      <trkpt lat="47.26728" lon="-0.44027">
        <ele>79</ele>
        <time>2021-02-06T13:09:22Z</time>
      </trkpt>
      <trkpt lat="47.2675" lon="-0.44024">
        <ele>79</ele>
        <time>2021-02-06T13:09:26Z</time>
      </trkpt>
      <trkpt lat="47.26783" lon="-0.44019">
        <ele>80</ele>
        <time>2021-02-06T13:09:32Z</time>
      </trkpt>
      <trkpt lat="47.26821" lon="-0.4401">
        <ele>81</ele>
        <time>2021-02-06T13:09:39Z</time>
      </trkpt>
      <trkpt lat="47.26857" lon="-0.43998">
        <ele>81</ele>
        <time>2021-02-06T13:09:46Z</time>
      </trkpt>
      <trkpt lat="47.26875" lon="-0.43991">
        <ele>82</ele>
        <time>2021-02-06T13:09:49Z</time>
      </trkpt>
      <trkpt lat="47.26884" lon="-0.43987">
        <ele>82</ele>
        <time>2021-02-06T13:09:51Z</time>
      </trkpt>
      <trkpt lat="47.26898" lon="-0.43983">
        <ele>82</ele>
        <time>2021-02-06T13:09:53Z</time>
      </trkpt>
      <trkpt lat="47.2691" lon="-0.43982">
        <ele>82</ele>
        <time>2021-02-06T13:09:55Z</time>
      </trkpt>
      <trkpt lat="47.26919" lon="-0.43983">
        <ele>82</ele>
        <time>2021-02-06T13:09:57Z</time>
      </trkpt>
      <trkpt lat="47.26927" lon="-0.43988">
        <ele>82</ele>
        <time>2021-02-06T13:09:58Z</time>
      </trkpt>
      <trkpt lat="47.26937" lon="-0.43998">
        <ele>83</ele>
        <time>2021-02-06T13:10:01Z</time>
      </trkpt>
      <trkpt lat="47.26949" lon="-0.44013">
        <ele>83</ele>
        <time>2021-02-06T13:10:03Z</time>
      </trkpt>
      <trkpt lat="47.26972" lon="-0.4404">
        <ele>83</ele>
        <time>2021-02-06T13:10:09Z</time>
      </trkpt>
      <trkpt lat="47.26973" lon="-0.44041">
        <ele>83</ele>
        <time>2021-02-06T13:10:09Z</time>
      </trkpt>
      <trkpt lat="47.26975" lon="-0.44042">
        <ele>83</ele>
        <time>2021-02-06T13:10:09Z</time>
      </trkpt>
      <trkpt lat="47.26976" lon="-0.44042">
        <ele>83</ele>
        <time>2021-02-06T13:10:09Z</time>
      </trkpt>
      <trkpt lat="47.26977" lon="-0.44043">
        <ele>83</ele>
        <time>2021-02-06T13:10:10Z</time>
      </trkpt>
      <trkpt lat="47.26983" lon="-0.44043">
        <ele>83</ele>
        <time>2021-02-06T13:10:11Z</time>
      </trkpt>
      <trkpt lat="47.26983" lon="-0.44043">
        <ele>83</ele>
        <time>2021-02-06T13:10:11Z</time>
      </trkpt>
      <trkpt lat="47.26986" lon="-0.44071">
        <ele>82</ele>
        <time>2021-02-06T13:10:14Z</time>
      </trkpt>
      <trkpt lat="47.26989" lon="-0.44092">
        <ele>82</ele>
        <time>2021-02-06T13:10:17Z</time>
      </trkpt>
      <trkpt lat="47.2699" lon="-0.44103">
        <ele>82</ele>
        <time>2021-02-06T13:10:18Z</time>
      </trkpt>
      <trkpt lat="47.26991" lon="-0.4411">
        <ele>82</ele>
        <time>2021-02-06T13:10:19Z</time>
      </trkpt>
      <trkpt lat="47.26993" lon="-0.44121">
        <ele>82</ele>
        <time>2021-02-06T13:10:20Z</time>
      </trkpt>
      <trkpt lat="47.26996" lon="-0.44153">
        <ele>83</ele>
        <time>2021-02-06T13:10:24Z</time>
      </trkpt>
      <trkpt lat="47.27" lon="-0.44185">
        <ele>83</ele>
        <time>2021-02-06T13:10:28Z</time>
      </trkpt>
      <trkpt lat="47.27002" lon="-0.44202">
        <ele>83</ele>
        <time>2021-02-06T13:10:30Z</time>
      </trkpt>
      <trkpt lat="47.27005" lon="-0.44224">
        <ele>84</ele>
        <time>2021-02-06T13:10:33Z</time>
      </trkpt>
      <trkpt lat="47.27008" lon="-0.44246">
        <ele>84</ele>
        <time>2021-02-06T13:10:36Z</time>
      </trkpt>
      <trkpt lat="47.27008" lon="-0.44254">
        <ele>84</ele>
        <time>2021-02-06T13:10:36Z</time>
      </trkpt>
      <trkpt lat="47.27009" lon="-0.44268">
        <ele>84</ele>
        <time>2021-02-06T13:10:38Z</time>
      </trkpt>
      <trkpt lat="47.27009" lon="-0.44281">
        <ele>84</ele>
        <time>2021-02-06T13:10:40Z</time>
      </trkpt>
      <trkpt lat="47.27008" lon="-0.44291">
        <ele>84</ele>
        <time>2021-02-06T13:10:41Z</time>
      </trkpt>
      <trkpt lat="47.27006" lon="-0.44304">
        <ele>84</ele>
        <time>2021-02-06T13:10:43Z</time>
      </trkpt>
      <trkpt lat="47.27003" lon="-0.44316">
        <ele>84</ele>
        <time>2021-02-06T13:10:44Z</time>
      </trkpt>
      <trkpt lat="47.26998" lon="-0.44332">
        <ele>84</ele>
        <time>2021-02-06T13:10:46Z</time>
      </trkpt>
      <trkpt lat="47.26987" lon="-0.44365">
        <ele>84</ele>
        <time>2021-02-06T13:10:51Z</time>
      </trkpt>
      <trkpt lat="47.26982" lon="-0.44379">
        <ele>83</ele>
        <time>2021-02-06T13:10:53Z</time>
      </trkpt>
      <trkpt lat="47.2698" lon="-0.44387">
        <ele>83</ele>
        <time>2021-02-06T13:10:54Z</time>
      </trkpt>
      <trkpt lat="47.26977" lon="-0.44395">
        <ele>83</ele>
        <time>2021-02-06T13:10:55Z</time>
      </trkpt>
      <trkpt lat="47.26973" lon="-0.4441">
        <ele>83</ele>
        <time>2021-02-06T13:10:57Z</time>
      </trkpt>
      <trkpt lat="47.26972" lon="-0.44413">
        <ele>83</ele>
        <time>2021-02-06T13:10:57Z</time>
      </trkpt>
      <trkpt lat="47.26967" lon="-0.44432">
        <ele>83</ele>
        <time>2021-02-06T13:11:00Z</time>
      </trkpt>
      <trkpt lat="47.26964" lon="-0.44448">
        <ele>83</ele>
        <time>2021-02-06T13:11:02Z</time>
      </trkpt>
      <trkpt lat="47.26961" lon="-0.44471">
        <ele>83</ele>
        <time>2021-02-06T13:11:04Z</time>
      </trkpt>
      <trkpt lat="47.26958" lon="-0.44489">
        <ele>83</ele>
        <time>2021-02-06T13:11:07Z</time>
      </trkpt>
      <trkpt lat="47.26957" lon="-0.44501">
        <ele>83</ele>
        <time>2021-02-06T13:11:08Z</time>
      </trkpt>
      <trkpt lat="47.26957" lon="-0.4451">
        <ele>83</ele>
        <time>2021-02-06T13:11:09Z</time>
      </trkpt>
      <trkpt lat="47.26958" lon="-0.44513">
        <ele>83</ele>
        <time>2021-02-06T13:11:10Z</time>
      </trkpt>
      <trkpt lat="47.26958" lon="-0.44522">
        <ele>83</ele>
        <time>2021-02-06T13:11:11Z</time>
      </trkpt>
      <trkpt lat="47.26958" lon="-0.44535">
        <ele>83</ele>
        <time>2021-02-06T13:11:12Z</time>
      </trkpt>
      <trkpt lat="47.26961" lon="-0.44551">
        <ele>83</ele>
        <time>2021-02-06T13:11:14Z</time>
      </trkpt>
      <trkpt lat="47.26965" lon="-0.44572">
        <ele>83</ele>
        <time>2021-02-06T13:11:17Z</time>
      </trkpt>
      <trkpt lat="47.26968" lon="-0.44589">
        <ele>83</ele>
        <time>2021-02-06T13:11:19Z</time>
      </trkpt>
      <trkpt lat="47.2697" lon="-0.44601">
        <ele>83</ele>
        <time>2021-02-06T13:11:20Z</time>
      </trkpt>
      <trkpt lat="47.26973" lon="-0.44615">
        <ele>83</ele>
        <time>2021-02-06T13:11:22Z</time>
      </trkpt>
      <trkpt lat="47.26977" lon="-0.44641">
        <ele>83</ele>
        <time>2021-02-06T13:11:25Z</time>
      </trkpt>
      <trkpt lat="47.26979" lon="-0.44656">
        <ele>83</ele>
        <time>2021-02-06T13:11:27Z</time>
      </trkpt>
      <trkpt lat="47.2698" lon="-0.44669">
        <ele>83</ele>
        <time>2021-02-06T13:11:29Z</time>
      </trkpt>
      <trkpt lat="47.2698" lon="-0.44682">
        <ele>83</ele>
        <time>2021-02-06T13:11:30Z</time>
      </trkpt>
      <trkpt lat="47.26981" lon="-0.44722">
        <ele>83</ele>
        <time>2021-02-06T13:11:35Z</time>
      </trkpt>
      <trkpt lat="47.26979" lon="-0.44787">
        <ele>83</ele>
        <time>2021-02-06T13:11:43Z</time>
      </trkpt>
      <trkpt lat="47.26978" lon="-0.44824">
        <ele>84</ele>
        <time>2021-02-06T13:11:48Z</time>
      </trkpt>
      <trkpt lat="47.26977" lon="-0.44839">
        <ele>84</ele>
        <time>2021-02-06T13:11:49Z</time>
      </trkpt>
      <trkpt lat="47.26974" lon="-0.44877">
        <ele>84</ele>
        <time>2021-02-06T13:11:54Z</time>
      </trkpt>
      <trkpt lat="47.26973" lon="-0.44893">
        <ele>83</ele>
        <time>2021-02-06T13:11:56Z</time>
      </trkpt>
      <trkpt lat="47.2697" lon="-0.44913">
        <ele>83</ele>
        <time>2021-02-06T13:11:58Z</time>
      </trkpt>
      <trkpt lat="47.26966" lon="-0.44936">
        <ele>83</ele>
        <time>2021-02-06T13:12:01Z</time>
      </trkpt>
      <trkpt lat="47.26963" lon="-0.44949">
        <ele>83</ele>
        <time>2021-02-06T13:12:03Z</time>
      </trkpt>
      <trkpt lat="47.26958" lon="-0.44967">
        <ele>83</ele>
        <time>2021-02-06T13:12:05Z</time>
      </trkpt>
      <trkpt lat="47.2695" lon="-0.44989">
        <ele>83</ele>
        <time>2021-02-06T13:12:08Z</time>
      </trkpt>
      <trkpt lat="47.26942" lon="-0.45008">
        <ele>83</ele>
        <time>2021-02-06T13:12:11Z</time>
      </trkpt>
      <trkpt lat="47.26937" lon="-0.45023">
        <ele>83</ele>
        <time>2021-02-06T13:12:13Z</time>
      </trkpt>
      <trkpt lat="47.26914" lon="-0.45083">
        <ele>84</ele>
        <time>2021-02-06T13:12:21Z</time>
      </trkpt>
      <trkpt lat="47.2691" lon="-0.45098">
        <ele>84</ele>
        <time>2021-02-06T13:12:23Z</time>
      </trkpt>
      <trkpt lat="47.26908" lon="-0.45109">
        <ele>84</ele>
        <time>2021-02-06T13:12:25Z</time>
      </trkpt>
      <trkpt lat="47.26908" lon="-0.45115">
        <ele>84</ele>
        <time>2021-02-06T13:12:25Z</time>
      </trkpt>
      <trkpt lat="47.26908" lon="-0.45129">
        <ele>84</ele>
        <time>2021-02-06T13:12:27Z</time>
      </trkpt>
      <trkpt lat="47.26908" lon="-0.45143">
        <ele>84</ele>
        <time>2021-02-06T13:12:29Z</time>
      </trkpt>
      <trkpt lat="47.26909" lon="-0.45163">
        <ele>84</ele>
        <time>2021-02-06T13:12:31Z</time>
      </trkpt>
      <trkpt lat="47.2691" lon="-0.45182">
        <ele>84</ele>
        <time>2021-02-06T13:12:34Z</time>
      </trkpt>
      <trkpt lat="47.26911" lon="-0.45204">
        <ele>83</ele>
        <time>2021-02-06T13:12:36Z</time>
      </trkpt>
      <trkpt lat="47.26912" lon="-0.45236">
        <ele>83</ele>
        <time>2021-02-06T13:12:40Z</time>
      </trkpt>
      <trkpt lat="47.26912" lon="-0.45236">
        <ele>83</ele>
        <time>2021-02-06T13:12:40Z</time>
      </trkpt>
      <trkpt lat="47.2696" lon="-0.45218">
        <ele>83</ele>
        <time>2021-02-06T13:12:49Z</time>
      </trkpt>
      <trkpt lat="47.26988" lon="-0.45207">
        <ele>83</ele>
        <time>2021-02-06T13:12:54Z</time>
      </trkpt>
      <trkpt lat="47.27017" lon="-0.45195">
        <ele>83</ele>
        <time>2021-02-06T13:12:59Z</time>
      </trkpt>
      <trkpt lat="47.27045" lon="-0.45182">
        <ele>84</ele>
        <time>2021-02-06T13:13:05Z</time>
      </trkpt>
      <trkpt lat="47.27086" lon="-0.45164">
        <ele>84</ele>
        <time>2021-02-06T13:13:12Z</time>
      </trkpt>
      <trkpt lat="47.27149" lon="-0.45136">
        <ele>84</ele>
        <time>2021-02-06T13:13:24Z</time>
      </trkpt>
      <trkpt lat="47.27164" lon="-0.4513">
        <ele>84</ele>
        <time>2021-02-06T13:13:27Z</time>
      </trkpt>
      <trkpt lat="47.27211" lon="-0.4511">
        <ele>83</ele>
        <time>2021-02-06T13:13:35Z</time>
      </trkpt>
      <trkpt lat="47.27247" lon="-0.45093">
        <ele>83</ele>
        <time>2021-02-06T13:13:42Z</time>
      </trkpt>
      <trkpt lat="47.27276" lon="-0.45078">
        <ele>84</ele>
        <time>2021-02-06T13:13:48Z</time>
      </trkpt>
      <trkpt lat="47.27295" lon="-0.45065">
        <ele>84</ele>
        <time>2021-02-06T13:13:51Z</time>
      </trkpt>
      <trkpt lat="47.27306" lon="-0.45058">
        <ele>85</ele>
        <time>2021-02-06T13:13:53Z</time>
      </trkpt>
      <trkpt lat="47.27309" lon="-0.45055">
        <ele>85</ele>
        <time>2021-02-06T13:13:54Z</time>
      </trkpt>
      <trkpt lat="47.27324" lon="-0.45044">
        <ele>85</ele>
        <time>2021-02-06T13:13:57Z</time>
      </trkpt>
      <trkpt lat="47.27343" lon="-0.4503">
        <ele>85</ele>
        <time>2021-02-06T13:14:01Z</time>
      </trkpt>
      <trkpt lat="47.27374" lon="-0.45005">
        <ele>85</ele>
        <time>2021-02-06T13:14:07Z</time>
      </trkpt>
      <trkpt lat="47.27388" lon="-0.44994">
        <ele>85</ele>
        <time>2021-02-06T13:14:10Z</time>
      </trkpt>
      <trkpt lat="47.27394" lon="-0.4499">
        <ele>85</ele>
        <time>2021-02-06T13:14:11Z</time>
      </trkpt>
      <trkpt lat="47.27406" lon="-0.44981">
        <ele>84</ele>
        <time>2021-02-06T13:14:14Z</time>
      </trkpt>
      <trkpt lat="47.27422" lon="-0.44971">
        <ele>84</ele>
        <time>2021-02-06T13:14:17Z</time>
      </trkpt>
      <trkpt lat="47.27434" lon="-0.44965">
        <ele>84</ele>
        <time>2021-02-06T13:14:19Z</time>
      </trkpt>
      <trkpt lat="47.27448" lon="-0.44962">
        <ele>84</ele>
        <time>2021-02-06T13:14:21Z</time>
      </trkpt>
      <trkpt lat="47.27468" lon="-0.44961">
        <ele>85</ele>
        <time>2021-02-06T13:14:25Z</time>
      </trkpt>
      <trkpt lat="47.27494" lon="-0.4496">
        <ele>85</ele>
        <time>2021-02-06T13:14:30Z</time>
      </trkpt>
      <trkpt lat="47.27513" lon="-0.44961">
        <ele>84</ele>
        <time>2021-02-06T13:14:33Z</time>
      </trkpt>
      <trkpt lat="47.27529" lon="-0.44964">
        <ele>84</ele>
        <time>2021-02-06T13:14:36Z</time>
      </trkpt>
      <trkpt lat="47.27554" lon="-0.44972">
        <ele>84</ele>
        <time>2021-02-06T13:14:40Z</time>
      </trkpt>
      <trkpt lat="47.27565" lon="-0.44975">
        <ele>84</ele>
        <time>2021-02-06T13:14:42Z</time>
      </trkpt>
      <trkpt lat="47.27571" lon="-0.44975">
        <ele>84</ele>
        <time>2021-02-06T13:14:43Z</time>
      </trkpt>
      <trkpt lat="47.27576" lon="-0.44974">
        <ele>84</ele>
        <time>2021-02-06T13:14:44Z</time>
      </trkpt>
      <trkpt lat="47.27582" lon="-0.4497">
        <ele>84</ele>
        <time>2021-02-06T13:14:46Z</time>
      </trkpt>
      <trkpt lat="47.2759" lon="-0.44963">
        <ele>84</ele>
        <time>2021-02-06T13:14:47Z</time>
      </trkpt>
      <trkpt lat="47.27599" lon="-0.44954">
        <ele>84</ele>
        <time>2021-02-06T13:14:49Z</time>
      </trkpt>
      <trkpt lat="47.27616" lon="-0.44937">
        <ele>84</ele>
        <time>2021-02-06T13:14:53Z</time>
      </trkpt>
      <trkpt lat="47.27642" lon="-0.44911">
        <ele>84</ele>
        <time>2021-02-06T13:14:58Z</time>
      </trkpt>
      <trkpt lat="47.27682" lon="-0.44872">
        <ele>85</ele>
        <time>2021-02-06T13:15:07Z</time>
      </trkpt>
      <trkpt lat="47.27719" lon="-0.44836">
        <ele>85</ele>
        <time>2021-02-06T13:15:15Z</time>
      </trkpt>
      <trkpt lat="47.27748" lon="-0.44808">
        <ele>85</ele>
        <time>2021-02-06T13:15:21Z</time>
      </trkpt>
      <trkpt lat="47.27782" lon="-0.44778">
        <ele>85</ele>
        <time>2021-02-06T13:15:28Z</time>
      </trkpt>
      <trkpt lat="47.27792" lon="-0.44766">
        <ele>86</ele>
        <time>2021-02-06T13:15:30Z</time>
      </trkpt>
      <trkpt lat="47.2787" lon="-0.44713">
        <ele>85</ele>
        <time>2021-02-06T13:15:46Z</time>
      </trkpt>
      <trkpt lat="47.27942" lon="-0.44663">
        <ele>84</ele>
        <time>2021-02-06T13:16:00Z</time>
      </trkpt>
      <trkpt lat="47.28017" lon="-0.44613">
        <ele>83</ele>
        <time>2021-02-06T13:16:14Z</time>
      </trkpt>
      <trkpt lat="47.28067" lon="-0.44581">
        <ele>84</ele>
        <time>2021-02-06T13:16:24Z</time>
      </trkpt>
      <trkpt lat="47.28082" lon="-0.44572">
        <ele>84</ele>
        <time>2021-02-06T13:16:27Z</time>
      </trkpt>
      <trkpt lat="47.28124" lon="-0.4454">
        <ele>83</ele>
        <time>2021-02-06T13:16:35Z</time>
      </trkpt>
      <trkpt lat="47.28151" lon="-0.44518">
        <ele>82</ele>
        <time>2021-02-06T13:16:41Z</time>
      </trkpt>
      <trkpt lat="47.28173" lon="-0.44496">
        <ele>81</ele>
        <time>2021-02-06T13:16:46Z</time>
      </trkpt>
      <trkpt lat="47.28191" lon="-0.44481">
        <ele>81</ele>
        <time>2021-02-06T13:16:49Z</time>
      </trkpt>
      <trkpt lat="47.2822" lon="-0.44455">
        <ele>80</ele>
        <time>2021-02-06T13:16:55Z</time>
      </trkpt>
      <trkpt lat="47.28251" lon="-0.4443">
        <ele>80</ele>
        <time>2021-02-06T13:17:02Z</time>
      </trkpt>
      <trkpt lat="47.2828" lon="-0.44399">
        <ele>79</ele>
        <time>2021-02-06T13:17:08Z</time>
      </trkpt>
      <trkpt lat="47.28307" lon="-0.44369">
        <ele>78</ele>
        <time>2021-02-06T13:17:14Z</time>
      </trkpt>
      <trkpt lat="47.28338" lon="-0.4434">
        <ele>77</ele>
        <time>2021-02-06T13:17:21Z</time>
      </trkpt>
      <trkpt lat="47.2835" lon="-0.44329">
        <ele>77</ele>
        <time>2021-02-06T13:17:23Z</time>
      </trkpt>
      <trkpt lat="47.28402" lon="-0.44283">
        <ele>76</ele>
        <time>2021-02-06T13:17:34Z</time>
      </trkpt>
      <trkpt lat="47.28424" lon="-0.44264">
        <ele>76</ele>
        <time>2021-02-06T13:17:38Z</time>
      </trkpt>
      <trkpt lat="47.2843" lon="-0.4426">
        <ele>76</ele>
        <time>2021-02-06T13:17:40Z</time>
      </trkpt>
      <trkpt lat="47.28461" lon="-0.44233">
        <ele>75</ele>
        <time>2021-02-06T13:17:46Z</time>
      </trkpt>
      <trkpt lat="47.28496" lon="-0.44201">
        <ele>75</ele>
        <time>2021-02-06T13:17:53Z</time>
      </trkpt>
      <trkpt lat="47.28523" lon="-0.44174">
        <ele>74</ele>
        <time>2021-02-06T13:17:59Z</time>
      </trkpt>
      <trkpt lat="47.28562" lon="-0.44135">
        <ele>73</ele>
        <time>2021-02-06T13:18:07Z</time>
      </trkpt>
      <trkpt lat="47.2858" lon="-0.44117">
        <ele>73</ele>
        <time>2021-02-06T13:18:11Z</time>
      </trkpt>
      <trkpt lat="47.2859" lon="-0.44106">
        <ele>73</ele>
        <time>2021-02-06T13:18:14Z</time>
      </trkpt>
      <trkpt lat="47.28601" lon="-0.44093">
        <ele>73</ele>
        <time>2021-02-06T13:18:16Z</time>
      </trkpt>
      <trkpt lat="47.28615" lon="-0.44075">
        <ele>73</ele>
        <time>2021-02-06T13:18:19Z</time>
      </trkpt>
      <trkpt lat="47.28634" lon="-0.44051">
        <ele>74</ele>
        <time>2021-02-06T13:18:24Z</time>
      </trkpt>
      <trkpt lat="47.28649" lon="-0.44034">
        <ele>74</ele>
        <time>2021-02-06T13:18:27Z</time>
      </trkpt>
      <trkpt lat="47.28661" lon="-0.4402">
        <ele>74</ele>
        <time>2021-02-06T13:18:30Z</time>
      </trkpt>
      <trkpt lat="47.28673" lon="-0.44008">
        <ele>74</ele>
        <time>2021-02-06T13:18:32Z</time>
      </trkpt>
      <trkpt lat="47.28692" lon="-0.4399">
        <ele>74</ele>
        <time>2021-02-06T13:18:37Z</time>
      </trkpt>
      <trkpt lat="47.287" lon="-0.43982">
        <ele>74</ele>
        <time>2021-02-06T13:18:38Z</time>
      </trkpt>
      <trkpt lat="47.28708" lon="-0.43975">
        <ele>74</ele>
        <time>2021-02-06T13:18:40Z</time>
      </trkpt>
      <trkpt lat="47.28723" lon="-0.43962">
        <ele>75</ele>
        <time>2021-02-06T13:18:43Z</time>
      </trkpt>
      <trkpt lat="47.28737" lon="-0.43944">
        <ele>75</ele>
        <time>2021-02-06T13:18:46Z</time>
      </trkpt>
      <trkpt lat="47.28746" lon="-0.43929">
        <ele>76</ele>
        <time>2021-02-06T13:18:49Z</time>
      </trkpt>
      <trkpt lat="47.2876" lon="-0.43898">
        <ele>76</ele>
        <time>2021-02-06T13:18:53Z</time>
      </trkpt>
      <trkpt lat="47.28773" lon="-0.43875">
        <ele>75</ele>
        <time>2021-02-06T13:18:57Z</time>
      </trkpt>
      <trkpt lat="47.28783" lon="-0.4386">
        <ele>75</ele>
        <time>2021-02-06T13:18:59Z</time>
      </trkpt>
      <trkpt lat="47.28792" lon="-0.4385">
        <ele>75</ele>
        <time>2021-02-06T13:19:01Z</time>
      </trkpt>
      <trkpt lat="47.28799" lon="-0.43844">
        <ele>75</ele>
        <time>2021-02-06T13:19:03Z</time>
      </trkpt>
      <trkpt lat="47.28804" lon="-0.43842">
        <ele>75</ele>
        <time>2021-02-06T13:19:04Z</time>
      </trkpt>
      <trkpt lat="47.28819" lon="-0.43838">
        <ele>74</ele>
        <time>2021-02-06T13:19:06Z</time>
      </trkpt>
      <trkpt lat="47.28838" lon="-0.43834">
        <ele>74</ele>
        <time>2021-02-06T13:19:10Z</time>
      </trkpt>
      <trkpt lat="47.28853" lon="-0.43828">
        <ele>74</ele>
        <time>2021-02-06T13:19:13Z</time>
      </trkpt>
      <trkpt lat="47.28864" lon="-0.43822">
        <ele>74</ele>
        <time>2021-02-06T13:19:15Z</time>
      </trkpt>
      <trkpt lat="47.28874" lon="-0.43813">
        <ele>74</ele>
        <time>2021-02-06T13:19:17Z</time>
      </trkpt>
      <trkpt lat="47.28889" lon="-0.43792">
        <ele>73</ele>
        <time>2021-02-06T13:19:20Z</time>
      </trkpt>
      <trkpt lat="47.289" lon="-0.43776">
        <ele>73</ele>
        <time>2021-02-06T13:19:23Z</time>
      </trkpt>
      <trkpt lat="47.28914" lon="-0.43753">
        <ele>73</ele>
        <time>2021-02-06T13:19:27Z</time>
      </trkpt>
      <trkpt lat="47.2893" lon="-0.43731">
        <ele>73</ele>
        <time>2021-02-06T13:19:31Z</time>
      </trkpt>
      <trkpt lat="47.28941" lon="-0.4372">
        <ele>72</ele>
        <time>2021-02-06T13:19:33Z</time>
      </trkpt>
      <trkpt lat="47.28958" lon="-0.4371">
        <ele>72</ele>
        <time>2021-02-06T13:19:36Z</time>
      </trkpt>
      <trkpt lat="47.28978" lon="-0.43701">
        <ele>72</ele>
        <time>2021-02-06T13:19:40Z</time>
      </trkpt>
      <trkpt lat="47.28999" lon="-0.43695">
        <ele>71</ele>
        <time>2021-02-06T13:19:44Z</time>
      </trkpt>
      <trkpt lat="47.29022" lon="-0.43684">
        <ele>71</ele>
        <time>2021-02-06T13:19:48Z</time>
      </trkpt>
      <trkpt lat="47.29034" lon="-0.43676">
        <ele>71</ele>
        <time>2021-02-06T13:19:51Z</time>
      </trkpt>
      <trkpt lat="47.29045" lon="-0.43663">
        <ele>71</ele>
        <time>2021-02-06T13:19:53Z</time>
      </trkpt>
      <trkpt lat="47.29059" lon="-0.43644">
        <ele>71</ele>
        <time>2021-02-06T13:19:57Z</time>
      </trkpt>
      <trkpt lat="47.29091" lon="-0.43592">
        <ele>71</ele>
        <time>2021-02-06T13:20:05Z</time>
      </trkpt>
      <trkpt lat="47.29122" lon="-0.43536">
        <ele>71</ele>
        <time>2021-02-06T13:20:14Z</time>
      </trkpt>
      <trkpt lat="47.2914" lon="-0.43514">
        <ele>70</ele>
        <time>2021-02-06T13:20:18Z</time>
      </trkpt>
      <trkpt lat="47.29151" lon="-0.43503">
        <ele>70</ele>
        <time>2021-02-06T13:20:20Z</time>
      </trkpt>
      <trkpt lat="47.29161" lon="-0.43495">
        <ele>70</ele>
        <time>2021-02-06T13:20:22Z</time>
      </trkpt>
      <trkpt lat="47.29182" lon="-0.43485">
        <ele>70</ele>
        <time>2021-02-06T13:20:26Z</time>
      </trkpt>
      <trkpt lat="47.29231" lon="-0.43462">
        <ele>70</ele>
        <time>2021-02-06T13:20:35Z</time>
      </trkpt>
      <trkpt lat="47.2926" lon="-0.43448">
        <ele>70</ele>
        <time>2021-02-06T13:20:41Z</time>
      </trkpt>
      <trkpt lat="47.29285" lon="-0.43436">
        <ele>70</ele>
        <time>2021-02-06T13:20:45Z</time>
      </trkpt>
      <trkpt lat="47.29292" lon="-0.43433">
        <ele>70</ele>
        <time>2021-02-06T13:20:47Z</time>
      </trkpt>
      <trkpt lat="47.29292" lon="-0.43433">
        <ele>70</ele>
        <time>2021-02-06T13:20:47Z</time>
      </trkpt>
      <trkpt lat="47.29293" lon="-0.43433">
        <ele>70</ele>
        <time>2021-02-06T13:20:47Z</time>
      </trkpt>
      <trkpt lat="47.29301" lon="-0.43432">
        <ele>70</ele>
        <time>2021-02-06T13:20:48Z</time>
      </trkpt>
      <trkpt lat="47.29308" lon="-0.43432">
        <ele>70</ele>
        <time>2021-02-06T13:20:50Z</time>
      </trkpt>
      <trkpt lat="47.29318" lon="-0.43433">
        <ele>70</ele>
        <time>2021-02-06T13:20:51Z</time>
      </trkpt>
      <trkpt lat="47.29327" lon="-0.43434">
        <ele>70</ele>
        <time>2021-02-06T13:20:53Z</time>
      </trkpt>
      <trkpt lat="47.29336" lon="-0.43436">
        <ele>70</ele>
        <time>2021-02-06T13:20:55Z</time>
      </trkpt>
      <trkpt lat="47.29349" lon="-0.4344">
        <ele>69</ele>
        <time>2021-02-06T13:20:57Z</time>
      </trkpt>
      <trkpt lat="47.29356" lon="-0.43443">
        <ele>69</ele>
        <time>2021-02-06T13:20:58Z</time>
      </trkpt>
      <trkpt lat="47.29361" lon="-0.43446">
        <ele>69</ele>
        <time>2021-02-06T13:20:59Z</time>
      </trkpt>
      <trkpt lat="47.29366" lon="-0.43449">
        <ele>69</ele>
        <time>2021-02-06T13:21:00Z</time>
      </trkpt>
      <trkpt lat="47.29373" lon="-0.43457">
        <ele>69</ele>
        <time>2021-02-06T13:21:02Z</time>
      </trkpt>
      <trkpt lat="47.29383" lon="-0.43476">
        <ele>69</ele>
        <time>2021-02-06T13:21:05Z</time>
      </trkpt>
      <trkpt lat="47.29395" lon="-0.435">
        <ele>69</ele>
        <time>2021-02-06T13:21:08Z</time>
      </trkpt>
      <trkpt lat="47.29415" lon="-0.43538">
        <ele>69</ele>
        <time>2021-02-06T13:21:14Z</time>
      </trkpt>
      <trkpt lat="47.29426" lon="-0.43556">
        <ele>68</ele>
        <time>2021-02-06T13:21:17Z</time>
      </trkpt>
      <trkpt lat="47.29437" lon="-0.43569">
        <ele>68</ele>
        <time>2021-02-06T13:21:20Z</time>
      </trkpt>
      <trkpt lat="47.29444" lon="-0.43576">
        <ele>68</ele>
        <time>2021-02-06T13:21:21Z</time>
      </trkpt>
      <trkpt lat="47.29451" lon="-0.43582">
        <ele>68</ele>
        <time>2021-02-06T13:21:22Z</time>
      </trkpt>
      <trkpt lat="47.29458" lon="-0.43587">
        <ele>69</ele>
        <time>2021-02-06T13:21:24Z</time>
      </trkpt>
      <trkpt lat="47.29476" lon="-0.43597">
        <ele>69</ele>
        <time>2021-02-06T13:21:27Z</time>
      </trkpt>
      <trkpt lat="47.29505" lon="-0.43615">
        <ele>69</ele>
        <time>2021-02-06T13:21:33Z</time>
      </trkpt>
      <trkpt lat="47.29533" lon="-0.43631">
        <ele>69</ele>
        <time>2021-02-06T13:21:38Z</time>
      </trkpt>
      <trkpt lat="47.29568" lon="-0.43654">
        <ele>68</ele>
        <time>2021-02-06T13:21:45Z</time>
      </trkpt>
      <trkpt lat="47.29606" lon="-0.4368">
        <ele>68</ele>
        <time>2021-02-06T13:21:52Z</time>
      </trkpt>
      <trkpt lat="47.29624" lon="-0.4369">
        <ele>68</ele>
        <time>2021-02-06T13:21:56Z</time>
      </trkpt>
      <trkpt lat="47.29632" lon="-0.43694">
        <ele>68</ele>
        <time>2021-02-06T13:21:57Z</time>
      </trkpt>
      <trkpt lat="47.29643" lon="-0.43698">
        <ele>68</ele>
        <time>2021-02-06T13:21:59Z</time>
      </trkpt>
      <trkpt lat="47.29651" lon="-0.43699">
        <ele>68</ele>
        <time>2021-02-06T13:22:01Z</time>
      </trkpt>
      <trkpt lat="47.2966" lon="-0.437">
        <ele>68</ele>
        <time>2021-02-06T13:22:02Z</time>
      </trkpt>
      <trkpt lat="47.29669" lon="-0.437">
        <ele>68</ele>
        <time>2021-02-06T13:22:04Z</time>
      </trkpt>
      <trkpt lat="47.29678" lon="-0.437">
        <ele>68</ele>
        <time>2021-02-06T13:22:06Z</time>
      </trkpt>
      <trkpt lat="47.2971" lon="-0.43699">
        <ele>68</ele>
        <time>2021-02-06T13:22:11Z</time>
      </trkpt>
      <trkpt lat="47.2974" lon="-0.43698">
        <ele>69</ele>
        <time>2021-02-06T13:22:17Z</time>
      </trkpt>
      <trkpt lat="47.2977" lon="-0.43696">
        <ele>69</ele>
        <time>2021-02-06T13:22:22Z</time>
      </trkpt>
      <trkpt lat="47.29794" lon="-0.43695">
        <ele>70</ele>
        <time>2021-02-06T13:22:26Z</time>
      </trkpt>
      <trkpt lat="47.29804" lon="-0.43695">
        <ele>70</ele>
        <time>2021-02-06T13:22:28Z</time>
      </trkpt>
      <trkpt lat="47.29813" lon="-0.43696">
        <ele>70</ele>
        <time>2021-02-06T13:22:30Z</time>
      </trkpt>
      <trkpt lat="47.2983" lon="-0.43699">
        <ele>71</ele>
        <time>2021-02-06T13:22:33Z</time>
      </trkpt>
      <trkpt lat="47.29845" lon="-0.43703">
        <ele>71</ele>
        <time>2021-02-06T13:22:35Z</time>
      </trkpt>
      <trkpt lat="47.29881" lon="-0.43712">
        <ele>70</ele>
        <time>2021-02-06T13:22:42Z</time>
      </trkpt>
      <trkpt lat="47.29942" lon="-0.43728">
        <ele>70</ele>
        <time>2021-02-06T13:22:53Z</time>
      </trkpt>
      <trkpt lat="47.30028" lon="-0.43745">
        <ele>70</ele>
        <time>2021-02-06T13:23:08Z</time>
      </trkpt>
      <trkpt lat="47.30098" lon="-0.43762">
        <ele>69</ele>
        <time>2021-02-06T13:23:21Z</time>
      </trkpt>
      <trkpt lat="47.3013" lon="-0.43769">
        <ele>69</ele>
        <time>2021-02-06T13:23:27Z</time>
      </trkpt>
      <trkpt lat="47.3014" lon="-0.43771">
        <ele>69</ele>
        <time>2021-02-06T13:23:29Z</time>
      </trkpt>
      <trkpt lat="47.3014" lon="-0.43771">
        <ele>69</ele>
        <time>2021-02-06T13:23:29Z</time>
      </trkpt>
      <trkpt lat="47.30145" lon="-0.43789">
        <ele>69</ele>
        <time>2021-02-06T13:23:31Z</time>
      </trkpt>
      <trkpt lat="47.30149" lon="-0.43811">
        <ele>69</ele>
        <time>2021-02-06T13:23:34Z</time>
      </trkpt>
      <trkpt lat="47.30151" lon="-0.43824">
        <ele>69</ele>
        <time>2021-02-06T13:23:35Z</time>
      </trkpt>
      <trkpt lat="47.30152" lon="-0.43837">
        <ele>69</ele>
        <time>2021-02-06T13:23:37Z</time>
      </trkpt>
      <trkpt lat="47.30155" lon="-0.43869">
        <ele>69</ele>
        <time>2021-02-06T13:23:41Z</time>
      </trkpt>
      <trkpt lat="47.30158" lon="-0.43901">
        <ele>69</ele>
        <time>2021-02-06T13:23:45Z</time>
      </trkpt>
      <trkpt lat="47.30161" lon="-0.43945">
        <ele>69</ele>
        <time>2021-02-06T13:23:50Z</time>
      </trkpt>
      <trkpt lat="47.30164" lon="-0.43986">
        <ele>70</ele>
        <time>2021-02-06T13:23:55Z</time>
      </trkpt>
      <trkpt lat="47.30168" lon="-0.44051">
        <ele>69</ele>
        <time>2021-02-06T13:24:03Z</time>
      </trkpt>
      <trkpt lat="47.30169" lon="-0.44078">
        <ele>69</ele>
        <time>2021-02-06T13:24:06Z</time>
      </trkpt>
      <trkpt lat="47.3017" lon="-0.44104">
        <ele>69</ele>
        <time>2021-02-06T13:24:09Z</time>
      </trkpt>
      <trkpt lat="47.30171" lon="-0.44124">
        <ele>68</ele>
        <time>2021-02-06T13:24:12Z</time>
      </trkpt>
      <trkpt lat="47.30173" lon="-0.44136">
        <ele>68</ele>
        <time>2021-02-06T13:24:13Z</time>
      </trkpt>
      <trkpt lat="47.30175" lon="-0.44145">
        <ele>68</ele>
        <time>2021-02-06T13:24:14Z</time>
      </trkpt>
      <trkpt lat="47.30179" lon="-0.44156">
        <ele>68</ele>
        <time>2021-02-06T13:24:16Z</time>
      </trkpt>
      <trkpt lat="47.30182" lon="-0.44167">
        <ele>68</ele>
        <time>2021-02-06T13:24:17Z</time>
      </trkpt>
      <trkpt lat="47.30182" lon="-0.44167">
        <ele>68</ele>
        <time>2021-02-06T13:24:17Z</time>
      </trkpt>
      <trkpt lat="47.30195" lon="-0.44205">
        <ele>67</ele>
        <time>2021-02-06T13:24:22Z</time>
      </trkpt>
      <trkpt lat="47.30202" lon="-0.44231">
        <ele>66</ele>
        <time>2021-02-06T13:24:26Z</time>
      </trkpt>
      <trkpt lat="47.30209" lon="-0.44254">
        <ele>65</ele>
        <time>2021-02-06T13:24:29Z</time>
      </trkpt>
      <trkpt lat="47.30214" lon="-0.4428">
        <ele>64</ele>
        <time>2021-02-06T13:24:32Z</time>
      </trkpt>
      <trkpt lat="47.3022" lon="-0.44305">
        <ele>63</ele>
        <time>2021-02-06T13:24:35Z</time>
      </trkpt>
      <trkpt lat="47.30226" lon="-0.4433">
        <ele>63</ele>
        <time>2021-02-06T13:24:38Z</time>
      </trkpt>
      <trkpt lat="47.30226" lon="-0.4433">
        <ele>63</ele>
        <time>2021-02-06T13:24:38Z</time>
      </trkpt>
      <trkpt lat="47.30221" lon="-0.44346">
        <ele>63</ele>
        <time>2021-02-06T13:24:41Z</time>
      </trkpt>
      <trkpt lat="47.30217" lon="-0.44358">
        <ele>62</ele>
        <time>2021-02-06T13:24:42Z</time>
      </trkpt>
      <trkpt lat="47.30215" lon="-0.44367">
        <ele>62</ele>
        <time>2021-02-06T13:24:43Z</time>
      </trkpt>
      <trkpt lat="47.30213" lon="-0.44379">
        <ele>62</ele>
        <time>2021-02-06T13:24:45Z</time>
      </trkpt>
      <trkpt lat="47.3021" lon="-0.44394">
        <ele>62</ele>
        <time>2021-02-06T13:24:47Z</time>
      </trkpt>
      <trkpt lat="47.30209" lon="-0.44402">
        <ele>62</ele>
        <time>2021-02-06T13:24:48Z</time>
      </trkpt>
      <trkpt lat="47.30209" lon="-0.4441">
        <ele>62</ele>
        <time>2021-02-06T13:24:49Z</time>
      </trkpt>
      <trkpt lat="47.30208" lon="-0.44423">
        <ele>61</ele>
        <time>2021-02-06T13:24:50Z</time>
      </trkpt>
      <trkpt lat="47.30208" lon="-0.4443">
        <ele>61</ele>
        <time>2021-02-06T13:24:51Z</time>
      </trkpt>
      <trkpt lat="47.30208" lon="-0.44437">
        <ele>61</ele>
        <time>2021-02-06T13:24:52Z</time>
      </trkpt>
      <trkpt lat="47.30209" lon="-0.44452">
        <ele>61</ele>
        <time>2021-02-06T13:24:54Z</time>
      </trkpt>
      <trkpt lat="47.30211" lon="-0.4446">
        <ele>60</ele>
        <time>2021-02-06T13:24:55Z</time>
      </trkpt>
      <trkpt lat="47.30213" lon="-0.44478">
        <ele>60</ele>
        <time>2021-02-06T13:24:57Z</time>
      </trkpt>
      <trkpt lat="47.30218" lon="-0.4451">
        <ele>60</ele>
        <time>2021-02-06T13:25:01Z</time>
      </trkpt>
      <trkpt lat="47.3023" lon="-0.4457">
        <ele>60</ele>
        <time>2021-02-06T13:25:08Z</time>
      </trkpt>
      <trkpt lat="47.30243" lon="-0.44651">
        <ele>62</ele>
        <time>2021-02-06T13:25:19Z</time>
      </trkpt>
      <trkpt lat="47.30255" lon="-0.44726">
        <ele>64</ele>
        <time>2021-02-06T13:25:28Z</time>
      </trkpt>
      <trkpt lat="47.30259" lon="-0.44754">
        <ele>64</ele>
        <time>2021-02-06T13:25:31Z</time>
      </trkpt>
      <trkpt lat="47.30266" lon="-0.44792">
        <ele>66</ele>
        <time>2021-02-06T13:25:36Z</time>
      </trkpt>
      <trkpt lat="47.30268" lon="-0.44805">
        <ele>66</ele>
        <time>2021-02-06T13:25:38Z</time>
      </trkpt>
      <trkpt lat="47.30273" lon="-0.44836">
        <ele>67</ele>
        <time>2021-02-06T13:25:41Z</time>
      </trkpt>
      <trkpt lat="47.30275" lon="-0.44862">
        <ele>68</ele>
        <time>2021-02-06T13:25:45Z</time>
      </trkpt>
      <trkpt lat="47.30276" lon="-0.44895">
        <ele>69</ele>
        <time>2021-02-06T13:25:49Z</time>
      </trkpt>
      <trkpt lat="47.30277" lon="-0.44909">
        <ele>69</ele>
        <time>2021-02-06T13:25:50Z</time>
      </trkpt>
      <trkpt lat="47.30277" lon="-0.44909">
        <ele>69</ele>
        <time>2021-02-06T13:25:50Z</time>
      </trkpt>
      <trkpt lat="47.3026" lon="-0.44915">
        <ele>69</ele>
        <time>2021-02-06T13:25:53Z</time>
      </trkpt>
      <trkpt lat="47.3026" lon="-0.44915">
        <ele>69</ele>
        <time>2021-02-06T13:25:53Z</time>
      </trkpt>
      <trkpt lat="47.30264" lon="-0.44934">
        <ele>69</ele>
        <time>2021-02-06T13:25:56Z</time>
      </trkpt>
      <trkpt lat="47.30272" lon="-0.44968">
        <ele>69</ele>
        <time>2021-02-06T13:26:00Z</time>
      </trkpt>
      <trkpt lat="47.30274" lon="-0.44978">
        <ele>69</ele>
        <time>2021-02-06T13:26:01Z</time>
      </trkpt>
      <trkpt lat="47.30281" lon="-0.45005">
        <ele>70</ele>
        <time>2021-02-06T13:26:05Z</time>
      </trkpt>
      <trkpt lat="47.30282" lon="-0.45009">
        <ele>70</ele>
        <time>2021-02-06T13:26:05Z</time>
      </trkpt>
      <trkpt lat="47.30289" lon="-0.45032">
        <ele>71</ele>
        <time>2021-02-06T13:26:08Z</time>
      </trkpt>
      <trkpt lat="47.30298" lon="-0.45063">
        <ele>72</ele>
        <time>2021-02-06T13:26:13Z</time>
      </trkpt>
      <trkpt lat="47.30305" lon="-0.45091">
        <ele>73</ele>
        <time>2021-02-06T13:26:16Z</time>
      </trkpt>
      <trkpt lat="47.30307" lon="-0.45107">
        <ele>73</ele>
        <time>2021-02-06T13:26:18Z</time>
      </trkpt>
      <trkpt lat="47.30309" lon="-0.45125">
        <ele>74</ele>
        <time>2021-02-06T13:26:20Z</time>
      </trkpt>
      <trkpt lat="47.30311" lon="-0.45148">
        <ele>74</ele>
        <time>2021-02-06T13:26:23Z</time>
      </trkpt>
      <trkpt lat="47.30316" lon="-0.45187">
        <ele>75</ele>
        <time>2021-02-06T13:26:28Z</time>
      </trkpt>
      <trkpt lat="47.30322" lon="-0.45226">
        <ele>76</ele>
        <time>2021-02-06T13:26:33Z</time>
      </trkpt>
      <trkpt lat="47.30325" lon="-0.45238">
        <ele>76</ele>
        <time>2021-02-06T13:26:34Z</time>
      </trkpt>
      <trkpt lat="47.30327" lon="-0.45244">
        <ele>76</ele>
        <time>2021-02-06T13:26:35Z</time>
      </trkpt>
      <trkpt lat="47.3033" lon="-0.45251">
        <ele>76</ele>
        <time>2021-02-06T13:26:36Z</time>
      </trkpt>
      <trkpt lat="47.30332" lon="-0.45254">
        <ele>76</ele>
        <time>2021-02-06T13:26:37Z</time>
      </trkpt>
      <trkpt lat="47.30335" lon="-0.45259">
        <ele>76</ele>
        <time>2021-02-06T13:26:37Z</time>
      </trkpt>
      <trkpt lat="47.30345" lon="-0.4527">
        <ele>76</ele>
        <time>2021-02-06T13:26:40Z</time>
      </trkpt>
      <trkpt lat="47.30357" lon="-0.45283">
        <ele>76</ele>
        <time>2021-02-06T13:26:42Z</time>
      </trkpt>
      <trkpt lat="47.30367" lon="-0.45292">
        <ele>77</ele>
        <time>2021-02-06T13:26:44Z</time>
      </trkpt>
      <trkpt lat="47.30375" lon="-0.45298">
        <ele>76</ele>
        <time>2021-02-06T13:26:46Z</time>
      </trkpt>
      <trkpt lat="47.30414" lon="-0.45337">
        <ele>76</ele>
        <time>2021-02-06T13:26:54Z</time>
      </trkpt>
      <trkpt lat="47.30436" lon="-0.45361">
        <ele>75</ele>
        <time>2021-02-06T13:26:59Z</time>
      </trkpt>
      <trkpt lat="47.3045" lon="-0.45379">
        <ele>75</ele>
        <time>2021-02-06T13:27:02Z</time>
      </trkpt>
      <trkpt lat="47.30482" lon="-0.45424">
        <ele>73</ele>
        <time>2021-02-06T13:27:10Z</time>
      </trkpt>
      <trkpt lat="47.30497" lon="-0.45446">
        <ele>72</ele>
        <time>2021-02-06T13:27:14Z</time>
      </trkpt>
      <trkpt lat="47.30516" lon="-0.45474">
        <ele>71</ele>
        <time>2021-02-06T13:27:19Z</time>
      </trkpt>
      <trkpt lat="47.30542" lon="-0.45514">
        <ele>70</ele>
        <time>2021-02-06T13:27:26Z</time>
      </trkpt>
      <trkpt lat="47.30562" lon="-0.45542">
        <ele>70</ele>
        <time>2021-02-06T13:27:30Z</time>
      </trkpt>
      <trkpt lat="47.30569" lon="-0.45551">
        <ele>69</ele>
        <time>2021-02-06T13:27:32Z</time>
      </trkpt>
      <trkpt lat="47.30572" lon="-0.45555">
        <ele>69</ele>
        <time>2021-02-06T13:27:33Z</time>
      </trkpt>
      <trkpt lat="47.30577" lon="-0.45558">
        <ele>69</ele>
        <time>2021-02-06T13:27:34Z</time>
      </trkpt>
      <trkpt lat="47.30583" lon="-0.45563">
        <ele>69</ele>
        <time>2021-02-06T13:27:35Z</time>
      </trkpt>
      <trkpt lat="47.3059" lon="-0.45567">
        <ele>69</ele>
        <time>2021-02-06T13:27:36Z</time>
      </trkpt>
      <trkpt lat="47.30597" lon="-0.45569">
        <ele>69</ele>
        <time>2021-02-06T13:27:38Z</time>
      </trkpt>
      <trkpt lat="47.30611" lon="-0.45575">
        <ele>69</ele>
        <time>2021-02-06T13:27:40Z</time>
      </trkpt>
      <trkpt lat="47.30636" lon="-0.45582">
        <ele>69</ele>
        <time>2021-02-06T13:27:45Z</time>
      </trkpt>
      <trkpt lat="47.30658" lon="-0.4559">
        <ele>69</ele>
        <time>2021-02-06T13:27:49Z</time>
      </trkpt>
      <trkpt lat="47.30678" lon="-0.45599">
        <ele>69</ele>
        <time>2021-02-06T13:27:53Z</time>
      </trkpt>
      <trkpt lat="47.30701" lon="-0.45609">
        <ele>68</ele>
        <time>2021-02-06T13:27:57Z</time>
      </trkpt>
      <trkpt lat="47.30716" lon="-0.45615">
        <ele>68</ele>
        <time>2021-02-06T13:28:00Z</time>
      </trkpt>
      <trkpt lat="47.30728" lon="-0.45618">
        <ele>68</ele>
        <time>2021-02-06T13:28:02Z</time>
      </trkpt>
      <trkpt lat="47.30738" lon="-0.45619">
        <ele>68</ele>
        <time>2021-02-06T13:28:04Z</time>
      </trkpt>
      <trkpt lat="47.30749" lon="-0.4562">
        <ele>68</ele>
        <time>2021-02-06T13:28:05Z</time>
      </trkpt>
      <trkpt lat="47.30762" lon="-0.45622">
        <ele>68</ele>
        <time>2021-02-06T13:28:08Z</time>
      </trkpt>
      <trkpt lat="47.30783" lon="-0.45626">
        <ele>67</ele>
        <time>2021-02-06T13:28:12Z</time>
      </trkpt>
      <trkpt lat="47.30808" lon="-0.45633">
        <ele>67</ele>
        <time>2021-02-06T13:28:16Z</time>
      </trkpt>
      <trkpt lat="47.30817" lon="-0.45636">
        <ele>67</ele>
        <time>2021-02-06T13:28:18Z</time>
      </trkpt>
      <trkpt lat="47.30826" lon="-0.45641">
        <ele>67</ele>
        <time>2021-02-06T13:28:19Z</time>
      </trkpt>
      <trkpt lat="47.30847" lon="-0.45653">
        <ele>67</ele>
        <time>2021-02-06T13:28:23Z</time>
      </trkpt>
      <trkpt lat="47.30879" lon="-0.45675">
        <ele>67</ele>
        <time>2021-02-06T13:28:30Z</time>
      </trkpt>
      <trkpt lat="47.30912" lon="-0.45698">
        <ele>66</ele>
        <time>2021-02-06T13:28:36Z</time>
      </trkpt>
      <trkpt lat="47.30943" lon="-0.45716">
        <ele>66</ele>
        <time>2021-02-06T13:28:42Z</time>
      </trkpt>
      <trkpt lat="47.30978" lon="-0.45738">
        <ele>66</ele>
        <time>2021-02-06T13:28:49Z</time>
      </trkpt>
      <trkpt lat="47.31019" lon="-0.45759">
        <ele>67</ele>
        <time>2021-02-06T13:28:57Z</time>
      </trkpt>
      <trkpt lat="47.31052" lon="-0.45777">
        <ele>67</ele>
        <time>2021-02-06T13:29:03Z</time>
      </trkpt>
      <trkpt lat="47.31058" lon="-0.4578">
        <ele>67</ele>
        <time>2021-02-06T13:29:04Z</time>
      </trkpt>
      <trkpt lat="47.31065" lon="-0.45783">
        <ele>67</ele>
        <time>2021-02-06T13:29:05Z</time>
      </trkpt>
      <trkpt lat="47.31088" lon="-0.45792">
        <ele>67</ele>
        <time>2021-02-06T13:29:10Z</time>
      </trkpt>
      <trkpt lat="47.31107" lon="-0.45797">
        <ele>67</ele>
        <time>2021-02-06T13:29:13Z</time>
      </trkpt>
      <trkpt lat="47.31122" lon="-0.45802">
        <ele>67</ele>
        <time>2021-02-06T13:29:16Z</time>
      </trkpt>
      <trkpt lat="47.31138" lon="-0.45811">
        <ele>66</ele>
        <time>2021-02-06T13:29:19Z</time>
      </trkpt>
      <trkpt lat="47.31176" lon="-0.45831">
        <ele>65</ele>
        <time>2021-02-06T13:29:26Z</time>
      </trkpt>
      <trkpt lat="47.31194" lon="-0.45841">
        <ele>65</ele>
        <time>2021-02-06T13:29:29Z</time>
      </trkpt>
      <trkpt lat="47.31225" lon="-0.45859">
        <ele>65</ele>
        <time>2021-02-06T13:29:35Z</time>
      </trkpt>
      <trkpt lat="47.3126" lon="-0.45882">
        <ele>63</ele>
        <time>2021-02-06T13:29:42Z</time>
      </trkpt>
      <trkpt lat="47.31282" lon="-0.45899">
        <ele>61</ele>
        <time>2021-02-06T13:29:47Z</time>
      </trkpt>
      <trkpt lat="47.31308" lon="-0.4592">
        <ele>59</ele>
        <time>2021-02-06T13:29:52Z</time>
      </trkpt>
      <trkpt lat="47.31327" lon="-0.45936">
        <ele>59</ele>
        <time>2021-02-06T13:29:56Z</time>
      </trkpt>
      <trkpt lat="47.31336" lon="-0.45943">
        <ele>59</ele>
        <time>2021-02-06T13:29:58Z</time>
      </trkpt>
      <trkpt lat="47.31342" lon="-0.45947">
        <ele>59</ele>
        <time>2021-02-06T13:29:59Z</time>
      </trkpt>
      <trkpt lat="47.31347" lon="-0.45951">
        <ele>59</ele>
        <time>2021-02-06T13:30:00Z</time>
      </trkpt>
      <trkpt lat="47.31356" lon="-0.45955">
        <ele>60</ele>
        <time>2021-02-06T13:30:01Z</time>
      </trkpt>
      <trkpt lat="47.31366" lon="-0.45958">
        <ele>60</ele>
        <time>2021-02-06T13:30:03Z</time>
      </trkpt>
      <trkpt lat="47.3138" lon="-0.45961">
        <ele>60</ele>
        <time>2021-02-06T13:30:06Z</time>
      </trkpt>
      <trkpt lat="47.31388" lon="-0.45961">
        <ele>60</ele>
        <time>2021-02-06T13:30:07Z</time>
      </trkpt>
      <trkpt lat="47.31424" lon="-0.45958">
        <ele>60</ele>
        <time>2021-02-06T13:30:14Z</time>
      </trkpt>
      <trkpt lat="47.31443" lon="-0.45959">
        <ele>61</ele>
        <time>2021-02-06T13:30:17Z</time>
      </trkpt>
      <trkpt lat="47.31459" lon="-0.45961">
        <ele>62</ele>
        <time>2021-02-06T13:30:20Z</time>
      </trkpt>
      <trkpt lat="47.31532" lon="-0.45966">
        <ele>64</ele>
        <time>2021-02-06T13:30:33Z</time>
      </trkpt>
      <trkpt lat="47.31622" lon="-0.45969">
        <ele>65</ele>
        <time>2021-02-06T13:30:49Z</time>
      </trkpt>
      <trkpt lat="47.31682" lon="-0.45969">
        <ele>64</ele>
        <time>2021-02-06T13:30:59Z</time>
      </trkpt>
      <trkpt lat="47.31702" lon="-0.45972">
        <ele>64</ele>
        <time>2021-02-06T13:31:03Z</time>
      </trkpt>
      <trkpt lat="47.31735" lon="-0.45979">
        <ele>64</ele>
        <time>2021-02-06T13:31:09Z</time>
      </trkpt>
      <trkpt lat="47.31777" lon="-0.45992">
        <ele>65</ele>
        <time>2021-02-06T13:31:17Z</time>
      </trkpt>
      <trkpt lat="47.31826" lon="-0.46007">
        <ele>65</ele>
        <time>2021-02-06T13:31:26Z</time>
      </trkpt>
      <trkpt lat="47.31852" lon="-0.4601">
        <ele>64</ele>
        <time>2021-02-06T13:31:30Z</time>
      </trkpt>
      <trkpt lat="47.31872" lon="-0.4601">
        <ele>64</ele>
        <time>2021-02-06T13:31:34Z</time>
      </trkpt>
      <trkpt lat="47.31901" lon="-0.46011">
        <ele>62</ele>
        <time>2021-02-06T13:31:39Z</time>
      </trkpt>
      <trkpt lat="47.31909" lon="-0.46012">
        <ele>62</ele>
        <time>2021-02-06T13:31:40Z</time>
      </trkpt>
      <trkpt lat="47.31918" lon="-0.46015">
        <ele>62</ele>
        <time>2021-02-06T13:31:42Z</time>
      </trkpt>
      <trkpt lat="47.31932" lon="-0.4602">
        <ele>62</ele>
        <time>2021-02-06T13:31:45Z</time>
      </trkpt>
      <trkpt lat="47.31947" lon="-0.46029">
        <ele>62</ele>
        <time>2021-02-06T13:31:47Z</time>
      </trkpt>
      <trkpt lat="47.3197" lon="-0.46046">
        <ele>61</ele>
        <time>2021-02-06T13:31:52Z</time>
      </trkpt>
      <trkpt lat="47.31992" lon="-0.46062">
        <ele>61</ele>
        <time>2021-02-06T13:31:56Z</time>
      </trkpt>
      <trkpt lat="47.32008" lon="-0.4607">
        <ele>60</ele>
        <time>2021-02-06T13:31:59Z</time>
      </trkpt>
      <trkpt lat="47.32018" lon="-0.46075">
        <ele>59</ele>
        <time>2021-02-06T13:32:01Z</time>
      </trkpt>
      <trkpt lat="47.32026" lon="-0.46078">
        <ele>59</ele>
        <time>2021-02-06T13:32:03Z</time>
      </trkpt>
      <trkpt lat="47.32036" lon="-0.46079">
        <ele>58</ele>
        <time>2021-02-06T13:32:04Z</time>
      </trkpt>
      <trkpt lat="47.32044" lon="-0.46079">
        <ele>58</ele>
        <time>2021-02-06T13:32:06Z</time>
      </trkpt>
      <trkpt lat="47.32062" lon="-0.46078">
        <ele>57</ele>
        <time>2021-02-06T13:32:09Z</time>
      </trkpt>
      <trkpt lat="47.32076" lon="-0.46075">
        <ele>56</ele>
        <time>2021-02-06T13:32:12Z</time>
      </trkpt>
      <trkpt lat="47.32091" lon="-0.4607">
        <ele>56</ele>
        <time>2021-02-06T13:32:14Z</time>
      </trkpt>
      <trkpt lat="47.32151" lon="-0.46045">
        <ele>51</ele>
        <time>2021-02-06T13:32:25Z</time>
      </trkpt>
      <trkpt lat="47.32183" lon="-0.46031">
        <ele>50</ele>
        <time>2021-02-06T13:32:31Z</time>
      </trkpt>
      <trkpt lat="47.32198" lon="-0.46028">
        <ele>50</ele>
        <time>2021-02-06T13:32:34Z</time>
      </trkpt>
      <trkpt lat="47.32208" lon="-0.46028">
        <ele>50</ele>
        <time>2021-02-06T13:32:36Z</time>
      </trkpt>
      <trkpt lat="47.32223" lon="-0.4603">
        <ele>51</ele>
        <time>2021-02-06T13:32:39Z</time>
      </trkpt>
      <trkpt lat="47.32238" lon="-0.46032">
        <ele>51</ele>
        <time>2021-02-06T13:32:41Z</time>
      </trkpt>
      <trkpt lat="47.32254" lon="-0.46036">
        <ele>50</ele>
        <time>2021-02-06T13:32:44Z</time>
      </trkpt>
      <trkpt lat="47.32267" lon="-0.46039">
        <ele>50</ele>
        <time>2021-02-06T13:32:46Z</time>
      </trkpt>
      <trkpt lat="47.32278" lon="-0.46042">
        <ele>50</ele>
        <time>2021-02-06T13:32:48Z</time>
      </trkpt>
      <trkpt lat="47.32285" lon="-0.46046">
        <ele>49</ele>
        <time>2021-02-06T13:32:50Z</time>
      </trkpt>
      <trkpt lat="47.32293" lon="-0.4605">
        <ele>49</ele>
        <time>2021-02-06T13:32:51Z</time>
      </trkpt>
      <trkpt lat="47.323" lon="-0.46055">
        <ele>49</ele>
        <time>2021-02-06T13:32:53Z</time>
      </trkpt>
      <trkpt lat="47.32305" lon="-0.46061">
        <ele>49</ele>
        <time>2021-02-06T13:32:54Z</time>
      </trkpt>
      <trkpt lat="47.32313" lon="-0.4607">
        <ele>49</ele>
        <time>2021-02-06T13:32:56Z</time>
      </trkpt>
      <trkpt lat="47.32329" lon="-0.46091">
        <ele>48</ele>
        <time>2021-02-06T13:32:59Z</time>
      </trkpt>
      <trkpt lat="47.32393" lon="-0.46176">
        <ele>51</ele>
        <time>2021-02-06T13:33:15Z</time>
      </trkpt>
      <trkpt lat="47.3245" lon="-0.4625">
        <ele>57</ele>
        <time>2021-02-06T13:33:28Z</time>
      </trkpt>
      <trkpt lat="47.3253" lon="-0.46353">
        <ele>62</ele>
        <time>2021-02-06T13:33:47Z</time>
      </trkpt>
      <trkpt lat="47.32556" lon="-0.46386">
        <ele>64</ele>
        <time>2021-02-06T13:33:53Z</time>
      </trkpt>
      <trkpt lat="47.32558" lon="-0.46389">
        <ele>64</ele>
        <time>2021-02-06T13:33:54Z</time>
      </trkpt>
      <trkpt lat="47.3258" lon="-0.46417">
        <ele>65</ele>
        <time>2021-02-06T13:33:59Z</time>
      </trkpt>
      <trkpt lat="47.32635" lon="-0.46488">
        <ele>69</ele>
        <time>2021-02-06T13:34:12Z</time>
      </trkpt>
      <trkpt lat="47.3265" lon="-0.46509">
        <ele>70</ele>
        <time>2021-02-06T13:34:16Z</time>
      </trkpt>
      <trkpt lat="47.32659" lon="-0.46523">
        <ele>70</ele>
        <time>2021-02-06T13:34:18Z</time>
      </trkpt>
      <trkpt lat="47.32665" lon="-0.46533">
        <ele>71</ele>
        <time>2021-02-06T13:34:20Z</time>
      </trkpt>
      <trkpt lat="47.32675" lon="-0.46553">
        <ele>72</ele>
        <time>2021-02-06T13:34:23Z</time>
      </trkpt>
      <trkpt lat="47.32682" lon="-0.46566">
        <ele>72</ele>
        <time>2021-02-06T13:34:25Z</time>
      </trkpt>
      <trkpt lat="47.32689" lon="-0.46583">
        <ele>73</ele>
        <time>2021-02-06T13:34:27Z</time>
      </trkpt>
      <trkpt lat="47.32696" lon="-0.46602">
        <ele>73</ele>
        <time>2021-02-06T13:34:30Z</time>
      </trkpt>
      <trkpt lat="47.32702" lon="-0.46627">
        <ele>74</ele>
        <time>2021-02-06T13:34:33Z</time>
      </trkpt>
      <trkpt lat="47.32705" lon="-0.46644">
        <ele>74</ele>
        <time>2021-02-06T13:34:35Z</time>
      </trkpt>
      <trkpt lat="47.32707" lon="-0.46669">
        <ele>75</ele>
        <time>2021-02-06T13:34:38Z</time>
      </trkpt>
      <trkpt lat="47.3271" lon="-0.46703">
        <ele>75</ele>
        <time>2021-02-06T13:34:42Z</time>
      </trkpt>
      <trkpt lat="47.32718" lon="-0.46772">
        <ele>76</ele>
        <time>2021-02-06T13:34:50Z</time>
      </trkpt>
      <trkpt lat="47.32723" lon="-0.46809">
        <ele>76</ele>
        <time>2021-02-06T13:34:55Z</time>
      </trkpt>
      <trkpt lat="47.32735" lon="-0.46887">
        <ele>75</ele>
        <time>2021-02-06T13:35:05Z</time>
      </trkpt>
      <trkpt lat="47.32737" lon="-0.46902">
        <ele>75</ele>
        <time>2021-02-06T13:35:07Z</time>
      </trkpt>
      <trkpt lat="47.32737" lon="-0.46906">
        <ele>75</ele>
        <time>2021-02-06T13:35:07Z</time>
      </trkpt>
      <trkpt lat="47.3274" lon="-0.46928">
        <ele>75</ele>
        <time>2021-02-06T13:35:10Z</time>
      </trkpt>
      <trkpt lat="47.32741" lon="-0.46951">
        <ele>74</ele>
        <time>2021-02-06T13:35:13Z</time>
      </trkpt>
      <trkpt lat="47.32743" lon="-0.4698">
        <ele>74</ele>
        <time>2021-02-06T13:35:16Z</time>
      </trkpt>
      <trkpt lat="47.32744" lon="-0.47002">
        <ele>74</ele>
        <time>2021-02-06T13:35:19Z</time>
      </trkpt>
      <trkpt lat="47.32745" lon="-0.4702">
        <ele>74</ele>
        <time>2021-02-06T13:35:21Z</time>
      </trkpt>
      <trkpt lat="47.32751" lon="-0.4706">
        <ele>74</ele>
        <time>2021-02-06T13:35:26Z</time>
      </trkpt>
      <trkpt lat="47.32755" lon="-0.47083">
        <ele>74</ele>
        <time>2021-02-06T13:35:29Z</time>
      </trkpt>
      <trkpt lat="47.32765" lon="-0.47138">
        <ele>72</ele>
        <time>2021-02-06T13:35:36Z</time>
      </trkpt>
      <trkpt lat="47.32768" lon="-0.47156">
        <ele>72</ele>
        <time>2021-02-06T13:35:38Z</time>
      </trkpt>
      <trkpt lat="47.3277" lon="-0.47161">
        <ele>72</ele>
        <time>2021-02-06T13:35:38Z</time>
      </trkpt>
      <trkpt lat="47.32773" lon="-0.47171">
        <ele>72</ele>
        <time>2021-02-06T13:35:40Z</time>
      </trkpt>
      <trkpt lat="47.32776" lon="-0.47181">
        <ele>72</ele>
        <time>2021-02-06T13:35:41Z</time>
      </trkpt>
      <trkpt lat="47.32781" lon="-0.47193">
        <ele>72</ele>
        <time>2021-02-06T13:35:43Z</time>
      </trkpt>
      <trkpt lat="47.3279" lon="-0.47214">
        <ele>72</ele>
        <time>2021-02-06T13:35:46Z</time>
      </trkpt>
      <trkpt lat="47.32798" lon="-0.47231">
        <ele>72</ele>
        <time>2021-02-06T13:35:48Z</time>
      </trkpt>
      <trkpt lat="47.32806" lon="-0.47246">
        <ele>72</ele>
        <time>2021-02-06T13:35:51Z</time>
      </trkpt>
      <trkpt lat="47.32817" lon="-0.47264">
        <ele>72</ele>
        <time>2021-02-06T13:35:54Z</time>
      </trkpt>
      <trkpt lat="47.32827" lon="-0.4728">
        <ele>72</ele>
        <time>2021-02-06T13:35:56Z</time>
      </trkpt>
      <trkpt lat="47.32855" lon="-0.47322">
        <ele>71</ele>
        <time>2021-02-06T13:36:03Z</time>
      </trkpt>
      <trkpt lat="47.32859" lon="-0.47329">
        <ele>71</ele>
        <time>2021-02-06T13:36:04Z</time>
      </trkpt>
      <trkpt lat="47.32864" lon="-0.47336">
        <ele>71</ele>
        <time>2021-02-06T13:36:06Z</time>
      </trkpt>
      <trkpt lat="47.32868" lon="-0.47344">
        <ele>71</ele>
        <time>2021-02-06T13:36:07Z</time>
      </trkpt>
      <trkpt lat="47.32873" lon="-0.47356">
        <ele>71</ele>
        <time>2021-02-06T13:36:08Z</time>
      </trkpt>
      <trkpt lat="47.3288" lon="-0.47373">
        <ele>71</ele>
        <time>2021-02-06T13:36:11Z</time>
      </trkpt>
      <trkpt lat="47.32885" lon="-0.47387">
        <ele>71</ele>
        <time>2021-02-06T13:36:13Z</time>
      </trkpt>
      <trkpt lat="47.32889" lon="-0.47398">
        <ele>71</ele>
        <time>2021-02-06T13:36:14Z</time>
      </trkpt>
      <trkpt lat="47.32894" lon="-0.47408">
        <ele>71</ele>
        <time>2021-02-06T13:36:16Z</time>
      </trkpt>
      <trkpt lat="47.32895" lon="-0.47412">
        <ele>71</ele>
        <time>2021-02-06T13:36:16Z</time>
      </trkpt>
      <trkpt lat="47.32898" lon="-0.47416">
        <ele>71</ele>
        <time>2021-02-06T13:36:17Z</time>
      </trkpt>
      <trkpt lat="47.329" lon="-0.47421">
        <ele>71</ele>
        <time>2021-02-06T13:36:18Z</time>
      </trkpt>
      <trkpt lat="47.32903" lon="-0.47424">
        <ele>71</ele>
        <time>2021-02-06T13:36:18Z</time>
      </trkpt>
      <trkpt lat="47.32906" lon="-0.47427">
        <ele>71</ele>
        <time>2021-02-06T13:36:19Z</time>
      </trkpt>
      <trkpt lat="47.32908" lon="-0.47429">
        <ele>71</ele>
        <time>2021-02-06T13:36:19Z</time>
      </trkpt>
      <trkpt lat="47.32911" lon="-0.47432">
        <ele>71</ele>
        <time>2021-02-06T13:36:20Z</time>
      </trkpt>
      <trkpt lat="47.32915" lon="-0.47435">
        <ele>71</ele>
        <time>2021-02-06T13:36:21Z</time>
      </trkpt>
      <trkpt lat="47.32921" lon="-0.47439">
        <ele>71</ele>
        <time>2021-02-06T13:36:22Z</time>
      </trkpt>
      <trkpt lat="47.32927" lon="-0.47441">
        <ele>71</ele>
        <time>2021-02-06T13:36:23Z</time>
      </trkpt>
      <trkpt lat="47.32935" lon="-0.47444">
        <ele>71</ele>
        <time>2021-02-06T13:36:25Z</time>
      </trkpt>
      <trkpt lat="47.32943" lon="-0.47445">
        <ele>71</ele>
        <time>2021-02-06T13:36:26Z</time>
      </trkpt>
      <trkpt lat="47.32959" lon="-0.47448">
        <ele>70</ele>
        <time>2021-02-06T13:36:29Z</time>
      </trkpt>
      <trkpt lat="47.32974" lon="-0.47451">
        <ele>70</ele>
        <time>2021-02-06T13:36:32Z</time>
      </trkpt>
      <trkpt lat="47.32983" lon="-0.47454">
        <ele>70</ele>
        <time>2021-02-06T13:36:33Z</time>
      </trkpt>
      <trkpt lat="47.32987" lon="-0.47455">
        <ele>70</ele>
        <time>2021-02-06T13:36:34Z</time>
      </trkpt>
      <trkpt lat="47.3299" lon="-0.47457">
        <ele>70</ele>
        <time>2021-02-06T13:36:35Z</time>
      </trkpt>
      <trkpt lat="47.32993" lon="-0.47459">
        <ele>70</ele>
        <time>2021-02-06T13:36:35Z</time>
      </trkpt>
      <trkpt lat="47.32996" lon="-0.47461">
        <ele>70</ele>
        <time>2021-02-06T13:36:36Z</time>
      </trkpt>
      <trkpt lat="47.32998" lon="-0.47463">
        <ele>70</ele>
        <time>2021-02-06T13:36:36Z</time>
      </trkpt>
      <trkpt lat="47.32999" lon="-0.47465">
        <ele>70</ele>
        <time>2021-02-06T13:36:36Z</time>
      </trkpt>
      <trkpt lat="47.33001" lon="-0.47467">
        <ele>70</ele>
        <time>2021-02-06T13:36:37Z</time>
      </trkpt>
      <trkpt lat="47.33002" lon="-0.47469">
        <ele>70</ele>
        <time>2021-02-06T13:36:37Z</time>
      </trkpt>
      <trkpt lat="47.33004" lon="-0.47473">
        <ele>70</ele>
        <time>2021-02-06T13:36:38Z</time>
      </trkpt>
      <trkpt lat="47.33006" lon="-0.47477">
        <ele>70</ele>
        <time>2021-02-06T13:36:38Z</time>
      </trkpt>
      <trkpt lat="47.33009" lon="-0.47484">
        <ele>71</ele>
        <time>2021-02-06T13:36:39Z</time>
      </trkpt>
      <trkpt lat="47.33012" lon="-0.47499">
        <ele>71</ele>
        <time>2021-02-06T13:36:41Z</time>
      </trkpt>
      <trkpt lat="47.33013" lon="-0.47505">
        <ele>71</ele>
        <time>2021-02-06T13:36:42Z</time>
      </trkpt>
      <trkpt lat="47.33014" lon="-0.4751">
        <ele>71</ele>
        <time>2021-02-06T13:36:43Z</time>
      </trkpt>
      <trkpt lat="47.33014" lon="-0.47515">
        <ele>71</ele>
        <time>2021-02-06T13:36:43Z</time>
      </trkpt>
      <trkpt lat="47.33015" lon="-0.4752">
        <ele>71</ele>
        <time>2021-02-06T13:36:44Z</time>
      </trkpt>
      <trkpt lat="47.33018" lon="-0.47539">
        <ele>71</ele>
        <time>2021-02-06T13:36:46Z</time>
      </trkpt>
      <trkpt lat="47.33024" lon="-0.47567">
        <ele>72</ele>
        <time>2021-02-06T13:36:50Z</time>
      </trkpt>
      <trkpt lat="47.33031" lon="-0.47595">
        <ele>72</ele>
        <time>2021-02-06T13:36:53Z</time>
      </trkpt>
      <trkpt lat="47.33045" lon="-0.47646">
        <ele>71</ele>
        <time>2021-02-06T13:37:00Z</time>
      </trkpt>
      <trkpt lat="47.33049" lon="-0.47662">
        <ele>71</ele>
        <time>2021-02-06T13:37:02Z</time>
      </trkpt>
      <trkpt lat="47.33058" lon="-0.47694">
        <ele>72</ele>
        <time>2021-02-06T13:37:06Z</time>
      </trkpt>
      <trkpt lat="47.33064" lon="-0.47714">
        <ele>72</ele>
        <time>2021-02-06T13:37:09Z</time>
      </trkpt>
      <trkpt lat="47.33068" lon="-0.47729">
        <ele>72</ele>
        <time>2021-02-06T13:37:11Z</time>
      </trkpt>
      <trkpt lat="47.3307" lon="-0.47735">
        <ele>73</ele>
        <time>2021-02-06T13:37:12Z</time>
      </trkpt>
      <trkpt lat="47.33073" lon="-0.47741">
        <ele>73</ele>
        <time>2021-02-06T13:37:13Z</time>
      </trkpt>
      <trkpt lat="47.33076" lon="-0.47745">
        <ele>73</ele>
        <time>2021-02-06T13:37:13Z</time>
      </trkpt>
      <trkpt lat="47.33078" lon="-0.47748">
        <ele>73</ele>
        <time>2021-02-06T13:37:14Z</time>
      </trkpt>
      <trkpt lat="47.33082" lon="-0.47751">
        <ele>73</ele>
        <time>2021-02-06T13:37:15Z</time>
      </trkpt>
      <trkpt lat="47.33085" lon="-0.47752">
        <ele>73</ele>
        <time>2021-02-06T13:37:15Z</time>
      </trkpt>
      <trkpt lat="47.33089" lon="-0.47752">
        <ele>73</ele>
        <time>2021-02-06T13:37:16Z</time>
      </trkpt>
      <trkpt lat="47.33102" lon="-0.47747">
        <ele>73</ele>
        <time>2021-02-06T13:37:18Z</time>
      </trkpt>
      <trkpt lat="47.33141" lon="-0.47735">
        <ele>72</ele>
        <time>2021-02-06T13:37:25Z</time>
      </trkpt>
      <trkpt lat="47.3315" lon="-0.47732">
        <ele>72</ele>
        <time>2021-02-06T13:37:27Z</time>
      </trkpt>
      <trkpt lat="47.33156" lon="-0.47731">
        <ele>72</ele>
        <time>2021-02-06T13:37:28Z</time>
      </trkpt>
      <trkpt lat="47.33156" lon="-0.47731">
        <ele>72</ele>
        <time>2021-02-06T13:37:28Z</time>
      </trkpt>
      <trkpt lat="47.33161" lon="-0.47726">
        <ele>72</ele>
        <time>2021-02-06T13:37:29Z</time>
      </trkpt>
      <trkpt lat="47.33167" lon="-0.47723">
        <ele>72</ele>
        <time>2021-02-06T13:37:30Z</time>
      </trkpt>
      <trkpt lat="47.33172" lon="-0.4772">
        <ele>72</ele>
        <time>2021-02-06T13:37:31Z</time>
      </trkpt>
      <trkpt lat="47.33194" lon="-0.47708">
        <ele>71</ele>
        <time>2021-02-06T13:37:35Z</time>
      </trkpt>
      <trkpt lat="47.33196" lon="-0.47707">
        <ele>71</ele>
        <time>2021-02-06T13:37:36Z</time>
      </trkpt>
      <trkpt lat="47.3321" lon="-0.47702">
        <ele>70</ele>
        <time>2021-02-06T13:37:38Z</time>
      </trkpt>
      <trkpt lat="47.3323" lon="-0.47697">
        <ele>70</ele>
        <time>2021-02-06T13:37:42Z</time>
      </trkpt>
      <trkpt lat="47.33232" lon="-0.47696">
        <ele>70</ele>
        <time>2021-02-06T13:37:42Z</time>
      </trkpt>
      <trkpt lat="47.33252" lon="-0.47693">
        <ele>69</ele>
        <time>2021-02-06T13:37:46Z</time>
      </trkpt>
      <trkpt lat="47.33274" lon="-0.47688">
        <ele>68</ele>
        <time>2021-02-06T13:37:50Z</time>
      </trkpt>
      <trkpt lat="47.33291" lon="-0.47684">
        <ele>68</ele>
        <time>2021-02-06T13:37:53Z</time>
      </trkpt>
      <trkpt lat="47.33319" lon="-0.4768">
        <ele>67</ele>
        <time>2021-02-06T13:37:58Z</time>
      </trkpt>
      <trkpt lat="47.33319" lon="-0.4768">
        <ele>67</ele>
        <time>2021-02-06T13:37:58Z</time>
      </trkpt>
      <trkpt lat="47.3332" lon="-0.47678">
        <ele>67</ele>
        <time>2021-02-06T13:37:58Z</time>
      </trkpt>
      <trkpt lat="47.33322" lon="-0.47677">
        <ele>67</ele>
        <time>2021-02-06T13:37:59Z</time>
      </trkpt>
      <trkpt lat="47.33324" lon="-0.47677">
        <ele>67</ele>
        <time>2021-02-06T13:37:59Z</time>
      </trkpt>
      <trkpt lat="47.33326" lon="-0.47677">
        <ele>67</ele>
        <time>2021-02-06T13:37:59Z</time>
      </trkpt>
      <trkpt lat="47.33327" lon="-0.4768">
        <ele>67</ele>
        <time>2021-02-06T13:38:00Z</time>
      </trkpt>
      <trkpt lat="47.33327" lon="-0.47682">
        <ele>67</ele>
        <time>2021-02-06T13:38:00Z</time>
      </trkpt>
      <trkpt lat="47.33337" lon="-0.47671">
        <ele>67</ele>
        <time>2021-02-06T13:38:02Z</time>
      </trkpt>
      <trkpt lat="47.33346" lon="-0.47662">
        <ele>67</ele>
        <time>2021-02-06T13:38:04Z</time>
      </trkpt>
      <trkpt lat="47.33354" lon="-0.47653">
        <ele>67</ele>
        <time>2021-02-06T13:38:06Z</time>
      </trkpt>
      <trkpt lat="47.33361" lon="-0.47643">
        <ele>67</ele>
        <time>2021-02-06T13:38:08Z</time>
      </trkpt>
      <trkpt lat="47.33368" lon="-0.47632">
        <ele>67</ele>
        <time>2021-02-06T13:38:09Z</time>
      </trkpt>
      <trkpt lat="47.33382" lon="-0.47603">
        <ele>67</ele>
        <time>2021-02-06T13:38:14Z</time>
      </trkpt>
      <trkpt lat="47.334" lon="-0.47567">
        <ele>67</ele>
        <time>2021-02-06T13:38:19Z</time>
      </trkpt>
      <trkpt lat="47.33421" lon="-0.47527">
        <ele>67</ele>
        <time>2021-02-06T13:38:25Z</time>
      </trkpt>
      <trkpt lat="47.33424" lon="-0.4752">
        <ele>67</ele>
        <time>2021-02-06T13:38:26Z</time>
      </trkpt>
      <trkpt lat="47.33427" lon="-0.47515">
        <ele>67</ele>
        <time>2021-02-06T13:38:27Z</time>
      </trkpt>
      <trkpt lat="47.33442" lon="-0.47484">
        <ele>68</ele>
        <time>2021-02-06T13:38:32Z</time>
      </trkpt>
      <trkpt lat="47.33455" lon="-0.47457">
        <ele>68</ele>
        <time>2021-02-06T13:38:36Z</time>
      </trkpt>
      <trkpt lat="47.33458" lon="-0.47445">
        <ele>68</ele>
        <time>2021-02-06T13:38:37Z</time>
      </trkpt>
      <trkpt lat="47.33464" lon="-0.47429">
        <ele>68</ele>
        <time>2021-02-06T13:38:39Z</time>
      </trkpt>
      <trkpt lat="47.33469" lon="-0.47421">
        <ele>68</ele>
        <time>2021-02-06T13:38:41Z</time>
      </trkpt>
      <trkpt lat="47.33473" lon="-0.47413">
        <ele>68</ele>
        <time>2021-02-06T13:38:42Z</time>
      </trkpt>
      <trkpt lat="47.3349" lon="-0.4738">
        <ele>68</ele>
        <time>2021-02-06T13:38:47Z</time>
      </trkpt>
      <trkpt lat="47.33491" lon="-0.47377">
        <ele>68</ele>
        <time>2021-02-06T13:38:47Z</time>
      </trkpt>
      <trkpt lat="47.33501" lon="-0.47357">
        <ele>67</ele>
        <time>2021-02-06T13:38:50Z</time>
      </trkpt>
      <trkpt lat="47.33518" lon="-0.47325">
        <ele>67</ele>
        <time>2021-02-06T13:38:55Z</time>
      </trkpt>
      <trkpt lat="47.33527" lon="-0.47311">
        <ele>68</ele>
        <time>2021-02-06T13:38:57Z</time>
      </trkpt>
      <trkpt lat="47.33539" lon="-0.47295">
        <ele>68</ele>
        <time>2021-02-06T13:39:00Z</time>
      </trkpt>
      <trkpt lat="47.33544" lon="-0.47291">
        <ele>68</ele>
        <time>2021-02-06T13:39:01Z</time>
      </trkpt>
      <trkpt lat="47.33552" lon="-0.47283">
        <ele>68</ele>
        <time>2021-02-06T13:39:03Z</time>
      </trkpt>
      <trkpt lat="47.33583" lon="-0.4724">
        <ele>68</ele>
        <time>2021-02-06T13:39:11Z</time>
      </trkpt>
      <trkpt lat="47.336" lon="-0.47214">
        <ele>67</ele>
        <time>2021-02-06T13:39:15Z</time>
      </trkpt>
      <trkpt lat="47.33622" lon="-0.47184">
        <ele>65</ele>
        <time>2021-02-06T13:39:20Z</time>
      </trkpt>
      <trkpt lat="47.33629" lon="-0.47173">
        <ele>65</ele>
        <time>2021-02-06T13:39:22Z</time>
      </trkpt>
      <trkpt lat="47.33643" lon="-0.47152">
        <ele>64</ele>
        <time>2021-02-06T13:39:26Z</time>
      </trkpt>
      <trkpt lat="47.33648" lon="-0.47145">
        <ele>64</ele>
        <time>2021-02-06T13:39:27Z</time>
      </trkpt>
      <trkpt lat="47.3365" lon="-0.47141">
        <ele>64</ele>
        <time>2021-02-06T13:39:28Z</time>
      </trkpt>
      <trkpt lat="47.33682" lon="-0.47096">
        <ele>63</ele>
        <time>2021-02-06T13:39:35Z</time>
      </trkpt>
      <trkpt lat="47.33692" lon="-0.47081">
        <ele>63</ele>
        <time>2021-02-06T13:39:38Z</time>
      </trkpt>
      <trkpt lat="47.33709" lon="-0.47055">
        <ele>62</ele>
        <time>2021-02-06T13:39:42Z</time>
      </trkpt>
      <trkpt lat="47.33726" lon="-0.4703">
        <ele>61</ele>
        <time>2021-02-06T13:39:47Z</time>
      </trkpt>
      <trkpt lat="47.33743" lon="-0.47002">
        <ele>60</ele>
        <time>2021-02-06T13:39:51Z</time>
      </trkpt>
      <trkpt lat="47.33766" lon="-0.46968">
        <ele>60</ele>
        <time>2021-02-06T13:39:57Z</time>
      </trkpt>
      <trkpt lat="47.33771" lon="-0.46962">
        <ele>60</ele>
        <time>2021-02-06T13:39:58Z</time>
      </trkpt>
      <trkpt lat="47.33851" lon="-0.46852">
        <ele>61</ele>
        <time>2021-02-06T13:40:17Z</time>
      </trkpt>
      <trkpt lat="47.33869" lon="-0.46827">
        <ele>60</ele>
        <time>2021-02-06T13:40:22Z</time>
      </trkpt>
      <trkpt lat="47.33895" lon="-0.46792">
        <ele>59</ele>
        <time>2021-02-06T13:40:28Z</time>
      </trkpt>
      <trkpt lat="47.33908" lon="-0.46776">
        <ele>59</ele>
        <time>2021-02-06T13:40:31Z</time>
      </trkpt>
      <trkpt lat="47.33934" lon="-0.46745">
        <ele>59</ele>
        <time>2021-02-06T13:40:37Z</time>
      </trkpt>
      <trkpt lat="47.33949" lon="-0.46727">
        <ele>59</ele>
        <time>2021-02-06T13:40:41Z</time>
      </trkpt>
      <trkpt lat="47.33967" lon="-0.46704">
        <ele>59</ele>
        <time>2021-02-06T13:40:45Z</time>
      </trkpt>
      <trkpt lat="47.33989" lon="-0.46679">
        <ele>60</ele>
        <time>2021-02-06T13:40:50Z</time>
      </trkpt>
      <trkpt lat="47.33994" lon="-0.46671">
        <ele>60</ele>
        <time>2021-02-06T13:40:51Z</time>
      </trkpt>
      <trkpt lat="47.34037" lon="-0.46619">
        <ele>60</ele>
        <time>2021-02-06T13:41:01Z</time>
      </trkpt>
      <trkpt lat="47.34041" lon="-0.46613">
        <ele>60</ele>
        <time>2021-02-06T13:41:02Z</time>
      </trkpt>
      <trkpt lat="47.34068" lon="-0.4659">
        <ele>60</ele>
        <time>2021-02-06T13:41:07Z</time>
      </trkpt>
      <trkpt lat="47.34103" lon="-0.46562">
        <ele>60</ele>
        <time>2021-02-06T13:41:15Z</time>
      </trkpt>
      <trkpt lat="47.34141" lon="-0.46532">
        <ele>60</ele>
        <time>2021-02-06T13:41:22Z</time>
      </trkpt>
      <trkpt lat="47.3417" lon="-0.46505">
        <ele>59</ele>
        <time>2021-02-06T13:41:28Z</time>
      </trkpt>
      <trkpt lat="47.34192" lon="-0.46476">
        <ele>58</ele>
        <time>2021-02-06T13:41:34Z</time>
      </trkpt>
      <trkpt lat="47.342" lon="-0.46462">
        <ele>58</ele>
        <time>2021-02-06T13:41:36Z</time>
      </trkpt>
      <trkpt lat="47.34227" lon="-0.46408">
        <ele>56</ele>
        <time>2021-02-06T13:41:44Z</time>
      </trkpt>
      <trkpt lat="47.34297" lon="-0.46258">
        <ele>51</ele>
        <time>2021-02-06T13:42:06Z</time>
      </trkpt>
      <trkpt lat="47.34305" lon="-0.46244">
        <ele>51</ele>
        <time>2021-02-06T13:42:08Z</time>
      </trkpt>
      <trkpt lat="47.34309" lon="-0.46236">
        <ele>51</ele>
        <time>2021-02-06T13:42:09Z</time>
      </trkpt>
      <trkpt lat="47.34331" lon="-0.46204">
        <ele>51</ele>
        <time>2021-02-06T13:42:15Z</time>
      </trkpt>
      <trkpt lat="47.34346" lon="-0.46187">
        <ele>52</ele>
        <time>2021-02-06T13:42:18Z</time>
      </trkpt>
      <trkpt lat="47.34349" lon="-0.46183">
        <ele>52</ele>
        <time>2021-02-06T13:42:19Z</time>
      </trkpt>
      <trkpt lat="47.34371" lon="-0.4616">
        <ele>53</ele>
        <time>2021-02-06T13:42:24Z</time>
      </trkpt>
      <trkpt lat="47.34548" lon="-0.45983">
        <ele>66</ele>
        <time>2021-02-06T13:43:02Z</time>
      </trkpt>
      <trkpt lat="47.34587" lon="-0.45946">
        <ele>66</ele>
        <time>2021-02-06T13:43:10Z</time>
      </trkpt>
      <trkpt lat="47.34665" lon="-0.45874">
        <ele>63</ele>
        <time>2021-02-06T13:43:26Z</time>
      </trkpt>
      <trkpt lat="47.3468" lon="-0.45859">
        <ele>62</ele>
        <time>2021-02-06T13:43:30Z</time>
      </trkpt>
      <trkpt lat="47.34743" lon="-0.45801">
        <ele>58</ele>
        <time>2021-02-06T13:43:43Z</time>
      </trkpt>
      <trkpt lat="47.34773" lon="-0.45773">
        <ele>56</ele>
        <time>2021-02-06T13:43:49Z</time>
      </trkpt>
      <trkpt lat="47.34778" lon="-0.45768">
        <ele>56</ele>
        <time>2021-02-06T13:43:50Z</time>
      </trkpt>
      <trkpt lat="47.3492" lon="-0.45636">
        <ele>52</ele>
        <time>2021-02-06T13:44:20Z</time>
      </trkpt>
      <trkpt lat="47.34983" lon="-0.45577">
        <ele>51</ele>
        <time>2021-02-06T13:44:33Z</time>
      </trkpt>
      <trkpt lat="47.34996" lon="-0.45565">
        <ele>50</ele>
        <time>2021-02-06T13:44:36Z</time>
      </trkpt>
      <trkpt lat="47.35026" lon="-0.45537">
        <ele>50</ele>
        <time>2021-02-06T13:44:42Z</time>
      </trkpt>
      <trkpt lat="47.35094" lon="-0.45475">
        <ele>49</ele>
        <time>2021-02-06T13:44:57Z</time>
      </trkpt>
      <trkpt lat="47.35195" lon="-0.45379">
        <ele>46</ele>
        <time>2021-02-06T13:45:18Z</time>
      </trkpt>
      <trkpt lat="47.35205" lon="-0.4537">
        <ele>46</ele>
        <time>2021-02-06T13:45:20Z</time>
      </trkpt>
      <trkpt lat="47.35224" lon="-0.45353">
        <ele>45</ele>
        <time>2021-02-06T13:45:24Z</time>
      </trkpt>
      <trkpt lat="47.35238" lon="-0.4534">
        <ele>45</ele>
        <time>2021-02-06T13:45:27Z</time>
      </trkpt>
      <trkpt lat="47.35244" lon="-0.45335">
        <ele>45</ele>
        <time>2021-02-06T13:45:28Z</time>
      </trkpt>
      <trkpt lat="47.3525" lon="-0.4533">
        <ele>45</ele>
        <time>2021-02-06T13:45:29Z</time>
      </trkpt>
      <trkpt lat="47.35257" lon="-0.45326">
        <ele>45</ele>
        <time>2021-02-06T13:45:31Z</time>
      </trkpt>
      <trkpt lat="47.35264" lon="-0.45325">
        <ele>44</ele>
        <time>2021-02-06T13:45:32Z</time>
      </trkpt>
      <trkpt lat="47.35264" lon="-0.45325">
        <ele>44</ele>
        <time>2021-02-06T13:45:32Z</time>
      </trkpt>
      <trkpt lat="47.35265" lon="-0.4532">
        <ele>44</ele>
        <time>2021-02-06T13:45:33Z</time>
      </trkpt>
      <trkpt lat="47.35266" lon="-0.45316">
        <ele>44</ele>
        <time>2021-02-06T13:45:33Z</time>
      </trkpt>
      <trkpt lat="47.35269" lon="-0.45311">
        <ele>44</ele>
        <time>2021-02-06T13:45:34Z</time>
      </trkpt>
      <trkpt lat="47.35272" lon="-0.45309">
        <ele>44</ele>
        <time>2021-02-06T13:45:34Z</time>
      </trkpt>
      <trkpt lat="47.35276" lon="-0.45307">
        <ele>43</ele>
        <time>2021-02-06T13:45:35Z</time>
      </trkpt>
      <trkpt lat="47.35272" lon="-0.45285">
        <ele>43</ele>
        <time>2021-02-06T13:45:38Z</time>
      </trkpt>
      <trkpt lat="47.35271" lon="-0.4528">
        <ele>43</ele>
        <time>2021-02-06T13:45:39Z</time>
      </trkpt>
      <trkpt lat="47.35271" lon="-0.45274">
        <ele>43</ele>
        <time>2021-02-06T13:45:39Z</time>
      </trkpt>
      <trkpt lat="47.35272" lon="-0.45269">
        <ele>43</ele>
        <time>2021-02-06T13:45:40Z</time>
      </trkpt>
      <trkpt lat="47.35272" lon="-0.45265">
        <ele>43</ele>
        <time>2021-02-06T13:45:40Z</time>
      </trkpt>
      <trkpt lat="47.35281" lon="-0.45231">
        <ele>42</ele>
        <time>2021-02-06T13:45:45Z</time>
      </trkpt>
      <trkpt lat="47.3531" lon="-0.45145">
        <ele>40</ele>
        <time>2021-02-06T13:45:56Z</time>
      </trkpt>
      <trkpt lat="47.35316" lon="-0.4513">
        <ele>40</ele>
        <time>2021-02-06T13:45:58Z</time>
      </trkpt>
      <trkpt lat="47.35329" lon="-0.45092">
        <ele>39</ele>
        <time>2021-02-06T13:46:04Z</time>
      </trkpt>
      <trkpt lat="47.35333" lon="-0.45083">
        <ele>39</ele>
        <time>2021-02-06T13:46:05Z</time>
      </trkpt>
      <trkpt lat="47.35344" lon="-0.45048">
        <ele>41</ele>
        <time>2021-02-06T13:46:10Z</time>
      </trkpt>
      <trkpt lat="47.35345" lon="-0.45043">
        <ele>41</ele>
        <time>2021-02-06T13:46:10Z</time>
      </trkpt>
      <trkpt lat="47.35349" lon="-0.45028">
        <ele>42</ele>
        <time>2021-02-06T13:46:12Z</time>
      </trkpt>
      <trkpt lat="47.35352" lon="-0.45019">
        <ele>42</ele>
        <time>2021-02-06T13:46:13Z</time>
      </trkpt>
      <trkpt lat="47.35355" lon="-0.45002">
        <ele>43</ele>
        <time>2021-02-06T13:46:15Z</time>
      </trkpt>
      <trkpt lat="47.35356" lon="-0.44993">
        <ele>44</ele>
        <time>2021-02-06T13:46:17Z</time>
      </trkpt>
      <trkpt lat="47.35369" lon="-0.44915">
        <ele>51</ele>
        <time>2021-02-06T13:46:26Z</time>
      </trkpt>
      <trkpt lat="47.35372" lon="-0.44901">
        <ele>51</ele>
        <time>2021-02-06T13:46:28Z</time>
      </trkpt>
      <trkpt lat="47.35372" lon="-0.44901">
        <ele>51</ele>
        <time>2021-02-06T13:46:28Z</time>
      </trkpt>
      <trkpt lat="47.35372" lon="-0.44888">
        <ele>51</ele>
        <time>2021-02-06T13:46:30Z</time>
      </trkpt>
      <trkpt lat="47.35371" lon="-0.44876">
        <ele>51</ele>
        <time>2021-02-06T13:46:31Z</time>
      </trkpt>
      <trkpt lat="47.35369" lon="-0.44844">
        <ele>50</ele>
        <time>2021-02-06T13:46:35Z</time>
      </trkpt>
      <trkpt lat="47.35367" lon="-0.44819">
        <ele>49</ele>
        <time>2021-02-06T13:46:38Z</time>
      </trkpt>
      <trkpt lat="47.35366" lon="-0.44805">
        <ele>49</ele>
        <time>2021-02-06T13:46:40Z</time>
      </trkpt>
      <trkpt lat="47.35366" lon="-0.44805">
        <ele>49</ele>
        <time>2021-02-06T13:46:40Z</time>
      </trkpt>
      <trkpt lat="47.35363" lon="-0.44773">
        <ele>47</ele>
        <time>2021-02-06T13:46:44Z</time>
      </trkpt>
      <trkpt lat="47.35385" lon="-0.44782">
        <ele>48</ele>
        <time>2021-02-06T13:46:48Z</time>
      </trkpt>
      <trkpt lat="47.35399" lon="-0.44772">
        <ele>48</ele>
        <time>2021-02-06T13:46:50Z</time>
      </trkpt>
      <trkpt lat="47.35419" lon="-0.44748">
        <ele>46</ele>
        <time>2021-02-06T13:46:55Z</time>
      </trkpt>
      <trkpt lat="47.35429" lon="-0.44736">
        <ele>46</ele>
        <time>2021-02-06T13:46:57Z</time>
      </trkpt>
      <trkpt lat="47.35434" lon="-0.44731">
        <ele>47</ele>
        <time>2021-02-06T13:46:58Z</time>
      </trkpt>
      <trkpt lat="47.35493" lon="-0.44667">
        <ele>46</ele>
        <time>2021-02-06T13:47:11Z</time>
      </trkpt>
      <trkpt lat="47.35499" lon="-0.44663">
        <ele>46</ele>
        <time>2021-02-06T13:47:13Z</time>
      </trkpt>
      <trkpt lat="47.35505" lon="-0.44657">
        <ele>46</ele>
        <time>2021-02-06T13:47:14Z</time>
      </trkpt>
      <trkpt lat="47.35506" lon="-0.44655">
        <ele>46</ele>
        <time>2021-02-06T13:47:14Z</time>
      </trkpt>
      <trkpt lat="47.3551" lon="-0.44649">
        <ele>46</ele>
        <time>2021-02-06T13:47:15Z</time>
      </trkpt>
      <trkpt lat="47.35532" lon="-0.446">
        <ele>44</ele>
        <time>2021-02-06T13:47:22Z</time>
      </trkpt>
      <trkpt lat="47.35552" lon="-0.44565">
        <ele>43</ele>
        <time>2021-02-06T13:47:28Z</time>
      </trkpt>
      <trkpt lat="47.35555" lon="-0.44561">
        <ele>43</ele>
        <time>2021-02-06T13:47:28Z</time>
      </trkpt>
      <trkpt lat="47.35562" lon="-0.44554">
        <ele>43</ele>
        <time>2021-02-06T13:47:30Z</time>
      </trkpt>
      <trkpt lat="47.35567" lon="-0.44548">
        <ele>42</ele>
        <time>2021-02-06T13:47:31Z</time>
      </trkpt>
      <trkpt lat="47.3557" lon="-0.44544">
        <ele>42</ele>
        <time>2021-02-06T13:47:32Z</time>
      </trkpt>
      <trkpt lat="47.35576" lon="-0.44535">
        <ele>42</ele>
        <time>2021-02-06T13:47:33Z</time>
      </trkpt>
      <trkpt lat="47.35596" lon="-0.44512">
        <ele>42</ele>
        <time>2021-02-06T13:47:38Z</time>
      </trkpt>
      <trkpt lat="47.35601" lon="-0.44502">
        <ele>42</ele>
        <time>2021-02-06T13:47:39Z</time>
      </trkpt>
      <trkpt lat="47.35606" lon="-0.44491">
        <ele>42</ele>
        <time>2021-02-06T13:47:41Z</time>
      </trkpt>
      <trkpt lat="47.35611" lon="-0.44478">
        <ele>42</ele>
        <time>2021-02-06T13:47:43Z</time>
      </trkpt>
      <trkpt lat="47.35616" lon="-0.44467">
        <ele>42</ele>
        <time>2021-02-06T13:47:44Z</time>
      </trkpt>
      <trkpt lat="47.35622" lon="-0.44456">
        <ele>42</ele>
        <time>2021-02-06T13:47:46Z</time>
      </trkpt>
      <trkpt lat="47.35634" lon="-0.44435">
        <ele>41</ele>
        <time>2021-02-06T13:47:49Z</time>
      </trkpt>
      <trkpt lat="47.35642" lon="-0.44422">
        <ele>41</ele>
        <time>2021-02-06T13:47:51Z</time>
      </trkpt>
      <trkpt lat="47.35645" lon="-0.44417">
        <ele>41</ele>
        <time>2021-02-06T13:47:52Z</time>
      </trkpt>
      <trkpt lat="47.35653" lon="-0.44406">
        <ele>41</ele>
        <time>2021-02-06T13:47:54Z</time>
      </trkpt>
      <trkpt lat="47.35679" lon="-0.44377">
        <ele>41</ele>
        <time>2021-02-06T13:48:00Z</time>
      </trkpt>
      <trkpt lat="47.35686" lon="-0.44368">
        <ele>41</ele>
        <time>2021-02-06T13:48:02Z</time>
      </trkpt>
      <trkpt lat="47.35702" lon="-0.44348">
        <ele>40</ele>
        <time>2021-02-06T13:48:05Z</time>
      </trkpt>
      <trkpt lat="47.35711" lon="-0.44336">
        <ele>40</ele>
        <time>2021-02-06T13:48:08Z</time>
      </trkpt>
      <trkpt lat="47.35711" lon="-0.44336">
        <ele>40</ele>
        <time>2021-02-06T13:48:08Z</time>
      </trkpt>
      <trkpt lat="47.35716" lon="-0.44332">
        <ele>40</ele>
        <time>2021-02-06T13:48:09Z</time>
      </trkpt>
      <trkpt lat="47.35723" lon="-0.44328">
        <ele>40</ele>
        <time>2021-02-06T13:48:10Z</time>
      </trkpt>
      <trkpt lat="47.35727" lon="-0.44327">
        <ele>40</ele>
        <time>2021-02-06T13:48:11Z</time>
      </trkpt>
      <trkpt lat="47.35737" lon="-0.44329">
        <ele>41</ele>
        <time>2021-02-06T13:48:12Z</time>
      </trkpt>
      <trkpt lat="47.35746" lon="-0.44336">
        <ele>42</ele>
        <time>2021-02-06T13:48:14Z</time>
      </trkpt>
      <trkpt lat="47.35753" lon="-0.44348">
        <ele>43</ele>
        <time>2021-02-06T13:48:16Z</time>
      </trkpt>
      <trkpt lat="47.35762" lon="-0.4437">
        <ele>46</ele>
        <time>2021-02-06T13:48:19Z</time>
      </trkpt>
      <trkpt lat="47.35775" lon="-0.44402">
        <ele>49</ele>
        <time>2021-02-06T13:48:24Z</time>
      </trkpt>
      <trkpt lat="47.35781" lon="-0.44413">
        <ele>50</ele>
        <time>2021-02-06T13:48:25Z</time>
      </trkpt>
      <trkpt lat="47.35785" lon="-0.4442">
        <ele>50</ele>
        <time>2021-02-06T13:48:27Z</time>
      </trkpt>
      <trkpt lat="47.35792" lon="-0.44421">
        <ele>51</ele>
        <time>2021-02-06T13:48:28Z</time>
      </trkpt>
      <trkpt lat="47.35801" lon="-0.44421">
        <ele>51</ele>
        <time>2021-02-06T13:48:29Z</time>
      </trkpt>
      <trkpt lat="47.35804" lon="-0.44421">
        <ele>51</ele>
        <time>2021-02-06T13:48:30Z</time>
      </trkpt>
      <trkpt lat="47.35814" lon="-0.44423">
        <ele>52</ele>
        <time>2021-02-06T13:48:32Z</time>
      </trkpt>
      <trkpt lat="47.35824" lon="-0.44431">
        <ele>52</ele>
        <time>2021-02-06T13:48:34Z</time>
      </trkpt>
      <trkpt lat="47.35833" lon="-0.44447">
        <ele>53</ele>
        <time>2021-02-06T13:48:36Z</time>
      </trkpt>
      <trkpt lat="47.35843" lon="-0.44467">
        <ele>54</ele>
        <time>2021-02-06T13:48:39Z</time>
      </trkpt>
      <trkpt lat="47.35845" lon="-0.44472">
        <ele>54</ele>
        <time>2021-02-06T13:48:40Z</time>
      </trkpt>
      <trkpt lat="47.35847" lon="-0.44476">
        <ele>54</ele>
        <time>2021-02-06T13:48:41Z</time>
      </trkpt>
      <trkpt lat="47.35847" lon="-0.44476">
        <ele>54</ele>
        <time>2021-02-06T13:48:41Z</time>
      </trkpt>
      <trkpt lat="47.35868" lon="-0.44459">
        <ele>53</ele>
        <time>2021-02-06T13:48:45Z</time>
      </trkpt>
      <trkpt lat="47.35885" lon="-0.44446">
        <ele>52</ele>
        <time>2021-02-06T13:48:48Z</time>
      </trkpt>
      <trkpt lat="47.35929" lon="-0.44417">
        <ele>50</ele>
        <time>2021-02-06T13:48:57Z</time>
      </trkpt>
      <trkpt lat="47.35943" lon="-0.44408">
        <ele>49</ele>
        <time>2021-02-06T13:49:00Z</time>
      </trkpt>
      <trkpt lat="47.35944" lon="-0.44408">
        <ele>49</ele>
        <time>2021-02-06T13:49:00Z</time>
      </trkpt>
      <trkpt lat="47.35948" lon="-0.44406">
        <ele>48</ele>
        <time>2021-02-06T13:49:00Z</time>
      </trkpt>
      <trkpt lat="47.35952" lon="-0.44403">
        <ele>48</ele>
        <time>2021-02-06T13:49:01Z</time>
      </trkpt>
      <trkpt lat="47.35953" lon="-0.44402">
        <ele>48</ele>
        <time>2021-02-06T13:49:01Z</time>
      </trkpt>
      <trkpt lat="47.35955" lon="-0.44401">
        <ele>48</ele>
        <time>2021-02-06T13:49:02Z</time>
      </trkpt>
      <trkpt lat="47.35963" lon="-0.44396">
        <ele>47</ele>
        <time>2021-02-06T13:49:03Z</time>
      </trkpt>
      <trkpt lat="47.35965" lon="-0.44394">
        <ele>47</ele>
        <time>2021-02-06T13:49:04Z</time>
      </trkpt>
      <trkpt lat="47.35987" lon="-0.44374">
        <ele>46</ele>
        <time>2021-02-06T13:49:08Z</time>
      </trkpt>
      <trkpt lat="47.36009" lon="-0.44344">
        <ele>44</ele>
        <time>2021-02-06T13:49:14Z</time>
      </trkpt>
      <trkpt lat="47.3602" lon="-0.44331">
        <ele>44</ele>
        <time>2021-02-06T13:49:16Z</time>
      </trkpt>
      <trkpt lat="47.36031" lon="-0.44315">
        <ele>44</ele>
        <time>2021-02-06T13:49:19Z</time>
      </trkpt>
      <trkpt lat="47.36063" lon="-0.44269">
        <ele>44</ele>
        <time>2021-02-06T13:49:27Z</time>
      </trkpt>
      <trkpt lat="47.36077" lon="-0.44251">
        <ele>44</ele>
        <time>2021-02-06T13:49:30Z</time>
      </trkpt>
      <trkpt lat="47.36089" lon="-0.44236">
        <ele>43</ele>
        <time>2021-02-06T13:49:33Z</time>
      </trkpt>
      <trkpt lat="47.36102" lon="-0.44223">
        <ele>43</ele>
        <time>2021-02-06T13:49:36Z</time>
      </trkpt>
      <trkpt lat="47.36122" lon="-0.44212">
        <ele>43</ele>
        <time>2021-02-06T13:49:40Z</time>
      </trkpt>
      <trkpt lat="47.36133" lon="-0.44206">
        <ele>43</ele>
        <time>2021-02-06T13:49:42Z</time>
      </trkpt>
      <trkpt lat="47.36184" lon="-0.44181">
        <ele>43</ele>
        <time>2021-02-06T13:49:51Z</time>
      </trkpt>
      <trkpt lat="47.36188" lon="-0.44179">
        <ele>43</ele>
        <time>2021-02-06T13:49:52Z</time>
      </trkpt>
      <trkpt lat="47.362" lon="-0.44174">
        <ele>43</ele>
        <time>2021-02-06T13:49:54Z</time>
      </trkpt>
      <trkpt lat="47.36215" lon="-0.44167">
        <ele>43</ele>
        <time>2021-02-06T13:49:57Z</time>
      </trkpt>
      <trkpt lat="47.36222" lon="-0.44162">
        <ele>43</ele>
        <time>2021-02-06T13:49:58Z</time>
      </trkpt>
      <trkpt lat="47.36229" lon="-0.44159">
        <ele>43</ele>
        <time>2021-02-06T13:50:00Z</time>
      </trkpt>
      <trkpt lat="47.36239" lon="-0.44152">
        <ele>42</ele>
        <time>2021-02-06T13:50:02Z</time>
      </trkpt>
      <trkpt lat="47.36313" lon="-0.44095">
        <ele>41</ele>
        <time>2021-02-06T13:50:17Z</time>
      </trkpt>
      <trkpt lat="47.36323" lon="-0.44087">
        <ele>40</ele>
        <time>2021-02-06T13:50:19Z</time>
      </trkpt>
      <trkpt lat="47.36364" lon="-0.44056">
        <ele>40</ele>
        <time>2021-02-06T13:50:27Z</time>
      </trkpt>
      <trkpt lat="47.36377" lon="-0.44043">
        <ele>40</ele>
        <time>2021-02-06T13:50:30Z</time>
      </trkpt>
      <trkpt lat="47.36387" lon="-0.44028">
        <ele>40</ele>
        <time>2021-02-06T13:50:32Z</time>
      </trkpt>
      <trkpt lat="47.36394" lon="-0.44009">
        <ele>39</ele>
        <time>2021-02-06T13:50:35Z</time>
      </trkpt>
      <trkpt lat="47.364" lon="-0.43983">
        <ele>39</ele>
        <time>2021-02-06T13:50:38Z</time>
      </trkpt>
      <trkpt lat="47.364" lon="-0.43983">
        <ele>39</ele>
        <time>2021-02-06T13:50:38Z</time>
      </trkpt>
      <trkpt lat="47.36444" lon="-0.43962">
        <ele>40</ele>
        <time>2021-02-06T13:50:46Z</time>
      </trkpt>
      <trkpt lat="47.36461" lon="-0.43958">
        <ele>40</ele>
        <time>2021-02-06T13:50:49Z</time>
      </trkpt>
      <trkpt lat="47.36484" lon="-0.43957">
        <ele>40</ele>
        <time>2021-02-06T13:50:53Z</time>
      </trkpt>
      <trkpt lat="47.36516" lon="-0.43956">
        <ele>41</ele>
        <time>2021-02-06T13:50:59Z</time>
      </trkpt>
      <trkpt lat="47.36557" lon="-0.43954">
        <ele>42</ele>
        <time>2021-02-06T13:51:06Z</time>
      </trkpt>
      <trkpt lat="47.36567" lon="-0.43956">
        <ele>42</ele>
        <time>2021-02-06T13:51:08Z</time>
      </trkpt>
      <trkpt lat="47.36585" lon="-0.43966">
        <ele>42</ele>
        <time>2021-02-06T13:51:12Z</time>
      </trkpt>
      <trkpt lat="47.36625" lon="-0.43996">
        <ele>43</ele>
        <time>2021-02-06T13:51:20Z</time>
      </trkpt>
      <trkpt lat="47.3667" lon="-0.44028">
        <ele>45</ele>
        <time>2021-02-06T13:51:28Z</time>
      </trkpt>
      <trkpt lat="47.36679" lon="-0.44035">
        <ele>44</ele>
        <time>2021-02-06T13:51:30Z</time>
      </trkpt>
      <trkpt lat="47.36688" lon="-0.44045">
        <ele>44</ele>
        <time>2021-02-06T13:51:32Z</time>
      </trkpt>
      <trkpt lat="47.36702" lon="-0.44058">
        <ele>44</ele>
        <time>2021-02-06T13:51:35Z</time>
      </trkpt>
      <trkpt lat="47.36717" lon="-0.44069">
        <ele>44</ele>
        <time>2021-02-06T13:51:38Z</time>
      </trkpt>
      <trkpt lat="47.36728" lon="-0.44074">
        <ele>44</ele>
        <time>2021-02-06T13:51:40Z</time>
      </trkpt>
      <trkpt lat="47.36737" lon="-0.44075">
        <ele>44</ele>
        <time>2021-02-06T13:51:42Z</time>
      </trkpt>
      <trkpt lat="47.36782" lon="-0.44077">
        <ele>44</ele>
        <time>2021-02-06T13:51:50Z</time>
      </trkpt>
      <trkpt lat="47.36815" lon="-0.44078">
        <ele>45</ele>
        <time>2021-02-06T13:51:56Z</time>
      </trkpt>
      <trkpt lat="47.36862" lon="-0.44082">
        <ele>45</ele>
        <time>2021-02-06T13:52:04Z</time>
      </trkpt>
      <trkpt lat="47.3689" lon="-0.44089">
        <ele>45</ele>
        <time>2021-02-06T13:52:09Z</time>
      </trkpt>
      <trkpt lat="47.36934" lon="-0.44102">
        <ele>46</ele>
        <time>2021-02-06T13:52:17Z</time>
      </trkpt>
      <trkpt lat="47.36989" lon="-0.44116">
        <ele>48</ele>
        <time>2021-02-06T13:52:27Z</time>
      </trkpt>
      <trkpt lat="47.36997" lon="-0.44119">
        <ele>48</ele>
        <time>2021-02-06T13:52:29Z</time>
      </trkpt>
      <trkpt lat="47.37042" lon="-0.44135">
        <ele>48</ele>
        <time>2021-02-06T13:52:37Z</time>
      </trkpt>
      <trkpt lat="47.37089" lon="-0.44147">
        <ele>47</ele>
        <time>2021-02-06T13:52:45Z</time>
      </trkpt>
      <trkpt lat="47.37125" lon="-0.44155">
        <ele>47</ele>
        <time>2021-02-06T13:52:52Z</time>
      </trkpt>
      <trkpt lat="47.37142" lon="-0.44157">
        <ele>47</ele>
        <time>2021-02-06T13:52:55Z</time>
      </trkpt>
      <trkpt lat="47.3717" lon="-0.44162">
        <ele>47</ele>
        <time>2021-02-06T13:53:00Z</time>
      </trkpt>
      <trkpt lat="47.37189" lon="-0.44163">
        <ele>47</ele>
        <time>2021-02-06T13:53:03Z</time>
      </trkpt>
      <trkpt lat="47.37196" lon="-0.44163">
        <ele>47</ele>
        <time>2021-02-06T13:53:04Z</time>
      </trkpt>
      <trkpt lat="47.37209" lon="-0.44161">
        <ele>48</ele>
        <time>2021-02-06T13:53:07Z</time>
      </trkpt>
      <trkpt lat="47.37232" lon="-0.44159">
        <ele>48</ele>
        <time>2021-02-06T13:53:11Z</time>
      </trkpt>
      <trkpt lat="47.37258" lon="-0.44155">
        <ele>48</ele>
        <time>2021-02-06T13:53:16Z</time>
      </trkpt>
      <trkpt lat="47.37283" lon="-0.44147">
        <ele>48</ele>
        <time>2021-02-06T13:53:20Z</time>
      </trkpt>
      <trkpt lat="47.37293" lon="-0.44144">
        <ele>48</ele>
        <time>2021-02-06T13:53:22Z</time>
      </trkpt>
      <trkpt lat="47.37311" lon="-0.44141">
        <ele>49</ele>
        <time>2021-02-06T13:53:25Z</time>
      </trkpt>
      <trkpt lat="47.37326" lon="-0.44137">
        <ele>49</ele>
        <time>2021-02-06T13:53:28Z</time>
      </trkpt>
      <trkpt lat="47.37345" lon="-0.44135">
        <ele>48</ele>
        <time>2021-02-06T13:53:31Z</time>
      </trkpt>
      <trkpt lat="47.37395" lon="-0.44141">
        <ele>48</ele>
        <time>2021-02-06T13:53:40Z</time>
      </trkpt>
      <trkpt lat="47.3742" lon="-0.44142">
        <ele>47</ele>
        <time>2021-02-06T13:53:45Z</time>
      </trkpt>
      <trkpt lat="47.3744" lon="-0.4414">
        <ele>48</ele>
        <time>2021-02-06T13:53:48Z</time>
      </trkpt>
      <trkpt lat="47.37477" lon="-0.4413">
        <ele>49</ele>
        <time>2021-02-06T13:53:55Z</time>
      </trkpt>
      <trkpt lat="47.37518" lon="-0.44122">
        <ele>50</ele>
        <time>2021-02-06T13:54:02Z</time>
      </trkpt>
      <trkpt lat="47.37632" lon="-0.44112">
        <ele>52</ele>
        <time>2021-02-06T13:54:23Z</time>
      </trkpt>
      <trkpt lat="47.37645" lon="-0.44109">
        <ele>52</ele>
        <time>2021-02-06T13:54:25Z</time>
      </trkpt>
      <trkpt lat="47.37686" lon="-0.44103">
        <ele>53</ele>
        <time>2021-02-06T13:54:32Z</time>
      </trkpt>
      <trkpt lat="47.37731" lon="-0.44094">
        <ele>54</ele>
        <time>2021-02-06T13:54:40Z</time>
      </trkpt>
      <trkpt lat="47.37745" lon="-0.4409">
        <ele>55</ele>
        <time>2021-02-06T13:54:43Z</time>
      </trkpt>
      <trkpt lat="47.3776" lon="-0.44088">
        <ele>55</ele>
        <time>2021-02-06T13:54:46Z</time>
      </trkpt>
      <trkpt lat="47.37787" lon="-0.44084">
        <ele>55</ele>
        <time>2021-02-06T13:54:50Z</time>
      </trkpt>
      <trkpt lat="47.37803" lon="-0.44084">
        <ele>56</ele>
        <time>2021-02-06T13:54:53Z</time>
      </trkpt>
      <trkpt lat="47.3782" lon="-0.44087">
        <ele>56</ele>
        <time>2021-02-06T13:54:56Z</time>
      </trkpt>
      <trkpt lat="47.3787" lon="-0.441">
        <ele>57</ele>
        <time>2021-02-06T13:55:05Z</time>
      </trkpt>
      <trkpt lat="47.37879" lon="-0.44102">
        <ele>57</ele>
        <time>2021-02-06T13:55:07Z</time>
      </trkpt>
      <trkpt lat="47.37895" lon="-0.44103">
        <ele>58</ele>
        <time>2021-02-06T13:55:10Z</time>
      </trkpt>
      <trkpt lat="47.37914" lon="-0.44101">
        <ele>58</ele>
        <time>2021-02-06T13:55:13Z</time>
      </trkpt>
      <trkpt lat="47.37923" lon="-0.44098">
        <ele>58</ele>
        <time>2021-02-06T13:55:15Z</time>
      </trkpt>
      <trkpt lat="47.37928" lon="-0.44097">
        <ele>58</ele>
        <time>2021-02-06T13:55:16Z</time>
      </trkpt>
      <trkpt lat="47.37929" lon="-0.44097">
        <ele>58</ele>
        <time>2021-02-06T13:55:16Z</time>
      </trkpt>
      <trkpt lat="47.37979" lon="-0.4408">
        <ele>59</ele>
        <time>2021-02-06T13:55:25Z</time>
      </trkpt>
      <trkpt lat="47.38012" lon="-0.4407">
        <ele>59</ele>
        <time>2021-02-06T13:55:31Z</time>
      </trkpt>
      <trkpt lat="47.38015" lon="-0.44069">
        <ele>59</ele>
        <time>2021-02-06T13:55:32Z</time>
      </trkpt>
      <trkpt lat="47.38051" lon="-0.44055">
        <ele>58</ele>
        <time>2021-02-06T13:55:38Z</time>
      </trkpt>
      <trkpt lat="47.38125" lon="-0.44033">
        <ele>58</ele>
        <time>2021-02-06T13:55:52Z</time>
      </trkpt>
      <trkpt lat="47.38155" lon="-0.44022">
        <ele>59</ele>
        <time>2021-02-06T13:55:57Z</time>
      </trkpt>
      <trkpt lat="47.38163" lon="-0.44018">
        <ele>59</ele>
        <time>2021-02-06T13:55:59Z</time>
      </trkpt>
      <trkpt lat="47.38176" lon="-0.4401">
        <ele>58</ele>
        <time>2021-02-06T13:56:01Z</time>
      </trkpt>
      <trkpt lat="47.38189" lon="-0.43999">
        <ele>58</ele>
        <time>2021-02-06T13:56:04Z</time>
      </trkpt>
      <trkpt lat="47.38244" lon="-0.43941">
        <ele>57</ele>
        <time>2021-02-06T13:56:16Z</time>
      </trkpt>
      <trkpt lat="47.38265" lon="-0.43923">
        <ele>57</ele>
        <time>2021-02-06T13:56:20Z</time>
      </trkpt>
      <trkpt lat="47.38309" lon="-0.43894">
        <ele>57</ele>
        <time>2021-02-06T13:56:29Z</time>
      </trkpt>
      <trkpt lat="47.38335" lon="-0.43875">
        <ele>57</ele>
        <time>2021-02-06T13:56:34Z</time>
      </trkpt>
      <trkpt lat="47.3834" lon="-0.43872">
        <ele>57</ele>
        <time>2021-02-06T13:56:35Z</time>
      </trkpt>
      <trkpt lat="47.38374" lon="-0.43856">
        <ele>55</ele>
        <time>2021-02-06T13:56:41Z</time>
      </trkpt>
      <trkpt lat="47.38404" lon="-0.43847">
        <ele>54</ele>
        <time>2021-02-06T13:56:47Z</time>
      </trkpt>
      <trkpt lat="47.38437" lon="-0.43837">
        <ele>52</ele>
        <time>2021-02-06T13:56:53Z</time>
      </trkpt>
      <trkpt lat="47.38467" lon="-0.43825">
        <ele>52</ele>
        <time>2021-02-06T13:56:58Z</time>
      </trkpt>
      <trkpt lat="47.38498" lon="-0.43805">
        <ele>52</ele>
        <time>2021-02-06T13:57:04Z</time>
      </trkpt>
      <trkpt lat="47.38523" lon="-0.43792">
        <ele>53</ele>
        <time>2021-02-06T13:57:09Z</time>
      </trkpt>
      <trkpt lat="47.38524" lon="-0.43791">
        <ele>53</ele>
        <time>2021-02-06T13:57:09Z</time>
      </trkpt>
      <trkpt lat="47.38561" lon="-0.43769">
        <ele>54</ele>
        <time>2021-02-06T13:57:16Z</time>
      </trkpt>
      <trkpt lat="47.38583" lon="-0.43757">
        <ele>54</ele>
        <time>2021-02-06T13:57:20Z</time>
      </trkpt>
      <trkpt lat="47.38595" lon="-0.43753">
        <ele>54</ele>
        <time>2021-02-06T13:57:22Z</time>
      </trkpt>
      <trkpt lat="47.38617" lon="-0.43751">
        <ele>55</ele>
        <time>2021-02-06T13:57:26Z</time>
      </trkpt>
      <trkpt lat="47.38658" lon="-0.43753">
        <ele>56</ele>
        <time>2021-02-06T13:57:34Z</time>
      </trkpt>
      <trkpt lat="47.38681" lon="-0.43755">
        <ele>56</ele>
        <time>2021-02-06T13:57:38Z</time>
      </trkpt>
      <trkpt lat="47.38768" lon="-0.43778">
        <ele>53</ele>
        <time>2021-02-06T13:57:54Z</time>
      </trkpt>
      <trkpt lat="47.38787" lon="-0.43783">
        <ele>52</ele>
        <time>2021-02-06T13:57:57Z</time>
      </trkpt>
      <trkpt lat="47.38793" lon="-0.43784">
        <ele>51</ele>
        <time>2021-02-06T13:57:58Z</time>
      </trkpt>
      <trkpt lat="47.38801" lon="-0.43781">
        <ele>51</ele>
        <time>2021-02-06T13:58:00Z</time>
      </trkpt>
      <trkpt lat="47.38807" lon="-0.4378">
        <ele>51</ele>
        <time>2021-02-06T13:58:01Z</time>
      </trkpt>
      <trkpt lat="47.38815" lon="-0.43778">
        <ele>51</ele>
        <time>2021-02-06T13:58:02Z</time>
      </trkpt>
      <trkpt lat="47.38852" lon="-0.43754">
        <ele>50</ele>
        <time>2021-02-06T13:58:09Z</time>
      </trkpt>
      <trkpt lat="47.38902" lon="-0.43727">
        <ele>47</ele>
        <time>2021-02-06T13:58:19Z</time>
      </trkpt>
      <trkpt lat="47.38953" lon="-0.43706">
        <ele>47</ele>
        <time>2021-02-06T13:58:28Z</time>
      </trkpt>
      <trkpt lat="47.38975" lon="-0.437">
        <ele>47</ele>
        <time>2021-02-06T13:58:32Z</time>
      </trkpt>
      <trkpt lat="47.3898" lon="-0.43699">
        <ele>47</ele>
        <time>2021-02-06T13:58:33Z</time>
      </trkpt>
      <trkpt lat="47.39023" lon="-0.43685">
        <ele>50</ele>
        <time>2021-02-06T13:58:41Z</time>
      </trkpt>
      <trkpt lat="47.39043" lon="-0.43676">
        <ele>52</ele>
        <time>2021-02-06T13:58:45Z</time>
      </trkpt>
      <trkpt lat="47.39057" lon="-0.43673">
        <ele>54</ele>
        <time>2021-02-06T13:58:47Z</time>
      </trkpt>
      <trkpt lat="47.39066" lon="-0.43671">
        <ele>55</ele>
        <time>2021-02-06T13:58:49Z</time>
      </trkpt>
      <trkpt lat="47.39078" lon="-0.43671">
        <ele>56</ele>
        <time>2021-02-06T13:58:51Z</time>
      </trkpt>
      <trkpt lat="47.39089" lon="-0.43676">
        <ele>57</ele>
        <time>2021-02-06T13:58:53Z</time>
      </trkpt>
      <trkpt lat="47.39105" lon="-0.43699">
        <ele>58</ele>
        <time>2021-02-06T13:58:57Z</time>
      </trkpt>
      <trkpt lat="47.39155" lon="-0.43763">
        <ele>60</ele>
        <time>2021-02-06T13:59:09Z</time>
      </trkpt>
      <trkpt lat="47.3918" lon="-0.43798">
        <ele>59</ele>
        <time>2021-02-06T13:59:15Z</time>
      </trkpt>
      <trkpt lat="47.39194" lon="-0.43811">
        <ele>58</ele>
        <time>2021-02-06T13:59:18Z</time>
      </trkpt>
      <trkpt lat="47.39213" lon="-0.43823">
        <ele>58</ele>
        <time>2021-02-06T13:59:21Z</time>
      </trkpt>
      <trkpt lat="47.39222" lon="-0.43827">
        <ele>58</ele>
        <time>2021-02-06T13:59:23Z</time>
      </trkpt>
      <trkpt lat="47.39239" lon="-0.4383">
        <ele>59</ele>
        <time>2021-02-06T13:59:26Z</time>
      </trkpt>
      <trkpt lat="47.39279" lon="-0.43834">
        <ele>62</ele>
        <time>2021-02-06T13:59:33Z</time>
      </trkpt>
      <trkpt lat="47.39313" lon="-0.43837">
        <ele>65</ele>
        <time>2021-02-06T13:59:39Z</time>
      </trkpt>
      <trkpt lat="47.39328" lon="-0.43838">
        <ele>66</ele>
        <time>2021-02-06T13:59:42Z</time>
      </trkpt>
      <trkpt lat="47.39348" lon="-0.43837">
        <ele>67</ele>
        <time>2021-02-06T13:59:46Z</time>
      </trkpt>
      <trkpt lat="47.39352" lon="-0.43836">
        <ele>67</ele>
        <time>2021-02-06T13:59:46Z</time>
      </trkpt>
      <trkpt lat="47.39356" lon="-0.43834">
        <ele>68</ele>
        <time>2021-02-06T13:59:47Z</time>
      </trkpt>
      <trkpt lat="47.39362" lon="-0.43829">
        <ele>68</ele>
        <time>2021-02-06T13:59:48Z</time>
      </trkpt>
      <trkpt lat="47.39377" lon="-0.43817">
        <ele>70</ele>
        <time>2021-02-06T13:59:51Z</time>
      </trkpt>
      <trkpt lat="47.39387" lon="-0.4381">
        <ele>71</ele>
        <time>2021-02-06T13:59:53Z</time>
      </trkpt>
      <trkpt lat="47.39391" lon="-0.43807">
        <ele>71</ele>
        <time>2021-02-06T13:59:54Z</time>
      </trkpt>
      <trkpt lat="47.39393" lon="-0.43806">
        <ele>71</ele>
        <time>2021-02-06T13:59:54Z</time>
      </trkpt>
      <trkpt lat="47.39395" lon="-0.43805">
        <ele>72</ele>
        <time>2021-02-06T13:59:55Z</time>
      </trkpt>
      <trkpt lat="47.39399" lon="-0.43804">
        <ele>72</ele>
        <time>2021-02-06T13:59:55Z</time>
      </trkpt>
      <trkpt lat="47.39399" lon="-0.43804">
        <ele>72</ele>
        <time>2021-02-06T13:59:55Z</time>
      </trkpt>
      <trkpt lat="47.39404" lon="-0.43851">
        <ele>68</ele>
        <time>2021-02-06T14:00:01Z</time>
      </trkpt>
      <trkpt lat="47.39406" lon="-0.43861">
        <ele>67</ele>
        <time>2021-02-06T14:00:02Z</time>
      </trkpt>
      <trkpt lat="47.39411" lon="-0.43894">
        <ele>65</ele>
        <time>2021-02-06T14:00:07Z</time>
      </trkpt>
      <trkpt lat="47.39414" lon="-0.43912">
        <ele>63</ele>
        <time>2021-02-06T14:00:09Z</time>
      </trkpt>
      <trkpt lat="47.39417" lon="-0.43924">
        <ele>63</ele>
        <time>2021-02-06T14:00:10Z</time>
      </trkpt>
      <trkpt lat="47.39418" lon="-0.43929">
        <ele>62</ele>
        <time>2021-02-06T14:00:11Z</time>
      </trkpt>
      <trkpt lat="47.39439" lon="-0.44023">
        <ele>58</ele>
        <time>2021-02-06T14:00:23Z</time>
      </trkpt>
      <trkpt lat="47.39447" lon="-0.44048">
        <ele>57</ele>
        <time>2021-02-06T14:00:26Z</time>
      </trkpt>
      <trkpt lat="47.39455" lon="-0.44072">
        <ele>56</ele>
        <time>2021-02-06T14:00:29Z</time>
      </trkpt>
      <trkpt lat="47.39472" lon="-0.44114">
        <ele>54</ele>
        <time>2021-02-06T14:00:35Z</time>
      </trkpt>
      <trkpt lat="47.39475" lon="-0.4412">
        <ele>53</ele>
        <time>2021-02-06T14:00:36Z</time>
      </trkpt>
      <trkpt lat="47.39483" lon="-0.44135">
        <ele>52</ele>
        <time>2021-02-06T14:00:39Z</time>
      </trkpt>
      <trkpt lat="47.39501" lon="-0.44179">
        <ele>49</ele>
        <time>2021-02-06T14:00:45Z</time>
      </trkpt>
      <trkpt lat="47.39515" lon="-0.44208">
        <ele>48</ele>
        <time>2021-02-06T14:00:49Z</time>
      </trkpt>
      <trkpt lat="47.39523" lon="-0.44227">
        <ele>46</ele>
        <time>2021-02-06T14:00:52Z</time>
      </trkpt>
      <trkpt lat="47.39526" lon="-0.44233">
        <ele>46</ele>
        <time>2021-02-06T14:00:53Z</time>
      </trkpt>
      <trkpt lat="47.3953" lon="-0.44242">
        <ele>45</ele>
        <time>2021-02-06T14:00:54Z</time>
      </trkpt>
      <trkpt lat="47.39579" lon="-0.44353">
        <ele>39</ele>
        <time>2021-02-06T14:01:10Z</time>
      </trkpt>
      <trkpt lat="47.39604" lon="-0.44412">
        <ele>36</ele>
        <time>2021-02-06T14:01:18Z</time>
      </trkpt>
      <trkpt lat="47.39627" lon="-0.44467">
        <ele>35</ele>
        <time>2021-02-06T14:01:26Z</time>
      </trkpt>
      <trkpt lat="47.3963" lon="-0.44473">
        <ele>35</ele>
        <time>2021-02-06T14:01:27Z</time>
      </trkpt>
      <trkpt lat="47.39632" lon="-0.44478">
        <ele>35</ele>
        <time>2021-02-06T14:01:28Z</time>
      </trkpt>
      <trkpt lat="47.39636" lon="-0.44491">
        <ele>35</ele>
        <time>2021-02-06T14:01:29Z</time>
      </trkpt>
      <trkpt lat="47.3964" lon="-0.44506">
        <ele>35</ele>
        <time>2021-02-06T14:01:31Z</time>
      </trkpt>
      <trkpt lat="47.39644" lon="-0.44532">
        <ele>34</ele>
        <time>2021-02-06T14:01:34Z</time>
      </trkpt>
      <trkpt lat="47.39645" lon="-0.44537">
        <ele>34</ele>
        <time>2021-02-06T14:01:35Z</time>
      </trkpt>
      <trkpt lat="47.39646" lon="-0.44542">
        <ele>34</ele>
        <time>2021-02-06T14:01:36Z</time>
      </trkpt>
      <trkpt lat="47.39651" lon="-0.44554">
        <ele>34</ele>
        <time>2021-02-06T14:01:37Z</time>
      </trkpt>
      <trkpt lat="47.39656" lon="-0.44558">
        <ele>34</ele>
        <time>2021-02-06T14:01:38Z</time>
      </trkpt>
      <trkpt lat="47.3966" lon="-0.44565">
        <ele>34</ele>
        <time>2021-02-06T14:01:40Z</time>
      </trkpt>
      <trkpt lat="47.39661" lon="-0.44575">
        <ele>33</ele>
        <time>2021-02-06T14:01:41Z</time>
      </trkpt>
      <trkpt lat="47.39666" lon="-0.44583">
        <ele>33</ele>
        <time>2021-02-06T14:01:42Z</time>
      </trkpt>
      <trkpt lat="47.39669" lon="-0.44587">
        <ele>33</ele>
        <time>2021-02-06T14:01:43Z</time>
      </trkpt>
      <trkpt lat="47.39673" lon="-0.44592">
        <ele>33</ele>
        <time>2021-02-06T14:01:44Z</time>
      </trkpt>
      <trkpt lat="47.39677" lon="-0.44601">
        <ele>33</ele>
        <time>2021-02-06T14:01:45Z</time>
      </trkpt>
      <trkpt lat="47.3968" lon="-0.44607">
        <ele>33</ele>
        <time>2021-02-06T14:01:46Z</time>
      </trkpt>
      <trkpt lat="47.39681" lon="-0.44613">
        <ele>33</ele>
        <time>2021-02-06T14:01:47Z</time>
      </trkpt>
      <trkpt lat="47.39687" lon="-0.44634">
        <ele>33</ele>
        <time>2021-02-06T14:01:49Z</time>
      </trkpt>
      <trkpt lat="47.3971" lon="-0.44701">
        <ele>33</ele>
        <time>2021-02-06T14:01:58Z</time>
      </trkpt>
      <trkpt lat="47.39718" lon="-0.44722">
        <ele>33</ele>
        <time>2021-02-06T14:02:01Z</time>
      </trkpt>
      <trkpt lat="47.39725" lon="-0.44739">
        <ele>33</ele>
        <time>2021-02-06T14:02:04Z</time>
      </trkpt>
      <trkpt lat="47.39729" lon="-0.44747">
        <ele>33</ele>
        <time>2021-02-06T14:02:05Z</time>
      </trkpt>
      <trkpt lat="47.39739" lon="-0.44771">
        <ele>33</ele>
        <time>2021-02-06T14:02:08Z</time>
      </trkpt>
      <trkpt lat="47.39751" lon="-0.44796">
        <ele>32</ele>
        <time>2021-02-06T14:02:12Z</time>
      </trkpt>
      <trkpt lat="47.39775" lon="-0.44848">
        <ele>32</ele>
        <time>2021-02-06T14:02:20Z</time>
      </trkpt>
      <trkpt lat="47.39782" lon="-0.44859">
        <ele>32</ele>
        <time>2021-02-06T14:02:21Z</time>
      </trkpt>
      <trkpt lat="47.39809" lon="-0.44921">
        <ele>31</ele>
        <time>2021-02-06T14:02:30Z</time>
      </trkpt>
      <trkpt lat="47.3982" lon="-0.44943">
        <ele>30</ele>
        <time>2021-02-06T14:02:34Z</time>
      </trkpt>
      <trkpt lat="47.39837" lon="-0.44985">
        <ele>29</ele>
        <time>2021-02-06T14:02:40Z</time>
      </trkpt>
      <trkpt lat="47.39842" lon="-0.44998">
        <ele>29</ele>
        <time>2021-02-06T14:02:41Z</time>
      </trkpt>
      <trkpt lat="47.39848" lon="-0.45013">
        <ele>29</ele>
        <time>2021-02-06T14:02:43Z</time>
      </trkpt>
      <trkpt lat="47.39861" lon="-0.45049">
        <ele>28</ele>
        <time>2021-02-06T14:02:48Z</time>
      </trkpt>
      <trkpt lat="47.39872" lon="-0.45071">
        <ele>27</ele>
        <time>2021-02-06T14:02:52Z</time>
      </trkpt>
      <trkpt lat="47.39882" lon="-0.45084">
        <ele>27</ele>
        <time>2021-02-06T14:02:54Z</time>
      </trkpt>
      <trkpt lat="47.39886" lon="-0.45092">
        <ele>27</ele>
        <time>2021-02-06T14:02:55Z</time>
      </trkpt>
      <trkpt lat="47.39889" lon="-0.451">
        <ele>27</ele>
        <time>2021-02-06T14:02:56Z</time>
      </trkpt>
      <trkpt lat="47.39896" lon="-0.4512">
        <ele>27</ele>
        <time>2021-02-06T14:02:59Z</time>
      </trkpt>
      <trkpt lat="47.39898" lon="-0.45127">
        <ele>26</ele>
        <time>2021-02-06T14:03:00Z</time>
      </trkpt>
      <trkpt lat="47.39904" lon="-0.45145">
        <ele>26</ele>
        <time>2021-02-06T14:03:02Z</time>
      </trkpt>
      <trkpt lat="47.39922" lon="-0.45223">
        <ele>27</ele>
        <time>2021-02-06T14:03:12Z</time>
      </trkpt>
      <trkpt lat="47.39938" lon="-0.45301">
        <ele>29</ele>
        <time>2021-02-06T14:03:22Z</time>
      </trkpt>
      <trkpt lat="47.39942" lon="-0.4532">
        <ele>29</ele>
        <time>2021-02-06T14:03:24Z</time>
      </trkpt>
      <trkpt lat="47.39944" lon="-0.45333">
        <ele>29</ele>
        <time>2021-02-06T14:03:26Z</time>
      </trkpt>
      <trkpt lat="47.39947" lon="-0.45353">
        <ele>30</ele>
        <time>2021-02-06T14:03:29Z</time>
      </trkpt>
      <trkpt lat="47.39947" lon="-0.45365">
        <ele>30</ele>
        <time>2021-02-06T14:03:30Z</time>
      </trkpt>
      <trkpt lat="47.39948" lon="-0.45374">
        <ele>30</ele>
        <time>2021-02-06T14:03:31Z</time>
      </trkpt>
      <trkpt lat="47.39953" lon="-0.454">
        <ele>30</ele>
        <time>2021-02-06T14:03:34Z</time>
      </trkpt>
      <trkpt lat="47.39957" lon="-0.45414">
        <ele>30</ele>
        <time>2021-02-06T14:03:36Z</time>
      </trkpt>
      <trkpt lat="47.39964" lon="-0.45432">
        <ele>30</ele>
        <time>2021-02-06T14:03:39Z</time>
      </trkpt>
      <trkpt lat="47.39975" lon="-0.45464">
        <ele>30</ele>
        <time>2021-02-06T14:03:43Z</time>
      </trkpt>
      <trkpt lat="47.39987" lon="-0.45496">
        <ele>30</ele>
        <time>2021-02-06T14:03:47Z</time>
      </trkpt>
      <trkpt lat="47.40003" lon="-0.45533">
        <ele>30</ele>
        <time>2021-02-06T14:03:53Z</time>
      </trkpt>
      <trkpt lat="47.40023" lon="-0.45575">
        <ele>30</ele>
        <time>2021-02-06T14:03:59Z</time>
      </trkpt>
      <trkpt lat="47.40033" lon="-0.456">
        <ele>30</ele>
        <time>2021-02-06T14:04:02Z</time>
      </trkpt>
      <trkpt lat="47.40038" lon="-0.45619">
        <ele>30</ele>
        <time>2021-02-06T14:04:05Z</time>
      </trkpt>
      <trkpt lat="47.40049" lon="-0.45656">
        <ele>29</ele>
        <time>2021-02-06T14:04:10Z</time>
      </trkpt>
      <trkpt lat="47.40057" lon="-0.45685">
        <ele>29</ele>
        <time>2021-02-06T14:04:13Z</time>
      </trkpt>
      <trkpt lat="47.40061" lon="-0.45699">
        <ele>29</ele>
        <time>2021-02-06T14:04:15Z</time>
      </trkpt>
      <trkpt lat="47.40067" lon="-0.45721">
        <ele>29</ele>
        <time>2021-02-06T14:04:18Z</time>
      </trkpt>
      <trkpt lat="47.40081" lon="-0.45783">
        <ele>28</ele>
        <time>2021-02-06T14:04:26Z</time>
      </trkpt>
      <trkpt lat="47.40086" lon="-0.45793">
        <ele>28</ele>
        <time>2021-02-06T14:04:28Z</time>
      </trkpt>
      <trkpt lat="47.40096" lon="-0.45825">
        <ele>28</ele>
        <time>2021-02-06T14:04:32Z</time>
      </trkpt>
      <trkpt lat="47.40109" lon="-0.4587">
        <ele>28</ele>
        <time>2021-02-06T14:04:38Z</time>
      </trkpt>
      <trkpt lat="47.40115" lon="-0.45899">
        <ele>28</ele>
        <time>2021-02-06T14:04:41Z</time>
      </trkpt>
      <trkpt lat="47.4013" lon="-0.45955">
        <ele>28</ele>
        <time>2021-02-06T14:04:49Z</time>
      </trkpt>
      <trkpt lat="47.40131" lon="-0.45963">
        <ele>28</ele>
        <time>2021-02-06T14:04:50Z</time>
      </trkpt>
      <trkpt lat="47.40134" lon="-0.45972">
        <ele>28</ele>
        <time>2021-02-06T14:04:51Z</time>
      </trkpt>
      <trkpt lat="47.40149" lon="-0.46022">
        <ele>28</ele>
        <time>2021-02-06T14:04:57Z</time>
      </trkpt>
      <trkpt lat="47.40156" lon="-0.46049">
        <ele>28</ele>
        <time>2021-02-06T14:05:01Z</time>
      </trkpt>
      <trkpt lat="47.40162" lon="-0.4607">
        <ele>28</ele>
        <time>2021-02-06T14:05:04Z</time>
      </trkpt>
      <trkpt lat="47.40167" lon="-0.4608">
        <ele>28</ele>
        <time>2021-02-06T14:05:05Z</time>
      </trkpt>
      <trkpt lat="47.4017" lon="-0.46086">
        <ele>28</ele>
        <time>2021-02-06T14:05:06Z</time>
      </trkpt>
      <trkpt lat="47.40174" lon="-0.46103">
        <ele>28</ele>
        <time>2021-02-06T14:05:08Z</time>
      </trkpt>
      <trkpt lat="47.40181" lon="-0.46146">
        <ele>28</ele>
        <time>2021-02-06T14:05:13Z</time>
      </trkpt>
      <trkpt lat="47.40182" lon="-0.46154">
        <ele>28</ele>
        <time>2021-02-06T14:05:14Z</time>
      </trkpt>
      <trkpt lat="47.40183" lon="-0.46174">
        <ele>27</ele>
        <time>2021-02-06T14:05:17Z</time>
      </trkpt>
      <trkpt lat="47.40186" lon="-0.46207">
        <ele>26</ele>
        <time>2021-02-06T14:05:21Z</time>
      </trkpt>
      <trkpt lat="47.40189" lon="-0.4622">
        <ele>26</ele>
        <time>2021-02-06T14:05:23Z</time>
      </trkpt>
      <trkpt lat="47.40189" lon="-0.46228">
        <ele>25</ele>
        <time>2021-02-06T14:05:23Z</time>
      </trkpt>
      <trkpt lat="47.402" lon="-0.46262">
        <ele>25</ele>
        <time>2021-02-06T14:05:28Z</time>
      </trkpt>
      <trkpt lat="47.40227" lon="-0.46335">
        <ele>24</ele>
        <time>2021-02-06T14:05:38Z</time>
      </trkpt>
      <trkpt lat="47.40233" lon="-0.4635">
        <ele>24</ele>
        <time>2021-02-06T14:05:40Z</time>
      </trkpt>
      <trkpt lat="47.4026" lon="-0.46425">
        <ele>22</ele>
        <time>2021-02-06T14:05:50Z</time>
      </trkpt>
      <trkpt lat="47.40268" lon="-0.46444">
        <ele>22</ele>
        <time>2021-02-06T14:05:53Z</time>
      </trkpt>
      <trkpt lat="47.40281" lon="-0.46483">
        <ele>22</ele>
        <time>2021-02-06T14:05:58Z</time>
      </trkpt>
      <trkpt lat="47.40287" lon="-0.465">
        <ele>22</ele>
        <time>2021-02-06T14:06:01Z</time>
      </trkpt>
      <trkpt lat="47.40295" lon="-0.46526">
        <ele>23</ele>
        <time>2021-02-06T14:06:04Z</time>
      </trkpt>
      <trkpt lat="47.40304" lon="-0.46561">
        <ele>24</ele>
        <time>2021-02-06T14:06:09Z</time>
      </trkpt>
      <trkpt lat="47.40311" lon="-0.46595">
        <ele>25</ele>
        <time>2021-02-06T14:06:13Z</time>
      </trkpt>
      <trkpt lat="47.40318" lon="-0.46634">
        <ele>26</ele>
        <time>2021-02-06T14:06:18Z</time>
      </trkpt>
      <trkpt lat="47.40323" lon="-0.46664">
        <ele>26</ele>
        <time>2021-02-06T14:06:21Z</time>
      </trkpt>
      <trkpt lat="47.40328" lon="-0.46705">
        <ele>28</ele>
        <time>2021-02-06T14:06:26Z</time>
      </trkpt>
      <trkpt lat="47.40333" lon="-0.4674">
        <ele>29</ele>
        <time>2021-02-06T14:06:31Z</time>
      </trkpt>
      <trkpt lat="47.40339" lon="-0.46794">
        <ele>30</ele>
        <time>2021-02-06T14:06:37Z</time>
      </trkpt>
      <trkpt lat="47.40344" lon="-0.46823">
        <ele>31</ele>
        <time>2021-02-06T14:06:41Z</time>
      </trkpt>
      <trkpt lat="47.40349" lon="-0.46846">
        <ele>32</ele>
        <time>2021-02-06T14:06:44Z</time>
      </trkpt>
      <trkpt lat="47.40355" lon="-0.46866">
        <ele>32</ele>
        <time>2021-02-06T14:06:46Z</time>
      </trkpt>
      <trkpt lat="47.40365" lon="-0.46886">
        <ele>32</ele>
        <time>2021-02-06T14:06:49Z</time>
      </trkpt>
      <trkpt lat="47.4038" lon="-0.46907">
        <ele>31</ele>
        <time>2021-02-06T14:06:53Z</time>
      </trkpt>
      <trkpt lat="47.404" lon="-0.46933">
        <ele>31</ele>
        <time>2021-02-06T14:06:58Z</time>
      </trkpt>
      <trkpt lat="47.40419" lon="-0.46964">
        <ele>31</ele>
        <time>2021-02-06T14:07:03Z</time>
      </trkpt>
      <trkpt lat="47.40444" lon="-0.47015">
        <ele>31</ele>
        <time>2021-02-06T14:07:11Z</time>
      </trkpt>
      <trkpt lat="47.40482" lon="-0.47101">
        <ele>29</ele>
        <time>2021-02-06T14:07:23Z</time>
      </trkpt>
      <trkpt lat="47.40509" lon="-0.47161">
        <ele>27</ele>
        <time>2021-02-06T14:07:32Z</time>
      </trkpt>
      <trkpt lat="47.4054" lon="-0.47232">
        <ele>25</ele>
        <time>2021-02-06T14:07:42Z</time>
      </trkpt>
      <trkpt lat="47.40569" lon="-0.47301">
        <ele>25</ele>
        <time>2021-02-06T14:07:52Z</time>
      </trkpt>
      <trkpt lat="47.40589" lon="-0.47352">
        <ele>25</ele>
        <time>2021-02-06T14:07:59Z</time>
      </trkpt>
      <trkpt lat="47.40591" lon="-0.47355">
        <ele>24</ele>
        <time>2021-02-06T14:07:59Z</time>
      </trkpt>
      <trkpt lat="47.40597" lon="-0.47362">
        <ele>24</ele>
        <time>2021-02-06T14:08:00Z</time>
      </trkpt>
      <trkpt lat="47.40599" lon="-0.47366">
        <ele>24</ele>
        <time>2021-02-06T14:08:01Z</time>
      </trkpt>
      <trkpt lat="47.40609" lon="-0.47375">
        <ele>24</ele>
        <time>2021-02-06T14:08:03Z</time>
      </trkpt>
      <trkpt lat="47.40625" lon="-0.47388">
        <ele>23</ele>
        <time>2021-02-06T14:08:06Z</time>
      </trkpt>
      <trkpt lat="47.40649" lon="-0.47409">
        <ele>22</ele>
        <time>2021-02-06T14:08:11Z</time>
      </trkpt>
      <trkpt lat="47.40686" lon="-0.47447">
        <ele>23</ele>
        <time>2021-02-06T14:08:19Z</time>
      </trkpt>
      <trkpt lat="47.40703" lon="-0.47469">
        <ele>23</ele>
        <time>2021-02-06T14:08:23Z</time>
      </trkpt>
      <trkpt lat="47.40706" lon="-0.47473">
        <ele>23</ele>
        <time>2021-02-06T14:08:24Z</time>
      </trkpt>
      <trkpt lat="47.4071" lon="-0.47479">
        <ele>23</ele>
        <time>2021-02-06T14:08:25Z</time>
      </trkpt>
      <trkpt lat="47.40723" lon="-0.47502">
        <ele>24</ele>
        <time>2021-02-06T14:08:29Z</time>
      </trkpt>
      <trkpt lat="47.40729" lon="-0.47514">
        <ele>24</ele>
        <time>2021-02-06T14:08:31Z</time>
      </trkpt>
      <trkpt lat="47.40755" lon="-0.47555">
        <ele>24</ele>
        <time>2021-02-06T14:08:37Z</time>
      </trkpt>
      <trkpt lat="47.40766" lon="-0.47576">
        <ele>23</ele>
        <time>2021-02-06T14:08:41Z</time>
      </trkpt>
      <trkpt lat="47.40772" lon="-0.47599">
        <ele>23</ele>
        <time>2021-02-06T14:08:43Z</time>
      </trkpt>
      <trkpt lat="47.40774" lon="-0.47622">
        <ele>23</ele>
        <time>2021-02-06T14:08:46Z</time>
      </trkpt>
      <trkpt lat="47.40774" lon="-0.47646">
        <ele>24</ele>
        <time>2021-02-06T14:08:49Z</time>
      </trkpt>
      <trkpt lat="47.40771" lon="-0.47669">
        <ele>24</ele>
        <time>2021-02-06T14:08:52Z</time>
      </trkpt>
      <trkpt lat="47.40768" lon="-0.47714">
        <ele>24</ele>
        <time>2021-02-06T14:08:57Z</time>
      </trkpt>
      <trkpt lat="47.40767" lon="-0.47724">
        <ele>24</ele>
        <time>2021-02-06T14:08:59Z</time>
      </trkpt>
      <trkpt lat="47.40765" lon="-0.4774">
        <ele>24</ele>
        <time>2021-02-06T14:09:01Z</time>
      </trkpt>
      <trkpt lat="47.40765" lon="-0.47773">
        <ele>24</ele>
        <time>2021-02-06T14:09:05Z</time>
      </trkpt>
      <trkpt lat="47.40767" lon="-0.4781">
        <ele>25</ele>
        <time>2021-02-06T14:09:09Z</time>
      </trkpt>
      <trkpt lat="47.4077" lon="-0.47839">
        <ele>25</ele>
        <time>2021-02-06T14:09:13Z</time>
      </trkpt>
      <trkpt lat="47.40773" lon="-0.47857">
        <ele>25</ele>
        <time>2021-02-06T14:09:15Z</time>
      </trkpt>
      <trkpt lat="47.40774" lon="-0.47863">
        <ele>25</ele>
        <time>2021-02-06T14:09:16Z</time>
      </trkpt>
      <trkpt lat="47.40775" lon="-0.47872">
        <ele>25</ele>
        <time>2021-02-06T14:09:17Z</time>
      </trkpt>
      <trkpt lat="47.40775" lon="-0.47872">
        <ele>25</ele>
        <time>2021-02-06T14:09:17Z</time>
      </trkpt>
      <trkpt lat="47.40779" lon="-0.47875">
        <ele>25</ele>
        <time>2021-02-06T14:09:17Z</time>
      </trkpt>
      <trkpt lat="47.40783" lon="-0.47879">
        <ele>25</ele>
        <time>2021-02-06T14:09:18Z</time>
      </trkpt>
      <trkpt lat="47.40796" lon="-0.47901">
        <ele>25</ele>
        <time>2021-02-06T14:09:22Z</time>
      </trkpt>
      <trkpt lat="47.40802" lon="-0.47912">
        <ele>25</ele>
        <time>2021-02-06T14:09:24Z</time>
      </trkpt>
      <trkpt lat="47.40812" lon="-0.47938">
        <ele>25</ele>
        <time>2021-02-06T14:09:27Z</time>
      </trkpt>
      <trkpt lat="47.40821" lon="-0.47964">
        <ele>24</ele>
        <time>2021-02-06T14:09:31Z</time>
      </trkpt>
      <trkpt lat="47.40831" lon="-0.47998">
        <ele>24</ele>
        <time>2021-02-06T14:09:35Z</time>
      </trkpt>
      <trkpt lat="47.40836" lon="-0.48018">
        <ele>24</ele>
        <time>2021-02-06T14:09:38Z</time>
      </trkpt>
      <trkpt lat="47.40843" lon="-0.48045">
        <ele>23</ele>
        <time>2021-02-06T14:09:41Z</time>
      </trkpt>
      <trkpt lat="47.40849" lon="-0.48098">
        <ele>23</ele>
        <time>2021-02-06T14:09:48Z</time>
      </trkpt>
      <trkpt lat="47.40851" lon="-0.48115">
        <ele>23</ele>
        <time>2021-02-06T14:09:50Z</time>
      </trkpt>
      <trkpt lat="47.40853" lon="-0.48131">
        <ele>23</ele>
        <time>2021-02-06T14:09:52Z</time>
      </trkpt>
      <trkpt lat="47.40855" lon="-0.48131">
        <ele>23</ele>
        <time>2021-02-06T14:09:52Z</time>
      </trkpt>
      <trkpt lat="47.40856" lon="-0.48133">
        <ele>23</ele>
        <time>2021-02-06T14:09:52Z</time>
      </trkpt>
      <trkpt lat="47.40858" lon="-0.48135">
        <ele>23</ele>
        <time>2021-02-06T14:09:53Z</time>
      </trkpt>
      <trkpt lat="47.40859" lon="-0.48137">
        <ele>23</ele>
        <time>2021-02-06T14:09:53Z</time>
      </trkpt>
      <trkpt lat="47.40859" lon="-0.4814">
        <ele>23</ele>
        <time>2021-02-06T14:09:53Z</time>
      </trkpt>
      <trkpt lat="47.40859" lon="-0.48142">
        <ele>22</ele>
        <time>2021-02-06T14:09:54Z</time>
      </trkpt>
      <trkpt lat="47.40858" lon="-0.48145">
        <ele>23</ele>
        <time>2021-02-06T14:09:54Z</time>
      </trkpt>
      <trkpt lat="47.40857" lon="-0.48147">
        <ele>23</ele>
        <time>2021-02-06T14:09:54Z</time>
      </trkpt>
      <trkpt lat="47.40856" lon="-0.48148">
        <ele>23</ele>
        <time>2021-02-06T14:09:55Z</time>
      </trkpt>
      <trkpt lat="47.40874" lon="-0.48272">
        <ele>20</ele>
        <time>2021-02-06T14:10:10Z</time>
      </trkpt>
      <trkpt lat="47.40884" lon="-0.4831">
        <ele>20</ele>
        <time>2021-02-06T14:10:15Z</time>
      </trkpt>
      <trkpt lat="47.40887" lon="-0.48325">
        <ele>20</ele>
        <time>2021-02-06T14:10:17Z</time>
      </trkpt>
      <trkpt lat="47.40893" lon="-0.48341">
        <ele>20</ele>
        <time>2021-02-06T14:10:19Z</time>
      </trkpt>
      <trkpt lat="47.409" lon="-0.4836">
        <ele>21</ele>
        <time>2021-02-06T14:10:21Z</time>
      </trkpt>
      <trkpt lat="47.40905" lon="-0.48371">
        <ele>21</ele>
        <time>2021-02-06T14:10:23Z</time>
      </trkpt>
      <trkpt lat="47.40924" lon="-0.48417">
        <ele>21</ele>
        <time>2021-02-06T14:10:30Z</time>
      </trkpt>
      <trkpt lat="47.40933" lon="-0.48439">
        <ele>20</ele>
        <time>2021-02-06T14:10:33Z</time>
      </trkpt>
      <trkpt lat="47.40936" lon="-0.48448">
        <ele>20</ele>
        <time>2021-02-06T14:10:34Z</time>
      </trkpt>
      <trkpt lat="47.40938" lon="-0.48453">
        <ele>20</ele>
        <time>2021-02-06T14:10:35Z</time>
      </trkpt>
      <trkpt lat="47.40955" lon="-0.48492">
        <ele>19</ele>
        <time>2021-02-06T14:10:40Z</time>
      </trkpt>
      <trkpt lat="47.4099" lon="-0.48575">
        <ele>19</ele>
        <time>2021-02-06T14:10:52Z</time>
      </trkpt>
      <trkpt lat="47.41004" lon="-0.48612">
        <ele>18</ele>
        <time>2021-02-06T14:10:57Z</time>
      </trkpt>
      <trkpt lat="47.41066" lon="-0.48798">
        <ele>18</ele>
        <time>2021-02-06T14:11:22Z</time>
      </trkpt>
      <trkpt lat="47.41076" lon="-0.48828">
        <ele>18</ele>
        <time>2021-02-06T14:11:26Z</time>
      </trkpt>
      <trkpt lat="47.411" lon="-0.489">
        <ele>20</ele>
        <time>2021-02-06T14:11:36Z</time>
      </trkpt>
      <trkpt lat="47.41118" lon="-0.48953">
        <ele>22</ele>
        <time>2021-02-06T14:11:43Z</time>
      </trkpt>
      <trkpt lat="47.41143" lon="-0.49032">
        <ele>25</ele>
        <time>2021-02-06T14:11:53Z</time>
      </trkpt>
      <trkpt lat="47.41165" lon="-0.49096">
        <ele>23</ele>
        <time>2021-02-06T14:12:02Z</time>
      </trkpt>
      <trkpt lat="47.41167" lon="-0.49104">
        <ele>22</ele>
        <time>2021-02-06T14:12:03Z</time>
      </trkpt>
      <trkpt lat="47.41174" lon="-0.49126">
        <ele>22</ele>
        <time>2021-02-06T14:12:06Z</time>
      </trkpt>
      <trkpt lat="47.41177" lon="-0.49136">
        <ele>21</ele>
        <time>2021-02-06T14:12:07Z</time>
      </trkpt>
      <trkpt lat="47.41182" lon="-0.49156">
        <ele>21</ele>
        <time>2021-02-06T14:12:10Z</time>
      </trkpt>
      <trkpt lat="47.41184" lon="-0.49163">
        <ele>20</ele>
        <time>2021-02-06T14:12:11Z</time>
      </trkpt>
      <trkpt lat="47.41185" lon="-0.49168">
        <ele>20</ele>
        <time>2021-02-06T14:12:11Z</time>
      </trkpt>
      <trkpt lat="47.4119" lon="-0.4919">
        <ele>20</ele>
        <time>2021-02-06T14:12:14Z</time>
      </trkpt>
      <trkpt lat="47.41193" lon="-0.49207">
        <ele>20</ele>
        <time>2021-02-06T14:12:16Z</time>
      </trkpt>
      <trkpt lat="47.41207" lon="-0.49286">
        <ele>21</ele>
        <time>2021-02-06T14:12:26Z</time>
      </trkpt>
      <trkpt lat="47.41221" lon="-0.49357">
        <ele>23</ele>
        <time>2021-02-06T14:12:35Z</time>
      </trkpt>
      <trkpt lat="47.41226" lon="-0.4938">
        <ele>24</ele>
        <time>2021-02-06T14:12:38Z</time>
      </trkpt>
      <trkpt lat="47.41233" lon="-0.49411">
        <ele>24</ele>
        <time>2021-02-06T14:12:42Z</time>
      </trkpt>
      <trkpt lat="47.41243" lon="-0.49463">
        <ele>23</ele>
        <time>2021-02-06T14:12:48Z</time>
      </trkpt>
      <trkpt lat="47.4125" lon="-0.49502">
        <ele>23</ele>
        <time>2021-02-06T14:12:53Z</time>
      </trkpt>
      <trkpt lat="47.41254" lon="-0.49522">
        <ele>23</ele>
        <time>2021-02-06T14:12:56Z</time>
      </trkpt>
      <trkpt lat="47.41271" lon="-0.49608">
        <ele>22</ele>
        <time>2021-02-06T14:13:06Z</time>
      </trkpt>
      <trkpt lat="47.41283" lon="-0.49672">
        <ele>21</ele>
        <time>2021-02-06T14:13:14Z</time>
      </trkpt>
      <trkpt lat="47.41299" lon="-0.49748">
        <ele>19</ele>
        <time>2021-02-06T14:13:24Z</time>
      </trkpt>
      <trkpt lat="47.41301" lon="-0.49759">
        <ele>19</ele>
        <time>2021-02-06T14:13:25Z</time>
      </trkpt>
      <trkpt lat="47.41302" lon="-0.49768">
        <ele>19</ele>
        <time>2021-02-06T14:13:27Z</time>
      </trkpt>
      <trkpt lat="47.41303" lon="-0.49777">
        <ele>19</ele>
        <time>2021-02-06T14:13:28Z</time>
      </trkpt>
      <trkpt lat="47.41304" lon="-0.4978">
        <ele>19</ele>
        <time>2021-02-06T14:13:28Z</time>
      </trkpt>
      <trkpt lat="47.41306" lon="-0.49807">
        <ele>19</ele>
        <time>2021-02-06T14:13:31Z</time>
      </trkpt>
      <trkpt lat="47.41308" lon="-0.49822">
        <ele>20</ele>
        <time>2021-02-06T14:13:33Z</time>
      </trkpt>
      <trkpt lat="47.41308" lon="-0.49828">
        <ele>20</ele>
        <time>2021-02-06T14:13:34Z</time>
      </trkpt>
      <trkpt lat="47.41309" lon="-0.49842">
        <ele>20</ele>
        <time>2021-02-06T14:13:36Z</time>
      </trkpt>
      <trkpt lat="47.4131" lon="-0.49891">
        <ele>18</ele>
        <time>2021-02-06T14:13:41Z</time>
      </trkpt>
      <trkpt lat="47.41314" lon="-0.49972">
        <ele>19</ele>
        <time>2021-02-06T14:13:51Z</time>
      </trkpt>
      <trkpt lat="47.41316" lon="-0.50004">
        <ele>21</ele>
        <time>2021-02-06T14:13:55Z</time>
      </trkpt>
      <trkpt lat="47.4132" lon="-0.5009">
        <ele>23</ele>
        <time>2021-02-06T14:14:05Z</time>
      </trkpt>
      <trkpt lat="47.41321" lon="-0.50111">
        <ele>22</ele>
        <time>2021-02-06T14:14:08Z</time>
      </trkpt>
      <trkpt lat="47.41324" lon="-0.5015">
        <ele>21</ele>
        <time>2021-02-06T14:14:13Z</time>
      </trkpt>
      <trkpt lat="47.41326" lon="-0.50175">
        <ele>20</ele>
        <time>2021-02-06T14:14:16Z</time>
      </trkpt>
      <trkpt lat="47.41327" lon="-0.5019">
        <ele>20</ele>
        <time>2021-02-06T14:14:18Z</time>
      </trkpt>
      <trkpt lat="47.41328" lon="-0.50197">
        <ele>20</ele>
        <time>2021-02-06T14:14:18Z</time>
      </trkpt>
      <trkpt lat="47.41331" lon="-0.50207">
        <ele>20</ele>
        <time>2021-02-06T14:14:20Z</time>
      </trkpt>
      <trkpt lat="47.41333" lon="-0.50218">
        <ele>21</ele>
        <time>2021-02-06T14:14:21Z</time>
      </trkpt>
      <trkpt lat="47.41335" lon="-0.50224">
        <ele>21</ele>
        <time>2021-02-06T14:14:22Z</time>
      </trkpt>
      <trkpt lat="47.41337" lon="-0.50232">
        <ele>21</ele>
        <time>2021-02-06T14:14:23Z</time>
      </trkpt>
      <trkpt lat="47.41346" lon="-0.50267">
        <ele>20</ele>
        <time>2021-02-06T14:14:27Z</time>
      </trkpt>
      <trkpt lat="47.4135" lon="-0.50283">
        <ele>20</ele>
        <time>2021-02-06T14:14:30Z</time>
      </trkpt>
      <trkpt lat="47.41352" lon="-0.50294">
        <ele>20</ele>
        <time>2021-02-06T14:14:31Z</time>
      </trkpt>
      <trkpt lat="47.41354" lon="-0.50303">
        <ele>20</ele>
        <time>2021-02-06T14:14:32Z</time>
      </trkpt>
      <trkpt lat="47.41355" lon="-0.50312">
        <ele>20</ele>
        <time>2021-02-06T14:14:33Z</time>
      </trkpt>
      <trkpt lat="47.41356" lon="-0.5032">
        <ele>19</ele>
        <time>2021-02-06T14:14:34Z</time>
      </trkpt>
      <trkpt lat="47.41357" lon="-0.50327">
        <ele>19</ele>
        <time>2021-02-06T14:14:35Z</time>
      </trkpt>
      <trkpt lat="47.41359" lon="-0.50339">
        <ele>19</ele>
        <time>2021-02-06T14:14:36Z</time>
      </trkpt>
      <trkpt lat="47.4136" lon="-0.50345">
        <ele>19</ele>
        <time>2021-02-06T14:14:37Z</time>
      </trkpt>
      <trkpt lat="47.4136" lon="-0.50357">
        <ele>19</ele>
        <time>2021-02-06T14:14:39Z</time>
      </trkpt>
      <trkpt lat="47.4136" lon="-0.50366">
        <ele>19</ele>
        <time>2021-02-06T14:14:40Z</time>
      </trkpt>
      <trkpt lat="47.4136" lon="-0.5037">
        <ele>19</ele>
        <time>2021-02-06T14:14:40Z</time>
      </trkpt>
      <trkpt lat="47.4136" lon="-0.50378">
        <ele>19</ele>
        <time>2021-02-06T14:14:41Z</time>
      </trkpt>
      <trkpt lat="47.4136" lon="-0.50393">
        <ele>18</ele>
        <time>2021-02-06T14:14:43Z</time>
      </trkpt>
      <trkpt lat="47.4136" lon="-0.5041">
        <ele>18</ele>
        <time>2021-02-06T14:14:45Z</time>
      </trkpt>
      <trkpt lat="47.41361" lon="-0.50421">
        <ele>18</ele>
        <time>2021-02-06T14:14:46Z</time>
      </trkpt>
      <trkpt lat="47.41362" lon="-0.50431">
        <ele>18</ele>
        <time>2021-02-06T14:14:48Z</time>
      </trkpt>
      <trkpt lat="47.41364" lon="-0.50441">
        <ele>18</ele>
        <time>2021-02-06T14:14:49Z</time>
      </trkpt>
      <trkpt lat="47.41365" lon="-0.50448">
        <ele>19</ele>
        <time>2021-02-06T14:14:50Z</time>
      </trkpt>
      <trkpt lat="47.41364" lon="-0.50457">
        <ele>19</ele>
        <time>2021-02-06T14:14:51Z</time>
      </trkpt>
      <trkpt lat="47.41364" lon="-0.50459">
        <ele>19</ele>
        <time>2021-02-06T14:14:51Z</time>
      </trkpt>
      <trkpt lat="47.41381" lon="-0.50559">
        <ele>20</ele>
        <time>2021-02-06T14:15:03Z</time>
      </trkpt>
      <trkpt lat="47.41386" lon="-0.50583">
        <ele>21</ele>
        <time>2021-02-06T14:15:06Z</time>
      </trkpt>
      <trkpt lat="47.41395" lon="-0.50637">
        <ele>23</ele>
        <time>2021-02-06T14:15:13Z</time>
      </trkpt>
      <trkpt lat="47.41399" lon="-0.50666">
        <ele>24</ele>
        <time>2021-02-06T14:15:17Z</time>
      </trkpt>
      <trkpt lat="47.41401" lon="-0.50677">
        <ele>24</ele>
        <time>2021-02-06T14:15:18Z</time>
      </trkpt>
      <trkpt lat="47.41403" lon="-0.5069">
        <ele>24</ele>
        <time>2021-02-06T14:15:20Z</time>
      </trkpt>
      <trkpt lat="47.41405" lon="-0.50698">
        <ele>24</ele>
        <time>2021-02-06T14:15:21Z</time>
      </trkpt>
      <trkpt lat="47.41408" lon="-0.50718">
        <ele>24</ele>
        <time>2021-02-06T14:15:23Z</time>
      </trkpt>
      <trkpt lat="47.4141" lon="-0.50729">
        <ele>24</ele>
        <time>2021-02-06T14:15:25Z</time>
      </trkpt>
      <trkpt lat="47.41411" lon="-0.50739">
        <ele>24</ele>
        <time>2021-02-06T14:15:26Z</time>
      </trkpt>
      <trkpt lat="47.41413" lon="-0.50757">
        <ele>24</ele>
        <time>2021-02-06T14:15:28Z</time>
      </trkpt>
      <trkpt lat="47.41414" lon="-0.5077">
        <ele>23</ele>
        <time>2021-02-06T14:15:30Z</time>
      </trkpt>
      <trkpt lat="47.41414" lon="-0.50781">
        <ele>23</ele>
        <time>2021-02-06T14:15:31Z</time>
      </trkpt>
      <trkpt lat="47.41414" lon="-0.50791">
        <ele>23</ele>
        <time>2021-02-06T14:15:32Z</time>
      </trkpt>
      <trkpt lat="47.41413" lon="-0.50798">
        <ele>23</ele>
        <time>2021-02-06T14:15:33Z</time>
      </trkpt>
      <trkpt lat="47.41413" lon="-0.50806">
        <ele>23</ele>
        <time>2021-02-06T14:15:34Z</time>
      </trkpt>
      <trkpt lat="47.41412" lon="-0.50816">
        <ele>22</ele>
        <time>2021-02-06T14:15:35Z</time>
      </trkpt>
      <trkpt lat="47.41409" lon="-0.50844">
        <ele>21</ele>
        <time>2021-02-06T14:15:39Z</time>
      </trkpt>
      <trkpt lat="47.41408" lon="-0.50851">
        <ele>21</ele>
        <time>2021-02-06T14:15:39Z</time>
      </trkpt>
      <trkpt lat="47.41403" lon="-0.50886">
        <ele>20</ele>
        <time>2021-02-06T14:15:44Z</time>
      </trkpt>
      <trkpt lat="47.41398" lon="-0.50924">
        <ele>19</ele>
        <time>2021-02-06T14:15:48Z</time>
      </trkpt>
      <trkpt lat="47.41393" lon="-0.5096">
        <ele>20</ele>
        <time>2021-02-06T14:15:53Z</time>
      </trkpt>
      <trkpt lat="47.4139" lon="-0.50984">
        <ele>21</ele>
        <time>2021-02-06T14:15:56Z</time>
      </trkpt>
      <trkpt lat="47.41386" lon="-0.5101">
        <ele>22</ele>
        <time>2021-02-06T14:15:59Z</time>
      </trkpt>
      <trkpt lat="47.41384" lon="-0.5102">
        <ele>22</ele>
        <time>2021-02-06T14:16:00Z</time>
      </trkpt>
      <trkpt lat="47.41381" lon="-0.51028">
        <ele>22</ele>
        <time>2021-02-06T14:16:01Z</time>
      </trkpt>
      <trkpt lat="47.4138" lon="-0.51032">
        <ele>22</ele>
        <time>2021-02-06T14:16:02Z</time>
      </trkpt>
      <trkpt lat="47.41378" lon="-0.51036">
        <ele>22</ele>
        <time>2021-02-06T14:16:02Z</time>
      </trkpt>
      <trkpt lat="47.41375" lon="-0.51043">
        <ele>22</ele>
        <time>2021-02-06T14:16:03Z</time>
      </trkpt>
      <trkpt lat="47.41372" lon="-0.51048">
        <ele>22</ele>
        <time>2021-02-06T14:16:04Z</time>
      </trkpt>
      <trkpt lat="47.41368" lon="-0.51056">
        <ele>22</ele>
        <time>2021-02-06T14:16:05Z</time>
      </trkpt>
      <trkpt lat="47.41365" lon="-0.51061">
        <ele>22</ele>
        <time>2021-02-06T14:16:06Z</time>
      </trkpt>
      <trkpt lat="47.41328" lon="-0.51127">
        <ele>22</ele>
        <time>2021-02-06T14:16:17Z</time>
      </trkpt>
      <trkpt lat="47.41321" lon="-0.51141">
        <ele>21</ele>
        <time>2021-02-06T14:16:19Z</time>
      </trkpt>
      <trkpt lat="47.41304" lon="-0.51168">
        <ele>20</ele>
        <time>2021-02-06T14:16:23Z</time>
      </trkpt>
      <trkpt lat="47.41296" lon="-0.51184">
        <ele>20</ele>
        <time>2021-02-06T14:16:25Z</time>
      </trkpt>
      <trkpt lat="47.41283" lon="-0.51208">
        <ele>19</ele>
        <time>2021-02-06T14:16:29Z</time>
      </trkpt>
      <trkpt lat="47.41253" lon="-0.51256">
        <ele>18</ele>
        <time>2021-02-06T14:16:37Z</time>
      </trkpt>
      <trkpt lat="47.41237" lon="-0.51285">
        <ele>19</ele>
        <time>2021-02-06T14:16:42Z</time>
      </trkpt>
      <trkpt lat="47.41211" lon="-0.51328">
        <ele>19</ele>
        <time>2021-02-06T14:16:49Z</time>
      </trkpt>
      <trkpt lat="47.41192" lon="-0.51362">
        <ele>20</ele>
        <time>2021-02-06T14:16:54Z</time>
      </trkpt>
      <trkpt lat="47.41173" lon="-0.51389">
        <ele>20</ele>
        <time>2021-02-06T14:16:59Z</time>
      </trkpt>
      <trkpt lat="47.4114" lon="-0.51433">
        <ele>20</ele>
        <time>2021-02-06T14:17:06Z</time>
      </trkpt>
      <trkpt lat="47.41134" lon="-0.51442">
        <ele>20</ele>
        <time>2021-02-06T14:17:08Z</time>
      </trkpt>
      <trkpt lat="47.41096" lon="-0.51491">
        <ele>18</ele>
        <time>2021-02-06T14:17:17Z</time>
      </trkpt>
      <trkpt lat="47.41083" lon="-0.51515">
        <ele>18</ele>
        <time>2021-02-06T14:17:21Z</time>
      </trkpt>
      <trkpt lat="47.41079" lon="-0.51524">
        <ele>18</ele>
        <time>2021-02-06T14:17:22Z</time>
      </trkpt>
      <trkpt lat="47.41076" lon="-0.51534">
        <ele>18</ele>
        <time>2021-02-06T14:17:23Z</time>
      </trkpt>
      <trkpt lat="47.41073" lon="-0.51544">
        <ele>18</ele>
        <time>2021-02-06T14:17:25Z</time>
      </trkpt>
      <trkpt lat="47.41071" lon="-0.51556">
        <ele>18</ele>
        <time>2021-02-06T14:17:26Z</time>
      </trkpt>
      <trkpt lat="47.41069" lon="-0.51564">
        <ele>18</ele>
        <time>2021-02-06T14:17:27Z</time>
      </trkpt>
      <trkpt lat="47.41062" lon="-0.51612">
        <ele>19</ele>
        <time>2021-02-06T14:17:33Z</time>
      </trkpt>
      <trkpt lat="47.41048" lon="-0.51711">
        <ele>21</ele>
        <time>2021-02-06T14:17:45Z</time>
      </trkpt>
      <trkpt lat="47.41044" lon="-0.51739">
        <ele>21</ele>
        <time>2021-02-06T14:17:49Z</time>
      </trkpt>
      <trkpt lat="47.4104" lon="-0.51762">
        <ele>22</ele>
        <time>2021-02-06T14:17:51Z</time>
      </trkpt>
      <trkpt lat="47.41027" lon="-0.51851">
        <ele>22</ele>
        <time>2021-02-06T14:18:02Z</time>
      </trkpt>
      <trkpt lat="47.40999" lon="-0.52045">
        <ele>19</ele>
        <time>2021-02-06T14:18:26Z</time>
      </trkpt>
      <trkpt lat="47.40993" lon="-0.52089">
        <ele>19</ele>
        <time>2021-02-06T14:18:32Z</time>
      </trkpt>
      <trkpt lat="47.40987" lon="-0.5212">
        <ele>19</ele>
        <time>2021-02-06T14:18:36Z</time>
      </trkpt>
      <trkpt lat="47.40969" lon="-0.522">
        <ele>19</ele>
        <time>2021-02-06T14:18:46Z</time>
      </trkpt>
      <trkpt lat="47.40954" lon="-0.52262">
        <ele>20</ele>
        <time>2021-02-06T14:18:54Z</time>
      </trkpt>
      <trkpt lat="47.4095" lon="-0.52279">
        <ele>20</ele>
        <time>2021-02-06T14:18:56Z</time>
      </trkpt>
      <trkpt lat="47.40944" lon="-0.5231">
        <ele>20</ele>
        <time>2021-02-06T14:19:00Z</time>
      </trkpt>
      <trkpt lat="47.40938" lon="-0.5235">
        <ele>20</ele>
        <time>2021-02-06T14:19:05Z</time>
      </trkpt>
      <trkpt lat="47.40932" lon="-0.52396">
        <ele>21</ele>
        <time>2021-02-06T14:19:10Z</time>
      </trkpt>
      <trkpt lat="47.40931" lon="-0.52429">
        <ele>21</ele>
        <time>2021-02-06T14:19:14Z</time>
      </trkpt>
      <trkpt lat="47.40931" lon="-0.52444">
        <ele>21</ele>
        <time>2021-02-06T14:19:16Z</time>
      </trkpt>
      <trkpt lat="47.40938" lon="-0.52478">
        <ele>21</ele>
        <time>2021-02-06T14:19:20Z</time>
      </trkpt>
      <trkpt lat="47.40938" lon="-0.52478">
        <ele>21</ele>
        <time>2021-02-06T14:19:20Z</time>
      </trkpt>
      <trkpt lat="47.40983" lon="-0.52459">
        <ele>21</ele>
        <time>2021-02-06T14:19:29Z</time>
      </trkpt>
      <trkpt lat="47.4099" lon="-0.52458">
        <ele>21</ele>
        <time>2021-02-06T14:19:30Z</time>
      </trkpt>
      <trkpt lat="47.40998" lon="-0.52455">
        <ele>22</ele>
        <time>2021-02-06T14:19:31Z</time>
      </trkpt>
      <trkpt lat="47.41001" lon="-0.52454">
        <ele>21</ele>
        <time>2021-02-06T14:19:32Z</time>
      </trkpt>
      <trkpt lat="47.41018" lon="-0.52448">
        <ele>21</ele>
        <time>2021-02-06T14:19:35Z</time>
      </trkpt>
      <trkpt lat="47.41033" lon="-0.52441">
        <ele>20</ele>
        <time>2021-02-06T14:19:38Z</time>
      </trkpt>
      <trkpt lat="47.41033" lon="-0.52441">
        <ele>20</ele>
        <time>2021-02-06T14:19:38Z</time>
      </trkpt>
      <trkpt lat="47.41037" lon="-0.52439">
        <ele>20</ele>
        <time>2021-02-06T14:19:39Z</time>
      </trkpt>
      <trkpt lat="47.41039" lon="-0.52439">
        <ele>20</ele>
        <time>2021-02-06T14:19:39Z</time>
      </trkpt>
      <trkpt lat="47.41051" lon="-0.52435">
        <ele>19</ele>
        <time>2021-02-06T14:19:41Z</time>
      </trkpt>
      <trkpt lat="47.4108" lon="-0.52424">
        <ele>18</ele>
        <time>2021-02-06T14:19:47Z</time>
      </trkpt>
      <trkpt lat="47.41163" lon="-0.52396">
        <ele>18</ele>
        <time>2021-02-06T14:20:02Z</time>
      </trkpt>
      <trkpt lat="47.41186" lon="-0.52388">
        <ele>19</ele>
        <time>2021-02-06T14:20:06Z</time>
      </trkpt>
      <trkpt lat="47.41194" lon="-0.52385">
        <ele>19</ele>
        <time>2021-02-06T14:20:07Z</time>
      </trkpt>
      <trkpt lat="47.41194" lon="-0.52385">
        <ele>19</ele>
        <time>2021-02-06T14:20:07Z</time>
      </trkpt>
      <trkpt lat="47.41263" lon="-0.52368">
        <ele>22</ele>
        <time>2021-02-06T14:20:20Z</time>
      </trkpt>
      <trkpt lat="47.41339" lon="-0.52346">
        <ele>21</ele>
        <time>2021-02-06T14:20:34Z</time>
      </trkpt>
      <trkpt lat="47.41356" lon="-0.52342">
        <ele>21</ele>
        <time>2021-02-06T14:20:37Z</time>
      </trkpt>
      <trkpt lat="47.41367" lon="-0.52338">
        <ele>21</ele>
        <time>2021-02-06T14:20:39Z</time>
      </trkpt>
      <trkpt lat="47.41386" lon="-0.52332">
        <ele>22</ele>
        <time>2021-02-06T14:20:42Z</time>
      </trkpt>
      <trkpt lat="47.41471" lon="-0.52313">
        <ele>23</ele>
        <time>2021-02-06T14:20:57Z</time>
      </trkpt>
      <trkpt lat="47.41479" lon="-0.52313">
        <ele>24</ele>
        <time>2021-02-06T14:20:59Z</time>
      </trkpt>
      <trkpt lat="47.4149" lon="-0.52312">
        <ele>24</ele>
        <time>2021-02-06T14:21:01Z</time>
      </trkpt>
      <trkpt lat="47.41499" lon="-0.52313">
        <ele>24</ele>
        <time>2021-02-06T14:21:02Z</time>
      </trkpt>
      <trkpt lat="47.41564" lon="-0.52321">
        <ele>24</ele>
        <time>2021-02-06T14:21:14Z</time>
      </trkpt>
      <trkpt lat="47.4159" lon="-0.52322">
        <ele>24</ele>
        <time>2021-02-06T14:21:19Z</time>
      </trkpt>
      <trkpt lat="47.4162" lon="-0.52324">
        <ele>24</ele>
        <time>2021-02-06T14:21:24Z</time>
      </trkpt>
      <trkpt lat="47.4169" lon="-0.52327">
        <ele>23</ele>
        <time>2021-02-06T14:21:36Z</time>
      </trkpt>
      <trkpt lat="47.4176" lon="-0.52335">
        <ele>22</ele>
        <time>2021-02-06T14:21:49Z</time>
      </trkpt>
      <trkpt lat="47.41827" lon="-0.52336">
        <ele>22</ele>
        <time>2021-02-06T14:22:01Z</time>
      </trkpt>
      <trkpt lat="47.41829" lon="-0.52336">
        <ele>22</ele>
        <time>2021-02-06T14:22:01Z</time>
      </trkpt>
      <trkpt lat="47.41831" lon="-0.52335">
        <ele>22</ele>
        <time>2021-02-06T14:22:02Z</time>
      </trkpt>
      <trkpt lat="47.41833" lon="-0.52334">
        <ele>22</ele>
        <time>2021-02-06T14:22:02Z</time>
      </trkpt>
      <trkpt lat="47.41835" lon="-0.52332">
        <ele>22</ele>
        <time>2021-02-06T14:22:02Z</time>
      </trkpt>
      <trkpt lat="47.41835" lon="-0.52332">
        <ele>22</ele>
        <time>2021-02-06T14:22:02Z</time>
      </trkpt>
      <trkpt lat="47.41834" lon="-0.52329">
        <ele>22</ele>
        <time>2021-02-06T14:22:03Z</time>
      </trkpt>
      <trkpt lat="47.41834" lon="-0.52326">
        <ele>22</ele>
        <time>2021-02-06T14:22:03Z</time>
      </trkpt>
      <trkpt lat="47.41835" lon="-0.52324">
        <ele>22</ele>
        <time>2021-02-06T14:22:03Z</time>
      </trkpt>
      <trkpt lat="47.41835" lon="-0.52322">
        <ele>22</ele>
        <time>2021-02-06T14:22:04Z</time>
      </trkpt>
      <trkpt lat="47.41836" lon="-0.52319">
        <ele>22</ele>
        <time>2021-02-06T14:22:04Z</time>
      </trkpt>
      <trkpt lat="47.41837" lon="-0.52317">
        <ele>22</ele>
        <time>2021-02-06T14:22:04Z</time>
      </trkpt>
      <trkpt lat="47.41838" lon="-0.52316">
        <ele>22</ele>
        <time>2021-02-06T14:22:05Z</time>
      </trkpt>
      <trkpt lat="47.4184" lon="-0.52315">
        <ele>22</ele>
        <time>2021-02-06T14:22:05Z</time>
      </trkpt>
      <trkpt lat="47.41841" lon="-0.52314">
        <ele>21</ele>
        <time>2021-02-06T14:22:05Z</time>
      </trkpt>
      <trkpt lat="47.41843" lon="-0.52314">
        <ele>21</ele>
        <time>2021-02-06T14:22:06Z</time>
      </trkpt>
      <trkpt lat="47.41845" lon="-0.52314">
        <ele>21</ele>
        <time>2021-02-06T14:22:06Z</time>
      </trkpt>
      <trkpt lat="47.41846" lon="-0.52315">
        <ele>21</ele>
        <time>2021-02-06T14:22:06Z</time>
      </trkpt>
      <trkpt lat="47.41848" lon="-0.52316">
        <ele>22</ele>
        <time>2021-02-06T14:22:06Z</time>
      </trkpt>
      <trkpt lat="47.41849" lon="-0.52318">
        <ele>22</ele>
        <time>2021-02-06T14:22:07Z</time>
      </trkpt>
      <trkpt lat="47.4185" lon="-0.5232">
        <ele>22</ele>
        <time>2021-02-06T14:22:07Z</time>
      </trkpt>
      <trkpt lat="47.41851" lon="-0.52322">
        <ele>22</ele>
        <time>2021-02-06T14:22:07Z</time>
      </trkpt>
      <trkpt lat="47.41851" lon="-0.52325">
        <ele>22</ele>
        <time>2021-02-06T14:22:08Z</time>
      </trkpt>
      <trkpt lat="47.41851" lon="-0.52327">
        <ele>22</ele>
        <time>2021-02-06T14:22:08Z</time>
      </trkpt>
      <trkpt lat="47.41851" lon="-0.5233">
        <ele>22</ele>
        <time>2021-02-06T14:22:08Z</time>
      </trkpt>
      <trkpt lat="47.4185" lon="-0.52332">
        <ele>22</ele>
        <time>2021-02-06T14:22:09Z</time>
      </trkpt>
      <trkpt lat="47.4185" lon="-0.52334">
        <ele>22</ele>
        <time>2021-02-06T14:22:09Z</time>
      </trkpt>
      <trkpt lat="47.41856" lon="-0.52337">
        <ele>22</ele>
        <time>2021-02-06T14:22:10Z</time>
      </trkpt>
      <trkpt lat="47.41859" lon="-0.52339">
        <ele>22</ele>
        <time>2021-02-06T14:22:11Z</time>
      </trkpt>
      <trkpt lat="47.41972" lon="-0.52349">
        <ele>18</ele>
        <time>2021-02-06T14:22:31Z</time>
      </trkpt>
      <trkpt lat="47.41972" lon="-0.52349">
        <ele>18</ele>
        <time>2021-02-06T14:22:31Z</time>
      </trkpt>
      <trkpt lat="47.41977" lon="-0.5235">
        <ele>17</ele>
        <time>2021-02-06T14:22:32Z</time>
      </trkpt>
      <trkpt lat="47.41979" lon="-0.5235">
        <ele>17</ele>
        <time>2021-02-06T14:22:32Z</time>
      </trkpt>
      <trkpt lat="47.42249" lon="-0.52369">
        <ele>21</ele>
        <time>2021-02-06T14:23:20Z</time>
      </trkpt>
      <trkpt lat="47.42254" lon="-0.52369">
        <ele>21</ele>
        <time>2021-02-06T14:23:21Z</time>
      </trkpt>
      <trkpt lat="47.42259" lon="-0.5237">
        <ele>21</ele>
        <time>2021-02-06T14:23:22Z</time>
      </trkpt>
      <trkpt lat="47.42259" lon="-0.5237">
        <ele>21</ele>
        <time>2021-02-06T14:23:22Z</time>
      </trkpt>
      <trkpt lat="47.42286" lon="-0.52377">
        <ele>23</ele>
        <time>2021-02-06T14:23:27Z</time>
      </trkpt>
      <trkpt lat="47.42296" lon="-0.52383">
        <ele>23</ele>
        <time>2021-02-06T14:23:29Z</time>
      </trkpt>
      <trkpt lat="47.42303" lon="-0.52387">
        <ele>23</ele>
        <time>2021-02-06T14:23:30Z</time>
      </trkpt>
      <trkpt lat="47.42312" lon="-0.52392">
        <ele>24</ele>
        <time>2021-02-06T14:23:32Z</time>
      </trkpt>
      <trkpt lat="47.4236" lon="-0.52428">
        <ele>25</ele>
        <time>2021-02-06T14:23:41Z</time>
      </trkpt>
      <trkpt lat="47.42378" lon="-0.5244">
        <ele>24</ele>
        <time>2021-02-06T14:23:45Z</time>
      </trkpt>
      <trkpt lat="47.42385" lon="-0.52445">
        <ele>24</ele>
        <time>2021-02-06T14:23:46Z</time>
      </trkpt>
      <trkpt lat="47.42444" lon="-0.52487">
        <ele>23</ele>
        <time>2021-02-06T14:23:58Z</time>
      </trkpt>
      <trkpt lat="47.42449" lon="-0.52491">
        <ele>23</ele>
        <time>2021-02-06T14:23:59Z</time>
      </trkpt>
      <trkpt lat="47.42453" lon="-0.5249">
        <ele>23</ele>
        <time>2021-02-06T14:24:00Z</time>
      </trkpt>
      <trkpt lat="47.42458" lon="-0.52494">
        <ele>23</ele>
        <time>2021-02-06T14:24:01Z</time>
      </trkpt>
      <trkpt lat="47.42459" lon="-0.52495">
        <ele>22</ele>
        <time>2021-02-06T14:24:01Z</time>
      </trkpt>
      <trkpt lat="47.42462" lon="-0.52497">
        <ele>22</ele>
        <time>2021-02-06T14:24:01Z</time>
      </trkpt>
      <trkpt lat="47.42465" lon="-0.52499">
        <ele>22</ele>
        <time>2021-02-06T14:24:02Z</time>
      </trkpt>
      <trkpt lat="47.42467" lon="-0.52501">
        <ele>22</ele>
        <time>2021-02-06T14:24:02Z</time>
      </trkpt>
      <trkpt lat="47.42473" lon="-0.52508">
        <ele>22</ele>
        <time>2021-02-06T14:24:04Z</time>
      </trkpt>
      <trkpt lat="47.42475" lon="-0.52505">
        <ele>22</ele>
        <time>2021-02-06T14:24:04Z</time>
      </trkpt>
      <trkpt lat="47.42476" lon="-0.52504">
        <ele>22</ele>
        <time>2021-02-06T14:24:04Z</time>
      </trkpt>
      <trkpt lat="47.42478" lon="-0.52503">
        <ele>22</ele>
        <time>2021-02-06T14:24:05Z</time>
      </trkpt>
      <trkpt lat="47.42485" lon="-0.52505">
        <ele>22</ele>
        <time>2021-02-06T14:24:06Z</time>
      </trkpt>
      <trkpt lat="47.42487" lon="-0.52508">
        <ele>22</ele>
        <time>2021-02-06T14:24:07Z</time>
      </trkpt>
      <trkpt lat="47.42488" lon="-0.52509">
        <ele>22</ele>
        <time>2021-02-06T14:24:07Z</time>
      </trkpt>
      <trkpt lat="47.4249" lon="-0.52512">
        <ele>22</ele>
        <time>2021-02-06T14:24:07Z</time>
      </trkpt>
      <trkpt lat="47.4249" lon="-0.52513">
        <ele>23</ele>
        <time>2021-02-06T14:24:07Z</time>
      </trkpt>
      <trkpt lat="47.42506" lon="-0.52523">
        <ele>23</ele>
        <time>2021-02-06T14:24:11Z</time>
      </trkpt>
      <trkpt lat="47.42541" lon="-0.52549">
        <ele>23</ele>
        <time>2021-02-06T14:24:18Z</time>
      </trkpt>
      <trkpt lat="47.42594" lon="-0.52586">
        <ele>22</ele>
        <time>2021-02-06T14:24:28Z</time>
      </trkpt>
      <trkpt lat="47.42617" lon="-0.52605">
        <ele>21</ele>
        <time>2021-02-06T14:24:33Z</time>
      </trkpt>
      <trkpt lat="47.42618" lon="-0.52607">
        <ele>21</ele>
        <time>2021-02-06T14:24:33Z</time>
      </trkpt>
      <trkpt lat="47.42622" lon="-0.5261">
        <ele>21</ele>
        <time>2021-02-06T14:24:34Z</time>
      </trkpt>
      <trkpt lat="47.42644" lon="-0.52625">
        <ele>20</ele>
        <time>2021-02-06T14:24:38Z</time>
      </trkpt>
      <trkpt lat="47.42651" lon="-0.52634">
        <ele>20</ele>
        <time>2021-02-06T14:24:40Z</time>
      </trkpt>
      <trkpt lat="47.42651" lon="-0.52634">
        <ele>20</ele>
        <time>2021-02-06T14:24:40Z</time>
      </trkpt>
      <trkpt lat="47.42672" lon="-0.52647">
        <ele>20</ele>
        <time>2021-02-06T14:24:44Z</time>
      </trkpt>
      <trkpt lat="47.4269" lon="-0.52659">
        <ele>20</ele>
        <time>2021-02-06T14:24:47Z</time>
      </trkpt>
      <trkpt lat="47.42716" lon="-0.52678">
        <ele>20</ele>
        <time>2021-02-06T14:24:52Z</time>
      </trkpt>
      <trkpt lat="47.42729" lon="-0.52689">
        <ele>21</ele>
        <time>2021-02-06T14:24:55Z</time>
      </trkpt>
      <trkpt lat="47.42729" lon="-0.52689">
        <ele>21</ele>
        <time>2021-02-06T14:24:55Z</time>
      </trkpt>
      <trkpt lat="47.42736" lon="-0.52694">
        <ele>21</ele>
        <time>2021-02-06T14:24:56Z</time>
      </trkpt>
      <trkpt lat="47.4274" lon="-0.52697">
        <ele>21</ele>
        <time>2021-02-06T14:24:57Z</time>
      </trkpt>
      <trkpt lat="47.42772" lon="-0.52719">
        <ele>22</ele>
        <time>2021-02-06T14:25:04Z</time>
      </trkpt>
      <trkpt lat="47.42799" lon="-0.52736">
        <ele>23</ele>
        <time>2021-02-06T14:25:09Z</time>
      </trkpt>
      <trkpt lat="47.42824" lon="-0.52749">
        <ele>23</ele>
        <time>2021-02-06T14:25:14Z</time>
      </trkpt>
      <trkpt lat="47.42854" lon="-0.52765">
        <ele>22</ele>
        <time>2021-02-06T14:25:19Z</time>
      </trkpt>
      <trkpt lat="47.42869" lon="-0.52771">
        <ele>22</ele>
        <time>2021-02-06T14:25:22Z</time>
      </trkpt>
      <trkpt lat="47.42886" lon="-0.52778">
        <ele>21</ele>
        <time>2021-02-06T14:25:25Z</time>
      </trkpt>
      <trkpt lat="47.42905" lon="-0.52787">
        <ele>21</ele>
        <time>2021-02-06T14:25:29Z</time>
      </trkpt>
      <trkpt lat="47.42914" lon="-0.52788">
        <ele>21</ele>
        <time>2021-02-06T14:25:30Z</time>
      </trkpt>
      <trkpt lat="47.4293" lon="-0.5279">
        <ele>21</ele>
        <time>2021-02-06T14:25:33Z</time>
      </trkpt>
      <trkpt lat="47.42947" lon="-0.52792">
        <ele>21</ele>
        <time>2021-02-06T14:25:36Z</time>
      </trkpt>
      <trkpt lat="47.4296" lon="-0.52792">
        <ele>20</ele>
        <time>2021-02-06T14:25:38Z</time>
      </trkpt>
      <trkpt lat="47.42961" lon="-0.52792">
        <ele>20</ele>
        <time>2021-02-06T14:25:39Z</time>
      </trkpt>
      <trkpt lat="47.42983" lon="-0.52796">
        <ele>20</ele>
        <time>2021-02-06T14:25:43Z</time>
      </trkpt>
      <trkpt lat="47.42996" lon="-0.52799">
        <ele>20</ele>
        <time>2021-02-06T14:25:45Z</time>
      </trkpt>
      <trkpt lat="47.43045" lon="-0.52817">
        <ele>19</ele>
        <time>2021-02-06T14:25:54Z</time>
      </trkpt>
      <trkpt lat="47.43045" lon="-0.52817">
        <ele>19</ele>
        <time>2021-02-06T14:25:54Z</time>
      </trkpt>
      <trkpt lat="47.43047" lon="-0.52817">
        <ele>19</ele>
        <time>2021-02-06T14:25:54Z</time>
      </trkpt>
      <trkpt lat="47.43049" lon="-0.52818">
        <ele>19</ele>
        <time>2021-02-06T14:25:55Z</time>
      </trkpt>
      <trkpt lat="47.43054" lon="-0.5282">
        <ele>19</ele>
        <time>2021-02-06T14:25:56Z</time>
      </trkpt>
      <trkpt lat="47.43074" lon="-0.52827">
        <ele>19</ele>
        <time>2021-02-06T14:25:59Z</time>
      </trkpt>
      <trkpt lat="47.4308" lon="-0.52829">
        <ele>19</ele>
        <time>2021-02-06T14:26:00Z</time>
      </trkpt>
      <trkpt lat="47.43082" lon="-0.5283">
        <ele>19</ele>
        <time>2021-02-06T14:26:01Z</time>
      </trkpt>
      <trkpt lat="47.43146" lon="-0.52852">
        <ele>21</ele>
        <time>2021-02-06T14:26:12Z</time>
      </trkpt>
      <trkpt lat="47.43166" lon="-0.5286">
        <ele>21</ele>
        <time>2021-02-06T14:26:16Z</time>
      </trkpt>
      <trkpt lat="47.43208" lon="-0.52883">
        <ele>22</ele>
        <time>2021-02-06T14:26:24Z</time>
      </trkpt>
      <trkpt lat="47.4331" lon="-0.52938">
        <ele>21</ele>
        <time>2021-02-06T14:26:43Z</time>
      </trkpt>
      <trkpt lat="47.4331" lon="-0.52938">
        <ele>21</ele>
        <time>2021-02-06T14:26:43Z</time>
      </trkpt>
      <trkpt lat="47.4335" lon="-0.52919">
        <ele>21</ele>
        <time>2021-02-06T14:26:51Z</time>
      </trkpt>
      <trkpt lat="47.4335" lon="-0.52919">
        <ele>21</ele>
        <time>2021-02-06T14:26:51Z</time>
      </trkpt>
      <trkpt lat="47.43359" lon="-0.52911">
        <ele>21</ele>
        <time>2021-02-06T14:26:53Z</time>
      </trkpt>
      <trkpt lat="47.43365" lon="-0.5291">
        <ele>21</ele>
        <time>2021-02-06T14:26:54Z</time>
      </trkpt>
      <trkpt lat="47.43368" lon="-0.5291">
        <ele>21</ele>
        <time>2021-02-06T14:26:54Z</time>
      </trkpt>
      <trkpt lat="47.4337" lon="-0.52911">
        <ele>21</ele>
        <time>2021-02-06T14:26:55Z</time>
      </trkpt>
      <trkpt lat="47.43372" lon="-0.52911">
        <ele>21</ele>
        <time>2021-02-06T14:26:55Z</time>
      </trkpt>
      <trkpt lat="47.43373" lon="-0.52912">
        <ele>21</ele>
        <time>2021-02-06T14:26:55Z</time>
      </trkpt>
      <trkpt lat="47.43375" lon="-0.52914">
        <ele>21</ele>
        <time>2021-02-06T14:26:56Z</time>
      </trkpt>
      <trkpt lat="47.43378" lon="-0.52917">
        <ele>22</ele>
        <time>2021-02-06T14:26:56Z</time>
      </trkpt>
      <trkpt lat="47.4338" lon="-0.52924">
        <ele>22</ele>
        <time>2021-02-06T14:26:57Z</time>
      </trkpt>
      <trkpt lat="47.43381" lon="-0.52926">
        <ele>22</ele>
        <time>2021-02-06T14:26:58Z</time>
      </trkpt>
      <trkpt lat="47.43385" lon="-0.52925">
        <ele>22</ele>
        <time>2021-02-06T14:26:58Z</time>
      </trkpt>
      <trkpt lat="47.43387" lon="-0.52926">
        <ele>22</ele>
        <time>2021-02-06T14:26:59Z</time>
      </trkpt>
      <trkpt lat="47.4339" lon="-0.52928">
        <ele>22</ele>
        <time>2021-02-06T14:26:59Z</time>
      </trkpt>
      <trkpt lat="47.43395" lon="-0.52932">
        <ele>22</ele>
        <time>2021-02-06T14:27:00Z</time>
      </trkpt>
      <trkpt lat="47.43398" lon="-0.52936">
        <ele>22</ele>
        <time>2021-02-06T14:27:01Z</time>
      </trkpt>
      <trkpt lat="47.43412" lon="-0.52956">
        <ele>21</ele>
        <time>2021-02-06T14:27:04Z</time>
      </trkpt>
      <trkpt lat="47.43439" lon="-0.52995">
        <ele>21</ele>
        <time>2021-02-06T14:27:11Z</time>
      </trkpt>
      <trkpt lat="47.43451" lon="-0.53008">
        <ele>21</ele>
        <time>2021-02-06T14:27:14Z</time>
      </trkpt>
      <trkpt lat="47.43464" lon="-0.53021">
        <ele>21</ele>
        <time>2021-02-06T14:27:17Z</time>
      </trkpt>
      <trkpt lat="47.43464" lon="-0.53021">
        <ele>21</ele>
        <time>2021-02-06T14:27:17Z</time>
      </trkpt>
      <trkpt lat="47.43532" lon="-0.53059">
        <ele>21</ele>
        <time>2021-02-06T14:27:29Z</time>
      </trkpt>
      <trkpt lat="47.4357" lon="-0.53078">
        <ele>20</ele>
        <time>2021-02-06T14:27:37Z</time>
      </trkpt>
      <trkpt lat="47.43573" lon="-0.53079">
        <ele>20</ele>
        <time>2021-02-06T14:27:37Z</time>
      </trkpt>
      <trkpt lat="47.43602" lon="-0.53089">
        <ele>20</ele>
        <time>2021-02-06T14:27:42Z</time>
      </trkpt>
      <trkpt lat="47.43611" lon="-0.53093">
        <ele>20</ele>
        <time>2021-02-06T14:27:44Z</time>
      </trkpt>
      <trkpt lat="47.43618" lon="-0.53095">
        <ele>20</ele>
        <time>2021-02-06T14:27:45Z</time>
      </trkpt>
      <trkpt lat="47.43628" lon="-0.53095">
        <ele>21</ele>
        <time>2021-02-06T14:27:47Z</time>
      </trkpt>
      <trkpt lat="47.43665" lon="-0.53109">
        <ele>21</ele>
        <time>2021-02-06T14:27:54Z</time>
      </trkpt>
      <trkpt lat="47.43675" lon="-0.53112">
        <ele>21</ele>
        <time>2021-02-06T14:27:56Z</time>
      </trkpt>
      <trkpt lat="47.4368" lon="-0.53113">
        <ele>21</ele>
        <time>2021-02-06T14:27:57Z</time>
      </trkpt>
      <trkpt lat="47.43685" lon="-0.53121">
        <ele>21</ele>
        <time>2021-02-06T14:27:58Z</time>
      </trkpt>
      <trkpt lat="47.4369" lon="-0.53123">
        <ele>21</ele>
        <time>2021-02-06T14:27:59Z</time>
      </trkpt>
      <trkpt lat="47.43712" lon="-0.53132">
        <ele>21</ele>
        <time>2021-02-06T14:28:03Z</time>
      </trkpt>
      <trkpt lat="47.43725" lon="-0.53138">
        <ele>21</ele>
        <time>2021-02-06T14:28:05Z</time>
      </trkpt>
      <trkpt lat="47.4374" lon="-0.53144">
        <ele>21</ele>
        <time>2021-02-06T14:28:08Z</time>
      </trkpt>
      <trkpt lat="47.43804" lon="-0.53176">
        <ele>22</ele>
        <time>2021-02-06T14:28:20Z</time>
      </trkpt>
      <trkpt lat="47.43827" lon="-0.53191">
        <ele>21</ele>
        <time>2021-02-06T14:28:25Z</time>
      </trkpt>
      <trkpt lat="47.43875" lon="-0.53223">
        <ele>22</ele>
        <time>2021-02-06T14:28:34Z</time>
      </trkpt>
      <trkpt lat="47.43902" lon="-0.53242">
        <ele>23</ele>
        <time>2021-02-06T14:28:39Z</time>
      </trkpt>
      <trkpt lat="47.43971" lon="-0.533">
        <ele>24</ele>
        <time>2021-02-06T14:28:53Z</time>
      </trkpt>
      <trkpt lat="47.44096" lon="-0.5341">
        <ele>25</ele>
        <time>2021-02-06T14:29:19Z</time>
      </trkpt>
      <trkpt lat="47.44107" lon="-0.53419">
        <ele>25</ele>
        <time>2021-02-06T14:29:22Z</time>
      </trkpt>
      <trkpt lat="47.44125" lon="-0.5343">
        <ele>26</ele>
        <time>2021-02-06T14:29:25Z</time>
      </trkpt>
      <trkpt lat="47.44131" lon="-0.53434">
        <ele>26</ele>
        <time>2021-02-06T14:29:26Z</time>
      </trkpt>
      <trkpt lat="47.44143" lon="-0.5344">
        <ele>26</ele>
        <time>2021-02-06T14:29:29Z</time>
      </trkpt>
      <trkpt lat="47.44164" lon="-0.53451">
        <ele>26</ele>
        <time>2021-02-06T14:29:32Z</time>
      </trkpt>
      <trkpt lat="47.4421" lon="-0.53478">
        <ele>28</ele>
        <time>2021-02-06T14:29:41Z</time>
      </trkpt>
      <trkpt lat="47.44214" lon="-0.53477">
        <ele>28</ele>
        <time>2021-02-06T14:29:42Z</time>
      </trkpt>
      <trkpt lat="47.4422" lon="-0.53479">
        <ele>28</ele>
        <time>2021-02-06T14:29:43Z</time>
      </trkpt>
      <trkpt lat="47.4423" lon="-0.53484">
        <ele>28</ele>
        <time>2021-02-06T14:29:45Z</time>
      </trkpt>
      <trkpt lat="47.44275" lon="-0.53507">
        <ele>30</ele>
        <time>2021-02-06T14:29:53Z</time>
      </trkpt>
      <trkpt lat="47.44292" lon="-0.53513">
        <ele>30</ele>
        <time>2021-02-06T14:29:57Z</time>
      </trkpt>
      <trkpt lat="47.44317" lon="-0.53519">
        <ele>31</ele>
        <time>2021-02-06T14:30:01Z</time>
      </trkpt>
      <trkpt lat="47.4432" lon="-0.5352">
        <ele>31</ele>
        <time>2021-02-06T14:30:02Z</time>
      </trkpt>
      <trkpt lat="47.44336" lon="-0.53522">
        <ele>31</ele>
        <time>2021-02-06T14:30:04Z</time>
      </trkpt>
      <trkpt lat="47.44355" lon="-0.53521">
        <ele>31</ele>
        <time>2021-02-06T14:30:08Z</time>
      </trkpt>
      <trkpt lat="47.44366" lon="-0.5352">
        <ele>32</ele>
        <time>2021-02-06T14:30:10Z</time>
      </trkpt>
      <trkpt lat="47.44375" lon="-0.53518">
        <ele>32</ele>
        <time>2021-02-06T14:30:11Z</time>
      </trkpt>
      <trkpt lat="47.44397" lon="-0.53514">
        <ele>32</ele>
        <time>2021-02-06T14:30:15Z</time>
      </trkpt>
      <trkpt lat="47.444" lon="-0.53513">
        <ele>32</ele>
        <time>2021-02-06T14:30:16Z</time>
      </trkpt>
      <trkpt lat="47.44407" lon="-0.53512">
        <ele>33</ele>
        <time>2021-02-06T14:30:17Z</time>
      </trkpt>
      <trkpt lat="47.44416" lon="-0.53511">
        <ele>33</ele>
        <time>2021-02-06T14:30:19Z</time>
      </trkpt>
      <trkpt lat="47.4442" lon="-0.53511">
        <ele>33</ele>
        <time>2021-02-06T14:30:19Z</time>
      </trkpt>
      <trkpt lat="47.44426" lon="-0.5351">
        <ele>33</ele>
        <time>2021-02-06T14:30:21Z</time>
      </trkpt>
      <trkpt lat="47.44433" lon="-0.5351">
        <ele>33</ele>
        <time>2021-02-06T14:30:22Z</time>
      </trkpt>
      <trkpt lat="47.44442" lon="-0.5351">
        <ele>33</ele>
        <time>2021-02-06T14:30:23Z</time>
      </trkpt>
      <trkpt lat="47.44449" lon="-0.53512">
        <ele>33</ele>
        <time>2021-02-06T14:30:25Z</time>
      </trkpt>
      <trkpt lat="47.4446" lon="-0.53515">
        <ele>33</ele>
        <time>2021-02-06T14:30:27Z</time>
      </trkpt>
      <trkpt lat="47.44469" lon="-0.53519">
        <ele>33</ele>
        <time>2021-02-06T14:30:28Z</time>
      </trkpt>
      <trkpt lat="47.4448" lon="-0.53525">
        <ele>33</ele>
        <time>2021-02-06T14:30:30Z</time>
      </trkpt>
      <trkpt lat="47.44488" lon="-0.53532">
        <ele>33</ele>
        <time>2021-02-06T14:30:32Z</time>
      </trkpt>
      <trkpt lat="47.44498" lon="-0.53542">
        <ele>33</ele>
        <time>2021-02-06T14:30:34Z</time>
      </trkpt>
      <trkpt lat="47.44503" lon="-0.53548">
        <ele>33</ele>
        <time>2021-02-06T14:30:35Z</time>
      </trkpt>
      <trkpt lat="47.44505" lon="-0.53551">
        <ele>33</ele>
        <time>2021-02-06T14:30:36Z</time>
      </trkpt>
      <trkpt lat="47.44505" lon="-0.53551">
        <ele>33</ele>
        <time>2021-02-06T14:30:36Z</time>
      </trkpt>
      <trkpt lat="47.44516" lon="-0.53569">
        <ele>33</ele>
        <time>2021-02-06T14:30:39Z</time>
      </trkpt>
      <trkpt lat="47.44529" lon="-0.53587">
        <ele>33</ele>
        <time>2021-02-06T14:30:42Z</time>
      </trkpt>
      <trkpt lat="47.44549" lon="-0.53618">
        <ele>34</ele>
        <time>2021-02-06T14:30:47Z</time>
      </trkpt>
      <trkpt lat="47.44552" lon="-0.53622">
        <ele>34</ele>
        <time>2021-02-06T14:30:48Z</time>
      </trkpt>
      <trkpt lat="47.44555" lon="-0.53627">
        <ele>34</ele>
        <time>2021-02-06T14:30:49Z</time>
      </trkpt>
      <trkpt lat="47.44558" lon="-0.53629">
        <ele>34</ele>
        <time>2021-02-06T14:30:49Z</time>
      </trkpt>
      <trkpt lat="47.4456" lon="-0.53631">
        <ele>34</ele>
        <time>2021-02-06T14:30:50Z</time>
      </trkpt>
      <trkpt lat="47.44564" lon="-0.53635">
        <ele>34</ele>
        <time>2021-02-06T14:30:51Z</time>
      </trkpt>
      <trkpt lat="47.44576" lon="-0.53646">
        <ele>34</ele>
        <time>2021-02-06T14:30:53Z</time>
      </trkpt>
      <trkpt lat="47.44591" lon="-0.53662">
        <ele>34</ele>
        <time>2021-02-06T14:30:56Z</time>
      </trkpt>
      <trkpt lat="47.44591" lon="-0.53662">
        <ele>34</ele>
        <time>2021-02-06T14:30:56Z</time>
      </trkpt>
      <trkpt lat="47.44623" lon="-0.53682">
        <ele>34</ele>
        <time>2021-02-06T14:31:02Z</time>
      </trkpt>
      <trkpt lat="47.44623" lon="-0.53682">
        <ele>34</ele>
        <time>2021-02-06T14:31:02Z</time>
      </trkpt>
      <trkpt lat="47.44647" lon="-0.53697">
        <ele>35</ele>
        <time>2021-02-06T14:31:07Z</time>
      </trkpt>
      <trkpt lat="47.44676" lon="-0.53715">
        <ele>36</ele>
        <time>2021-02-06T14:31:13Z</time>
      </trkpt>
      <trkpt lat="47.44698" lon="-0.53729">
        <ele>36</ele>
        <time>2021-02-06T14:31:17Z</time>
      </trkpt>
      <trkpt lat="47.44795" lon="-0.53788">
        <ele>36</ele>
        <time>2021-02-06T14:31:36Z</time>
      </trkpt>
      <trkpt lat="47.44805" lon="-0.53794">
        <ele>35</ele>
        <time>2021-02-06T14:31:38Z</time>
      </trkpt>
      <trkpt lat="47.44815" lon="-0.53799">
        <ele>35</ele>
        <time>2021-02-06T14:31:39Z</time>
      </trkpt>
      <trkpt lat="47.44825" lon="-0.53803">
        <ele>35</ele>
        <time>2021-02-06T14:31:41Z</time>
      </trkpt>
      <trkpt lat="47.44825" lon="-0.53803">
        <ele>35</ele>
        <time>2021-02-06T14:31:41Z</time>
      </trkpt>
      <trkpt lat="47.44827" lon="-0.53801">
        <ele>35</ele>
        <time>2021-02-06T14:31:42Z</time>
      </trkpt>
      <trkpt lat="47.44829" lon="-0.53799">
        <ele>35</ele>
        <time>2021-02-06T14:31:42Z</time>
      </trkpt>
      <trkpt lat="47.4483" lon="-0.53798">
        <ele>35</ele>
        <time>2021-02-06T14:31:42Z</time>
      </trkpt>
      <trkpt lat="47.44832" lon="-0.53796">
        <ele>35</ele>
        <time>2021-02-06T14:31:43Z</time>
      </trkpt>
      <trkpt lat="47.44834" lon="-0.53795">
        <ele>35</ele>
        <time>2021-02-06T14:31:43Z</time>
      </trkpt>
      <trkpt lat="47.44836" lon="-0.53794">
        <ele>35</ele>
        <time>2021-02-06T14:31:44Z</time>
      </trkpt>
      <trkpt lat="47.44838" lon="-0.53794">
        <ele>35</ele>
        <time>2021-02-06T14:31:44Z</time>
      </trkpt>
      <trkpt lat="47.4484" lon="-0.53793">
        <ele>35</ele>
        <time>2021-02-06T14:31:44Z</time>
      </trkpt>
      <trkpt lat="47.44845" lon="-0.53793">
        <ele>35</ele>
        <time>2021-02-06T14:31:45Z</time>
      </trkpt>
      <trkpt lat="47.44848" lon="-0.53794">
        <ele>36</ele>
        <time>2021-02-06T14:31:46Z</time>
      </trkpt>
      <trkpt lat="47.44851" lon="-0.53795">
        <ele>36</ele>
        <time>2021-02-06T14:31:46Z</time>
      </trkpt>
      <trkpt lat="47.44854" lon="-0.53797">
        <ele>36</ele>
        <time>2021-02-06T14:31:47Z</time>
      </trkpt>
      <trkpt lat="47.44856" lon="-0.53799">
        <ele>36</ele>
        <time>2021-02-06T14:31:47Z</time>
      </trkpt>
      <trkpt lat="47.44858" lon="-0.53801">
        <ele>36</ele>
        <time>2021-02-06T14:31:48Z</time>
      </trkpt>
      <trkpt lat="47.4486" lon="-0.53804">
        <ele>36</ele>
        <time>2021-02-06T14:31:48Z</time>
      </trkpt>
      <trkpt lat="47.44862" lon="-0.53807">
        <ele>36</ele>
        <time>2021-02-06T14:31:49Z</time>
      </trkpt>
      <trkpt lat="47.44863" lon="-0.53808">
        <ele>36</ele>
        <time>2021-02-06T14:31:49Z</time>
      </trkpt>
      <trkpt lat="47.44864" lon="-0.5381">
        <ele>36</ele>
        <time>2021-02-06T14:31:49Z</time>
      </trkpt>
      <trkpt lat="47.44864" lon="-0.53812">
        <ele>36</ele>
        <time>2021-02-06T14:31:49Z</time>
      </trkpt>
      <trkpt lat="47.44865" lon="-0.53813">
        <ele>36</ele>
        <time>2021-02-06T14:31:50Z</time>
      </trkpt>
      <trkpt lat="47.44865" lon="-0.53815">
        <ele>36</ele>
        <time>2021-02-06T14:31:50Z</time>
      </trkpt>
      <trkpt lat="47.44866" lon="-0.53817">
        <ele>36</ele>
        <time>2021-02-06T14:31:50Z</time>
      </trkpt>
      <trkpt lat="47.44866" lon="-0.53819">
        <ele>36</ele>
        <time>2021-02-06T14:31:50Z</time>
      </trkpt>
      <trkpt lat="47.44867" lon="-0.53821">
        <ele>36</ele>
        <time>2021-02-06T14:31:51Z</time>
      </trkpt>
      <trkpt lat="47.44871" lon="-0.5383">
        <ele>36</ele>
        <time>2021-02-06T14:31:52Z</time>
      </trkpt>
      <trkpt lat="47.44873" lon="-0.53833">
        <ele>36</ele>
        <time>2021-02-06T14:31:53Z</time>
      </trkpt>
      <trkpt lat="47.44874" lon="-0.53835">
        <ele>36</ele>
        <time>2021-02-06T14:31:53Z</time>
      </trkpt>
      <trkpt lat="47.44876" lon="-0.53837">
        <ele>36</ele>
        <time>2021-02-06T14:31:53Z</time>
      </trkpt>
      <trkpt lat="47.44878" lon="-0.5384">
        <ele>36</ele>
        <time>2021-02-06T14:31:54Z</time>
      </trkpt>
      <trkpt lat="47.4488" lon="-0.53842">
        <ele>36</ele>
        <time>2021-02-06T14:31:54Z</time>
      </trkpt>
      <trkpt lat="47.44884" lon="-0.53845">
        <ele>36</ele>
        <time>2021-02-06T14:31:55Z</time>
      </trkpt>
      <trkpt lat="47.44905" lon="-0.53858">
        <ele>37</ele>
        <time>2021-02-06T14:31:59Z</time>
      </trkpt>
      <trkpt lat="47.44953" lon="-0.53887">
        <ele>38</ele>
        <time>2021-02-06T14:32:08Z</time>
      </trkpt>
      <trkpt lat="47.45192" lon="-0.54034">
        <ele>38</ele>
        <time>2021-02-06T14:32:54Z</time>
      </trkpt>
      <trkpt lat="47.452" lon="-0.54039">
        <ele>38</ele>
        <time>2021-02-06T14:32:56Z</time>
      </trkpt>
      <trkpt lat="47.45212" lon="-0.54045">
        <ele>38</ele>
        <time>2021-02-06T14:32:58Z</time>
      </trkpt>
      <trkpt lat="47.45219" lon="-0.54048">
        <ele>37</ele>
        <time>2021-02-06T14:32:59Z</time>
      </trkpt>
      <trkpt lat="47.45221" lon="-0.54048">
        <ele>37</ele>
        <time>2021-02-06T14:33:00Z</time>
      </trkpt>
      <trkpt lat="47.45228" lon="-0.54051">
        <ele>37</ele>
        <time>2021-02-06T14:33:01Z</time>
      </trkpt>
      <trkpt lat="47.45239" lon="-0.54054">
        <ele>36</ele>
        <time>2021-02-06T14:33:03Z</time>
      </trkpt>
      <trkpt lat="47.45245" lon="-0.54057">
        <ele>36</ele>
        <time>2021-02-06T14:33:04Z</time>
      </trkpt>
      <trkpt lat="47.45251" lon="-0.54059">
        <ele>36</ele>
        <time>2021-02-06T14:33:05Z</time>
      </trkpt>
      <trkpt lat="47.45255" lon="-0.54062">
        <ele>36</ele>
        <time>2021-02-06T14:33:06Z</time>
      </trkpt>
      <trkpt lat="47.45255" lon="-0.54062">
        <ele>36</ele>
        <time>2021-02-06T14:33:06Z</time>
      </trkpt>
      <trkpt lat="47.45256" lon="-0.54062">
        <ele>36</ele>
        <time>2021-02-06T14:33:06Z</time>
      </trkpt>
      <trkpt lat="47.45257" lon="-0.54061">
        <ele>36</ele>
        <time>2021-02-06T14:33:07Z</time>
      </trkpt>
      <trkpt lat="47.45258" lon="-0.54061">
        <ele>36</ele>
        <time>2021-02-06T14:33:07Z</time>
      </trkpt>
      <trkpt lat="47.45258" lon="-0.5406">
        <ele>36</ele>
        <time>2021-02-06T14:33:07Z</time>
      </trkpt>
      <trkpt lat="47.45259" lon="-0.5406">
        <ele>36</ele>
        <time>2021-02-06T14:33:07Z</time>
      </trkpt>
      <trkpt lat="47.4526" lon="-0.5406">
        <ele>36</ele>
        <time>2021-02-06T14:33:07Z</time>
      </trkpt>
      <trkpt lat="47.45261" lon="-0.54059">
        <ele>36</ele>
        <time>2021-02-06T14:33:07Z</time>
      </trkpt>
      <trkpt lat="47.45262" lon="-0.54059">
        <ele>36</ele>
        <time>2021-02-06T14:33:08Z</time>
      </trkpt>
      <trkpt lat="47.45263" lon="-0.54059">
        <ele>36</ele>
        <time>2021-02-06T14:33:08Z</time>
      </trkpt>
      <trkpt lat="47.45264" lon="-0.54059">
        <ele>36</ele>
        <time>2021-02-06T14:33:08Z</time>
      </trkpt>
      <trkpt lat="47.45265" lon="-0.54059">
        <ele>36</ele>
        <time>2021-02-06T14:33:08Z</time>
      </trkpt>
      <trkpt lat="47.45266" lon="-0.5406">
        <ele>36</ele>
        <time>2021-02-06T14:33:08Z</time>
      </trkpt>
      <trkpt lat="47.45268" lon="-0.5406">
        <ele>36</ele>
        <time>2021-02-06T14:33:09Z</time>
      </trkpt>
      <trkpt lat="47.45269" lon="-0.54061">
        <ele>36</ele>
        <time>2021-02-06T14:33:09Z</time>
      </trkpt>
      <trkpt lat="47.4527" lon="-0.54061">
        <ele>36</ele>
        <time>2021-02-06T14:33:09Z</time>
      </trkpt>
      <trkpt lat="47.45271" lon="-0.54062">
        <ele>36</ele>
        <time>2021-02-06T14:33:09Z</time>
      </trkpt>
      <trkpt lat="47.45272" lon="-0.54063">
        <ele>36</ele>
        <time>2021-02-06T14:33:10Z</time>
      </trkpt>
      <trkpt lat="47.45273" lon="-0.54064">
        <ele>36</ele>
        <time>2021-02-06T14:33:10Z</time>
      </trkpt>
      <trkpt lat="47.45273" lon="-0.54065">
        <ele>36</ele>
        <time>2021-02-06T14:33:10Z</time>
      </trkpt>
      <trkpt lat="47.45274" lon="-0.54066">
        <ele>36</ele>
        <time>2021-02-06T14:33:10Z</time>
      </trkpt>
      <trkpt lat="47.45275" lon="-0.54067">
        <ele>37</ele>
        <time>2021-02-06T14:33:10Z</time>
      </trkpt>
      <trkpt lat="47.45276" lon="-0.54068">
        <ele>37</ele>
        <time>2021-02-06T14:33:10Z</time>
      </trkpt>
      <trkpt lat="47.45276" lon="-0.5407">
        <ele>37</ele>
        <time>2021-02-06T14:33:11Z</time>
      </trkpt>
      <trkpt lat="47.45277" lon="-0.54072">
        <ele>37</ele>
        <time>2021-02-06T14:33:11Z</time>
      </trkpt>
      <trkpt lat="47.45278" lon="-0.54073">
        <ele>37</ele>
        <time>2021-02-06T14:33:11Z</time>
      </trkpt>
      <trkpt lat="47.45278" lon="-0.54074">
        <ele>37</ele>
        <time>2021-02-06T14:33:11Z</time>
      </trkpt>
      <trkpt lat="47.45278" lon="-0.54075">
        <ele>37</ele>
        <time>2021-02-06T14:33:11Z</time>
      </trkpt>
      <trkpt lat="47.45278" lon="-0.54076">
        <ele>37</ele>
        <time>2021-02-06T14:33:12Z</time>
      </trkpt>
      <trkpt lat="47.45279" lon="-0.54077">
        <ele>37</ele>
        <time>2021-02-06T14:33:12Z</time>
      </trkpt>
      <trkpt lat="47.45279" lon="-0.54078">
        <ele>37</ele>
        <time>2021-02-06T14:33:12Z</time>
      </trkpt>
      <trkpt lat="47.45279" lon="-0.5408">
        <ele>37</ele>
        <time>2021-02-06T14:33:12Z</time>
      </trkpt>
      <trkpt lat="47.45279" lon="-0.54081">
        <ele>37</ele>
        <time>2021-02-06T14:33:12Z</time>
      </trkpt>
      <trkpt lat="47.45285" lon="-0.54084">
        <ele>37</ele>
        <time>2021-02-06T14:33:13Z</time>
      </trkpt>
      <trkpt lat="47.45292" lon="-0.54091">
        <ele>37</ele>
        <time>2021-02-06T14:33:15Z</time>
      </trkpt>
      <trkpt lat="47.45302" lon="-0.54101">
        <ele>37</ele>
        <time>2021-02-06T14:33:17Z</time>
      </trkpt>
      <trkpt lat="47.45315" lon="-0.54113">
        <ele>37</ele>
        <time>2021-02-06T14:33:20Z</time>
      </trkpt>
      <trkpt lat="47.45329" lon="-0.54123">
        <ele>37</ele>
        <time>2021-02-06T14:33:23Z</time>
      </trkpt>
      <trkpt lat="47.4562" lon="-0.54326">
        <ele>38</ele>
        <time>2021-02-06T14:34:20Z</time>
      </trkpt>
      <trkpt lat="47.45625" lon="-0.54329">
        <ele>38</ele>
        <time>2021-02-06T14:34:21Z</time>
      </trkpt>
      <trkpt lat="47.4568" lon="-0.54369">
        <ele>38</ele>
        <time>2021-02-06T14:34:32Z</time>
      </trkpt>
      <trkpt lat="47.45734" lon="-0.5441">
        <ele>38</ele>
        <time>2021-02-06T14:34:42Z</time>
      </trkpt>
      <trkpt lat="47.45749" lon="-0.54421">
        <ele>38</ele>
        <time>2021-02-06T14:34:45Z</time>
      </trkpt>
      <trkpt lat="47.45758" lon="-0.54426">
        <ele>38</ele>
        <time>2021-02-06T14:34:47Z</time>
      </trkpt>
      <trkpt lat="47.4578" lon="-0.54438">
        <ele>38</ele>
        <time>2021-02-06T14:34:51Z</time>
      </trkpt>
      <trkpt lat="47.4578" lon="-0.54438">
        <ele>38</ele>
        <time>2021-02-06T14:34:51Z</time>
      </trkpt>
      <trkpt lat="47.4578" lon="-0.54435">
        <ele>38</ele>
        <time>2021-02-06T14:34:52Z</time>
      </trkpt>
      <trkpt lat="47.4578" lon="-0.54434">
        <ele>38</ele>
        <time>2021-02-06T14:34:52Z</time>
      </trkpt>
      <trkpt lat="47.45781" lon="-0.54432">
        <ele>38</ele>
        <time>2021-02-06T14:34:52Z</time>
      </trkpt>
      <trkpt lat="47.45782" lon="-0.5443">
        <ele>38</ele>
        <time>2021-02-06T14:34:52Z</time>
      </trkpt>
      <trkpt lat="47.45784" lon="-0.54429">
        <ele>38</ele>
        <time>2021-02-06T14:34:53Z</time>
      </trkpt>
      <trkpt lat="47.45786" lon="-0.54428">
        <ele>38</ele>
        <time>2021-02-06T14:34:53Z</time>
      </trkpt>
      <trkpt lat="47.45788" lon="-0.54428">
        <ele>38</ele>
        <time>2021-02-06T14:34:54Z</time>
      </trkpt>
      <trkpt lat="47.45791" lon="-0.54428">
        <ele>38</ele>
        <time>2021-02-06T14:34:54Z</time>
      </trkpt>
      <trkpt lat="47.45794" lon="-0.54429">
        <ele>38</ele>
        <time>2021-02-06T14:34:55Z</time>
      </trkpt>
      <trkpt lat="47.45797" lon="-0.54432">
        <ele>38</ele>
        <time>2021-02-06T14:34:55Z</time>
      </trkpt>
      <trkpt lat="47.45817" lon="-0.54458">
        <ele>37</ele>
        <time>2021-02-06T14:35:00Z</time>
      </trkpt>
      <trkpt lat="47.45834" lon="-0.5448">
        <ele>37</ele>
        <time>2021-02-06T14:35:04Z</time>
      </trkpt>
      <trkpt lat="47.45836" lon="-0.54482">
        <ele>37</ele>
        <time>2021-02-06T14:35:04Z</time>
      </trkpt>
      <trkpt lat="47.45837" lon="-0.54484">
        <ele>37</ele>
        <time>2021-02-06T14:35:05Z</time>
      </trkpt>
      <trkpt lat="47.45837" lon="-0.54487">
        <ele>37</ele>
        <time>2021-02-06T14:35:05Z</time>
      </trkpt>
      <trkpt lat="47.45854" lon="-0.54497">
        <ele>37</ele>
        <time>2021-02-06T14:35:08Z</time>
      </trkpt>
      <trkpt lat="47.45869" lon="-0.54508">
        <ele>38</ele>
        <time>2021-02-06T14:35:11Z</time>
      </trkpt>
      <trkpt lat="47.45883" lon="-0.54516">
        <ele>38</ele>
        <time>2021-02-06T14:35:14Z</time>
      </trkpt>
      <trkpt lat="47.45907" lon="-0.54532">
        <ele>40</ele>
        <time>2021-02-06T14:35:19Z</time>
      </trkpt>
      <trkpt lat="47.45918" lon="-0.54539">
        <ele>40</ele>
        <time>2021-02-06T14:35:21Z</time>
      </trkpt>
      <trkpt lat="47.45919" lon="-0.54542">
        <ele>40</ele>
        <time>2021-02-06T14:35:21Z</time>
      </trkpt>
      <trkpt lat="47.45937" lon="-0.54554">
        <ele>40</ele>
        <time>2021-02-06T14:35:25Z</time>
      </trkpt>
      <trkpt lat="47.45993" lon="-0.54588">
        <ele>39</ele>
        <time>2021-02-06T14:35:36Z</time>
      </trkpt>
      <trkpt lat="47.46124" lon="-0.54667">
        <ele>43</ele>
        <time>2021-02-06T14:36:01Z</time>
      </trkpt>
      <trkpt lat="47.46206" lon="-0.54716">
        <ele>44</ele>
        <time>2021-02-06T14:36:16Z</time>
      </trkpt>
      <trkpt lat="47.46222" lon="-0.54726">
        <ele>44</ele>
        <time>2021-02-06T14:36:20Z</time>
      </trkpt>
      <trkpt lat="47.46235" lon="-0.54734">
        <ele>44</ele>
        <time>2021-02-06T14:36:22Z</time>
      </trkpt>
      <trkpt lat="47.46248" lon="-0.54741">
        <ele>44</ele>
        <time>2021-02-06T14:36:24Z</time>
      </trkpt>
      <trkpt lat="47.46417" lon="-0.54845">
        <ele>46</ele>
        <time>2021-02-06T14:36:57Z</time>
      </trkpt>
      <trkpt lat="47.46422" lon="-0.54846">
        <ele>46</ele>
        <time>2021-02-06T14:36:58Z</time>
      </trkpt>
      <trkpt lat="47.46431" lon="-0.54849">
        <ele>46</ele>
        <time>2021-02-06T14:37:00Z</time>
      </trkpt>
      <trkpt lat="47.46469" lon="-0.54874">
        <ele>46</ele>
        <time>2021-02-06T14:37:07Z</time>
      </trkpt>
      <trkpt lat="47.46469" lon="-0.54874">
        <ele>46</ele>
        <time>2021-02-06T14:37:07Z</time>
      </trkpt>
      <trkpt lat="47.4647" lon="-0.54873">
        <ele>46</ele>
        <time>2021-02-06T14:37:07Z</time>
      </trkpt>
      <trkpt lat="47.4647" lon="-0.54872">
        <ele>46</ele>
        <time>2021-02-06T14:37:07Z</time>
      </trkpt>
      <trkpt lat="47.46471" lon="-0.54871">
        <ele>46</ele>
        <time>2021-02-06T14:37:08Z</time>
      </trkpt>
      <trkpt lat="47.46471" lon="-0.5487">
        <ele>46</ele>
        <time>2021-02-06T14:37:08Z</time>
      </trkpt>
      <trkpt lat="47.46472" lon="-0.5487">
        <ele>46</ele>
        <time>2021-02-06T14:37:08Z</time>
      </trkpt>
      <trkpt lat="47.46472" lon="-0.54869">
        <ele>46</ele>
        <time>2021-02-06T14:37:08Z</time>
      </trkpt>
      <trkpt lat="47.46473" lon="-0.54869">
        <ele>46</ele>
        <time>2021-02-06T14:37:08Z</time>
      </trkpt>
      <trkpt lat="47.46473" lon="-0.54868">
        <ele>46</ele>
        <time>2021-02-06T14:37:08Z</time>
      </trkpt>
      <trkpt lat="47.46474" lon="-0.54868">
        <ele>46</ele>
        <time>2021-02-06T14:37:08Z</time>
      </trkpt>
      <trkpt lat="47.46475" lon="-0.54867">
        <ele>46</ele>
        <time>2021-02-06T14:37:09Z</time>
      </trkpt>
      <trkpt lat="47.46476" lon="-0.54867">
        <ele>46</ele>
        <time>2021-02-06T14:37:09Z</time>
      </trkpt>
      <trkpt lat="47.46476" lon="-0.54866">
        <ele>46</ele>
        <time>2021-02-06T14:37:09Z</time>
      </trkpt>
      <trkpt lat="47.46477" lon="-0.54866">
        <ele>46</ele>
        <time>2021-02-06T14:37:09Z</time>
      </trkpt>
      <trkpt lat="47.46479" lon="-0.54866">
        <ele>46</ele>
        <time>2021-02-06T14:37:09Z</time>
      </trkpt>
      <trkpt lat="47.4648" lon="-0.54865">
        <ele>46</ele>
        <time>2021-02-06T14:37:10Z</time>
      </trkpt>
      <trkpt lat="47.46481" lon="-0.54865">
        <ele>46</ele>
        <time>2021-02-06T14:37:10Z</time>
      </trkpt>
      <trkpt lat="47.46482" lon="-0.54866">
        <ele>46</ele>
        <time>2021-02-06T14:37:10Z</time>
      </trkpt>
      <trkpt lat="47.46483" lon="-0.54866">
        <ele>46</ele>
        <time>2021-02-06T14:37:10Z</time>
      </trkpt>
      <trkpt lat="47.46484" lon="-0.54866">
        <ele>46</ele>
        <time>2021-02-06T14:37:10Z</time>
      </trkpt>
      <trkpt lat="47.46485" lon="-0.54867">
        <ele>46</ele>
        <time>2021-02-06T14:37:11Z</time>
      </trkpt>
      <trkpt lat="47.46486" lon="-0.54867">
        <ele>46</ele>
        <time>2021-02-06T14:37:11Z</time>
      </trkpt>
      <trkpt lat="47.46486" lon="-0.54868">
        <ele>46</ele>
        <time>2021-02-06T14:37:11Z</time>
      </trkpt>
      <trkpt lat="47.46487" lon="-0.54868">
        <ele>46</ele>
        <time>2021-02-06T14:37:11Z</time>
      </trkpt>
      <trkpt lat="47.46488" lon="-0.54869">
        <ele>46</ele>
        <time>2021-02-06T14:37:11Z</time>
      </trkpt>
      <trkpt lat="47.46489" lon="-0.5487">
        <ele>46</ele>
        <time>2021-02-06T14:37:12Z</time>
      </trkpt>
      <trkpt lat="47.4649" lon="-0.54871">
        <ele>46</ele>
        <time>2021-02-06T14:37:12Z</time>
      </trkpt>
      <trkpt lat="47.4649" lon="-0.54872">
        <ele>46</ele>
        <time>2021-02-06T14:37:12Z</time>
      </trkpt>
      <trkpt lat="47.46491" lon="-0.54873">
        <ele>46</ele>
        <time>2021-02-06T14:37:12Z</time>
      </trkpt>
      <trkpt lat="47.46491" lon="-0.54874">
        <ele>46</ele>
        <time>2021-02-06T14:37:12Z</time>
      </trkpt>
      <trkpt lat="47.46492" lon="-0.54875">
        <ele>46</ele>
        <time>2021-02-06T14:37:12Z</time>
      </trkpt>
      <trkpt lat="47.46492" lon="-0.54876">
        <ele>46</ele>
        <time>2021-02-06T14:37:13Z</time>
      </trkpt>
      <trkpt lat="47.46492" lon="-0.54877">
        <ele>46</ele>
        <time>2021-02-06T14:37:13Z</time>
      </trkpt>
      <trkpt lat="47.46493" lon="-0.54878">
        <ele>46</ele>
        <time>2021-02-06T14:37:13Z</time>
      </trkpt>
      <trkpt lat="47.46493" lon="-0.54879">
        <ele>46</ele>
        <time>2021-02-06T14:37:13Z</time>
      </trkpt>
      <trkpt lat="47.46493" lon="-0.5488">
        <ele>46</ele>
        <time>2021-02-06T14:37:13Z</time>
      </trkpt>
      <trkpt lat="47.46493" lon="-0.54881">
        <ele>46</ele>
        <time>2021-02-06T14:37:13Z</time>
      </trkpt>
      <trkpt lat="47.46494" lon="-0.54883">
        <ele>46</ele>
        <time>2021-02-06T14:37:14Z</time>
      </trkpt>
      <trkpt lat="47.46494" lon="-0.54884">
        <ele>46</ele>
        <time>2021-02-06T14:37:14Z</time>
      </trkpt>
      <trkpt lat="47.46494" lon="-0.54886">
        <ele>46</ele>
        <time>2021-02-06T14:37:14Z</time>
      </trkpt>
      <trkpt lat="47.46494" lon="-0.54887">
        <ele>46</ele>
        <time>2021-02-06T14:37:14Z</time>
      </trkpt>
      <trkpt lat="47.46493" lon="-0.54888">
        <ele>46</ele>
        <time>2021-02-06T14:37:14Z</time>
      </trkpt>
      <trkpt lat="47.46493" lon="-0.54889">
        <ele>46</ele>
        <time>2021-02-06T14:37:14Z</time>
      </trkpt>
      <trkpt lat="47.46493" lon="-0.5489">
        <ele>46</ele>
        <time>2021-02-06T14:37:15Z</time>
      </trkpt>
      <trkpt lat="47.46493" lon="-0.54891">
        <ele>46</ele>
        <time>2021-02-06T14:37:15Z</time>
      </trkpt>
      <trkpt lat="47.46493" lon="-0.54892">
        <ele>46</ele>
        <time>2021-02-06T14:37:15Z</time>
      </trkpt>
      <trkpt lat="47.46492" lon="-0.54894">
        <ele>46</ele>
        <time>2021-02-06T14:37:15Z</time>
      </trkpt>
      <trkpt lat="47.46492" lon="-0.54895">
        <ele>46</ele>
        <time>2021-02-06T14:37:15Z</time>
      </trkpt>
      <trkpt lat="47.46492" lon="-0.54896">
        <ele>46</ele>
        <time>2021-02-06T14:37:15Z</time>
      </trkpt>
      <trkpt lat="47.46491" lon="-0.54898">
        <ele>46</ele>
        <time>2021-02-06T14:37:16Z</time>
      </trkpt>
      <trkpt lat="47.46497" lon="-0.54915">
        <ele>46</ele>
        <time>2021-02-06T14:37:18Z</time>
      </trkpt>
      <trkpt lat="47.46498" lon="-0.54919">
        <ele>46</ele>
        <time>2021-02-06T14:37:18Z</time>
      </trkpt>
      <trkpt lat="47.46506" lon="-0.54939">
        <ele>46</ele>
        <time>2021-02-06T14:37:21Z</time>
      </trkpt>
      <trkpt lat="47.46514" lon="-0.54958">
        <ele>46</ele>
        <time>2021-02-06T14:37:24Z</time>
      </trkpt>
      <trkpt lat="47.46518" lon="-0.54969">
        <ele>46</ele>
        <time>2021-02-06T14:37:25Z</time>
      </trkpt>
      <trkpt lat="47.46543" lon="-0.55033">
        <ele>47</ele>
        <time>2021-02-06T14:37:34Z</time>
      </trkpt>
      <trkpt lat="47.46548" lon="-0.55045">
        <ele>47</ele>
        <time>2021-02-06T14:37:36Z</time>
      </trkpt>
      <trkpt lat="47.46558" lon="-0.5507">
        <ele>48</ele>
        <time>2021-02-06T14:37:39Z</time>
      </trkpt>
      <trkpt lat="47.46566" lon="-0.55093">
        <ele>49</ele>
        <time>2021-02-06T14:37:43Z</time>
      </trkpt>
      <trkpt lat="47.46596" lon="-0.55169">
        <ele>50</ele>
        <time>2021-02-06T14:37:53Z</time>
      </trkpt>
      <trkpt lat="47.46626" lon="-0.55248">
        <ele>52</ele>
        <time>2021-02-06T14:38:04Z</time>
      </trkpt>
      <trkpt lat="47.46628" lon="-0.55254">
        <ele>52</ele>
        <time>2021-02-06T14:38:05Z</time>
      </trkpt>
      <trkpt lat="47.46644" lon="-0.55292">
        <ele>51</ele>
        <time>2021-02-06T14:38:10Z</time>
      </trkpt>
      <trkpt lat="47.46644" lon="-0.55292">
        <ele>51</ele>
        <time>2021-02-06T14:38:10Z</time>
      </trkpt>
      <trkpt lat="47.46648" lon="-0.553">
        <ele>51</ele>
        <time>2021-02-06T14:38:11Z</time>
      </trkpt>
      <trkpt lat="47.46652" lon="-0.55311">
        <ele>51</ele>
        <time>2021-02-06T14:38:13Z</time>
      </trkpt>
      <trkpt lat="47.46686" lon="-0.55403">
        <ele>48</ele>
        <time>2021-02-06T14:38:26Z</time>
      </trkpt>
      <trkpt lat="47.46695" lon="-0.55425">
        <ele>47</ele>
        <time>2021-02-06T14:38:29Z</time>
      </trkpt>
      <trkpt lat="47.46712" lon="-0.55467">
        <ele>48</ele>
        <time>2021-02-06T14:38:35Z</time>
      </trkpt>
      <trkpt lat="47.4675" lon="-0.55564">
        <ele>46</ele>
        <time>2021-02-06T14:38:48Z</time>
      </trkpt>
      <trkpt lat="47.46755" lon="-0.55592">
        <ele>45</ele>
        <time>2021-02-06T14:38:52Z</time>
      </trkpt>
      <trkpt lat="47.46757" lon="-0.55597">
        <ele>44</ele>
        <time>2021-02-06T14:38:52Z</time>
      </trkpt>
      <trkpt lat="47.4677" lon="-0.55631">
        <ele>43</ele>
        <time>2021-02-06T14:38:57Z</time>
      </trkpt>
      <trkpt lat="47.46859" lon="-0.55856">
        <ele>41</ele>
        <time>2021-02-06T14:39:28Z</time>
      </trkpt>
      <trkpt lat="47.46859" lon="-0.55856">
        <ele>41</ele>
        <time>2021-02-06T14:39:28Z</time>
      </trkpt>
      <trkpt lat="47.4686" lon="-0.55855">
        <ele>41</ele>
        <time>2021-02-06T14:39:28Z</time>
      </trkpt>
      <trkpt lat="47.46861" lon="-0.55854">
        <ele>41</ele>
        <time>2021-02-06T14:39:29Z</time>
      </trkpt>
      <trkpt lat="47.46862" lon="-0.55854">
        <ele>41</ele>
        <time>2021-02-06T14:39:29Z</time>
      </trkpt>
      <trkpt lat="47.46863" lon="-0.55854">
        <ele>41</ele>
        <time>2021-02-06T14:39:29Z</time>
      </trkpt>
      <trkpt lat="47.46864" lon="-0.55854">
        <ele>41</ele>
        <time>2021-02-06T14:39:29Z</time>
      </trkpt>
      <trkpt lat="47.46864" lon="-0.55855">
        <ele>41</ele>
        <time>2021-02-06T14:39:29Z</time>
      </trkpt>
      <trkpt lat="47.46865" lon="-0.55855">
        <ele>41</ele>
        <time>2021-02-06T14:39:30Z</time>
      </trkpt>
      <trkpt lat="47.46865" lon="-0.55856">
        <ele>41</ele>
        <time>2021-02-06T14:39:30Z</time>
      </trkpt>
      <trkpt lat="47.46866" lon="-0.55856">
        <ele>41</ele>
        <time>2021-02-06T14:39:30Z</time>
      </trkpt>
      <trkpt lat="47.46866" lon="-0.55857">
        <ele>41</ele>
        <time>2021-02-06T14:39:30Z</time>
      </trkpt>
      <trkpt lat="47.46867" lon="-0.55857">
        <ele>41</ele>
        <time>2021-02-06T14:39:30Z</time>
      </trkpt>
      <trkpt lat="47.46867" lon="-0.55858">
        <ele>41</ele>
        <time>2021-02-06T14:39:30Z</time>
      </trkpt>
      <trkpt lat="47.46867" lon="-0.55859">
        <ele>41</ele>
        <time>2021-02-06T14:39:30Z</time>
      </trkpt>
      <trkpt lat="47.46867" lon="-0.5586">
        <ele>41</ele>
        <time>2021-02-06T14:39:30Z</time>
      </trkpt>
      <trkpt lat="47.46868" lon="-0.5586">
        <ele>41</ele>
        <time>2021-02-06T14:39:31Z</time>
      </trkpt>
      <trkpt lat="47.46868" lon="-0.55861">
        <ele>41</ele>
        <time>2021-02-06T14:39:31Z</time>
      </trkpt>
      <trkpt lat="47.46868" lon="-0.55862">
        <ele>41</ele>
        <time>2021-02-06T14:39:31Z</time>
      </trkpt>
      <trkpt lat="47.46868" lon="-0.55863">
        <ele>41</ele>
        <time>2021-02-06T14:39:31Z</time>
      </trkpt>
      <trkpt lat="47.46868" lon="-0.55864">
        <ele>41</ele>
        <time>2021-02-06T14:39:31Z</time>
      </trkpt>
      <trkpt lat="47.46867" lon="-0.55864">
        <ele>41</ele>
        <time>2021-02-06T14:39:31Z</time>
      </trkpt>
      <trkpt lat="47.46867" lon="-0.55865">
        <ele>41</ele>
        <time>2021-02-06T14:39:31Z</time>
      </trkpt>
      <trkpt lat="47.46867" lon="-0.55866">
        <ele>41</ele>
        <time>2021-02-06T14:39:32Z</time>
      </trkpt>
      <trkpt lat="47.46867" lon="-0.55867">
        <ele>41</ele>
        <time>2021-02-06T14:39:32Z</time>
      </trkpt>
      <trkpt lat="47.46866" lon="-0.55867">
        <ele>41</ele>
        <time>2021-02-06T14:39:32Z</time>
      </trkpt>
      <trkpt lat="47.46866" lon="-0.55868">
        <ele>41</ele>
        <time>2021-02-06T14:39:32Z</time>
      </trkpt>
      <trkpt lat="47.46865" lon="-0.55868">
        <ele>41</ele>
        <time>2021-02-06T14:39:32Z</time>
      </trkpt>
      <trkpt lat="47.46865" lon="-0.55869">
        <ele>41</ele>
        <time>2021-02-06T14:39:32Z</time>
      </trkpt>
      <trkpt lat="47.46864" lon="-0.55869">
        <ele>41</ele>
        <time>2021-02-06T14:39:32Z</time>
      </trkpt>
      <trkpt lat="47.46864" lon="-0.5587">
        <ele>41</ele>
        <time>2021-02-06T14:39:33Z</time>
      </trkpt>
      <trkpt lat="47.46869" lon="-0.55886">
        <ele>40</ele>
        <time>2021-02-06T14:39:35Z</time>
      </trkpt>
      <trkpt lat="47.46948" lon="-0.56087">
        <ele>36</ele>
        <time>2021-02-06T14:40:03Z</time>
      </trkpt>
      <trkpt lat="47.46956" lon="-0.561">
        <ele>36</ele>
        <time>2021-02-06T14:40:05Z</time>
      </trkpt>
      <trkpt lat="47.46959" lon="-0.56104">
        <ele>35</ele>
        <time>2021-02-06T14:40:05Z</time>
      </trkpt>
      <trkpt lat="47.4696" lon="-0.56106">
        <ele>35</ele>
        <time>2021-02-06T14:40:06Z</time>
      </trkpt>
      <trkpt lat="47.46962" lon="-0.5611">
        <ele>35</ele>
        <time>2021-02-06T14:40:06Z</time>
      </trkpt>
      <trkpt lat="47.46966" lon="-0.5612">
        <ele>34</ele>
        <time>2021-02-06T14:40:08Z</time>
      </trkpt>
      <trkpt lat="47.46983" lon="-0.56157">
        <ele>30</ele>
        <time>2021-02-06T14:40:13Z</time>
      </trkpt>
      <trkpt lat="47.46992" lon="-0.56179">
        <ele>27</ele>
        <time>2021-02-06T14:40:16Z</time>
      </trkpt>
      <trkpt lat="47.46992" lon="-0.56179">
        <ele>27</ele>
        <time>2021-02-06T14:40:16Z</time>
      </trkpt>
      <trkpt lat="47.47001" lon="-0.56177">
        <ele>26</ele>
        <time>2021-02-06T14:40:18Z</time>
      </trkpt>
      <trkpt lat="47.47005" lon="-0.56176">
        <ele>26</ele>
        <time>2021-02-06T14:40:19Z</time>
      </trkpt>
      <trkpt lat="47.47008" lon="-0.56176">
        <ele>25</ele>
        <time>2021-02-06T14:40:19Z</time>
      </trkpt>
      <trkpt lat="47.4701" lon="-0.56175">
        <ele>25</ele>
        <time>2021-02-06T14:40:20Z</time>
      </trkpt>
      <trkpt lat="47.47013" lon="-0.56174">
        <ele>25</ele>
        <time>2021-02-06T14:40:20Z</time>
      </trkpt>
      <trkpt lat="47.47015" lon="-0.56173">
        <ele>25</ele>
        <time>2021-02-06T14:40:20Z</time>
      </trkpt>
      <trkpt lat="47.47017" lon="-0.56171">
        <ele>24</ele>
        <time>2021-02-06T14:40:21Z</time>
      </trkpt>
      <trkpt lat="47.4702" lon="-0.56169">
        <ele>24</ele>
        <time>2021-02-06T14:40:21Z</time>
      </trkpt>
      <trkpt lat="47.47022" lon="-0.56166">
        <ele>24</ele>
        <time>2021-02-06T14:40:22Z</time>
      </trkpt>
      <trkpt lat="47.47025" lon="-0.56163">
        <ele>24</ele>
        <time>2021-02-06T14:40:23Z</time>
      </trkpt>
      <trkpt lat="47.47028" lon="-0.56157">
        <ele>24</ele>
        <time>2021-02-06T14:40:24Z</time>
      </trkpt>
      <trkpt lat="47.4705" lon="-0.56121">
        <ele>25</ele>
        <time>2021-02-06T14:40:29Z</time>
      </trkpt>
      <trkpt lat="47.4706" lon="-0.56105">
        <ele>25</ele>
        <time>2021-02-06T14:40:32Z</time>
      </trkpt>
      <trkpt lat="47.47072" lon="-0.56085">
        <ele>25</ele>
        <time>2021-02-06T14:40:35Z</time>
      </trkpt>
      <trkpt lat="47.47072" lon="-0.56085">
        <ele>25</ele>
        <time>2021-02-06T14:40:35Z</time>
      </trkpt>
      <trkpt lat="47.47076" lon="-0.56075">
        <ele>25</ele>
        <time>2021-02-06T14:40:37Z</time>
      </trkpt>
      <trkpt lat="47.4708" lon="-0.56067">
        <ele>26</ele>
        <time>2021-02-06T14:40:38Z</time>
      </trkpt>
      <trkpt lat="47.47085" lon="-0.56057">
        <ele>27</ele>
        <time>2021-02-06T14:40:39Z</time>
      </trkpt>
      <trkpt lat="47.47094" lon="-0.5604">
        <ele>28</ele>
        <time>2021-02-06T14:40:42Z</time>
      </trkpt>
      <trkpt lat="47.47137" lon="-0.5596">
        <ele>27</ele>
        <time>2021-02-06T14:40:54Z</time>
      </trkpt>
      <trkpt lat="47.47159" lon="-0.55919">
        <ele>23</ele>
        <time>2021-02-06T14:41:00Z</time>
      </trkpt>
      <trkpt lat="47.47185" lon="-0.55871">
        <ele>25</ele>
        <time>2021-02-06T14:41:08Z</time>
      </trkpt>
      <trkpt lat="47.47255" lon="-0.55751">
        <ele>20</ele>
        <time>2021-02-06T14:41:27Z</time>
      </trkpt>
    </trkseg>
  </trk>
</gpx>